<?xml version="1.0" encoding="UTF-8" standalone="no" ?>
<gpx xmlns="http://www.topografix.com/GPX/1/1" xmlns:xsi="http://www.w3.org/2001/XMLSchema-instance" xsi:schemaLocation="http://www.topografix.com/GPX/1/1 http://www.topografix.com/GPX/1/1/gpx.xsd" version="1.1" creator="VisuGPX - https://www.visugpx.com">
  <metadata>
    <name>En passant par Chazay </name>
  </metadata>
  <trk>
    <name><![CDATA[2023 04 11 reprise à d'œufs]]></name>
    <trkseg>
      <trkpt lat="45.83338" lon="4.70846">
        <ele>392.4649</ele>
        <time>2023-04-11T11:53:49.242Z</time>
      </trkpt>
      <trkpt lat="45.83337" lon="4.70834">
        <ele>386.96075</ele>
        <time>2023-04-11T11:53:51.000Z</time>
      </trkpt>
      <trkpt lat="45.83338" lon="4.7083">
        <ele>384.37167</ele>
        <time>2023-04-11T11:53:52.000Z</time>
      </trkpt>
      <trkpt lat="45.83339" lon="4.70827">
        <ele>383.34094</ele>
        <time>2023-04-11T11:53:53.000Z</time>
      </trkpt>
      <trkpt lat="45.83339" lon="4.70824">
        <ele>382.45419</ele>
        <time>2023-04-11T11:53:54.000Z</time>
      </trkpt>
      <trkpt lat="45.83339" lon="4.70821">
        <ele>381.13098</ele>
        <time>2023-04-11T11:53:55.000Z</time>
      </trkpt>
      <trkpt lat="45.83339" lon="4.70817">
        <ele>379.84637</ele>
        <time>2023-04-11T11:53:56.000Z</time>
      </trkpt>
      <trkpt lat="45.83339" lon="4.70814">
        <ele>378.82959</ele>
        <time>2023-04-11T11:53:57.000Z</time>
      </trkpt>
      <trkpt lat="45.8334" lon="4.70811">
        <ele>378.07007</ele>
        <time>2023-04-11T11:53:58.000Z</time>
      </trkpt>
      <trkpt lat="45.8334" lon="4.70807">
        <ele>377.46338</ele>
        <time>2023-04-11T11:53:59.000Z</time>
      </trkpt>
      <trkpt lat="45.83341" lon="4.70803">
        <ele>376.92654</ele>
        <time>2023-04-11T11:54:00.000Z</time>
      </trkpt>
      <trkpt lat="45.83341" lon="4.70799">
        <ele>376.46204</ele>
        <time>2023-04-11T11:54:01.000Z</time>
      </trkpt>
      <trkpt lat="45.83342" lon="4.70795">
        <ele>376.07352</ele>
        <time>2023-04-11T11:54:02.000Z</time>
      </trkpt>
      <trkpt lat="45.83342" lon="4.70791">
        <ele>375.73236</ele>
        <time>2023-04-11T11:54:03.000Z</time>
      </trkpt>
      <trkpt lat="45.83342" lon="4.70787">
        <ele>375.41696</ele>
        <time>2023-04-11T11:54:04.000Z</time>
      </trkpt>
      <trkpt lat="45.83343" lon="4.70783">
        <ele>374.89136</ele>
        <time>2023-04-11T11:54:05.000Z</time>
      </trkpt>
      <trkpt lat="45.83343" lon="4.70778">
        <ele>374.55634</ele>
        <time>2023-04-11T11:54:06.000Z</time>
      </trkpt>
      <trkpt lat="45.83343" lon="4.70774">
        <ele>374.27237</ele>
        <time>2023-04-11T11:54:07.000Z</time>
      </trkpt>
      <trkpt lat="45.83343" lon="4.7077">
        <ele>374.02625</ele>
        <time>2023-04-11T11:54:08.000Z</time>
      </trkpt>
      <trkpt lat="45.83343" lon="4.70766">
        <ele>373.83524</ele>
        <time>2023-04-11T11:54:09.000Z</time>
      </trkpt>
      <trkpt lat="45.83344" lon="4.70762">
        <ele>372.73318</ele>
        <time>2023-04-11T11:54:10.000Z</time>
      </trkpt>
      <trkpt lat="45.83344" lon="4.70758">
        <ele>372.17572</ele>
        <time>2023-04-11T11:54:11.000Z</time>
      </trkpt>
      <trkpt lat="45.83344" lon="4.70754">
        <ele>371.76474</ele>
        <time>2023-04-11T11:54:12.000Z</time>
      </trkpt>
      <trkpt lat="45.83344" lon="4.7075">
        <ele>371.2746</ele>
        <time>2023-04-11T11:54:13.000Z</time>
      </trkpt>
      <trkpt lat="45.83345" lon="4.70746">
        <ele>370.8266</ele>
        <time>2023-04-11T11:54:14.000Z</time>
      </trkpt>
      <trkpt lat="45.83346" lon="4.70742">
        <ele>370.56613</ele>
        <time>2023-04-11T11:54:15.000Z</time>
      </trkpt>
      <trkpt lat="45.83346" lon="4.70738">
        <ele>370.42529</ele>
        <time>2023-04-11T11:54:16.000Z</time>
      </trkpt>
      <trkpt lat="45.83346" lon="4.70734">
        <ele>370.30533</ele>
        <time>2023-04-11T11:54:17.000Z</time>
      </trkpt>
      <trkpt lat="45.83346" lon="4.7073">
        <ele>370.14188</ele>
        <time>2023-04-11T11:54:18.000Z</time>
      </trkpt>
      <trkpt lat="45.83346" lon="4.70727">
        <ele>369.96039</ele>
        <time>2023-04-11T11:54:19.000Z</time>
      </trkpt>
      <trkpt lat="45.83346" lon="4.70724">
        <ele>369.77689</ele>
        <time>2023-04-11T11:54:20.000Z</time>
      </trkpt>
      <trkpt lat="45.83343" lon="4.70723">
        <ele>369.60971</ele>
        <time>2023-04-11T11:54:22.000Z</time>
      </trkpt>
      <trkpt lat="45.83342" lon="4.70727">
        <ele>369.46982</ele>
        <time>2023-04-11T11:54:23.000Z</time>
      </trkpt>
      <trkpt lat="45.83342" lon="4.70731">
        <ele>369.33646</ele>
        <time>2023-04-11T11:54:24.000Z</time>
      </trkpt>
      <trkpt lat="45.83343" lon="4.70735">
        <ele>369.21274</ele>
        <time>2023-04-11T11:54:25.000Z</time>
      </trkpt>
      <trkpt lat="45.83343" lon="4.70739">
        <ele>369.29037</ele>
        <time>2023-04-11T11:54:26.000Z</time>
      </trkpt>
      <trkpt lat="45.83342" lon="4.70744">
        <ele>369.22882</ele>
        <time>2023-04-11T11:54:27.000Z</time>
      </trkpt>
      <trkpt lat="45.83342" lon="4.70748">
        <ele>369.18402</ele>
        <time>2023-04-11T11:54:28.000Z</time>
      </trkpt>
      <trkpt lat="45.83341" lon="4.70753">
        <ele>369.14096</ele>
        <time>2023-04-11T11:54:29.000Z</time>
      </trkpt>
      <trkpt lat="45.83341" lon="4.70759">
        <ele>369.08649</ele>
        <time>2023-04-11T11:54:30.000Z</time>
      </trkpt>
      <trkpt lat="45.83341" lon="4.70765">
        <ele>368.9899</ele>
        <time>2023-04-11T11:54:31.000Z</time>
      </trkpt>
      <trkpt lat="45.83341" lon="4.7077">
        <ele>369.06339</ele>
        <time>2023-04-11T11:54:32.000Z</time>
      </trkpt>
      <trkpt lat="45.8334" lon="4.70775">
        <ele>369.08405</ele>
        <time>2023-04-11T11:54:33.000Z</time>
      </trkpt>
      <trkpt lat="45.8334" lon="4.70781">
        <ele>369.14157</ele>
        <time>2023-04-11T11:54:34.000Z</time>
      </trkpt>
      <trkpt lat="45.8334" lon="4.70786">
        <ele>369.20538</ele>
        <time>2023-04-11T11:54:35.000Z</time>
      </trkpt>
      <trkpt lat="45.8334" lon="4.70791">
        <ele>369.33221</ele>
        <time>2023-04-11T11:54:36.000Z</time>
      </trkpt>
      <trkpt lat="45.8334" lon="4.70797">
        <ele>369.45999</ele>
        <time>2023-04-11T11:54:37.000Z</time>
      </trkpt>
      <trkpt lat="45.8334" lon="4.70802">
        <ele>369.27344</ele>
        <time>2023-04-11T11:54:38.000Z</time>
      </trkpt>
      <trkpt lat="45.8334" lon="4.70808">
        <ele>369.16351</ele>
        <time>2023-04-11T11:54:39.000Z</time>
      </trkpt>
      <trkpt lat="45.83339" lon="4.70813">
        <ele>369.07748</ele>
        <time>2023-04-11T11:54:40.000Z</time>
      </trkpt>
      <trkpt lat="45.83338" lon="4.70819">
        <ele>369.01236</ele>
        <time>2023-04-11T11:54:41.000Z</time>
      </trkpt>
      <trkpt lat="45.83338" lon="4.70824">
        <ele>368.96442</ele>
        <time>2023-04-11T11:54:42.000Z</time>
      </trkpt>
      <trkpt lat="45.83338" lon="4.70828">
        <ele>368.9024</ele>
        <time>2023-04-11T11:54:43.000Z</time>
      </trkpt>
      <trkpt lat="45.83337" lon="4.70833">
        <ele>368.8407</ele>
        <time>2023-04-11T11:54:44.000Z</time>
      </trkpt>
      <trkpt lat="45.83337" lon="4.70838">
        <ele>368.78436</ele>
        <time>2023-04-11T11:54:45.000Z</time>
      </trkpt>
      <trkpt lat="45.83336" lon="4.70843">
        <ele>368.74133</ele>
        <time>2023-04-11T11:54:46.000Z</time>
      </trkpt>
      <trkpt lat="45.83336" lon="4.70848">
        <ele>368.71902</ele>
        <time>2023-04-11T11:54:47.000Z</time>
      </trkpt>
      <trkpt lat="45.83335" lon="4.70854">
        <ele>368.68457</ele>
        <time>2023-04-11T11:54:48.000Z</time>
      </trkpt>
      <trkpt lat="45.83334" lon="4.70859">
        <ele>368.59555</ele>
        <time>2023-04-11T11:54:49.000Z</time>
      </trkpt>
      <trkpt lat="45.83334" lon="4.70865">
        <ele>368.49646</ele>
        <time>2023-04-11T11:54:50.000Z</time>
      </trkpt>
      <trkpt lat="45.83334" lon="4.70865">
        <ele>368.49646</ele>
        <time>2023-04-11T11:54:50.000Z</time>
      </trkpt>
      <trkpt lat="45.83334" lon="4.70857">
        <ele>367.99457</ele>
        <time>2023-04-11T11:57:04.000Z</time>
      </trkpt>
      <trkpt lat="45.83334" lon="4.70857">
        <ele>367.99457</ele>
        <time>2023-04-11T11:57:04.000Z</time>
      </trkpt>
      <trkpt lat="45.83334" lon="4.70853">
        <ele>367.32025</ele>
        <time>2023-04-11T11:57:05.000Z</time>
      </trkpt>
      <trkpt lat="45.83335" lon="4.70849">
        <ele>366.67334</ele>
        <time>2023-04-11T11:57:06.000Z</time>
      </trkpt>
      <trkpt lat="45.83335" lon="4.70846">
        <ele>366.01959</ele>
        <time>2023-04-11T11:57:07.000Z</time>
      </trkpt>
      <trkpt lat="45.83336" lon="4.70842">
        <ele>365.39276</ele>
        <time>2023-04-11T11:57:08.000Z</time>
      </trkpt>
      <trkpt lat="45.83336" lon="4.70838">
        <ele>364.7439</ele>
        <time>2023-04-11T11:57:09.000Z</time>
      </trkpt>
      <trkpt lat="45.83337" lon="4.70834">
        <ele>364.08673</ele>
        <time>2023-04-11T11:57:10.000Z</time>
      </trkpt>
      <trkpt lat="45.83337" lon="4.7083">
        <ele>363.73419</ele>
        <time>2023-04-11T11:57:11.000Z</time>
      </trkpt>
      <trkpt lat="45.83338" lon="4.70826">
        <ele>363.33893</ele>
        <time>2023-04-11T11:57:12.000Z</time>
      </trkpt>
      <trkpt lat="45.83338" lon="4.70822">
        <ele>362.97614</ele>
        <time>2023-04-11T11:57:13.000Z</time>
      </trkpt>
      <trkpt lat="45.83339" lon="4.70818">
        <ele>362.64951</ele>
        <time>2023-04-11T11:57:14.000Z</time>
      </trkpt>
      <trkpt lat="45.83339" lon="4.70813">
        <ele>362.28589</ele>
        <time>2023-04-11T11:57:15.000Z</time>
      </trkpt>
      <trkpt lat="45.8334" lon="4.70809">
        <ele>361.90756</ele>
        <time>2023-04-11T11:57:16.000Z</time>
      </trkpt>
      <trkpt lat="45.8334" lon="4.70805">
        <ele>361.52377</ele>
        <time>2023-04-11T11:57:17.000Z</time>
      </trkpt>
      <trkpt lat="45.83341" lon="4.70801">
        <ele>361.1188</ele>
        <time>2023-04-11T11:57:18.000Z</time>
      </trkpt>
      <trkpt lat="45.83341" lon="4.70797">
        <ele>360.68954</ele>
        <time>2023-04-11T11:57:19.000Z</time>
      </trkpt>
      <trkpt lat="45.83342" lon="4.70793">
        <ele>360.27255</ele>
        <time>2023-04-11T11:57:20.000Z</time>
      </trkpt>
      <trkpt lat="45.83342" lon="4.70789">
        <ele>359.84454</ele>
        <time>2023-04-11T11:57:21.000Z</time>
      </trkpt>
      <trkpt lat="45.83342" lon="4.70784">
        <ele>359.45163</ele>
        <time>2023-04-11T11:57:22.000Z</time>
      </trkpt>
      <trkpt lat="45.83342" lon="4.7078">
        <ele>359.06122</ele>
        <time>2023-04-11T11:57:23.000Z</time>
      </trkpt>
      <trkpt lat="45.83343" lon="4.70776">
        <ele>359.12018</ele>
        <time>2023-04-11T11:57:24.000Z</time>
      </trkpt>
      <trkpt lat="45.83343" lon="4.70772">
        <ele>359.19196</ele>
        <time>2023-04-11T11:57:25.000Z</time>
      </trkpt>
      <trkpt lat="45.83343" lon="4.70768">
        <ele>359.28067</ele>
        <time>2023-04-11T11:57:26.000Z</time>
      </trkpt>
      <trkpt lat="45.83343" lon="4.70764">
        <ele>359.3782</ele>
        <time>2023-04-11T11:57:27.000Z</time>
      </trkpt>
      <trkpt lat="45.83343" lon="4.7076">
        <ele>359.46524</ele>
        <time>2023-04-11T11:57:28.000Z</time>
      </trkpt>
      <trkpt lat="45.83344" lon="4.70757">
        <ele>359.55246</ele>
        <time>2023-04-11T11:57:29.000Z</time>
      </trkpt>
      <trkpt lat="45.83344" lon="4.70753">
        <ele>359.66138</ele>
        <time>2023-04-11T11:57:30.000Z</time>
      </trkpt>
      <trkpt lat="45.83345" lon="4.70748">
        <ele>359.7547</ele>
        <time>2023-04-11T11:57:31.000Z</time>
      </trkpt>
      <trkpt lat="45.83345" lon="4.70744">
        <ele>359.85858</ele>
        <time>2023-04-11T11:57:32.000Z</time>
      </trkpt>
      <trkpt lat="45.83345" lon="4.70741">
        <ele>359.94443</ele>
        <time>2023-04-11T11:57:33.000Z</time>
      </trkpt>
      <trkpt lat="45.83344" lon="4.70738">
        <ele>360.03564</ele>
        <time>2023-04-11T11:57:34.000Z</time>
      </trkpt>
      <trkpt lat="45.83343" lon="4.70734">
        <ele>360.16254</ele>
        <time>2023-04-11T11:57:35.000Z</time>
      </trkpt>
      <trkpt lat="45.83343" lon="4.70729">
        <ele>360.31604</ele>
        <time>2023-04-11T11:57:36.000Z</time>
      </trkpt>
      <trkpt lat="45.83343" lon="4.70724">
        <ele>360.46231</ele>
        <time>2023-04-11T11:57:37.000Z</time>
      </trkpt>
      <trkpt lat="45.83343" lon="4.70719">
        <ele>360.63226</ele>
        <time>2023-04-11T11:57:38.000Z</time>
      </trkpt>
      <trkpt lat="45.83344" lon="4.70715">
        <ele>360.80432</ele>
        <time>2023-04-11T11:57:39.000Z</time>
      </trkpt>
      <trkpt lat="45.83344" lon="4.7071">
        <ele>361.00223</ele>
        <time>2023-04-11T11:57:40.000Z</time>
      </trkpt>
      <trkpt lat="45.83345" lon="4.70706">
        <ele>361.17899</ele>
        <time>2023-04-11T11:57:41.000Z</time>
      </trkpt>
      <trkpt lat="45.83345" lon="4.70702">
        <ele>361.39877</ele>
        <time>2023-04-11T11:57:42.000Z</time>
      </trkpt>
      <trkpt lat="45.83345" lon="4.70697">
        <ele>361.60059</ele>
        <time>2023-04-11T11:57:43.000Z</time>
      </trkpt>
      <trkpt lat="45.83346" lon="4.70692">
        <ele>361.79922</ele>
        <time>2023-04-11T11:57:44.000Z</time>
      </trkpt>
      <trkpt lat="45.83346" lon="4.70687">
        <ele>361.95416</ele>
        <time>2023-04-11T11:57:45.000Z</time>
      </trkpt>
      <trkpt lat="45.83347" lon="4.70682">
        <ele>362.07538</ele>
        <time>2023-04-11T11:57:46.000Z</time>
      </trkpt>
      <trkpt lat="45.83347" lon="4.70676">
        <ele>362.17194</ele>
        <time>2023-04-11T11:57:47.000Z</time>
      </trkpt>
      <trkpt lat="45.83348" lon="4.7067">
        <ele>362.27344</ele>
        <time>2023-04-11T11:57:48.000Z</time>
      </trkpt>
      <trkpt lat="45.83349" lon="4.70664">
        <ele>362.34653</ele>
        <time>2023-04-11T11:57:49.000Z</time>
      </trkpt>
      <trkpt lat="45.83349" lon="4.70657">
        <ele>362.36172</ele>
        <time>2023-04-11T11:57:50.000Z</time>
      </trkpt>
      <trkpt lat="45.8335" lon="4.70649">
        <ele>362.37961</ele>
        <time>2023-04-11T11:57:51.000Z</time>
      </trkpt>
      <trkpt lat="45.83351" lon="4.70642">
        <ele>362.36951</ele>
        <time>2023-04-11T11:57:52.000Z</time>
      </trkpt>
      <trkpt lat="45.83352" lon="4.70635">
        <ele>362.31662</ele>
        <time>2023-04-11T11:57:53.000Z</time>
      </trkpt>
      <trkpt lat="45.83351" lon="4.70628">
        <ele>362.22107</ele>
        <time>2023-04-11T11:57:54.000Z</time>
      </trkpt>
      <trkpt lat="45.8335" lon="4.7062">
        <ele>361.61728</ele>
        <time>2023-04-11T11:57:55.000Z</time>
      </trkpt>
      <trkpt lat="45.83348" lon="4.70613">
        <ele>360.9689</ele>
        <time>2023-04-11T11:57:56.000Z</time>
      </trkpt>
      <trkpt lat="45.83348" lon="4.70607">
        <ele>360.30634</ele>
        <time>2023-04-11T11:57:57.000Z</time>
      </trkpt>
      <trkpt lat="45.83348" lon="4.706">
        <ele>359.64203</ele>
        <time>2023-04-11T11:57:58.000Z</time>
      </trkpt>
      <trkpt lat="45.83347" lon="4.70593">
        <ele>359.19507</ele>
        <time>2023-04-11T11:57:59.000Z</time>
      </trkpt>
      <trkpt lat="45.83347" lon="4.70586">
        <ele>358.68454</ele>
        <time>2023-04-11T11:58:00.000Z</time>
      </trkpt>
      <trkpt lat="45.83347" lon="4.70579">
        <ele>358.18341</ele>
        <time>2023-04-11T11:58:01.000Z</time>
      </trkpt>
      <trkpt lat="45.83347" lon="4.70573">
        <ele>357.61646</ele>
        <time>2023-04-11T11:58:02.000Z</time>
      </trkpt>
      <trkpt lat="45.83346" lon="4.70567">
        <ele>357.05292</ele>
        <time>2023-04-11T11:58:03.000Z</time>
      </trkpt>
      <trkpt lat="45.83346" lon="4.7056">
        <ele>356.49289</ele>
        <time>2023-04-11T11:58:04.000Z</time>
      </trkpt>
      <trkpt lat="45.83345" lon="4.70554">
        <ele>355.8519</ele>
        <time>2023-04-11T11:58:05.000Z</time>
      </trkpt>
      <trkpt lat="45.83345" lon="4.70548">
        <ele>355.62152</ele>
        <time>2023-04-11T11:58:06.000Z</time>
      </trkpt>
      <trkpt lat="45.83344" lon="4.70541">
        <ele>355.41141</ele>
        <time>2023-04-11T11:58:07.000Z</time>
      </trkpt>
      <trkpt lat="45.83343" lon="4.70535">
        <ele>355.1564</ele>
        <time>2023-04-11T11:58:08.000Z</time>
      </trkpt>
      <trkpt lat="45.83343" lon="4.70528">
        <ele>354.91357</ele>
        <time>2023-04-11T11:58:09.000Z</time>
      </trkpt>
      <trkpt lat="45.83343" lon="4.70521">
        <ele>354.71933</ele>
        <time>2023-04-11T11:58:10.000Z</time>
      </trkpt>
      <trkpt lat="45.83343" lon="4.70515">
        <ele>354.53864</ele>
        <time>2023-04-11T11:58:11.000Z</time>
      </trkpt>
      <trkpt lat="45.83341" lon="4.70508">
        <ele>354.39853</ele>
        <time>2023-04-11T11:58:12.000Z</time>
      </trkpt>
      <trkpt lat="45.8334" lon="4.70502">
        <ele>354.28973</ele>
        <time>2023-04-11T11:58:13.000Z</time>
      </trkpt>
      <trkpt lat="45.8334" lon="4.70495">
        <ele>354.24634</ele>
        <time>2023-04-11T11:58:14.000Z</time>
      </trkpt>
      <trkpt lat="45.8334" lon="4.70487">
        <ele>354.66006</ele>
        <time>2023-04-11T11:58:15.000Z</time>
      </trkpt>
      <trkpt lat="45.83339" lon="4.70482">
        <ele>355.1308</ele>
        <time>2023-04-11T11:58:16.000Z</time>
      </trkpt>
      <trkpt lat="45.83339" lon="4.70476">
        <ele>355.64502</ele>
        <time>2023-04-11T11:58:17.000Z</time>
      </trkpt>
      <trkpt lat="45.83338" lon="4.70471">
        <ele>356.14722</ele>
        <time>2023-04-11T11:58:18.000Z</time>
      </trkpt>
      <trkpt lat="45.83338" lon="4.70465">
        <ele>356.46661</ele>
        <time>2023-04-11T11:58:19.000Z</time>
      </trkpt>
      <trkpt lat="45.83339" lon="4.70461">
        <ele>356.80658</ele>
        <time>2023-04-11T11:58:20.000Z</time>
      </trkpt>
      <trkpt lat="45.83338" lon="4.70456">
        <ele>357.16995</ele>
        <time>2023-04-11T11:58:21.000Z</time>
      </trkpt>
      <trkpt lat="45.83338" lon="4.70452">
        <ele>357.57123</ele>
        <time>2023-04-11T11:58:22.000Z</time>
      </trkpt>
      <trkpt lat="45.83336" lon="4.70448">
        <ele>357.44366</ele>
        <time>2023-04-11T11:58:23.000Z</time>
      </trkpt>
      <trkpt lat="45.83336" lon="4.70443">
        <ele>357.52374</ele>
        <time>2023-04-11T11:58:24.000Z</time>
      </trkpt>
      <trkpt lat="45.83334" lon="4.70438">
        <ele>357.61197</ele>
        <time>2023-04-11T11:58:25.000Z</time>
      </trkpt>
      <trkpt lat="45.83333" lon="4.70433">
        <ele>357.29337</ele>
        <time>2023-04-11T11:58:26.000Z</time>
      </trkpt>
      <trkpt lat="45.83332" lon="4.70428">
        <ele>356.90384</ele>
        <time>2023-04-11T11:58:27.000Z</time>
      </trkpt>
      <trkpt lat="45.83331" lon="4.70422">
        <ele>356.99753</ele>
        <time>2023-04-11T11:58:28.000Z</time>
      </trkpt>
      <trkpt lat="45.8333" lon="4.70417">
        <ele>357.04358</ele>
        <time>2023-04-11T11:58:29.000Z</time>
      </trkpt>
      <trkpt lat="45.8333" lon="4.70411">
        <ele>357.06583</ele>
        <time>2023-04-11T11:58:30.000Z</time>
      </trkpt>
      <trkpt lat="45.83329" lon="4.70405">
        <ele>357.12073</ele>
        <time>2023-04-11T11:58:31.000Z</time>
      </trkpt>
      <trkpt lat="45.83328" lon="4.70399">
        <ele>357.15094</ele>
        <time>2023-04-11T11:58:32.000Z</time>
      </trkpt>
      <trkpt lat="45.83327" lon="4.70392">
        <ele>357.19183</ele>
        <time>2023-04-11T11:58:33.000Z</time>
      </trkpt>
      <trkpt lat="45.83326" lon="4.70386">
        <ele>357.17798</ele>
        <time>2023-04-11T11:58:34.000Z</time>
      </trkpt>
      <trkpt lat="45.83325" lon="4.7038">
        <ele>357.22333</ele>
        <time>2023-04-11T11:58:35.000Z</time>
      </trkpt>
      <trkpt lat="45.83324" lon="4.70371">
        <ele>357.18878</ele>
        <time>2023-04-11T11:58:36.000Z</time>
      </trkpt>
      <trkpt lat="45.83324" lon="4.70366">
        <ele>357.12436</ele>
        <time>2023-04-11T11:58:37.000Z</time>
      </trkpt>
      <trkpt lat="45.83323" lon="4.7036">
        <ele>357.07364</ele>
        <time>2023-04-11T11:58:38.000Z</time>
      </trkpt>
      <trkpt lat="45.83323" lon="4.70355">
        <ele>356.99789</ele>
        <time>2023-04-11T11:58:39.000Z</time>
      </trkpt>
      <trkpt lat="45.83323" lon="4.7035">
        <ele>356.93893</ele>
        <time>2023-04-11T11:58:40.000Z</time>
      </trkpt>
      <trkpt lat="45.83322" lon="4.70344">
        <ele>356.86334</ele>
        <time>2023-04-11T11:58:41.000Z</time>
      </trkpt>
      <trkpt lat="45.83321" lon="4.7034">
        <ele>356.80133</ele>
        <time>2023-04-11T11:58:42.000Z</time>
      </trkpt>
      <trkpt lat="45.8332" lon="4.70338">
        <ele>357.29507</ele>
        <time>2023-04-11T11:58:43.000Z</time>
      </trkpt>
      <trkpt lat="45.83318" lon="4.70335">
        <ele>357.57562</ele>
        <time>2023-04-11T11:58:44.000Z</time>
      </trkpt>
      <trkpt lat="45.83318" lon="4.70332">
        <ele>357.97357</ele>
        <time>2023-04-11T11:58:46.000Z</time>
      </trkpt>
      <trkpt lat="45.83318" lon="4.70335">
        <ele>358.31256</ele>
        <time>2023-04-11T11:58:49.000Z</time>
      </trkpt>
      <trkpt lat="45.83318" lon="4.70338">
        <ele>358.90988</ele>
        <time>2023-04-11T11:59:11.000Z</time>
      </trkpt>
      <trkpt lat="45.83319" lon="4.70334">
        <ele>359.08524</ele>
        <time>2023-04-11T11:59:59.000Z</time>
      </trkpt>
      <trkpt lat="45.83319" lon="4.70331">
        <ele>359.32904</ele>
        <time>2023-04-11T12:00:00.000Z</time>
      </trkpt>
      <trkpt lat="45.8332" lon="4.70328">
        <ele>359.57321</ele>
        <time>2023-04-11T12:00:01.000Z</time>
      </trkpt>
      <trkpt lat="45.83321" lon="4.70324">
        <ele>359.79333</ele>
        <time>2023-04-11T12:00:02.000Z</time>
      </trkpt>
      <trkpt lat="45.83323" lon="4.70319">
        <ele>360.00143</ele>
        <time>2023-04-11T12:00:03.000Z</time>
      </trkpt>
      <trkpt lat="45.83324" lon="4.70314">
        <ele>360.17709</ele>
        <time>2023-04-11T12:00:04.000Z</time>
      </trkpt>
      <trkpt lat="45.83326" lon="4.7031">
        <ele>360.36386</ele>
        <time>2023-04-11T12:00:05.000Z</time>
      </trkpt>
      <trkpt lat="45.83329" lon="4.70305">
        <ele>360.51218</ele>
        <time>2023-04-11T12:00:06.000Z</time>
      </trkpt>
      <trkpt lat="45.8333" lon="4.70299">
        <ele>360.6842</ele>
        <time>2023-04-11T12:00:07.000Z</time>
      </trkpt>
      <trkpt lat="45.83332" lon="4.70294">
        <ele>360.88223</ele>
        <time>2023-04-11T12:00:08.000Z</time>
      </trkpt>
      <trkpt lat="45.83333" lon="4.70288">
        <ele>361.14932</ele>
        <time>2023-04-11T12:00:09.000Z</time>
      </trkpt>
      <trkpt lat="45.83335" lon="4.70283">
        <ele>361.4068</ele>
        <time>2023-04-11T12:00:10.000Z</time>
      </trkpt>
      <trkpt lat="45.83337" lon="4.70277">
        <ele>361.64786</ele>
        <time>2023-04-11T12:00:11.000Z</time>
      </trkpt>
      <trkpt lat="45.83339" lon="4.70271">
        <ele>361.92816</ele>
        <time>2023-04-11T12:00:12.000Z</time>
      </trkpt>
      <trkpt lat="45.83341" lon="4.70265">
        <ele>362.0867</ele>
        <time>2023-04-11T12:00:13.000Z</time>
      </trkpt>
      <trkpt lat="45.83344" lon="4.7026">
        <ele>362.22305</ele>
        <time>2023-04-11T12:00:14.000Z</time>
      </trkpt>
      <trkpt lat="45.83346" lon="4.70254">
        <ele>362.34128</ele>
        <time>2023-04-11T12:00:15.000Z</time>
      </trkpt>
      <trkpt lat="45.83347" lon="4.70249">
        <ele>362.51904</ele>
        <time>2023-04-11T12:00:16.000Z</time>
      </trkpt>
      <trkpt lat="45.83349" lon="4.70243">
        <ele>362.76184</ele>
        <time>2023-04-11T12:00:17.000Z</time>
      </trkpt>
      <trkpt lat="45.83352" lon="4.70237">
        <ele>362.81689</ele>
        <time>2023-04-11T12:00:18.000Z</time>
      </trkpt>
      <trkpt lat="45.83355" lon="4.70231">
        <ele>362.85614</ele>
        <time>2023-04-11T12:00:19.000Z</time>
      </trkpt>
      <trkpt lat="45.83357" lon="4.70225">
        <ele>362.84879</ele>
        <time>2023-04-11T12:00:20.000Z</time>
      </trkpt>
      <trkpt lat="45.83359" lon="4.70218">
        <ele>362.84503</ele>
        <time>2023-04-11T12:00:21.000Z</time>
      </trkpt>
      <trkpt lat="45.83362" lon="4.70212">
        <ele>362.66043</ele>
        <time>2023-04-11T12:00:22.000Z</time>
      </trkpt>
      <trkpt lat="45.83364" lon="4.70205">
        <ele>362.48871</ele>
        <time>2023-04-11T12:00:23.000Z</time>
      </trkpt>
      <trkpt lat="45.83366" lon="4.70199">
        <ele>362.31104</ele>
        <time>2023-04-11T12:00:24.000Z</time>
      </trkpt>
      <trkpt lat="45.83368" lon="4.70192">
        <ele>362.10757</ele>
        <time>2023-04-11T12:00:25.000Z</time>
      </trkpt>
      <trkpt lat="45.8337" lon="4.70185">
        <ele>362.07581</ele>
        <time>2023-04-11T12:00:26.000Z</time>
      </trkpt>
      <trkpt lat="45.83372" lon="4.70179">
        <ele>362.05316</ele>
        <time>2023-04-11T12:00:27.000Z</time>
      </trkpt>
      <trkpt lat="45.83373" lon="4.70172">
        <ele>362.04385</ele>
        <time>2023-04-11T12:00:28.000Z</time>
      </trkpt>
      <trkpt lat="45.83375" lon="4.70167">
        <ele>361.99545</ele>
        <time>2023-04-11T12:00:29.000Z</time>
      </trkpt>
      <trkpt lat="45.83378" lon="4.70162">
        <ele>361.91553</ele>
        <time>2023-04-11T12:00:30.000Z</time>
      </trkpt>
      <trkpt lat="45.8338" lon="4.7016">
        <ele>361.80814</ele>
        <time>2023-04-11T12:00:31.000Z</time>
      </trkpt>
      <trkpt lat="45.83381" lon="4.70155">
        <ele>361.65778</ele>
        <time>2023-04-11T12:00:56.000Z</time>
      </trkpt>
      <trkpt lat="45.83381" lon="4.70151">
        <ele>361.5921</ele>
        <time>2023-04-11T12:00:57.000Z</time>
      </trkpt>
      <trkpt lat="45.83381" lon="4.70148">
        <ele>361.50488</ele>
        <time>2023-04-11T12:00:58.000Z</time>
      </trkpt>
      <trkpt lat="45.83382" lon="4.70144">
        <ele>361.40646</ele>
        <time>2023-04-11T12:00:59.000Z</time>
      </trkpt>
      <trkpt lat="45.83383" lon="4.7014">
        <ele>361.24164</ele>
        <time>2023-04-11T12:01:00.000Z</time>
      </trkpt>
      <trkpt lat="45.83384" lon="4.70135">
        <ele>361.07333</ele>
        <time>2023-04-11T12:01:01.000Z</time>
      </trkpt>
      <trkpt lat="45.83385" lon="4.7013">
        <ele>360.88492</ele>
        <time>2023-04-11T12:01:02.000Z</time>
      </trkpt>
      <trkpt lat="45.83387" lon="4.70125">
        <ele>360.69522</ele>
        <time>2023-04-11T12:01:03.000Z</time>
      </trkpt>
      <trkpt lat="45.83388" lon="4.7012">
        <ele>360.53137</ele>
        <time>2023-04-11T12:01:04.000Z</time>
      </trkpt>
      <trkpt lat="45.83389" lon="4.70114">
        <ele>360.38297</ele>
        <time>2023-04-11T12:01:05.000Z</time>
      </trkpt>
      <trkpt lat="45.8339" lon="4.70108">
        <ele>360.42764</ele>
        <time>2023-04-11T12:01:06.000Z</time>
      </trkpt>
      <trkpt lat="45.83392" lon="4.70102">
        <ele>360.43207</ele>
        <time>2023-04-11T12:01:07.000Z</time>
      </trkpt>
      <trkpt lat="45.83393" lon="4.70095">
        <ele>360.45895</ele>
        <time>2023-04-11T12:01:08.000Z</time>
      </trkpt>
      <trkpt lat="45.83394" lon="4.70087">
        <ele>360.4191</ele>
        <time>2023-04-11T12:01:09.000Z</time>
      </trkpt>
      <trkpt lat="45.83394" lon="4.7008">
        <ele>360.21405</ele>
        <time>2023-04-11T12:01:10.000Z</time>
      </trkpt>
      <trkpt lat="45.83395" lon="4.70072">
        <ele>360.00522</ele>
        <time>2023-04-11T12:01:11.000Z</time>
      </trkpt>
      <trkpt lat="45.83395" lon="4.70064">
        <ele>359.78214</ele>
        <time>2023-04-11T12:01:12.000Z</time>
      </trkpt>
      <trkpt lat="45.83396" lon="4.70057">
        <ele>359.50204</ele>
        <time>2023-04-11T12:01:13.000Z</time>
      </trkpt>
      <trkpt lat="45.83397" lon="4.70048">
        <ele>359.25864</ele>
        <time>2023-04-11T12:01:14.000Z</time>
      </trkpt>
      <trkpt lat="45.83397" lon="4.70039">
        <ele>359.04355</ele>
        <time>2023-04-11T12:01:15.000Z</time>
      </trkpt>
      <trkpt lat="45.83398" lon="4.7003">
        <ele>358.8526</ele>
        <time>2023-04-11T12:01:16.000Z</time>
      </trkpt>
      <trkpt lat="45.83399" lon="4.70021">
        <ele>358.94391</ele>
        <time>2023-04-11T12:01:17.000Z</time>
      </trkpt>
      <trkpt lat="45.83399" lon="4.70012">
        <ele>358.83853</ele>
        <time>2023-04-11T12:01:18.000Z</time>
      </trkpt>
      <trkpt lat="45.834" lon="4.70003">
        <ele>358.72705</ele>
        <time>2023-04-11T12:01:19.000Z</time>
      </trkpt>
      <trkpt lat="45.834" lon="4.69994">
        <ele>358.7131</ele>
        <time>2023-04-11T12:01:20.000Z</time>
      </trkpt>
      <trkpt lat="45.83401" lon="4.69985">
        <ele>358.69739</ele>
        <time>2023-04-11T12:01:21.000Z</time>
      </trkpt>
      <trkpt lat="45.83402" lon="4.69975">
        <ele>358.66769</ele>
        <time>2023-04-11T12:01:22.000Z</time>
      </trkpt>
      <trkpt lat="45.83403" lon="4.69965">
        <ele>358.60794</ele>
        <time>2023-04-11T12:01:23.000Z</time>
      </trkpt>
      <trkpt lat="45.83404" lon="4.69956">
        <ele>358.54108</ele>
        <time>2023-04-11T12:01:24.000Z</time>
      </trkpt>
      <trkpt lat="45.83406" lon="4.69946">
        <ele>358.46674</ele>
        <time>2023-04-11T12:01:25.000Z</time>
      </trkpt>
      <trkpt lat="45.83407" lon="4.69937">
        <ele>358.43762</ele>
        <time>2023-04-11T12:01:26.000Z</time>
      </trkpt>
      <trkpt lat="45.83406" lon="4.69928">
        <ele>358.23096</ele>
        <time>2023-04-11T12:01:27.000Z</time>
      </trkpt>
      <trkpt lat="45.83403" lon="4.6992">
        <ele>358.06836</ele>
        <time>2023-04-11T12:01:28.000Z</time>
      </trkpt>
      <trkpt lat="45.834" lon="4.69913">
        <ele>358.01218</ele>
        <time>2023-04-11T12:01:29.000Z</time>
      </trkpt>
      <trkpt lat="45.83397" lon="4.69907">
        <ele>357.76465</ele>
        <time>2023-04-11T12:01:30.000Z</time>
      </trkpt>
      <trkpt lat="45.83394" lon="4.69902">
        <ele>357.59796</ele>
        <time>2023-04-11T12:01:31.000Z</time>
      </trkpt>
      <trkpt lat="45.83392" lon="4.69895">
        <ele>357.43649</ele>
        <time>2023-04-11T12:01:32.000Z</time>
      </trkpt>
      <trkpt lat="45.8339" lon="4.69889">
        <ele>357.31668</ele>
        <time>2023-04-11T12:01:33.000Z</time>
      </trkpt>
      <trkpt lat="45.8339" lon="4.69884">
        <ele>357.20648</ele>
        <time>2023-04-11T12:01:34.000Z</time>
      </trkpt>
      <trkpt lat="45.8339" lon="4.69878">
        <ele>357.117</ele>
        <time>2023-04-11T12:01:35.000Z</time>
      </trkpt>
      <trkpt lat="45.83391" lon="4.69874">
        <ele>357.00165</ele>
        <time>2023-04-11T12:01:36.000Z</time>
      </trkpt>
      <trkpt lat="45.83391" lon="4.6987">
        <ele>356.85748</ele>
        <time>2023-04-11T12:01:37.000Z</time>
      </trkpt>
      <trkpt lat="45.83392" lon="4.69866">
        <ele>356.8895</ele>
        <time>2023-04-11T12:01:38.000Z</time>
      </trkpt>
      <trkpt lat="45.83392" lon="4.69864">
        <ele>356.93985</ele>
        <time>2023-04-11T12:01:39.000Z</time>
      </trkpt>
      <trkpt lat="45.83395" lon="4.69863">
        <ele>356.7489</ele>
        <time>2023-04-11T12:01:41.000Z</time>
      </trkpt>
      <trkpt lat="45.83398" lon="4.69862">
        <ele>356.57376</ele>
        <time>2023-04-11T12:01:43.000Z</time>
      </trkpt>
      <trkpt lat="45.83399" lon="4.69861">
        <ele>356.47656</ele>
        <time>2023-04-11T12:01:44.000Z</time>
      </trkpt>
      <trkpt lat="45.83401" lon="4.69858">
        <ele>356.36365</ele>
        <time>2023-04-11T12:01:45.000Z</time>
      </trkpt>
      <trkpt lat="45.83402" lon="4.69854">
        <ele>356.2211</ele>
        <time>2023-04-11T12:01:46.000Z</time>
      </trkpt>
      <trkpt lat="45.83402" lon="4.69849">
        <ele>356.17703</ele>
        <time>2023-04-11T12:01:47.000Z</time>
      </trkpt>
      <trkpt lat="45.834" lon="4.69844">
        <ele>356.0603</ele>
        <time>2023-04-11T12:01:48.000Z</time>
      </trkpt>
      <trkpt lat="45.83397" lon="4.6984">
        <ele>356.14304</ele>
        <time>2023-04-11T12:01:49.000Z</time>
      </trkpt>
      <trkpt lat="45.83393" lon="4.69834">
        <ele>356.16846</ele>
        <time>2023-04-11T12:01:50.000Z</time>
      </trkpt>
      <trkpt lat="45.83392" lon="4.69828">
        <ele>356.18015</ele>
        <time>2023-04-11T12:01:51.000Z</time>
      </trkpt>
      <trkpt lat="45.8339" lon="4.6982">
        <ele>356.38461</ele>
        <time>2023-04-11T12:01:52.000Z</time>
      </trkpt>
      <trkpt lat="45.83389" lon="4.69814">
        <ele>356.56696</ele>
        <time>2023-04-11T12:01:53.000Z</time>
      </trkpt>
      <trkpt lat="45.83387" lon="4.69807">
        <ele>356.75037</ele>
        <time>2023-04-11T12:01:54.000Z</time>
      </trkpt>
      <trkpt lat="45.83386" lon="4.69802">
        <ele>356.72952</ele>
        <time>2023-04-11T12:01:55.000Z</time>
      </trkpt>
      <trkpt lat="45.83385" lon="4.69796">
        <ele>356.75543</ele>
        <time>2023-04-11T12:01:56.000Z</time>
      </trkpt>
      <trkpt lat="45.83383" lon="4.69788">
        <ele>356.75705</ele>
        <time>2023-04-11T12:01:57.000Z</time>
      </trkpt>
      <trkpt lat="45.83382" lon="4.69782">
        <ele>356.75116</ele>
        <time>2023-04-11T12:01:58.000Z</time>
      </trkpt>
      <trkpt lat="45.83381" lon="4.69775">
        <ele>356.49112</ele>
        <time>2023-04-11T12:01:59.000Z</time>
      </trkpt>
      <trkpt lat="45.8338" lon="4.69768">
        <ele>356.27353</ele>
        <time>2023-04-11T12:02:00.000Z</time>
      </trkpt>
      <trkpt lat="45.83378" lon="4.69761">
        <ele>356.07202</ele>
        <time>2023-04-11T12:02:01.000Z</time>
      </trkpt>
      <trkpt lat="45.83376" lon="4.69754">
        <ele>356.01263</ele>
        <time>2023-04-11T12:02:02.000Z</time>
      </trkpt>
      <trkpt lat="45.83375" lon="4.69746">
        <ele>355.93463</ele>
        <time>2023-04-11T12:02:03.000Z</time>
      </trkpt>
      <trkpt lat="45.83373" lon="4.69739">
        <ele>355.80328</ele>
        <time>2023-04-11T12:02:04.000Z</time>
      </trkpt>
      <trkpt lat="45.83372" lon="4.69732">
        <ele>355.69269</ele>
        <time>2023-04-11T12:02:05.000Z</time>
      </trkpt>
      <trkpt lat="45.8337" lon="4.69724">
        <ele>355.63486</ele>
        <time>2023-04-11T12:02:06.000Z</time>
      </trkpt>
      <trkpt lat="45.83368" lon="4.69718">
        <ele>355.61935</ele>
        <time>2023-04-11T12:02:07.000Z</time>
      </trkpt>
      <trkpt lat="45.83367" lon="4.6971">
        <ele>355.57025</ele>
        <time>2023-04-11T12:02:08.000Z</time>
      </trkpt>
      <trkpt lat="45.83365" lon="4.69702">
        <ele>355.49438</ele>
        <time>2023-04-11T12:02:09.000Z</time>
      </trkpt>
      <trkpt lat="45.83364" lon="4.69695">
        <ele>355.52032</ele>
        <time>2023-04-11T12:02:10.000Z</time>
      </trkpt>
      <trkpt lat="45.83362" lon="4.69689">
        <ele>355.51993</ele>
        <time>2023-04-11T12:02:11.000Z</time>
      </trkpt>
      <trkpt lat="45.83361" lon="4.69681">
        <ele>355.53384</ele>
        <time>2023-04-11T12:02:12.000Z</time>
      </trkpt>
      <trkpt lat="45.8336" lon="4.69675">
        <ele>355.56943</ele>
        <time>2023-04-11T12:02:13.000Z</time>
      </trkpt>
      <trkpt lat="45.83359" lon="4.69667">
        <ele>355.63724</ele>
        <time>2023-04-11T12:02:14.000Z</time>
      </trkpt>
      <trkpt lat="45.83358" lon="4.69661">
        <ele>355.92371</ele>
        <time>2023-04-11T12:02:15.000Z</time>
      </trkpt>
      <trkpt lat="45.83357" lon="4.69653">
        <ele>355.90469</ele>
        <time>2023-04-11T12:02:16.000Z</time>
      </trkpt>
      <trkpt lat="45.83356" lon="4.69646">
        <ele>355.92001</ele>
        <time>2023-04-11T12:02:17.000Z</time>
      </trkpt>
      <trkpt lat="45.83355" lon="4.69638">
        <ele>355.93011</ele>
        <time>2023-04-11T12:02:18.000Z</time>
      </trkpt>
      <trkpt lat="45.83353" lon="4.69631">
        <ele>355.9733</ele>
        <time>2023-04-11T12:02:19.000Z</time>
      </trkpt>
      <trkpt lat="45.83352" lon="4.69624">
        <ele>356.02515</ele>
        <time>2023-04-11T12:02:20.000Z</time>
      </trkpt>
      <trkpt lat="45.83351" lon="4.69618">
        <ele>356.05673</ele>
        <time>2023-04-11T12:02:21.000Z</time>
      </trkpt>
      <trkpt lat="45.8335" lon="4.69612">
        <ele>356.09515</ele>
        <time>2023-04-11T12:02:22.000Z</time>
      </trkpt>
      <trkpt lat="45.83348" lon="4.69605">
        <ele>356.14923</ele>
        <time>2023-04-11T12:02:23.000Z</time>
      </trkpt>
      <trkpt lat="45.83347" lon="4.69598">
        <ele>356.19489</ele>
        <time>2023-04-11T12:02:24.000Z</time>
      </trkpt>
      <trkpt lat="45.83345" lon="4.69592">
        <ele>356.4325</ele>
        <time>2023-04-11T12:02:25.000Z</time>
      </trkpt>
      <trkpt lat="45.83344" lon="4.69586">
        <ele>356.44604</ele>
        <time>2023-04-11T12:02:26.000Z</time>
      </trkpt>
      <trkpt lat="45.83344" lon="4.6958">
        <ele>356.32196</ele>
        <time>2023-04-11T12:02:27.000Z</time>
      </trkpt>
      <trkpt lat="45.83343" lon="4.69574">
        <ele>356.23792</ele>
        <time>2023-04-11T12:02:28.000Z</time>
      </trkpt>
      <trkpt lat="45.83341" lon="4.69567">
        <ele>356.2204</ele>
        <time>2023-04-11T12:02:29.000Z</time>
      </trkpt>
      <trkpt lat="45.8334" lon="4.6956">
        <ele>356.22418</ele>
        <time>2023-04-11T12:02:30.000Z</time>
      </trkpt>
      <trkpt lat="45.8334" lon="4.69554">
        <ele>356.24924</ele>
        <time>2023-04-11T12:02:31.000Z</time>
      </trkpt>
      <trkpt lat="45.83339" lon="4.69547">
        <ele>356.29843</ele>
        <time>2023-04-11T12:02:32.000Z</time>
      </trkpt>
      <trkpt lat="45.83338" lon="4.69539">
        <ele>356.08286</ele>
        <time>2023-04-11T12:02:33.000Z</time>
      </trkpt>
      <trkpt lat="45.83339" lon="4.69533">
        <ele>355.84708</ele>
        <time>2023-04-11T12:02:34.000Z</time>
      </trkpt>
      <trkpt lat="45.83338" lon="4.69526">
        <ele>355.57645</ele>
        <time>2023-04-11T12:02:35.000Z</time>
      </trkpt>
      <trkpt lat="45.83338" lon="4.69519">
        <ele>355.5473</ele>
        <time>2023-04-11T12:02:36.000Z</time>
      </trkpt>
      <trkpt lat="45.83338" lon="4.69513">
        <ele>355.49612</ele>
        <time>2023-04-11T12:02:37.000Z</time>
      </trkpt>
      <trkpt lat="45.83337" lon="4.69507">
        <ele>355.44833</ele>
        <time>2023-04-11T12:02:38.000Z</time>
      </trkpt>
      <trkpt lat="45.83336" lon="4.695">
        <ele>355.40817</ele>
        <time>2023-04-11T12:02:39.000Z</time>
      </trkpt>
      <trkpt lat="45.83336" lon="4.69494">
        <ele>355.35236</ele>
        <time>2023-04-11T12:02:40.000Z</time>
      </trkpt>
      <trkpt lat="45.83335" lon="4.69487">
        <ele>355.46027</ele>
        <time>2023-04-11T12:02:41.000Z</time>
      </trkpt>
      <trkpt lat="45.83335" lon="4.69479">
        <ele>355.51056</ele>
        <time>2023-04-11T12:02:42.000Z</time>
      </trkpt>
      <trkpt lat="45.83335" lon="4.69472">
        <ele>355.51855</ele>
        <time>2023-04-11T12:02:43.000Z</time>
      </trkpt>
      <trkpt lat="45.83336" lon="4.69465">
        <ele>355.57053</ele>
        <time>2023-04-11T12:02:44.000Z</time>
      </trkpt>
      <trkpt lat="45.83336" lon="4.69458">
        <ele>355.45474</ele>
        <time>2023-04-11T12:02:45.000Z</time>
      </trkpt>
      <trkpt lat="45.83336" lon="4.69452">
        <ele>355.54608</ele>
        <time>2023-04-11T12:02:46.000Z</time>
      </trkpt>
      <trkpt lat="45.83337" lon="4.69445">
        <ele>355.6373</ele>
        <time>2023-04-11T12:02:47.000Z</time>
      </trkpt>
      <trkpt lat="45.83338" lon="4.69439">
        <ele>355.73267</ele>
        <time>2023-04-11T12:02:48.000Z</time>
      </trkpt>
      <trkpt lat="45.83339" lon="4.69432">
        <ele>355.79175</ele>
        <time>2023-04-11T12:02:49.000Z</time>
      </trkpt>
      <trkpt lat="45.8334" lon="4.69425">
        <ele>355.75909</ele>
        <time>2023-04-11T12:02:50.000Z</time>
      </trkpt>
      <trkpt lat="45.8334" lon="4.69418">
        <ele>355.70804</ele>
        <time>2023-04-11T12:02:51.000Z</time>
      </trkpt>
      <trkpt lat="45.83341" lon="4.69412">
        <ele>355.61737</ele>
        <time>2023-04-11T12:02:52.000Z</time>
      </trkpt>
      <trkpt lat="45.83343" lon="4.69405">
        <ele>355.83154</ele>
        <time>2023-04-11T12:02:53.000Z</time>
      </trkpt>
      <trkpt lat="45.83344" lon="4.69399">
        <ele>356.08951</ele>
        <time>2023-04-11T12:02:54.000Z</time>
      </trkpt>
      <trkpt lat="45.83345" lon="4.69393">
        <ele>356.22989</ele>
        <time>2023-04-11T12:02:55.000Z</time>
      </trkpt>
      <trkpt lat="45.83346" lon="4.69386">
        <ele>356.37033</ele>
        <time>2023-04-11T12:02:56.000Z</time>
      </trkpt>
      <trkpt lat="45.83346" lon="4.6938">
        <ele>356.56244</ele>
        <time>2023-04-11T12:02:57.000Z</time>
      </trkpt>
      <trkpt lat="45.83348" lon="4.69373">
        <ele>356.56186</ele>
        <time>2023-04-11T12:02:58.000Z</time>
      </trkpt>
      <trkpt lat="45.83349" lon="4.69367">
        <ele>356.59711</ele>
        <time>2023-04-11T12:02:59.000Z</time>
      </trkpt>
      <trkpt lat="45.83349" lon="4.6936">
        <ele>356.64526</ele>
        <time>2023-04-11T12:03:00.000Z</time>
      </trkpt>
      <trkpt lat="45.8335" lon="4.69352">
        <ele>356.84869</ele>
        <time>2023-04-11T12:03:01.000Z</time>
      </trkpt>
      <trkpt lat="45.83351" lon="4.69345">
        <ele>356.87445</ele>
        <time>2023-04-11T12:03:02.000Z</time>
      </trkpt>
      <trkpt lat="45.83351" lon="4.69338">
        <ele>356.97659</ele>
        <time>2023-04-11T12:03:03.000Z</time>
      </trkpt>
      <trkpt lat="45.83352" lon="4.69331">
        <ele>357.03534</ele>
        <time>2023-04-11T12:03:04.000Z</time>
      </trkpt>
      <trkpt lat="45.83352" lon="4.69324">
        <ele>357.10141</ele>
        <time>2023-04-11T12:03:05.000Z</time>
      </trkpt>
      <trkpt lat="45.83352" lon="4.69318">
        <ele>357.25781</ele>
        <time>2023-04-11T12:03:06.000Z</time>
      </trkpt>
      <trkpt lat="45.83352" lon="4.69312">
        <ele>357.41043</ele>
        <time>2023-04-11T12:03:07.000Z</time>
      </trkpt>
      <trkpt lat="45.83353" lon="4.69305">
        <ele>357.58115</ele>
        <time>2023-04-11T12:03:08.000Z</time>
      </trkpt>
      <trkpt lat="45.83352" lon="4.69299">
        <ele>357.79034</ele>
        <time>2023-04-11T12:03:09.000Z</time>
      </trkpt>
      <trkpt lat="45.83353" lon="4.69292">
        <ele>358.00705</ele>
        <time>2023-04-11T12:03:10.000Z</time>
      </trkpt>
      <trkpt lat="45.83354" lon="4.69287">
        <ele>358.26715</ele>
        <time>2023-04-11T12:03:11.000Z</time>
      </trkpt>
      <trkpt lat="45.83354" lon="4.6928">
        <ele>358.53027</ele>
        <time>2023-04-11T12:03:12.000Z</time>
      </trkpt>
      <trkpt lat="45.83355" lon="4.69274">
        <ele>358.47955</ele>
        <time>2023-04-11T12:03:13.000Z</time>
      </trkpt>
      <trkpt lat="45.83355" lon="4.69269">
        <ele>358.35446</ele>
        <time>2023-04-11T12:03:14.000Z</time>
      </trkpt>
      <trkpt lat="45.83355" lon="4.69263">
        <ele>358.37305</ele>
        <time>2023-04-11T12:03:15.000Z</time>
      </trkpt>
      <trkpt lat="45.83356" lon="4.69257">
        <ele>358.38052</ele>
        <time>2023-04-11T12:03:16.000Z</time>
      </trkpt>
      <trkpt lat="45.83357" lon="4.69251">
        <ele>358.34412</ele>
        <time>2023-04-11T12:03:17.000Z</time>
      </trkpt>
      <trkpt lat="45.83357" lon="4.69245">
        <ele>358.60419</ele>
        <time>2023-04-11T12:03:18.000Z</time>
      </trkpt>
      <trkpt lat="45.83358" lon="4.6924">
        <ele>358.8078</ele>
        <time>2023-04-11T12:03:19.000Z</time>
      </trkpt>
      <trkpt lat="45.83358" lon="4.69235">
        <ele>358.99146</ele>
        <time>2023-04-11T12:03:20.000Z</time>
      </trkpt>
      <trkpt lat="45.83359" lon="4.69229">
        <ele>358.88501</ele>
        <time>2023-04-11T12:03:21.000Z</time>
      </trkpt>
      <trkpt lat="45.83359" lon="4.69222">
        <ele>359.01169</ele>
        <time>2023-04-11T12:03:22.000Z</time>
      </trkpt>
      <trkpt lat="45.83359" lon="4.69217">
        <ele>359.10712</ele>
        <time>2023-04-11T12:03:23.000Z</time>
      </trkpt>
      <trkpt lat="45.8336" lon="4.6921">
        <ele>359.21695</ele>
        <time>2023-04-11T12:03:24.000Z</time>
      </trkpt>
      <trkpt lat="45.83361" lon="4.69204">
        <ele>359.26669</ele>
        <time>2023-04-11T12:03:25.000Z</time>
      </trkpt>
      <trkpt lat="45.83361" lon="4.69199">
        <ele>359.24222</ele>
        <time>2023-04-11T12:03:26.000Z</time>
      </trkpt>
      <trkpt lat="45.83362" lon="4.69193">
        <ele>359.26715</ele>
        <time>2023-04-11T12:03:27.000Z</time>
      </trkpt>
      <trkpt lat="45.83363" lon="4.69188">
        <ele>359.29654</ele>
        <time>2023-04-11T12:03:28.000Z</time>
      </trkpt>
      <trkpt lat="45.83365" lon="4.6918">
        <ele>359.28986</ele>
        <time>2023-04-11T12:03:29.000Z</time>
      </trkpt>
      <trkpt lat="45.83365" lon="4.69174">
        <ele>359.22525</ele>
        <time>2023-04-11T12:03:30.000Z</time>
      </trkpt>
      <trkpt lat="45.83365" lon="4.69167">
        <ele>359.14948</ele>
        <time>2023-04-11T12:03:31.000Z</time>
      </trkpt>
      <trkpt lat="45.83365" lon="4.69161">
        <ele>358.50385</ele>
        <time>2023-04-11T12:03:32.000Z</time>
      </trkpt>
      <trkpt lat="45.83366" lon="4.69154">
        <ele>358.05841</ele>
        <time>2023-04-11T12:03:33.000Z</time>
      </trkpt>
      <trkpt lat="45.83367" lon="4.69147">
        <ele>357.95917</ele>
        <time>2023-04-11T12:03:34.000Z</time>
      </trkpt>
      <trkpt lat="45.83368" lon="4.69139">
        <ele>357.81512</ele>
        <time>2023-04-11T12:03:35.000Z</time>
      </trkpt>
      <trkpt lat="45.83368" lon="4.69131">
        <ele>357.6882</ele>
        <time>2023-04-11T12:03:36.000Z</time>
      </trkpt>
      <trkpt lat="45.83368" lon="4.69123">
        <ele>357.63989</ele>
        <time>2023-04-11T12:03:37.000Z</time>
      </trkpt>
      <trkpt lat="45.83369" lon="4.69115">
        <ele>357.56116</ele>
        <time>2023-04-11T12:03:38.000Z</time>
      </trkpt>
      <trkpt lat="45.8337" lon="4.69108">
        <ele>357.47885</ele>
        <time>2023-04-11T12:03:39.000Z</time>
      </trkpt>
      <trkpt lat="45.83371" lon="4.69099">
        <ele>357.14758</ele>
        <time>2023-04-11T12:03:40.000Z</time>
      </trkpt>
      <trkpt lat="45.83372" lon="4.6909">
        <ele>356.83466</ele>
        <time>2023-04-11T12:03:41.000Z</time>
      </trkpt>
      <trkpt lat="45.83374" lon="4.69081">
        <ele>356.47433</ele>
        <time>2023-04-11T12:03:42.000Z</time>
      </trkpt>
      <trkpt lat="45.83376" lon="4.69074">
        <ele>356.09525</ele>
        <time>2023-04-11T12:03:43.000Z</time>
      </trkpt>
      <trkpt lat="45.83379" lon="4.69067">
        <ele>355.75076</ele>
        <time>2023-04-11T12:03:44.000Z</time>
      </trkpt>
      <trkpt lat="45.83381" lon="4.69059">
        <ele>355.42889</ele>
        <time>2023-04-11T12:03:45.000Z</time>
      </trkpt>
      <trkpt lat="45.83384" lon="4.69049">
        <ele>355.1579</ele>
        <time>2023-04-11T12:03:46.000Z</time>
      </trkpt>
      <trkpt lat="45.83388" lon="4.6904">
        <ele>354.81577</ele>
        <time>2023-04-11T12:03:47.000Z</time>
      </trkpt>
      <trkpt lat="45.83393" lon="4.69033">
        <ele>354.37445</ele>
        <time>2023-04-11T12:03:48.000Z</time>
      </trkpt>
      <trkpt lat="45.83397" lon="4.69023">
        <ele>353.89758</ele>
        <time>2023-04-11T12:03:49.000Z</time>
      </trkpt>
      <trkpt lat="45.834" lon="4.69015">
        <ele>353.33276</ele>
        <time>2023-04-11T12:03:50.000Z</time>
      </trkpt>
      <trkpt lat="45.83402" lon="4.69004">
        <ele>352.86252</ele>
        <time>2023-04-11T12:03:51.000Z</time>
      </trkpt>
      <trkpt lat="45.83404" lon="4.68995">
        <ele>352.94992</ele>
        <time>2023-04-11T12:03:52.000Z</time>
      </trkpt>
      <trkpt lat="45.83407" lon="4.68983">
        <ele>353.02356</ele>
        <time>2023-04-11T12:03:53.000Z</time>
      </trkpt>
      <trkpt lat="45.8341" lon="4.68974">
        <ele>352.72134</ele>
        <time>2023-04-11T12:03:54.000Z</time>
      </trkpt>
      <trkpt lat="45.83413" lon="4.68965">
        <ele>352.39124</ele>
        <time>2023-04-11T12:03:55.000Z</time>
      </trkpt>
      <trkpt lat="45.83416" lon="4.68956">
        <ele>352.07919</ele>
        <time>2023-04-11T12:03:56.000Z</time>
      </trkpt>
      <trkpt lat="45.83418" lon="4.68947">
        <ele>351.67691</ele>
        <time>2023-04-11T12:03:57.000Z</time>
      </trkpt>
      <trkpt lat="45.83421" lon="4.68937">
        <ele>351.22397</ele>
        <time>2023-04-11T12:03:58.000Z</time>
      </trkpt>
      <trkpt lat="45.83424" lon="4.68928">
        <ele>350.73135</ele>
        <time>2023-04-11T12:03:59.000Z</time>
      </trkpt>
      <trkpt lat="45.83424" lon="4.68921">
        <ele>350.46967</ele>
        <time>2023-04-11T12:04:00.000Z</time>
      </trkpt>
      <trkpt lat="45.83424" lon="4.68914">
        <ele>350.16141</ele>
        <time>2023-04-11T12:04:01.000Z</time>
      </trkpt>
      <trkpt lat="45.83421" lon="4.68906">
        <ele>349.87448</ele>
        <time>2023-04-11T12:04:02.000Z</time>
      </trkpt>
      <trkpt lat="45.83419" lon="4.68896">
        <ele>349.6329</ele>
        <time>2023-04-11T12:04:03.000Z</time>
      </trkpt>
      <trkpt lat="45.83417" lon="4.68888">
        <ele>349.38754</ele>
        <time>2023-04-11T12:04:04.000Z</time>
      </trkpt>
      <trkpt lat="45.83417" lon="4.68881">
        <ele>349.12021</ele>
        <time>2023-04-11T12:04:05.000Z</time>
      </trkpt>
      <trkpt lat="45.83414" lon="4.68872">
        <ele>348.37933</ele>
        <time>2023-04-11T12:04:06.000Z</time>
      </trkpt>
      <trkpt lat="45.83411" lon="4.68861">
        <ele>347.71075</ele>
        <time>2023-04-11T12:04:07.000Z</time>
      </trkpt>
      <trkpt lat="45.83409" lon="4.68853">
        <ele>347.13751</ele>
        <time>2023-04-11T12:04:08.000Z</time>
      </trkpt>
      <trkpt lat="45.83407" lon="4.68843">
        <ele>346.59</ele>
        <time>2023-04-11T12:04:09.000Z</time>
      </trkpt>
      <trkpt lat="45.83405" lon="4.68836">
        <ele>346.15372</ele>
        <time>2023-04-11T12:04:10.000Z</time>
      </trkpt>
      <trkpt lat="45.83403" lon="4.68829">
        <ele>345.60385</ele>
        <time>2023-04-11T12:04:11.000Z</time>
      </trkpt>
      <trkpt lat="45.83402" lon="4.68821">
        <ele>345.11249</ele>
        <time>2023-04-11T12:04:12.000Z</time>
      </trkpt>
      <trkpt lat="45.83401" lon="4.68816">
        <ele>344.92105</ele>
        <time>2023-04-11T12:04:13.000Z</time>
      </trkpt>
      <trkpt lat="45.834" lon="4.6881">
        <ele>344.81531</ele>
        <time>2023-04-11T12:04:14.000Z</time>
      </trkpt>
      <trkpt lat="45.83398" lon="4.68805">
        <ele>344.32983</ele>
        <time>2023-04-11T12:04:15.000Z</time>
      </trkpt>
      <trkpt lat="45.83396" lon="4.688">
        <ele>343.87881</ele>
        <time>2023-04-11T12:04:16.000Z</time>
      </trkpt>
      <trkpt lat="45.83395" lon="4.68795">
        <ele>343.4838</ele>
        <time>2023-04-11T12:04:17.000Z</time>
      </trkpt>
      <trkpt lat="45.83393" lon="4.6879">
        <ele>343.08417</ele>
        <time>2023-04-11T12:04:18.000Z</time>
      </trkpt>
      <trkpt lat="45.83392" lon="4.68783">
        <ele>342.69928</ele>
        <time>2023-04-11T12:04:19.000Z</time>
      </trkpt>
      <trkpt lat="45.83391" lon="4.68779">
        <ele>342.3519</ele>
        <time>2023-04-11T12:04:20.000Z</time>
      </trkpt>
      <trkpt lat="45.8339" lon="4.68776">
        <ele>341.99359</ele>
        <time>2023-04-11T12:04:21.000Z</time>
      </trkpt>
      <trkpt lat="45.83388" lon="4.68772">
        <ele>341.63898</ele>
        <time>2023-04-11T12:04:22.000Z</time>
      </trkpt>
      <trkpt lat="45.83386" lon="4.68769">
        <ele>341.25211</ele>
        <time>2023-04-11T12:04:23.000Z</time>
      </trkpt>
      <trkpt lat="45.83384" lon="4.68765">
        <ele>340.83539</ele>
        <time>2023-04-11T12:04:24.000Z</time>
      </trkpt>
      <trkpt lat="45.83383" lon="4.68762">
        <ele>340.45667</ele>
        <time>2023-04-11T12:04:25.000Z</time>
      </trkpt>
      <trkpt lat="45.83381" lon="4.68758">
        <ele>340.51071</ele>
        <time>2023-04-11T12:04:26.000Z</time>
      </trkpt>
      <trkpt lat="45.83379" lon="4.68755">
        <ele>340.5307</ele>
        <time>2023-04-11T12:04:27.000Z</time>
      </trkpt>
      <trkpt lat="45.83378" lon="4.68751">
        <ele>340.54492</ele>
        <time>2023-04-11T12:04:28.000Z</time>
      </trkpt>
      <trkpt lat="45.83377" lon="4.68748">
        <ele>340.58868</ele>
        <time>2023-04-11T12:04:29.000Z</time>
      </trkpt>
      <trkpt lat="45.83376" lon="4.68744">
        <ele>340.68124</ele>
        <time>2023-04-11T12:04:30.000Z</time>
      </trkpt>
      <trkpt lat="45.83374" lon="4.68741">
        <ele>340.758</ele>
        <time>2023-04-11T12:04:31.000Z</time>
      </trkpt>
      <trkpt lat="45.83372" lon="4.68738">
        <ele>340.67343</ele>
        <time>2023-04-11T12:04:32.000Z</time>
      </trkpt>
      <trkpt lat="45.83371" lon="4.68735">
        <ele>340.47482</ele>
        <time>2023-04-11T12:04:33.000Z</time>
      </trkpt>
      <trkpt lat="45.83369" lon="4.68731">
        <ele>340.23691</ele>
        <time>2023-04-11T12:04:34.000Z</time>
      </trkpt>
      <trkpt lat="45.83368" lon="4.68728">
        <ele>340.44653</ele>
        <time>2023-04-11T12:04:35.000Z</time>
      </trkpt>
      <trkpt lat="45.83366" lon="4.68725">
        <ele>340.69382</ele>
        <time>2023-04-11T12:04:36.000Z</time>
      </trkpt>
      <trkpt lat="45.83364" lon="4.68721">
        <ele>340.87286</ele>
        <time>2023-04-11T12:04:37.000Z</time>
      </trkpt>
      <trkpt lat="45.83362" lon="4.68718">
        <ele>341.10962</ele>
        <time>2023-04-11T12:04:38.000Z</time>
      </trkpt>
      <trkpt lat="45.8336" lon="4.68715">
        <ele>341.37524</ele>
        <time>2023-04-11T12:04:39.000Z</time>
      </trkpt>
      <trkpt lat="45.83359" lon="4.68712">
        <ele>341.24051</ele>
        <time>2023-04-11T12:04:40.000Z</time>
      </trkpt>
      <trkpt lat="45.83358" lon="4.68708">
        <ele>341.23886</ele>
        <time>2023-04-11T12:04:41.000Z</time>
      </trkpt>
      <trkpt lat="45.83357" lon="4.68705">
        <ele>341.19702</ele>
        <time>2023-04-11T12:04:42.000Z</time>
      </trkpt>
      <trkpt lat="45.83355" lon="4.68702">
        <ele>341.17316</ele>
        <time>2023-04-11T12:04:43.000Z</time>
      </trkpt>
      <trkpt lat="45.83353" lon="4.687">
        <ele>341.14453</ele>
        <time>2023-04-11T12:04:44.000Z</time>
      </trkpt>
      <trkpt lat="45.83352" lon="4.68697">
        <ele>341.1236</ele>
        <time>2023-04-11T12:04:45.000Z</time>
      </trkpt>
      <trkpt lat="45.83351" lon="4.68694">
        <ele>341.12906</ele>
        <time>2023-04-11T12:04:46.000Z</time>
      </trkpt>
      <trkpt lat="45.83349" lon="4.68691">
        <ele>341.12607</ele>
        <time>2023-04-11T12:04:47.000Z</time>
      </trkpt>
      <trkpt lat="45.8335" lon="4.68689">
        <ele>341.09421</ele>
        <time>2023-04-11T12:04:56.000Z</time>
      </trkpt>
      <trkpt lat="45.83346" lon="4.68686">
        <ele>341.03619</ele>
        <time>2023-04-11T12:05:07.000Z</time>
      </trkpt>
      <trkpt lat="45.83344" lon="4.68684">
        <ele>340.95428</ele>
        <time>2023-04-11T12:05:08.000Z</time>
      </trkpt>
      <trkpt lat="45.83343" lon="4.68681">
        <ele>340.88312</ele>
        <time>2023-04-11T12:05:09.000Z</time>
      </trkpt>
      <trkpt lat="45.83341" lon="4.68678">
        <ele>340.91644</ele>
        <time>2023-04-11T12:05:10.000Z</time>
      </trkpt>
      <trkpt lat="45.8334" lon="4.68674">
        <ele>340.77213</ele>
        <time>2023-04-11T12:05:11.000Z</time>
      </trkpt>
      <trkpt lat="45.83338" lon="4.6867">
        <ele>340.63071</ele>
        <time>2023-04-11T12:05:12.000Z</time>
      </trkpt>
      <trkpt lat="45.83337" lon="4.68667">
        <ele>340.48032</ele>
        <time>2023-04-11T12:05:13.000Z</time>
      </trkpt>
      <trkpt lat="45.83335" lon="4.68663">
        <ele>340.25061</ele>
        <time>2023-04-11T12:05:14.000Z</time>
      </trkpt>
      <trkpt lat="45.83334" lon="4.6866">
        <ele>340.37628</ele>
        <time>2023-04-11T12:05:15.000Z</time>
      </trkpt>
      <trkpt lat="45.83333" lon="4.68656">
        <ele>340.20782</ele>
        <time>2023-04-11T12:05:16.000Z</time>
      </trkpt>
      <trkpt lat="45.83332" lon="4.68652">
        <ele>340.04535</ele>
        <time>2023-04-11T12:05:17.000Z</time>
      </trkpt>
      <trkpt lat="45.83331" lon="4.68648">
        <ele>340.27045</ele>
        <time>2023-04-11T12:05:18.000Z</time>
      </trkpt>
      <trkpt lat="45.8333" lon="4.68644">
        <ele>340.40631</ele>
        <time>2023-04-11T12:05:19.000Z</time>
      </trkpt>
      <trkpt lat="45.83329" lon="4.68639">
        <ele>340.60492</ele>
        <time>2023-04-11T12:05:20.000Z</time>
      </trkpt>
      <trkpt lat="45.83328" lon="4.68635">
        <ele>340.7594</ele>
        <time>2023-04-11T12:05:21.000Z</time>
      </trkpt>
      <trkpt lat="45.83327" lon="4.68631">
        <ele>340.91028</ele>
        <time>2023-04-11T12:05:22.000Z</time>
      </trkpt>
      <trkpt lat="45.83327" lon="4.68627">
        <ele>341.08081</ele>
        <time>2023-04-11T12:05:23.000Z</time>
      </trkpt>
      <trkpt lat="45.83326" lon="4.68623">
        <ele>341.17911</ele>
        <time>2023-04-11T12:05:24.000Z</time>
      </trkpt>
      <trkpt lat="45.83326" lon="4.68617">
        <ele>341.27411</ele>
        <time>2023-04-11T12:05:25.000Z</time>
      </trkpt>
      <trkpt lat="45.83325" lon="4.68612">
        <ele>341.41473</ele>
        <time>2023-04-11T12:05:26.000Z</time>
      </trkpt>
      <trkpt lat="45.83325" lon="4.68607">
        <ele>341.68826</ele>
        <time>2023-04-11T12:05:27.000Z</time>
      </trkpt>
      <trkpt lat="45.83325" lon="4.68602">
        <ele>342.06439</ele>
        <time>2023-04-11T12:05:28.000Z</time>
      </trkpt>
      <trkpt lat="45.83324" lon="4.68597">
        <ele>342.56213</ele>
        <time>2023-04-11T12:05:29.000Z</time>
      </trkpt>
      <trkpt lat="45.83323" lon="4.68592">
        <ele>343.07672</ele>
        <time>2023-04-11T12:05:30.000Z</time>
      </trkpt>
      <trkpt lat="45.83321" lon="4.68588">
        <ele>343.521</ele>
        <time>2023-04-11T12:05:31.000Z</time>
      </trkpt>
      <trkpt lat="45.8332" lon="4.68585">
        <ele>344.32675</ele>
        <time>2023-04-11T12:05:32.000Z</time>
      </trkpt>
      <trkpt lat="45.83319" lon="4.6858">
        <ele>344.90826</ele>
        <time>2023-04-11T12:05:33.000Z</time>
      </trkpt>
      <trkpt lat="45.83318" lon="4.68574">
        <ele>345.28452</ele>
        <time>2023-04-11T12:05:34.000Z</time>
      </trkpt>
      <trkpt lat="45.83317" lon="4.68569">
        <ele>345.28629</ele>
        <time>2023-04-11T12:05:35.000Z</time>
      </trkpt>
      <trkpt lat="45.83316" lon="4.68564">
        <ele>345.51694</ele>
        <time>2023-04-11T12:05:36.000Z</time>
      </trkpt>
      <trkpt lat="45.83315" lon="4.68559">
        <ele>345.74872</ele>
        <time>2023-04-11T12:05:37.000Z</time>
      </trkpt>
      <trkpt lat="45.83313" lon="4.68555">
        <ele>345.97931</ele>
        <time>2023-04-11T12:05:38.000Z</time>
      </trkpt>
      <trkpt lat="45.83311" lon="4.68551">
        <ele>346.19095</ele>
        <time>2023-04-11T12:05:39.000Z</time>
      </trkpt>
      <trkpt lat="45.8331" lon="4.68547">
        <ele>346.41583</ele>
        <time>2023-04-11T12:05:40.000Z</time>
      </trkpt>
      <trkpt lat="45.83309" lon="4.68543">
        <ele>346.36679</ele>
        <time>2023-04-11T12:05:41.000Z</time>
      </trkpt>
      <trkpt lat="45.83308" lon="4.68538">
        <ele>346.4451</ele>
        <time>2023-04-11T12:05:42.000Z</time>
      </trkpt>
      <trkpt lat="45.83309" lon="4.68534">
        <ele>346.53592</ele>
        <time>2023-04-11T12:05:43.000Z</time>
      </trkpt>
      <trkpt lat="45.8331" lon="4.6853">
        <ele>346.79028</ele>
        <time>2023-04-11T12:05:44.000Z</time>
      </trkpt>
      <trkpt lat="45.83313" lon="4.68526">
        <ele>347.01007</ele>
        <time>2023-04-11T12:05:45.000Z</time>
      </trkpt>
      <trkpt lat="45.83316" lon="4.68524">
        <ele>347.23077</ele>
        <time>2023-04-11T12:05:46.000Z</time>
      </trkpt>
      <trkpt lat="45.83319" lon="4.68523">
        <ele>347.36261</ele>
        <time>2023-04-11T12:05:47.000Z</time>
      </trkpt>
      <trkpt lat="45.83322" lon="4.68523">
        <ele>347.37375</ele>
        <time>2023-04-11T12:05:48.000Z</time>
      </trkpt>
      <trkpt lat="45.83326" lon="4.68524">
        <ele>346.91547</ele>
        <time>2023-04-11T12:05:49.000Z</time>
      </trkpt>
      <trkpt lat="45.83329" lon="4.68525">
        <ele>346.49146</ele>
        <time>2023-04-11T12:05:50.000Z</time>
      </trkpt>
      <trkpt lat="45.83332" lon="4.68528">
        <ele>346.16251</ele>
        <time>2023-04-11T12:05:51.000Z</time>
      </trkpt>
      <trkpt lat="45.83335" lon="4.6853">
        <ele>345.45908</ele>
        <time>2023-04-11T12:05:52.000Z</time>
      </trkpt>
      <trkpt lat="45.83338" lon="4.68533">
        <ele>344.95441</ele>
        <time>2023-04-11T12:05:53.000Z</time>
      </trkpt>
      <trkpt lat="45.8334" lon="4.68535">
        <ele>344.65051</ele>
        <time>2023-04-11T12:05:54.000Z</time>
      </trkpt>
      <trkpt lat="45.83343" lon="4.68537">
        <ele>344.36249</ele>
        <time>2023-04-11T12:05:55.000Z</time>
      </trkpt>
      <trkpt lat="45.83345" lon="4.68539">
        <ele>344.08832</ele>
        <time>2023-04-11T12:05:56.000Z</time>
      </trkpt>
      <trkpt lat="45.83347" lon="4.68541">
        <ele>343.82855</ele>
        <time>2023-04-11T12:05:57.000Z</time>
      </trkpt>
      <trkpt lat="45.83349" lon="4.68542">
        <ele>343.77914</ele>
        <time>2023-04-11T12:05:58.000Z</time>
      </trkpt>
      <trkpt lat="45.83352" lon="4.68544">
        <ele>343.69388</ele>
        <time>2023-04-11T12:05:59.000Z</time>
      </trkpt>
      <trkpt lat="45.83354" lon="4.68545">
        <ele>343.57098</ele>
        <time>2023-04-11T12:06:00.000Z</time>
      </trkpt>
      <trkpt lat="45.83357" lon="4.68546">
        <ele>343.74078</ele>
        <time>2023-04-11T12:06:01.000Z</time>
      </trkpt>
      <trkpt lat="45.8336" lon="4.68546">
        <ele>343.79147</ele>
        <time>2023-04-11T12:06:02.000Z</time>
      </trkpt>
      <trkpt lat="45.83363" lon="4.68545">
        <ele>343.81845</ele>
        <time>2023-04-11T12:06:03.000Z</time>
      </trkpt>
      <trkpt lat="45.83366" lon="4.68544">
        <ele>343.71353</ele>
        <time>2023-04-11T12:06:04.000Z</time>
      </trkpt>
      <trkpt lat="45.83369" lon="4.68542">
        <ele>343.73038</ele>
        <time>2023-04-11T12:06:05.000Z</time>
      </trkpt>
      <trkpt lat="45.83372" lon="4.6854">
        <ele>343.34088</ele>
        <time>2023-04-11T12:06:06.000Z</time>
      </trkpt>
      <trkpt lat="45.83375" lon="4.68538">
        <ele>342.98892</ele>
        <time>2023-04-11T12:06:07.000Z</time>
      </trkpt>
      <trkpt lat="45.83378" lon="4.68535">
        <ele>342.67792</ele>
        <time>2023-04-11T12:06:08.000Z</time>
      </trkpt>
      <trkpt lat="45.83382" lon="4.68533">
        <ele>342.70065</ele>
        <time>2023-04-11T12:06:09.000Z</time>
      </trkpt>
      <trkpt lat="45.83385" lon="4.68531">
        <ele>342.68036</ele>
        <time>2023-04-11T12:06:10.000Z</time>
      </trkpt>
      <trkpt lat="45.83388" lon="4.68529">
        <ele>342.66138</ele>
        <time>2023-04-11T12:06:11.000Z</time>
      </trkpt>
      <trkpt lat="45.83391" lon="4.68527">
        <ele>342.08234</ele>
        <time>2023-04-11T12:06:12.000Z</time>
      </trkpt>
      <trkpt lat="45.83395" lon="4.68525">
        <ele>341.50238</ele>
        <time>2023-04-11T12:06:13.000Z</time>
      </trkpt>
      <trkpt lat="45.83399" lon="4.68523">
        <ele>341.47751</ele>
        <time>2023-04-11T12:06:14.000Z</time>
      </trkpt>
      <trkpt lat="45.83402" lon="4.68521">
        <ele>341.44745</ele>
        <time>2023-04-11T12:06:15.000Z</time>
      </trkpt>
      <trkpt lat="45.83406" lon="4.6852">
        <ele>341.41449</ele>
        <time>2023-04-11T12:06:16.000Z</time>
      </trkpt>
      <trkpt lat="45.8341" lon="4.68517">
        <ele>341.32733</ele>
        <time>2023-04-11T12:06:17.000Z</time>
      </trkpt>
      <trkpt lat="45.83414" lon="4.68515">
        <ele>341.01944</ele>
        <time>2023-04-11T12:06:18.000Z</time>
      </trkpt>
      <trkpt lat="45.83418" lon="4.68512">
        <ele>340.75854</ele>
        <time>2023-04-11T12:06:19.000Z</time>
      </trkpt>
      <trkpt lat="45.83423" lon="4.6851">
        <ele>340.51071</ele>
        <time>2023-04-11T12:06:20.000Z</time>
      </trkpt>
      <trkpt lat="45.83427" lon="4.68507">
        <ele>340.25677</ele>
        <time>2023-04-11T12:06:21.000Z</time>
      </trkpt>
      <trkpt lat="45.83432" lon="4.68505">
        <ele>339.99326</ele>
        <time>2023-04-11T12:06:22.000Z</time>
      </trkpt>
      <trkpt lat="45.83436" lon="4.68502">
        <ele>339.87451</ele>
        <time>2023-04-11T12:06:23.000Z</time>
      </trkpt>
      <trkpt lat="45.83441" lon="4.685">
        <ele>339.83115</ele>
        <time>2023-04-11T12:06:24.000Z</time>
      </trkpt>
      <trkpt lat="45.83447" lon="4.68497">
        <ele>339.75385</ele>
        <time>2023-04-11T12:06:25.000Z</time>
      </trkpt>
      <trkpt lat="45.83452" lon="4.68494">
        <ele>339.67819</ele>
        <time>2023-04-11T12:06:26.000Z</time>
      </trkpt>
      <trkpt lat="45.83457" lon="4.68491">
        <ele>339.57281</ele>
        <time>2023-04-11T12:06:27.000Z</time>
      </trkpt>
      <trkpt lat="45.83463" lon="4.68487">
        <ele>339.40698</ele>
        <time>2023-04-11T12:06:28.000Z</time>
      </trkpt>
      <trkpt lat="45.83468" lon="4.68484">
        <ele>339.27972</ele>
        <time>2023-04-11T12:06:29.000Z</time>
      </trkpt>
      <trkpt lat="45.83472" lon="4.68481">
        <ele>339.16479</ele>
        <time>2023-04-11T12:06:30.000Z</time>
      </trkpt>
      <trkpt lat="45.83477" lon="4.68478">
        <ele>339.04257</ele>
        <time>2023-04-11T12:06:31.000Z</time>
      </trkpt>
      <trkpt lat="45.83482" lon="4.68474">
        <ele>339.46039</ele>
        <time>2023-04-11T12:06:32.000Z</time>
      </trkpt>
      <trkpt lat="45.83488" lon="4.68471">
        <ele>339.86929</ele>
        <time>2023-04-11T12:06:33.000Z</time>
      </trkpt>
      <trkpt lat="45.83493" lon="4.68467">
        <ele>339.70184</ele>
        <time>2023-04-11T12:06:34.000Z</time>
      </trkpt>
      <trkpt lat="45.83498" lon="4.68464">
        <ele>339.55197</ele>
        <time>2023-04-11T12:06:35.000Z</time>
      </trkpt>
      <trkpt lat="45.83503" lon="4.68461">
        <ele>339.56622</ele>
        <time>2023-04-11T12:06:36.000Z</time>
      </trkpt>
      <trkpt lat="45.83508" lon="4.68456">
        <ele>339.59756</ele>
        <time>2023-04-11T12:06:37.000Z</time>
      </trkpt>
      <trkpt lat="45.83513" lon="4.68453">
        <ele>339.66049</ele>
        <time>2023-04-11T12:06:38.000Z</time>
      </trkpt>
      <trkpt lat="45.83518" lon="4.68449">
        <ele>339.7005</ele>
        <time>2023-04-11T12:06:39.000Z</time>
      </trkpt>
      <trkpt lat="45.83522" lon="4.68447">
        <ele>339.73969</ele>
        <time>2023-04-11T12:06:40.000Z</time>
      </trkpt>
      <trkpt lat="45.83527" lon="4.68444">
        <ele>339.77753</ele>
        <time>2023-04-11T12:06:41.000Z</time>
      </trkpt>
      <trkpt lat="45.83532" lon="4.68441">
        <ele>339.90326</ele>
        <time>2023-04-11T12:06:42.000Z</time>
      </trkpt>
      <trkpt lat="45.83536" lon="4.68438">
        <ele>339.82587</ele>
        <time>2023-04-11T12:06:43.000Z</time>
      </trkpt>
      <trkpt lat="45.83541" lon="4.68435">
        <ele>339.71841</ele>
        <time>2023-04-11T12:06:44.000Z</time>
      </trkpt>
      <trkpt lat="45.83545" lon="4.68431">
        <ele>339.56006</ele>
        <time>2023-04-11T12:06:45.000Z</time>
      </trkpt>
      <trkpt lat="45.83549" lon="4.68427">
        <ele>339.82846</ele>
        <time>2023-04-11T12:06:46.000Z</time>
      </trkpt>
      <trkpt lat="45.83553" lon="4.68423">
        <ele>339.62225</ele>
        <time>2023-04-11T12:06:47.000Z</time>
      </trkpt>
      <trkpt lat="45.83556" lon="4.68418">
        <ele>339.5014</ele>
        <time>2023-04-11T12:06:48.000Z</time>
      </trkpt>
      <trkpt lat="45.83559" lon="4.68413">
        <ele>339.29294</ele>
        <time>2023-04-11T12:06:49.000Z</time>
      </trkpt>
      <trkpt lat="45.83563" lon="4.68408">
        <ele>339.07687</ele>
        <time>2023-04-11T12:06:50.000Z</time>
      </trkpt>
      <trkpt lat="45.83566" lon="4.68403">
        <ele>338.8577</ele>
        <time>2023-04-11T12:06:51.000Z</time>
      </trkpt>
      <trkpt lat="45.83569" lon="4.68397">
        <ele>338.72314</ele>
        <time>2023-04-11T12:06:52.000Z</time>
      </trkpt>
      <trkpt lat="45.83572" lon="4.68391">
        <ele>338.8537</ele>
        <time>2023-04-11T12:06:53.000Z</time>
      </trkpt>
      <trkpt lat="45.83575" lon="4.68386">
        <ele>339.0007</ele>
        <time>2023-04-11T12:06:54.000Z</time>
      </trkpt>
      <trkpt lat="45.83578" lon="4.6838">
        <ele>339.27359</ele>
        <time>2023-04-11T12:06:55.000Z</time>
      </trkpt>
      <trkpt lat="45.83581" lon="4.68375">
        <ele>339.43887</ele>
        <time>2023-04-11T12:06:56.000Z</time>
      </trkpt>
      <trkpt lat="45.83582" lon="4.68369">
        <ele>339.14569</ele>
        <time>2023-04-11T12:06:57.000Z</time>
      </trkpt>
      <trkpt lat="45.83583" lon="4.68363">
        <ele>338.91415</ele>
        <time>2023-04-11T12:06:58.000Z</time>
      </trkpt>
      <trkpt lat="45.83584" lon="4.68357">
        <ele>338.69019</ele>
        <time>2023-04-11T12:06:59.000Z</time>
      </trkpt>
      <trkpt lat="45.83584" lon="4.68351">
        <ele>338.51791</ele>
        <time>2023-04-11T12:07:00.000Z</time>
      </trkpt>
      <trkpt lat="45.83583" lon="4.68346">
        <ele>338.30389</ele>
        <time>2023-04-11T12:07:01.000Z</time>
      </trkpt>
      <trkpt lat="45.83583" lon="4.68339">
        <ele>338.04608</ele>
        <time>2023-04-11T12:07:02.000Z</time>
      </trkpt>
      <trkpt lat="45.83582" lon="4.68333">
        <ele>337.82382</ele>
        <time>2023-04-11T12:07:03.000Z</time>
      </trkpt>
      <trkpt lat="45.83582" lon="4.68328">
        <ele>337.58731</ele>
        <time>2023-04-11T12:07:04.000Z</time>
      </trkpt>
      <trkpt lat="45.83583" lon="4.68322">
        <ele>337.2511</ele>
        <time>2023-04-11T12:07:05.000Z</time>
      </trkpt>
      <trkpt lat="45.83582" lon="4.68317">
        <ele>336.90036</ele>
        <time>2023-04-11T12:07:06.000Z</time>
      </trkpt>
      <trkpt lat="45.83583" lon="4.68311">
        <ele>337.02026</ele>
        <time>2023-04-11T12:07:07.000Z</time>
      </trkpt>
      <trkpt lat="45.83583" lon="4.68306">
        <ele>337.0849</ele>
        <time>2023-04-11T12:07:08.000Z</time>
      </trkpt>
      <trkpt lat="45.83583" lon="4.68302">
        <ele>337.19403</ele>
        <time>2023-04-11T12:07:09.000Z</time>
      </trkpt>
      <trkpt lat="45.83584" lon="4.68299">
        <ele>337.32681</ele>
        <time>2023-04-11T12:07:10.000Z</time>
      </trkpt>
      <trkpt lat="45.83585" lon="4.68296">
        <ele>337.4986</ele>
        <time>2023-04-11T12:07:11.000Z</time>
      </trkpt>
      <trkpt lat="45.83586" lon="4.68293">
        <ele>337.59555</ele>
        <time>2023-04-11T12:07:12.000Z</time>
      </trkpt>
      <trkpt lat="45.83588" lon="4.68291">
        <ele>337.45172</ele>
        <time>2023-04-11T12:07:13.000Z</time>
      </trkpt>
      <trkpt lat="45.83589" lon="4.68289">
        <ele>337.29279</ele>
        <time>2023-04-11T12:07:14.000Z</time>
      </trkpt>
      <trkpt lat="45.83591" lon="4.68286">
        <ele>337.02582</ele>
        <time>2023-04-11T12:07:15.000Z</time>
      </trkpt>
      <trkpt lat="45.83592" lon="4.68284">
        <ele>336.64755</ele>
        <time>2023-04-11T12:07:16.000Z</time>
      </trkpt>
      <trkpt lat="45.83594" lon="4.68282">
        <ele>336.76324</ele>
        <time>2023-04-11T12:07:17.000Z</time>
      </trkpt>
      <trkpt lat="45.83595" lon="4.6828">
        <ele>336.78421</ele>
        <time>2023-04-11T12:07:18.000Z</time>
      </trkpt>
      <trkpt lat="45.83596" lon="4.68277">
        <ele>336.79663</ele>
        <time>2023-04-11T12:07:19.000Z</time>
      </trkpt>
      <trkpt lat="45.83596" lon="4.68274">
        <ele>336.76874</ele>
        <time>2023-04-11T12:07:20.000Z</time>
      </trkpt>
      <trkpt lat="45.83595" lon="4.68271">
        <ele>336.79449</ele>
        <time>2023-04-11T12:07:21.000Z</time>
      </trkpt>
      <trkpt lat="45.83595" lon="4.68267">
        <ele>336.79022</ele>
        <time>2023-04-11T12:07:22.000Z</time>
      </trkpt>
      <trkpt lat="45.83595" lon="4.68263">
        <ele>336.81033</ele>
        <time>2023-04-11T12:07:23.000Z</time>
      </trkpt>
      <trkpt lat="45.83595" lon="4.68257">
        <ele>336.75812</ele>
        <time>2023-04-11T12:07:24.000Z</time>
      </trkpt>
      <trkpt lat="45.83597" lon="4.68252">
        <ele>336.81772</ele>
        <time>2023-04-11T12:07:25.000Z</time>
      </trkpt>
      <trkpt lat="45.83598" lon="4.68247">
        <ele>336.83511</ele>
        <time>2023-04-11T12:07:26.000Z</time>
      </trkpt>
      <trkpt lat="45.836" lon="4.68241">
        <ele>336.80023</ele>
        <time>2023-04-11T12:07:27.000Z</time>
      </trkpt>
      <trkpt lat="45.83602" lon="4.68233">
        <ele>336.72601</ele>
        <time>2023-04-11T12:07:28.000Z</time>
      </trkpt>
      <trkpt lat="45.83605" lon="4.68226">
        <ele>336.67349</ele>
        <time>2023-04-11T12:07:29.000Z</time>
      </trkpt>
      <trkpt lat="45.83608" lon="4.68219">
        <ele>336.58676</ele>
        <time>2023-04-11T12:07:30.000Z</time>
      </trkpt>
      <trkpt lat="45.83612" lon="4.68211">
        <ele>336.44955</ele>
        <time>2023-04-11T12:07:31.000Z</time>
      </trkpt>
      <trkpt lat="45.83614" lon="4.68204">
        <ele>336.28445</ele>
        <time>2023-04-11T12:07:32.000Z</time>
      </trkpt>
      <trkpt lat="45.83617" lon="4.68197">
        <ele>336.09906</ele>
        <time>2023-04-11T12:07:33.000Z</time>
      </trkpt>
      <trkpt lat="45.8362" lon="4.68191">
        <ele>335.91537</ele>
        <time>2023-04-11T12:07:34.000Z</time>
      </trkpt>
      <trkpt lat="45.83623" lon="4.68184">
        <ele>335.74078</ele>
        <time>2023-04-11T12:07:35.000Z</time>
      </trkpt>
      <trkpt lat="45.83626" lon="4.68178">
        <ele>335.57928</ele>
        <time>2023-04-11T12:07:36.000Z</time>
      </trkpt>
      <trkpt lat="45.83628" lon="4.68171">
        <ele>335.40265</ele>
        <time>2023-04-11T12:07:37.000Z</time>
      </trkpt>
      <trkpt lat="45.83631" lon="4.68165">
        <ele>335.25372</ele>
        <time>2023-04-11T12:07:38.000Z</time>
      </trkpt>
      <trkpt lat="45.83634" lon="4.68159">
        <ele>335.11459</ele>
        <time>2023-04-11T12:07:39.000Z</time>
      </trkpt>
      <trkpt lat="45.83636" lon="4.68153">
        <ele>334.98627</ele>
        <time>2023-04-11T12:07:40.000Z</time>
      </trkpt>
      <trkpt lat="45.83639" lon="4.68147">
        <ele>334.84903</ele>
        <time>2023-04-11T12:07:41.000Z</time>
      </trkpt>
      <trkpt lat="45.83641" lon="4.68142">
        <ele>334.68042</ele>
        <time>2023-04-11T12:07:42.000Z</time>
      </trkpt>
      <trkpt lat="45.83644" lon="4.68137">
        <ele>334.50751</ele>
        <time>2023-04-11T12:07:43.000Z</time>
      </trkpt>
      <trkpt lat="45.83646" lon="4.68131">
        <ele>334.40005</ele>
        <time>2023-04-11T12:07:44.000Z</time>
      </trkpt>
      <trkpt lat="45.83649" lon="4.68126">
        <ele>334.70132</ele>
        <time>2023-04-11T12:07:45.000Z</time>
      </trkpt>
      <trkpt lat="45.83652" lon="4.68122">
        <ele>334.51166</ele>
        <time>2023-04-11T12:07:46.000Z</time>
      </trkpt>
      <trkpt lat="45.83656" lon="4.68118">
        <ele>334.35492</ele>
        <time>2023-04-11T12:07:47.000Z</time>
      </trkpt>
      <trkpt lat="45.8366" lon="4.68113">
        <ele>334.21994</ele>
        <time>2023-04-11T12:07:48.000Z</time>
      </trkpt>
      <trkpt lat="45.83663" lon="4.68108">
        <ele>334.05859</ele>
        <time>2023-04-11T12:07:49.000Z</time>
      </trkpt>
      <trkpt lat="45.83666" lon="4.68102">
        <ele>334.30673</ele>
        <time>2023-04-11T12:07:50.000Z</time>
      </trkpt>
      <trkpt lat="45.8367" lon="4.68098">
        <ele>334.45901</ele>
        <time>2023-04-11T12:07:51.000Z</time>
      </trkpt>
      <trkpt lat="45.83675" lon="4.68094">
        <ele>334.29489</ele>
        <time>2023-04-11T12:07:52.000Z</time>
      </trkpt>
      <trkpt lat="45.83679" lon="4.68089">
        <ele>334.12579</ele>
        <time>2023-04-11T12:07:53.000Z</time>
      </trkpt>
      <trkpt lat="45.83682" lon="4.68084">
        <ele>333.9516</ele>
        <time>2023-04-11T12:07:54.000Z</time>
      </trkpt>
      <trkpt lat="45.83687" lon="4.68079">
        <ele>333.78848</ele>
        <time>2023-04-11T12:07:55.000Z</time>
      </trkpt>
      <trkpt lat="45.8369" lon="4.68074">
        <ele>333.6412</ele>
        <time>2023-04-11T12:07:56.000Z</time>
      </trkpt>
      <trkpt lat="45.83694" lon="4.6807">
        <ele>333.44775</ele>
        <time>2023-04-11T12:07:57.000Z</time>
      </trkpt>
      <trkpt lat="45.83696" lon="4.68065">
        <ele>333.30331</ele>
        <time>2023-04-11T12:07:58.000Z</time>
      </trkpt>
      <trkpt lat="45.83696" lon="4.68059">
        <ele>332.99414</ele>
        <time>2023-04-11T12:07:59.000Z</time>
      </trkpt>
      <trkpt lat="45.83696" lon="4.68052">
        <ele>332.84674</ele>
        <time>2023-04-11T12:08:00.000Z</time>
      </trkpt>
      <trkpt lat="45.83694" lon="4.68047">
        <ele>332.71527</ele>
        <time>2023-04-11T12:08:01.000Z</time>
      </trkpt>
      <trkpt lat="45.83693" lon="4.68042">
        <ele>332.73981</ele>
        <time>2023-04-11T12:08:02.000Z</time>
      </trkpt>
      <trkpt lat="45.8369" lon="4.68039">
        <ele>332.77386</ele>
        <time>2023-04-11T12:08:03.000Z</time>
      </trkpt>
      <trkpt lat="45.83687" lon="4.68038">
        <ele>332.43414</ele>
        <time>2023-04-11T12:08:04.000Z</time>
      </trkpt>
      <trkpt lat="45.83685" lon="4.68035">
        <ele>331.74884</ele>
        <time>2023-04-11T12:08:05.000Z</time>
      </trkpt>
      <trkpt lat="45.83683" lon="4.68031">
        <ele>331.5712</ele>
        <time>2023-04-11T12:08:06.000Z</time>
      </trkpt>
      <trkpt lat="45.8368" lon="4.68028">
        <ele>331.3967</ele>
        <time>2023-04-11T12:08:07.000Z</time>
      </trkpt>
      <trkpt lat="45.83677" lon="4.68025">
        <ele>331.23819</ele>
        <time>2023-04-11T12:08:08.000Z</time>
      </trkpt>
      <trkpt lat="45.83676" lon="4.68021">
        <ele>331.08023</ele>
        <time>2023-04-11T12:08:09.000Z</time>
      </trkpt>
      <trkpt lat="45.83675" lon="4.68018">
        <ele>330.54794</ele>
        <time>2023-04-11T12:08:10.000Z</time>
      </trkpt>
      <trkpt lat="45.83672" lon="4.68014">
        <ele>330.12027</ele>
        <time>2023-04-11T12:08:11.000Z</time>
      </trkpt>
      <trkpt lat="45.8367" lon="4.68011">
        <ele>330.03317</ele>
        <time>2023-04-11T12:08:12.000Z</time>
      </trkpt>
      <trkpt lat="45.83667" lon="4.68007">
        <ele>329.9859</ele>
        <time>2023-04-11T12:08:13.000Z</time>
      </trkpt>
      <trkpt lat="45.83665" lon="4.68004">
        <ele>329.97324</ele>
        <time>2023-04-11T12:08:14.000Z</time>
      </trkpt>
      <trkpt lat="45.83662" lon="4.68">
        <ele>329.91446</ele>
        <time>2023-04-11T12:08:15.000Z</time>
      </trkpt>
      <trkpt lat="45.8366" lon="4.67997">
        <ele>329.88739</ele>
        <time>2023-04-11T12:08:16.000Z</time>
      </trkpt>
      <trkpt lat="45.83657" lon="4.67994">
        <ele>329.89212</ele>
        <time>2023-04-11T12:08:17.000Z</time>
      </trkpt>
      <trkpt lat="45.83654" lon="4.67991">
        <ele>329.81094</ele>
        <time>2023-04-11T12:08:18.000Z</time>
      </trkpt>
      <trkpt lat="45.83652" lon="4.67988">
        <ele>329.99286</ele>
        <time>2023-04-11T12:08:19.000Z</time>
      </trkpt>
      <trkpt lat="45.8365" lon="4.67984">
        <ele>330.00809</ele>
        <time>2023-04-11T12:08:20.000Z</time>
      </trkpt>
      <trkpt lat="45.83648" lon="4.67981">
        <ele>330.03876</ele>
        <time>2023-04-11T12:08:21.000Z</time>
      </trkpt>
      <trkpt lat="45.83645" lon="4.67978">
        <ele>329.84039</ele>
        <time>2023-04-11T12:08:22.000Z</time>
      </trkpt>
      <trkpt lat="45.83642" lon="4.67975">
        <ele>329.71237</ele>
        <time>2023-04-11T12:08:23.000Z</time>
      </trkpt>
      <trkpt lat="45.83639" lon="4.67972">
        <ele>329.96609</ele>
        <time>2023-04-11T12:08:24.000Z</time>
      </trkpt>
      <trkpt lat="45.83635" lon="4.67969">
        <ele>330.18207</ele>
        <time>2023-04-11T12:08:25.000Z</time>
      </trkpt>
      <trkpt lat="45.83632" lon="4.67965">
        <ele>330.3515</ele>
        <time>2023-04-11T12:08:26.000Z</time>
      </trkpt>
      <trkpt lat="45.83628" lon="4.67962">
        <ele>330.52411</ele>
        <time>2023-04-11T12:08:27.000Z</time>
      </trkpt>
      <trkpt lat="45.83625" lon="4.67959">
        <ele>330.71027</ele>
        <time>2023-04-11T12:08:28.000Z</time>
      </trkpt>
      <trkpt lat="45.83621" lon="4.67956">
        <ele>330.92798</ele>
        <time>2023-04-11T12:08:29.000Z</time>
      </trkpt>
      <trkpt lat="45.83618" lon="4.67954">
        <ele>331.05896</ele>
        <time>2023-04-11T12:08:30.000Z</time>
      </trkpt>
      <trkpt lat="45.83615" lon="4.67951">
        <ele>331.10327</ele>
        <time>2023-04-11T12:08:31.000Z</time>
      </trkpt>
      <trkpt lat="45.83611" lon="4.67949">
        <ele>331.15131</ele>
        <time>2023-04-11T12:08:32.000Z</time>
      </trkpt>
      <trkpt lat="45.83607" lon="4.67946">
        <ele>331.19168</ele>
        <time>2023-04-11T12:08:33.000Z</time>
      </trkpt>
      <trkpt lat="45.83604" lon="4.67943">
        <ele>331.21515</ele>
        <time>2023-04-11T12:08:34.000Z</time>
      </trkpt>
      <trkpt lat="45.836" lon="4.67939">
        <ele>331.2373</ele>
        <time>2023-04-11T12:08:35.000Z</time>
      </trkpt>
      <trkpt lat="45.83597" lon="4.67936">
        <ele>331.22589</ele>
        <time>2023-04-11T12:08:36.000Z</time>
      </trkpt>
      <trkpt lat="45.83593" lon="4.67933">
        <ele>331.23917</ele>
        <time>2023-04-11T12:08:37.000Z</time>
      </trkpt>
      <trkpt lat="45.83589" lon="4.6793">
        <ele>331.26706</ele>
        <time>2023-04-11T12:08:38.000Z</time>
      </trkpt>
      <trkpt lat="45.83585" lon="4.67928">
        <ele>331.19839</ele>
        <time>2023-04-11T12:08:39.000Z</time>
      </trkpt>
      <trkpt lat="45.83581" lon="4.67925">
        <ele>331.12451</ele>
        <time>2023-04-11T12:08:40.000Z</time>
      </trkpt>
      <trkpt lat="45.83577" lon="4.67923">
        <ele>331.03241</ele>
        <time>2023-04-11T12:08:41.000Z</time>
      </trkpt>
      <trkpt lat="45.83574" lon="4.6792">
        <ele>331.02365</ele>
        <time>2023-04-11T12:08:42.000Z</time>
      </trkpt>
      <trkpt lat="45.8357" lon="4.67918">
        <ele>330.91077</ele>
        <time>2023-04-11T12:08:43.000Z</time>
      </trkpt>
      <trkpt lat="45.83566" lon="4.67915">
        <ele>330.76706</ele>
        <time>2023-04-11T12:08:44.000Z</time>
      </trkpt>
      <trkpt lat="45.83562" lon="4.67911">
        <ele>330.58264</ele>
        <time>2023-04-11T12:08:45.000Z</time>
      </trkpt>
      <trkpt lat="45.83558" lon="4.67907">
        <ele>330.43613</ele>
        <time>2023-04-11T12:08:46.000Z</time>
      </trkpt>
      <trkpt lat="45.83554" lon="4.67903">
        <ele>330.26175</ele>
        <time>2023-04-11T12:08:47.000Z</time>
      </trkpt>
      <trkpt lat="45.83551" lon="4.67899">
        <ele>330.05493</ele>
        <time>2023-04-11T12:08:48.000Z</time>
      </trkpt>
      <trkpt lat="45.83548" lon="4.67895">
        <ele>329.83719</ele>
        <time>2023-04-11T12:08:49.000Z</time>
      </trkpt>
      <trkpt lat="45.83545" lon="4.6789">
        <ele>329.67255</ele>
        <time>2023-04-11T12:08:50.000Z</time>
      </trkpt>
      <trkpt lat="45.83542" lon="4.67886">
        <ele>329.66217</ele>
        <time>2023-04-11T12:08:51.000Z</time>
      </trkpt>
      <trkpt lat="45.8354" lon="4.67881">
        <ele>329.84747</ele>
        <time>2023-04-11T12:08:52.000Z</time>
      </trkpt>
      <trkpt lat="45.83537" lon="4.67877">
        <ele>330.10168</ele>
        <time>2023-04-11T12:08:53.000Z</time>
      </trkpt>
      <trkpt lat="45.83534" lon="4.67872">
        <ele>330.36185</ele>
        <time>2023-04-11T12:08:54.000Z</time>
      </trkpt>
      <trkpt lat="45.83532" lon="4.67867">
        <ele>330.72433</ele>
        <time>2023-04-11T12:08:55.000Z</time>
      </trkpt>
      <trkpt lat="45.83529" lon="4.67863">
        <ele>330.71851</ele>
        <time>2023-04-11T12:08:56.000Z</time>
      </trkpt>
      <trkpt lat="45.83526" lon="4.67857">
        <ele>330.70853</ele>
        <time>2023-04-11T12:08:57.000Z</time>
      </trkpt>
      <trkpt lat="45.83523" lon="4.67854">
        <ele>330.66769</ele>
        <time>2023-04-11T12:08:58.000Z</time>
      </trkpt>
      <trkpt lat="45.8352" lon="4.6785">
        <ele>330.62643</ele>
        <time>2023-04-11T12:08:59.000Z</time>
      </trkpt>
      <trkpt lat="45.83517" lon="4.67846">
        <ele>330.62546</ele>
        <time>2023-04-11T12:09:00.000Z</time>
      </trkpt>
      <trkpt lat="45.83515" lon="4.67843">
        <ele>330.60712</ele>
        <time>2023-04-11T12:09:01.000Z</time>
      </trkpt>
      <trkpt lat="45.83512" lon="4.67839">
        <ele>330.56732</ele>
        <time>2023-04-11T12:09:02.000Z</time>
      </trkpt>
      <trkpt lat="45.83508" lon="4.67835">
        <ele>330.58221</ele>
        <time>2023-04-11T12:09:03.000Z</time>
      </trkpt>
      <trkpt lat="45.83505" lon="4.67831">
        <ele>330.6066</ele>
        <time>2023-04-11T12:09:04.000Z</time>
      </trkpt>
      <trkpt lat="45.83501" lon="4.67829">
        <ele>330.65222</ele>
        <time>2023-04-11T12:09:05.000Z</time>
      </trkpt>
      <trkpt lat="45.83498" lon="4.67826">
        <ele>330.70959</ele>
        <time>2023-04-11T12:09:06.000Z</time>
      </trkpt>
      <trkpt lat="45.83494" lon="4.67822">
        <ele>330.77435</ele>
        <time>2023-04-11T12:09:07.000Z</time>
      </trkpt>
      <trkpt lat="45.83491" lon="4.67819">
        <ele>330.84879</ele>
        <time>2023-04-11T12:09:08.000Z</time>
      </trkpt>
      <trkpt lat="45.83487" lon="4.67816">
        <ele>330.93231</ele>
        <time>2023-04-11T12:09:09.000Z</time>
      </trkpt>
      <trkpt lat="45.83482" lon="4.67815">
        <ele>331.00977</ele>
        <time>2023-04-11T12:09:10.000Z</time>
      </trkpt>
      <trkpt lat="45.83477" lon="4.67814">
        <ele>331.03366</ele>
        <time>2023-04-11T12:09:11.000Z</time>
      </trkpt>
      <trkpt lat="45.83473" lon="4.67812">
        <ele>330.84845</ele>
        <time>2023-04-11T12:09:12.000Z</time>
      </trkpt>
      <trkpt lat="45.83468" lon="4.67811">
        <ele>330.59848</ele>
        <time>2023-04-11T12:09:13.000Z</time>
      </trkpt>
      <trkpt lat="45.83463" lon="4.6781">
        <ele>330.37222</ele>
        <time>2023-04-11T12:09:14.000Z</time>
      </trkpt>
      <trkpt lat="45.83458" lon="4.67808">
        <ele>330.09027</ele>
        <time>2023-04-11T12:09:15.000Z</time>
      </trkpt>
      <trkpt lat="45.83454" lon="4.67805">
        <ele>330.17206</ele>
        <time>2023-04-11T12:09:16.000Z</time>
      </trkpt>
      <trkpt lat="45.8345" lon="4.67801">
        <ele>330.23746</ele>
        <time>2023-04-11T12:09:17.000Z</time>
      </trkpt>
      <trkpt lat="45.83447" lon="4.67796">
        <ele>330.36893</ele>
        <time>2023-04-11T12:09:18.000Z</time>
      </trkpt>
      <trkpt lat="45.83444" lon="4.67792">
        <ele>330.51862</ele>
        <time>2023-04-11T12:09:19.000Z</time>
      </trkpt>
      <trkpt lat="45.83442" lon="4.67786">
        <ele>330.63431</ele>
        <time>2023-04-11T12:09:20.000Z</time>
      </trkpt>
      <trkpt lat="45.8344" lon="4.6778">
        <ele>330.74649</ele>
        <time>2023-04-11T12:09:21.000Z</time>
      </trkpt>
      <trkpt lat="45.8344" lon="4.67773">
        <ele>330.89569</ele>
        <time>2023-04-11T12:09:22.000Z</time>
      </trkpt>
      <trkpt lat="45.8344" lon="4.67767">
        <ele>330.99957</ele>
        <time>2023-04-11T12:09:23.000Z</time>
      </trkpt>
      <trkpt lat="45.83439" lon="4.67761">
        <ele>331.07513</ele>
        <time>2023-04-11T12:09:24.000Z</time>
      </trkpt>
      <trkpt lat="45.83439" lon="4.67755">
        <ele>331.14001</ele>
        <time>2023-04-11T12:09:25.000Z</time>
      </trkpt>
      <trkpt lat="45.83439" lon="4.67749">
        <ele>331.19629</ele>
        <time>2023-04-11T12:09:26.000Z</time>
      </trkpt>
      <trkpt lat="45.83438" lon="4.67743">
        <ele>331.27313</ele>
        <time>2023-04-11T12:09:27.000Z</time>
      </trkpt>
      <trkpt lat="45.83437" lon="4.67738">
        <ele>331.33472</ele>
        <time>2023-04-11T12:09:28.000Z</time>
      </trkpt>
      <trkpt lat="45.83436" lon="4.67735">
        <ele>331.37323</ele>
        <time>2023-04-11T12:09:29.000Z</time>
      </trkpt>
      <trkpt lat="45.83435" lon="4.6773">
        <ele>331.39047</ele>
        <time>2023-04-11T12:09:30.000Z</time>
      </trkpt>
      <trkpt lat="45.83433" lon="4.67726">
        <ele>331.38327</ele>
        <time>2023-04-11T12:09:31.000Z</time>
      </trkpt>
      <trkpt lat="45.8343" lon="4.67721">
        <ele>331.39789</ele>
        <time>2023-04-11T12:09:32.000Z</time>
      </trkpt>
      <trkpt lat="45.83428" lon="4.67717">
        <ele>331.42828</ele>
        <time>2023-04-11T12:09:33.000Z</time>
      </trkpt>
      <trkpt lat="45.83425" lon="4.67713">
        <ele>331.4455</ele>
        <time>2023-04-11T12:09:34.000Z</time>
      </trkpt>
      <trkpt lat="45.83422" lon="4.67709">
        <ele>331.4469</ele>
        <time>2023-04-11T12:09:35.000Z</time>
      </trkpt>
      <trkpt lat="45.83419" lon="4.67705">
        <ele>331.5011</ele>
        <time>2023-04-11T12:09:36.000Z</time>
      </trkpt>
      <trkpt lat="45.83415" lon="4.67702">
        <ele>331.53192</ele>
        <time>2023-04-11T12:09:37.000Z</time>
      </trkpt>
      <trkpt lat="45.83412" lon="4.677">
        <ele>331.75693</ele>
        <time>2023-04-11T12:09:38.000Z</time>
      </trkpt>
      <trkpt lat="45.83408" lon="4.67697">
        <ele>331.95938</ele>
        <time>2023-04-11T12:09:39.000Z</time>
      </trkpt>
      <trkpt lat="45.83405" lon="4.67694">
        <ele>332.14069</ele>
        <time>2023-04-11T12:09:40.000Z</time>
      </trkpt>
      <trkpt lat="45.83401" lon="4.67691">
        <ele>332.32681</ele>
        <time>2023-04-11T12:09:41.000Z</time>
      </trkpt>
      <trkpt lat="45.83398" lon="4.67689">
        <ele>332.50858</ele>
        <time>2023-04-11T12:09:42.000Z</time>
      </trkpt>
      <trkpt lat="45.83394" lon="4.67686">
        <ele>332.71298</ele>
        <time>2023-04-11T12:09:43.000Z</time>
      </trkpt>
      <trkpt lat="45.8339" lon="4.67684">
        <ele>332.93637</ele>
        <time>2023-04-11T12:09:44.000Z</time>
      </trkpt>
      <trkpt lat="45.83386" lon="4.67681">
        <ele>333.15115</ele>
        <time>2023-04-11T12:09:45.000Z</time>
      </trkpt>
      <trkpt lat="45.83382" lon="4.67679">
        <ele>333.38785</ele>
        <time>2023-04-11T12:09:46.000Z</time>
      </trkpt>
      <trkpt lat="45.83379" lon="4.67677">
        <ele>333.6001</ele>
        <time>2023-04-11T12:09:47.000Z</time>
      </trkpt>
      <trkpt lat="45.83375" lon="4.67675">
        <ele>333.83258</ele>
        <time>2023-04-11T12:09:48.000Z</time>
      </trkpt>
      <trkpt lat="45.83371" lon="4.67673">
        <ele>334.08499</ele>
        <time>2023-04-11T12:09:49.000Z</time>
      </trkpt>
      <trkpt lat="45.83368" lon="4.67671">
        <ele>334.39069</ele>
        <time>2023-04-11T12:09:50.000Z</time>
      </trkpt>
      <trkpt lat="45.83364" lon="4.67669">
        <ele>334.71622</ele>
        <time>2023-04-11T12:09:51.000Z</time>
      </trkpt>
      <trkpt lat="45.8336" lon="4.67667">
        <ele>335.01401</ele>
        <time>2023-04-11T12:09:52.000Z</time>
      </trkpt>
      <trkpt lat="45.83356" lon="4.67665">
        <ele>335.31726</ele>
        <time>2023-04-11T12:09:53.000Z</time>
      </trkpt>
      <trkpt lat="45.83352" lon="4.67662">
        <ele>335.59421</ele>
        <time>2023-04-11T12:09:54.000Z</time>
      </trkpt>
      <trkpt lat="45.83348" lon="4.6766">
        <ele>335.87839</ele>
        <time>2023-04-11T12:09:55.000Z</time>
      </trkpt>
      <trkpt lat="45.83344" lon="4.67658">
        <ele>336.1369</ele>
        <time>2023-04-11T12:09:56.000Z</time>
      </trkpt>
      <trkpt lat="45.8334" lon="4.67655">
        <ele>336.37735</ele>
        <time>2023-04-11T12:09:57.000Z</time>
      </trkpt>
      <trkpt lat="45.83335" lon="4.67651">
        <ele>336.46881</ele>
        <time>2023-04-11T12:09:58.000Z</time>
      </trkpt>
      <trkpt lat="45.83331" lon="4.6765">
        <ele>336.54987</ele>
        <time>2023-04-11T12:09:59.000Z</time>
      </trkpt>
      <trkpt lat="45.83328" lon="4.67647">
        <ele>336.72241</ele>
        <time>2023-04-11T12:10:00.000Z</time>
      </trkpt>
      <trkpt lat="45.83324" lon="4.67646">
        <ele>336.93109</ele>
        <time>2023-04-11T12:10:01.000Z</time>
      </trkpt>
      <trkpt lat="45.83321" lon="4.67645">
        <ele>337.15601</ele>
        <time>2023-04-11T12:10:02.000Z</time>
      </trkpt>
      <trkpt lat="45.83317" lon="4.67642">
        <ele>337.36069</ele>
        <time>2023-04-11T12:10:03.000Z</time>
      </trkpt>
      <trkpt lat="45.83314" lon="4.6764">
        <ele>337.61539</ele>
        <time>2023-04-11T12:10:04.000Z</time>
      </trkpt>
      <trkpt lat="45.8331" lon="4.67641">
        <ele>337.80566</ele>
        <time>2023-04-11T12:10:05.000Z</time>
      </trkpt>
      <trkpt lat="45.83305" lon="4.67639">
        <ele>337.97516</ele>
        <time>2023-04-11T12:10:06.000Z</time>
      </trkpt>
      <trkpt lat="45.83302" lon="4.67638">
        <ele>338.12994</ele>
        <time>2023-04-11T12:10:07.000Z</time>
      </trkpt>
      <trkpt lat="45.83297" lon="4.67635">
        <ele>338.28595</ele>
        <time>2023-04-11T12:10:08.000Z</time>
      </trkpt>
      <trkpt lat="45.83293" lon="4.67634">
        <ele>338.43301</ele>
        <time>2023-04-11T12:10:09.000Z</time>
      </trkpt>
      <trkpt lat="45.83289" lon="4.67633">
        <ele>338.58231</ele>
        <time>2023-04-11T12:10:10.000Z</time>
      </trkpt>
      <trkpt lat="45.83284" lon="4.67632">
        <ele>338.68091</ele>
        <time>2023-04-11T12:10:11.000Z</time>
      </trkpt>
      <trkpt lat="45.83279" lon="4.67631">
        <ele>338.7951</ele>
        <time>2023-04-11T12:10:12.000Z</time>
      </trkpt>
      <trkpt lat="45.83273" lon="4.67631">
        <ele>338.88501</ele>
        <time>2023-04-11T12:10:13.000Z</time>
      </trkpt>
      <trkpt lat="45.83268" lon="4.6763">
        <ele>338.97333</ele>
        <time>2023-04-11T12:10:14.000Z</time>
      </trkpt>
      <trkpt lat="45.83262" lon="4.67629">
        <ele>339.02094</ele>
        <time>2023-04-11T12:10:15.000Z</time>
      </trkpt>
      <trkpt lat="45.83256" lon="4.67628">
        <ele>339.03717</ele>
        <time>2023-04-11T12:10:16.000Z</time>
      </trkpt>
      <trkpt lat="45.83251" lon="4.67626">
        <ele>339.0863</ele>
        <time>2023-04-11T12:10:17.000Z</time>
      </trkpt>
      <trkpt lat="45.83245" lon="4.67622">
        <ele>339.08804</ele>
        <time>2023-04-11T12:10:18.000Z</time>
      </trkpt>
      <trkpt lat="45.83241" lon="4.67616">
        <ele>339.07257</ele>
        <time>2023-04-11T12:10:19.000Z</time>
      </trkpt>
      <trkpt lat="45.83238" lon="4.6761">
        <ele>339.02325</ele>
        <time>2023-04-11T12:10:20.000Z</time>
      </trkpt>
      <trkpt lat="45.83236" lon="4.67602">
        <ele>338.95648</ele>
        <time>2023-04-11T12:10:21.000Z</time>
      </trkpt>
      <trkpt lat="45.83237" lon="4.67595">
        <ele>338.8775</ele>
        <time>2023-04-11T12:10:22.000Z</time>
      </trkpt>
      <trkpt lat="45.83237" lon="4.67588">
        <ele>338.81042</ele>
        <time>2023-04-11T12:10:23.000Z</time>
      </trkpt>
      <trkpt lat="45.83239" lon="4.67582">
        <ele>338.66705</ele>
        <time>2023-04-11T12:10:24.000Z</time>
      </trkpt>
      <trkpt lat="45.8324" lon="4.67575">
        <ele>338.57706</ele>
        <time>2023-04-11T12:10:25.000Z</time>
      </trkpt>
      <trkpt lat="45.83242" lon="4.6757">
        <ele>338.47882</ele>
        <time>2023-04-11T12:10:26.000Z</time>
      </trkpt>
      <trkpt lat="45.83242" lon="4.67564">
        <ele>338.414</ele>
        <time>2023-04-11T12:10:27.000Z</time>
      </trkpt>
      <trkpt lat="45.83243" lon="4.67558">
        <ele>338.35199</ele>
        <time>2023-04-11T12:10:28.000Z</time>
      </trkpt>
      <trkpt lat="45.83243" lon="4.67552">
        <ele>338.31644</ele>
        <time>2023-04-11T12:10:29.000Z</time>
      </trkpt>
      <trkpt lat="45.83242" lon="4.67546">
        <ele>338.29156</ele>
        <time>2023-04-11T12:10:30.000Z</time>
      </trkpt>
      <trkpt lat="45.8324" lon="4.67541">
        <ele>338.32886</ele>
        <time>2023-04-11T12:10:31.000Z</time>
      </trkpt>
      <trkpt lat="45.83238" lon="4.67536">
        <ele>338.3479</ele>
        <time>2023-04-11T12:10:32.000Z</time>
      </trkpt>
      <trkpt lat="45.83234" lon="4.67532">
        <ele>338.36969</ele>
        <time>2023-04-11T12:10:33.000Z</time>
      </trkpt>
      <trkpt lat="45.83231" lon="4.67528">
        <ele>338.28406</ele>
        <time>2023-04-11T12:10:34.000Z</time>
      </trkpt>
      <trkpt lat="45.83228" lon="4.67525">
        <ele>338.21713</ele>
        <time>2023-04-11T12:10:35.000Z</time>
      </trkpt>
      <trkpt lat="45.83224" lon="4.67522">
        <ele>338.13727</ele>
        <time>2023-04-11T12:10:36.000Z</time>
      </trkpt>
      <trkpt lat="45.8322" lon="4.67519">
        <ele>338.07919</ele>
        <time>2023-04-11T12:10:37.000Z</time>
      </trkpt>
      <trkpt lat="45.83217" lon="4.67516">
        <ele>338.03882</ele>
        <time>2023-04-11T12:10:38.000Z</time>
      </trkpt>
      <trkpt lat="45.83213" lon="4.67513">
        <ele>338.04391</ele>
        <time>2023-04-11T12:10:39.000Z</time>
      </trkpt>
      <trkpt lat="45.8321" lon="4.6751">
        <ele>337.98779</ele>
        <time>2023-04-11T12:10:40.000Z</time>
      </trkpt>
      <trkpt lat="45.83207" lon="4.67507">
        <ele>337.92038</ele>
        <time>2023-04-11T12:10:41.000Z</time>
      </trkpt>
      <trkpt lat="45.83203" lon="4.67504">
        <ele>337.84418</ele>
        <time>2023-04-11T12:10:42.000Z</time>
      </trkpt>
      <trkpt lat="45.832" lon="4.675">
        <ele>337.78082</ele>
        <time>2023-04-11T12:10:43.000Z</time>
      </trkpt>
      <trkpt lat="45.83197" lon="4.67497">
        <ele>337.77597</ele>
        <time>2023-04-11T12:10:44.000Z</time>
      </trkpt>
      <trkpt lat="45.83194" lon="4.67494">
        <ele>337.81274</ele>
        <time>2023-04-11T12:10:45.000Z</time>
      </trkpt>
      <trkpt lat="45.83191" lon="4.6749">
        <ele>337.84601</ele>
        <time>2023-04-11T12:10:46.000Z</time>
      </trkpt>
      <trkpt lat="45.83188" lon="4.67487">
        <ele>337.86258</ele>
        <time>2023-04-11T12:10:47.000Z</time>
      </trkpt>
      <trkpt lat="45.83185" lon="4.67483">
        <ele>337.88846</ele>
        <time>2023-04-11T12:10:48.000Z</time>
      </trkpt>
      <trkpt lat="45.83183" lon="4.67478">
        <ele>337.91852</ele>
        <time>2023-04-11T12:10:49.000Z</time>
      </trkpt>
      <trkpt lat="45.83179" lon="4.67474">
        <ele>337.89423</ele>
        <time>2023-04-11T12:10:50.000Z</time>
      </trkpt>
      <trkpt lat="45.83175" lon="4.6747">
        <ele>337.99664</ele>
        <time>2023-04-11T12:10:51.000Z</time>
      </trkpt>
      <trkpt lat="45.83171" lon="4.67468">
        <ele>338.10638</ele>
        <time>2023-04-11T12:10:52.000Z</time>
      </trkpt>
      <trkpt lat="45.83167" lon="4.67467">
        <ele>338.1882</ele>
        <time>2023-04-11T12:10:53.000Z</time>
      </trkpt>
      <trkpt lat="45.83163" lon="4.67466">
        <ele>338.39923</ele>
        <time>2023-04-11T12:10:54.000Z</time>
      </trkpt>
      <trkpt lat="45.83159" lon="4.67467">
        <ele>338.62604</ele>
        <time>2023-04-11T12:10:55.000Z</time>
      </trkpt>
      <trkpt lat="45.83156" lon="4.67467">
        <ele>338.89838</ele>
        <time>2023-04-11T12:10:56.000Z</time>
      </trkpt>
      <trkpt lat="45.83152" lon="4.67467">
        <ele>339.33954</ele>
        <time>2023-04-11T12:10:57.000Z</time>
      </trkpt>
      <trkpt lat="45.83148" lon="4.67464">
        <ele>339.71356</ele>
        <time>2023-04-11T12:10:58.000Z</time>
      </trkpt>
      <trkpt lat="45.83144" lon="4.67461">
        <ele>340.05341</ele>
        <time>2023-04-11T12:10:59.000Z</time>
      </trkpt>
      <trkpt lat="45.83141" lon="4.67458">
        <ele>340.39093</ele>
        <time>2023-04-11T12:11:00.000Z</time>
      </trkpt>
      <trkpt lat="45.83138" lon="4.67454">
        <ele>340.71783</ele>
        <time>2023-04-11T12:11:01.000Z</time>
      </trkpt>
      <trkpt lat="45.83135" lon="4.6745">
        <ele>341.03824</ele>
        <time>2023-04-11T12:11:02.000Z</time>
      </trkpt>
      <trkpt lat="45.83132" lon="4.67446">
        <ele>341.3606</ele>
        <time>2023-04-11T12:11:03.000Z</time>
      </trkpt>
      <trkpt lat="45.83129" lon="4.67442">
        <ele>341.63629</ele>
        <time>2023-04-11T12:11:04.000Z</time>
      </trkpt>
      <trkpt lat="45.83126" lon="4.67439">
        <ele>341.9209</ele>
        <time>2023-04-11T12:11:05.000Z</time>
      </trkpt>
      <trkpt lat="45.83122" lon="4.67436">
        <ele>342.1933</ele>
        <time>2023-04-11T12:11:06.000Z</time>
      </trkpt>
      <trkpt lat="45.83119" lon="4.67432">
        <ele>342.47696</ele>
        <time>2023-04-11T12:11:07.000Z</time>
      </trkpt>
      <trkpt lat="45.83115" lon="4.67429">
        <ele>342.73413</ele>
        <time>2023-04-11T12:11:08.000Z</time>
      </trkpt>
      <trkpt lat="45.83111" lon="4.67426">
        <ele>343.05133</ele>
        <time>2023-04-11T12:11:09.000Z</time>
      </trkpt>
      <trkpt lat="45.83108" lon="4.67423">
        <ele>343.38605</ele>
        <time>2023-04-11T12:11:10.000Z</time>
      </trkpt>
      <trkpt lat="45.83105" lon="4.67419">
        <ele>343.53882</ele>
        <time>2023-04-11T12:11:11.000Z</time>
      </trkpt>
      <trkpt lat="45.83102" lon="4.67416">
        <ele>343.65573</ele>
        <time>2023-04-11T12:11:12.000Z</time>
      </trkpt>
      <trkpt lat="45.83099" lon="4.67412">
        <ele>343.81525</ele>
        <time>2023-04-11T12:11:13.000Z</time>
      </trkpt>
      <trkpt lat="45.83096" lon="4.67409">
        <ele>343.96237</ele>
        <time>2023-04-11T12:11:14.000Z</time>
      </trkpt>
      <trkpt lat="45.83092" lon="4.67405">
        <ele>344.10312</ele>
        <time>2023-04-11T12:11:15.000Z</time>
      </trkpt>
      <trkpt lat="45.83088" lon="4.67401">
        <ele>344.25204</ele>
        <time>2023-04-11T12:11:16.000Z</time>
      </trkpt>
      <trkpt lat="45.83085" lon="4.67397">
        <ele>344.24631</ele>
        <time>2023-04-11T12:11:17.000Z</time>
      </trkpt>
      <trkpt lat="45.83081" lon="4.67392">
        <ele>344.28159</ele>
        <time>2023-04-11T12:11:18.000Z</time>
      </trkpt>
      <trkpt lat="45.83077" lon="4.67388">
        <ele>344.32944</ele>
        <time>2023-04-11T12:11:19.000Z</time>
      </trkpt>
      <trkpt lat="45.83073" lon="4.67384">
        <ele>344.39172</ele>
        <time>2023-04-11T12:11:20.000Z</time>
      </trkpt>
      <trkpt lat="45.8307" lon="4.6738">
        <ele>344.47186</ele>
        <time>2023-04-11T12:11:21.000Z</time>
      </trkpt>
      <trkpt lat="45.83066" lon="4.67375">
        <ele>344.55707</ele>
        <time>2023-04-11T12:11:22.000Z</time>
      </trkpt>
      <trkpt lat="45.83062" lon="4.67372">
        <ele>344.6633</ele>
        <time>2023-04-11T12:11:23.000Z</time>
      </trkpt>
      <trkpt lat="45.83058" lon="4.67368">
        <ele>344.79279</ele>
        <time>2023-04-11T12:11:24.000Z</time>
      </trkpt>
      <trkpt lat="45.83054" lon="4.67364">
        <ele>345.01703</ele>
        <time>2023-04-11T12:11:25.000Z</time>
      </trkpt>
      <trkpt lat="45.83051" lon="4.67361">
        <ele>344.87219</ele>
        <time>2023-04-11T12:11:26.000Z</time>
      </trkpt>
      <trkpt lat="45.83047" lon="4.67358">
        <ele>344.82016</ele>
        <time>2023-04-11T12:11:27.000Z</time>
      </trkpt>
      <trkpt lat="45.83044" lon="4.67354">
        <ele>344.79019</ele>
        <time>2023-04-11T12:11:28.000Z</time>
      </trkpt>
      <trkpt lat="45.8304" lon="4.6735">
        <ele>344.68353</ele>
        <time>2023-04-11T12:11:29.000Z</time>
      </trkpt>
      <trkpt lat="45.83036" lon="4.67347">
        <ele>344.60034</ele>
        <time>2023-04-11T12:11:30.000Z</time>
      </trkpt>
      <trkpt lat="45.83032" lon="4.67344">
        <ele>344.57324</ele>
        <time>2023-04-11T12:11:31.000Z</time>
      </trkpt>
      <trkpt lat="45.83029" lon="4.67341">
        <ele>344.65375</ele>
        <time>2023-04-11T12:11:32.000Z</time>
      </trkpt>
      <trkpt lat="45.83024" lon="4.67338">
        <ele>344.73425</ele>
        <time>2023-04-11T12:11:33.000Z</time>
      </trkpt>
      <trkpt lat="45.83021" lon="4.67335">
        <ele>344.81244</ele>
        <time>2023-04-11T12:11:34.000Z</time>
      </trkpt>
      <trkpt lat="45.83017" lon="4.67331">
        <ele>344.86395</ele>
        <time>2023-04-11T12:11:35.000Z</time>
      </trkpt>
      <trkpt lat="45.83014" lon="4.67327">
        <ele>344.9295</ele>
        <time>2023-04-11T12:11:36.000Z</time>
      </trkpt>
      <trkpt lat="45.8301" lon="4.67324">
        <ele>345</ele>
        <time>2023-04-11T12:11:37.000Z</time>
      </trkpt>
      <trkpt lat="45.83007" lon="4.67321">
        <ele>345.08319</ele>
        <time>2023-04-11T12:11:38.000Z</time>
      </trkpt>
      <trkpt lat="45.83003" lon="4.67319">
        <ele>345.18063</ele>
        <time>2023-04-11T12:11:39.000Z</time>
      </trkpt>
      <trkpt lat="45.83001" lon="4.67316">
        <ele>345.30011</ele>
        <time>2023-04-11T12:11:40.000Z</time>
      </trkpt>
      <trkpt lat="45.82999" lon="4.67312">
        <ele>345.42422</ele>
        <time>2023-04-11T12:11:41.000Z</time>
      </trkpt>
      <trkpt lat="45.83" lon="4.67307">
        <ele>345.57275</ele>
        <time>2023-04-11T12:11:42.000Z</time>
      </trkpt>
      <trkpt lat="45.83001" lon="4.67303">
        <ele>345.66898</ele>
        <time>2023-04-11T12:11:43.000Z</time>
      </trkpt>
      <trkpt lat="45.83002" lon="4.67298">
        <ele>345.74655</ele>
        <time>2023-04-11T12:11:44.000Z</time>
      </trkpt>
      <trkpt lat="45.83004" lon="4.67292">
        <ele>345.66928</ele>
        <time>2023-04-11T12:11:45.000Z</time>
      </trkpt>
      <trkpt lat="45.83006" lon="4.67287">
        <ele>345.97641</ele>
        <time>2023-04-11T12:11:46.000Z</time>
      </trkpt>
      <trkpt lat="45.83008" lon="4.67282">
        <ele>346.17462</ele>
        <time>2023-04-11T12:11:47.000Z</time>
      </trkpt>
      <trkpt lat="45.83009" lon="4.67274">
        <ele>346.36987</ele>
        <time>2023-04-11T12:11:48.000Z</time>
      </trkpt>
      <trkpt lat="45.8301" lon="4.67268">
        <ele>346.55536</ele>
        <time>2023-04-11T12:11:49.000Z</time>
      </trkpt>
      <trkpt lat="45.83012" lon="4.67262">
        <ele>346.69739</ele>
        <time>2023-04-11T12:11:50.000Z</time>
      </trkpt>
      <trkpt lat="45.83014" lon="4.67257">
        <ele>346.83783</ele>
        <time>2023-04-11T12:11:51.000Z</time>
      </trkpt>
      <trkpt lat="45.83016" lon="4.67252">
        <ele>346.91714</ele>
        <time>2023-04-11T12:11:52.000Z</time>
      </trkpt>
      <trkpt lat="45.83018" lon="4.67248">
        <ele>346.96606</ele>
        <time>2023-04-11T12:11:53.000Z</time>
      </trkpt>
      <trkpt lat="45.8302" lon="4.67242">
        <ele>347.05389</ele>
        <time>2023-04-11T12:11:54.000Z</time>
      </trkpt>
      <trkpt lat="45.8302" lon="4.67237">
        <ele>347.14771</ele>
        <time>2023-04-11T12:11:55.000Z</time>
      </trkpt>
      <trkpt lat="45.83023" lon="4.67232">
        <ele>347.1485</ele>
        <time>2023-04-11T12:11:56.000Z</time>
      </trkpt>
      <trkpt lat="45.83025" lon="4.67226">
        <ele>347.10635</ele>
        <time>2023-04-11T12:11:57.000Z</time>
      </trkpt>
      <trkpt lat="45.83026" lon="4.67221">
        <ele>347.06689</ele>
        <time>2023-04-11T12:11:58.000Z</time>
      </trkpt>
      <trkpt lat="45.83028" lon="4.67217">
        <ele>347.00751</ele>
        <time>2023-04-11T12:11:59.000Z</time>
      </trkpt>
      <trkpt lat="45.8303" lon="4.67212">
        <ele>346.98706</ele>
        <time>2023-04-11T12:12:00.000Z</time>
      </trkpt>
      <trkpt lat="45.83031" lon="4.67208">
        <ele>346.92117</ele>
        <time>2023-04-11T12:12:01.000Z</time>
      </trkpt>
      <trkpt lat="45.83032" lon="4.67203">
        <ele>346.8493</ele>
        <time>2023-04-11T12:12:02.000Z</time>
      </trkpt>
      <trkpt lat="45.83033" lon="4.67198">
        <ele>346.841</ele>
        <time>2023-04-11T12:12:03.000Z</time>
      </trkpt>
      <trkpt lat="45.83034" lon="4.67193">
        <ele>346.85059</ele>
        <time>2023-04-11T12:12:04.000Z</time>
      </trkpt>
      <trkpt lat="45.83034" lon="4.67188">
        <ele>346.88379</ele>
        <time>2023-04-11T12:12:05.000Z</time>
      </trkpt>
      <trkpt lat="45.83033" lon="4.67183">
        <ele>346.94418</ele>
        <time>2023-04-11T12:12:06.000Z</time>
      </trkpt>
      <trkpt lat="45.83032" lon="4.67178">
        <ele>346.99939</ele>
        <time>2023-04-11T12:12:07.000Z</time>
      </trkpt>
      <trkpt lat="45.8303" lon="4.67174">
        <ele>347.04901</ele>
        <time>2023-04-11T12:12:08.000Z</time>
      </trkpt>
      <trkpt lat="45.83027" lon="4.6717">
        <ele>347.10434</ele>
        <time>2023-04-11T12:12:09.000Z</time>
      </trkpt>
      <trkpt lat="45.83024" lon="4.67165">
        <ele>347.18378</ele>
        <time>2023-04-11T12:12:10.000Z</time>
      </trkpt>
      <trkpt lat="45.83021" lon="4.6716">
        <ele>347.25433</ele>
        <time>2023-04-11T12:12:11.000Z</time>
      </trkpt>
      <trkpt lat="45.83018" lon="4.67156">
        <ele>347.37607</ele>
        <time>2023-04-11T12:12:12.000Z</time>
      </trkpt>
      <trkpt lat="45.83016" lon="4.67151">
        <ele>347.50592</ele>
        <time>2023-04-11T12:12:13.000Z</time>
      </trkpt>
      <trkpt lat="45.83013" lon="4.67146">
        <ele>347.8118</ele>
        <time>2023-04-11T12:12:14.000Z</time>
      </trkpt>
      <trkpt lat="45.83011" lon="4.67141">
        <ele>348.15704</ele>
        <time>2023-04-11T12:12:15.000Z</time>
      </trkpt>
      <trkpt lat="45.83008" lon="4.67135">
        <ele>348.58911</ele>
        <time>2023-04-11T12:12:16.000Z</time>
      </trkpt>
      <trkpt lat="45.83006" lon="4.6713">
        <ele>349.14301</ele>
        <time>2023-04-11T12:12:17.000Z</time>
      </trkpt>
      <trkpt lat="45.83004" lon="4.67125">
        <ele>349.35556</ele>
        <time>2023-04-11T12:12:18.000Z</time>
      </trkpt>
      <trkpt lat="45.83003" lon="4.67119">
        <ele>349.63409</ele>
        <time>2023-04-11T12:12:19.000Z</time>
      </trkpt>
      <trkpt lat="45.83002" lon="4.67114">
        <ele>349.89297</ele>
        <time>2023-04-11T12:12:20.000Z</time>
      </trkpt>
      <trkpt lat="45.83001" lon="4.67109">
        <ele>350.20508</ele>
        <time>2023-04-11T12:12:21.000Z</time>
      </trkpt>
      <trkpt lat="45.83" lon="4.67104">
        <ele>350.53244</ele>
        <time>2023-04-11T12:12:22.000Z</time>
      </trkpt>
      <trkpt lat="45.82999" lon="4.67099">
        <ele>350.83694</ele>
        <time>2023-04-11T12:12:23.000Z</time>
      </trkpt>
      <trkpt lat="45.82998" lon="4.67095">
        <ele>351.1463</ele>
        <time>2023-04-11T12:12:24.000Z</time>
      </trkpt>
      <trkpt lat="45.82998" lon="4.67092">
        <ele>351.44199</ele>
        <time>2023-04-11T12:12:25.000Z</time>
      </trkpt>
      <trkpt lat="45.82998" lon="4.67087">
        <ele>351.74399</ele>
        <time>2023-04-11T12:12:26.000Z</time>
      </trkpt>
      <trkpt lat="45.82998" lon="4.67082">
        <ele>352.06976</ele>
        <time>2023-04-11T12:12:27.000Z</time>
      </trkpt>
      <trkpt lat="45.82998" lon="4.67078">
        <ele>352.38483</ele>
        <time>2023-04-11T12:12:28.000Z</time>
      </trkpt>
      <trkpt lat="45.82999" lon="4.67073">
        <ele>352.703</ele>
        <time>2023-04-11T12:12:29.000Z</time>
      </trkpt>
      <trkpt lat="45.82999" lon="4.67068">
        <ele>353.01617</ele>
        <time>2023-04-11T12:12:30.000Z</time>
      </trkpt>
      <trkpt lat="45.83" lon="4.67063">
        <ele>353.29861</ele>
        <time>2023-04-11T12:12:31.000Z</time>
      </trkpt>
      <trkpt lat="45.83001" lon="4.67058">
        <ele>353.52225</ele>
        <time>2023-04-11T12:12:32.000Z</time>
      </trkpt>
      <trkpt lat="45.83002" lon="4.67053">
        <ele>353.74817</ele>
        <time>2023-04-11T12:12:33.000Z</time>
      </trkpt>
      <trkpt lat="45.83003" lon="4.67049">
        <ele>353.84409</ele>
        <time>2023-04-11T12:12:34.000Z</time>
      </trkpt>
      <trkpt lat="45.83003" lon="4.67044">
        <ele>353.93451</ele>
        <time>2023-04-11T12:12:35.000Z</time>
      </trkpt>
      <trkpt lat="45.83004" lon="4.6704">
        <ele>354.00092</ele>
        <time>2023-04-11T12:12:36.000Z</time>
      </trkpt>
      <trkpt lat="45.83004" lon="4.67035">
        <ele>353.96146</ele>
        <time>2023-04-11T12:12:37.000Z</time>
      </trkpt>
      <trkpt lat="45.83004" lon="4.67032">
        <ele>354.26794</ele>
        <time>2023-04-11T12:12:38.000Z</time>
      </trkpt>
      <trkpt lat="45.83005" lon="4.67027">
        <ele>354.54874</ele>
        <time>2023-04-11T12:12:39.000Z</time>
      </trkpt>
      <trkpt lat="45.83005" lon="4.67023">
        <ele>354.73871</ele>
        <time>2023-04-11T12:12:40.000Z</time>
      </trkpt>
      <trkpt lat="45.83006" lon="4.67018">
        <ele>354.91287</ele>
        <time>2023-04-11T12:12:41.000Z</time>
      </trkpt>
      <trkpt lat="45.83007" lon="4.67012">
        <ele>355.0639</ele>
        <time>2023-04-11T12:12:42.000Z</time>
      </trkpt>
      <trkpt lat="45.83007" lon="4.67007">
        <ele>355.20929</ele>
        <time>2023-04-11T12:12:43.000Z</time>
      </trkpt>
      <trkpt lat="45.83007" lon="4.67001">
        <ele>355.32269</ele>
        <time>2023-04-11T12:12:44.000Z</time>
      </trkpt>
      <trkpt lat="45.83008" lon="4.66995">
        <ele>355.48138</ele>
        <time>2023-04-11T12:12:45.000Z</time>
      </trkpt>
      <trkpt lat="45.83008" lon="4.66989">
        <ele>355.59732</ele>
        <time>2023-04-11T12:12:46.000Z</time>
      </trkpt>
      <trkpt lat="45.83008" lon="4.66983">
        <ele>355.72534</ele>
        <time>2023-04-11T12:12:47.000Z</time>
      </trkpt>
      <trkpt lat="45.83009" lon="4.66978">
        <ele>355.87201</ele>
        <time>2023-04-11T12:12:48.000Z</time>
      </trkpt>
      <trkpt lat="45.83009" lon="4.66973">
        <ele>356.02301</ele>
        <time>2023-04-11T12:12:49.000Z</time>
      </trkpt>
      <trkpt lat="45.83009" lon="4.66968">
        <ele>356.2171</ele>
        <time>2023-04-11T12:12:50.000Z</time>
      </trkpt>
      <trkpt lat="45.8301" lon="4.66963">
        <ele>356.4527</ele>
        <time>2023-04-11T12:12:51.000Z</time>
      </trkpt>
      <trkpt lat="45.8301" lon="4.66959">
        <ele>356.70892</ele>
        <time>2023-04-11T12:12:52.000Z</time>
      </trkpt>
      <trkpt lat="45.8301" lon="4.66955">
        <ele>357.02698</ele>
        <time>2023-04-11T12:12:53.000Z</time>
      </trkpt>
      <trkpt lat="45.8301" lon="4.6695">
        <ele>357.26495</ele>
        <time>2023-04-11T12:12:54.000Z</time>
      </trkpt>
      <trkpt lat="45.8301" lon="4.66946">
        <ele>357.51697</ele>
        <time>2023-04-11T12:12:55.000Z</time>
      </trkpt>
      <trkpt lat="45.83011" lon="4.66942">
        <ele>357.75848</ele>
        <time>2023-04-11T12:12:56.000Z</time>
      </trkpt>
      <trkpt lat="45.83011" lon="4.66937">
        <ele>357.97983</ele>
        <time>2023-04-11T12:12:57.000Z</time>
      </trkpt>
      <trkpt lat="45.83011" lon="4.66932">
        <ele>358.20239</ele>
        <time>2023-04-11T12:12:58.000Z</time>
      </trkpt>
      <trkpt lat="45.83012" lon="4.66926">
        <ele>358.41937</ele>
        <time>2023-04-11T12:12:59.000Z</time>
      </trkpt>
      <trkpt lat="45.83012" lon="4.6692">
        <ele>358.70343</ele>
        <time>2023-04-11T12:13:00.000Z</time>
      </trkpt>
      <trkpt lat="45.83012" lon="4.66915">
        <ele>359.12549</ele>
        <time>2023-04-11T12:13:01.000Z</time>
      </trkpt>
      <trkpt lat="45.83013" lon="4.66909">
        <ele>359.50967</ele>
        <time>2023-04-11T12:13:02.000Z</time>
      </trkpt>
      <trkpt lat="45.83014" lon="4.66903">
        <ele>359.90723</ele>
        <time>2023-04-11T12:13:03.000Z</time>
      </trkpt>
      <trkpt lat="45.83015" lon="4.66898">
        <ele>360.30963</ele>
        <time>2023-04-11T12:13:04.000Z</time>
      </trkpt>
      <trkpt lat="45.83016" lon="4.66892">
        <ele>360.6998</ele>
        <time>2023-04-11T12:13:05.000Z</time>
      </trkpt>
      <trkpt lat="45.83016" lon="4.66886">
        <ele>360.94794</ele>
        <time>2023-04-11T12:13:06.000Z</time>
      </trkpt>
      <trkpt lat="45.83016" lon="4.66881">
        <ele>361.22589</ele>
        <time>2023-04-11T12:13:07.000Z</time>
      </trkpt>
      <trkpt lat="45.83017" lon="4.66875">
        <ele>361.5032</ele>
        <time>2023-04-11T12:13:08.000Z</time>
      </trkpt>
      <trkpt lat="45.83017" lon="4.6687">
        <ele>361.76575</ele>
        <time>2023-04-11T12:13:09.000Z</time>
      </trkpt>
      <trkpt lat="45.83018" lon="4.66866">
        <ele>362.01929</ele>
        <time>2023-04-11T12:13:10.000Z</time>
      </trkpt>
      <trkpt lat="45.83018" lon="4.66861">
        <ele>362.30099</ele>
        <time>2023-04-11T12:13:11.000Z</time>
      </trkpt>
      <trkpt lat="45.83018" lon="4.66856">
        <ele>362.60254</ele>
        <time>2023-04-11T12:13:12.000Z</time>
      </trkpt>
      <trkpt lat="45.83018" lon="4.66851">
        <ele>362.76978</ele>
        <time>2023-04-11T12:13:13.000Z</time>
      </trkpt>
      <trkpt lat="45.83019" lon="4.66847">
        <ele>362.96558</ele>
        <time>2023-04-11T12:13:14.000Z</time>
      </trkpt>
      <trkpt lat="45.83021" lon="4.66845">
        <ele>363.11682</ele>
        <time>2023-04-11T12:13:15.000Z</time>
      </trkpt>
      <trkpt lat="45.83023" lon="4.66844">
        <ele>363.12042</ele>
        <time>2023-04-11T12:13:16.000Z</time>
      </trkpt>
      <trkpt lat="45.83026" lon="4.66844">
        <ele>363.10651</ele>
        <time>2023-04-11T12:13:17.000Z</time>
      </trkpt>
      <trkpt lat="45.83029" lon="4.66845">
        <ele>363.05963</ele>
        <time>2023-04-11T12:13:18.000Z</time>
      </trkpt>
      <trkpt lat="45.83031" lon="4.66846">
        <ele>362.9736</ele>
        <time>2023-04-11T12:13:19.000Z</time>
      </trkpt>
      <trkpt lat="45.83033" lon="4.66847">
        <ele>362.866</ele>
        <time>2023-04-11T12:13:20.000Z</time>
      </trkpt>
      <trkpt lat="45.83035" lon="4.66848">
        <ele>362.67123</ele>
        <time>2023-04-11T12:13:21.000Z</time>
      </trkpt>
      <trkpt lat="45.83038" lon="4.66848">
        <ele>362.52634</ele>
        <time>2023-04-11T12:13:23.000Z</time>
      </trkpt>
      <trkpt lat="45.8304" lon="4.66849">
        <ele>362.30875</ele>
        <time>2023-04-11T12:13:26.000Z</time>
      </trkpt>
      <trkpt lat="45.83041" lon="4.66851">
        <ele>362.13965</ele>
        <time>2023-04-11T12:14:10.000Z</time>
      </trkpt>
      <trkpt lat="45.83044" lon="4.66849">
        <ele>361.96393</ele>
        <time>2023-04-11T12:14:38.000Z</time>
      </trkpt>
      <trkpt lat="45.83046" lon="4.66849">
        <ele>361.93146</ele>
        <time>2023-04-11T12:14:39.000Z</time>
      </trkpt>
      <trkpt lat="45.83049" lon="4.66849">
        <ele>361.85727</ele>
        <time>2023-04-11T12:14:40.000Z</time>
      </trkpt>
      <trkpt lat="45.83052" lon="4.66849">
        <ele>361.71136</ele>
        <time>2023-04-11T12:14:41.000Z</time>
      </trkpt>
      <trkpt lat="45.83056" lon="4.66849">
        <ele>361.57843</ele>
        <time>2023-04-11T12:14:42.000Z</time>
      </trkpt>
      <trkpt lat="45.8306" lon="4.6685">
        <ele>361.41132</ele>
        <time>2023-04-11T12:14:43.000Z</time>
      </trkpt>
      <trkpt lat="45.83064" lon="4.66852">
        <ele>361.17752</ele>
        <time>2023-04-11T12:14:44.000Z</time>
      </trkpt>
      <trkpt lat="45.83068" lon="4.66854">
        <ele>360.94528</ele>
        <time>2023-04-11T12:14:45.000Z</time>
      </trkpt>
      <trkpt lat="45.83073" lon="4.66855">
        <ele>360.78305</ele>
        <time>2023-04-11T12:14:46.000Z</time>
      </trkpt>
      <trkpt lat="45.83077" lon="4.66857">
        <ele>360.58405</ele>
        <time>2023-04-11T12:14:47.000Z</time>
      </trkpt>
      <trkpt lat="45.83081" lon="4.6686">
        <ele>360.4064</ele>
        <time>2023-04-11T12:14:48.000Z</time>
      </trkpt>
      <trkpt lat="45.83087" lon="4.66863">
        <ele>360.31363</ele>
        <time>2023-04-11T12:14:49.000Z</time>
      </trkpt>
      <trkpt lat="45.83092" lon="4.66865">
        <ele>360.28741</ele>
        <time>2023-04-11T12:14:50.000Z</time>
      </trkpt>
      <trkpt lat="45.83097" lon="4.66868">
        <ele>360.24506</ele>
        <time>2023-04-11T12:14:51.000Z</time>
      </trkpt>
      <trkpt lat="45.83102" lon="4.66873">
        <ele>360.22632</ele>
        <time>2023-04-11T12:14:52.000Z</time>
      </trkpt>
      <trkpt lat="45.83107" lon="4.66877">
        <ele>360.19943</ele>
        <time>2023-04-11T12:14:53.000Z</time>
      </trkpt>
      <trkpt lat="45.83112" lon="4.6688">
        <ele>360.13571</ele>
        <time>2023-04-11T12:14:54.000Z</time>
      </trkpt>
      <trkpt lat="45.83118" lon="4.66884">
        <ele>360.02011</ele>
        <time>2023-04-11T12:14:55.000Z</time>
      </trkpt>
      <trkpt lat="45.83123" lon="4.66887">
        <ele>359.96396</ele>
        <time>2023-04-11T12:14:56.000Z</time>
      </trkpt>
      <trkpt lat="45.83129" lon="4.6689">
        <ele>359.85333</ele>
        <time>2023-04-11T12:14:57.000Z</time>
      </trkpt>
      <trkpt lat="45.83135" lon="4.66894">
        <ele>359.72427</ele>
        <time>2023-04-11T12:14:58.000Z</time>
      </trkpt>
      <trkpt lat="45.83141" lon="4.66898">
        <ele>359.59912</ele>
        <time>2023-04-11T12:14:59.000Z</time>
      </trkpt>
      <trkpt lat="45.83147" lon="4.66902">
        <ele>359.46344</ele>
        <time>2023-04-11T12:15:00.000Z</time>
      </trkpt>
      <trkpt lat="45.83154" lon="4.66905">
        <ele>359.36993</ele>
        <time>2023-04-11T12:15:01.000Z</time>
      </trkpt>
      <trkpt lat="45.83161" lon="4.66908">
        <ele>359.2858</ele>
        <time>2023-04-11T12:15:02.000Z</time>
      </trkpt>
      <trkpt lat="45.83167" lon="4.66911">
        <ele>359.20795</ele>
        <time>2023-04-11T12:15:03.000Z</time>
      </trkpt>
      <trkpt lat="45.83173" lon="4.66914">
        <ele>359.19012</ele>
        <time>2023-04-11T12:15:04.000Z</time>
      </trkpt>
      <trkpt lat="45.83179" lon="4.66918">
        <ele>359.14984</ele>
        <time>2023-04-11T12:15:05.000Z</time>
      </trkpt>
      <trkpt lat="45.83186" lon="4.66921">
        <ele>359.07242</ele>
        <time>2023-04-11T12:15:06.000Z</time>
      </trkpt>
      <trkpt lat="45.83192" lon="4.66924">
        <ele>359.01471</ele>
        <time>2023-04-11T12:15:07.000Z</time>
      </trkpt>
      <trkpt lat="45.83198" lon="4.66927">
        <ele>358.85995</ele>
        <time>2023-04-11T12:15:08.000Z</time>
      </trkpt>
      <trkpt lat="45.83205" lon="4.66931">
        <ele>358.81088</ele>
        <time>2023-04-11T12:15:09.000Z</time>
      </trkpt>
      <trkpt lat="45.83212" lon="4.66934">
        <ele>358.72089</ele>
        <time>2023-04-11T12:15:10.000Z</time>
      </trkpt>
      <trkpt lat="45.83218" lon="4.66936">
        <ele>358.64819</ele>
        <time>2023-04-11T12:15:11.000Z</time>
      </trkpt>
      <trkpt lat="45.83224" lon="4.6694">
        <ele>358.58414</ele>
        <time>2023-04-11T12:15:12.000Z</time>
      </trkpt>
      <trkpt lat="45.83231" lon="4.66943">
        <ele>358.52094</ele>
        <time>2023-04-11T12:15:13.000Z</time>
      </trkpt>
      <trkpt lat="45.83236" lon="4.66946">
        <ele>358.41986</ele>
        <time>2023-04-11T12:15:14.000Z</time>
      </trkpt>
      <trkpt lat="45.83243" lon="4.66949">
        <ele>358.38715</ele>
        <time>2023-04-11T12:15:15.000Z</time>
      </trkpt>
      <trkpt lat="45.83249" lon="4.66953">
        <ele>358.31992</ele>
        <time>2023-04-11T12:15:16.000Z</time>
      </trkpt>
      <trkpt lat="45.83255" lon="4.66956">
        <ele>358.246</ele>
        <time>2023-04-11T12:15:17.000Z</time>
      </trkpt>
      <trkpt lat="45.83261" lon="4.66958">
        <ele>358.16296</ele>
        <time>2023-04-11T12:15:18.000Z</time>
      </trkpt>
      <trkpt lat="45.83267" lon="4.6696">
        <ele>358.10492</ele>
        <time>2023-04-11T12:15:19.000Z</time>
      </trkpt>
      <trkpt lat="45.83273" lon="4.66963">
        <ele>358.04401</ele>
        <time>2023-04-11T12:15:20.000Z</time>
      </trkpt>
      <trkpt lat="45.8328" lon="4.66965">
        <ele>357.96204</ele>
        <time>2023-04-11T12:15:21.000Z</time>
      </trkpt>
      <trkpt lat="45.83287" lon="4.66968">
        <ele>357.86792</ele>
        <time>2023-04-11T12:15:22.000Z</time>
      </trkpt>
      <trkpt lat="45.83293" lon="4.66969">
        <ele>357.82147</ele>
        <time>2023-04-11T12:15:23.000Z</time>
      </trkpt>
      <trkpt lat="45.83299" lon="4.6697">
        <ele>357.72342</ele>
        <time>2023-04-11T12:15:24.000Z</time>
      </trkpt>
      <trkpt lat="45.83305" lon="4.66971">
        <ele>357.625</ele>
        <time>2023-04-11T12:15:25.000Z</time>
      </trkpt>
      <trkpt lat="45.8331" lon="4.66971">
        <ele>357.5864</ele>
        <time>2023-04-11T12:15:26.000Z</time>
      </trkpt>
      <trkpt lat="45.83317" lon="4.66972">
        <ele>357.52728</ele>
        <time>2023-04-11T12:15:27.000Z</time>
      </trkpt>
      <trkpt lat="45.83322" lon="4.66974">
        <ele>357.5329</ele>
        <time>2023-04-11T12:15:28.000Z</time>
      </trkpt>
      <trkpt lat="45.83329" lon="4.66973">
        <ele>357.47662</ele>
        <time>2023-04-11T12:15:29.000Z</time>
      </trkpt>
      <trkpt lat="45.83334" lon="4.66973">
        <ele>357.44186</ele>
        <time>2023-04-11T12:15:30.000Z</time>
      </trkpt>
      <trkpt lat="45.83338" lon="4.66973">
        <ele>357.39679</ele>
        <time>2023-04-11T12:15:31.000Z</time>
      </trkpt>
      <trkpt lat="45.83343" lon="4.66972">
        <ele>357.32559</ele>
        <time>2023-04-11T12:15:32.000Z</time>
      </trkpt>
      <trkpt lat="45.83348" lon="4.66972">
        <ele>357.26312</ele>
        <time>2023-04-11T12:15:33.000Z</time>
      </trkpt>
      <trkpt lat="45.83353" lon="4.66972">
        <ele>357.21848</ele>
        <time>2023-04-11T12:15:34.000Z</time>
      </trkpt>
      <trkpt lat="45.83358" lon="4.66971">
        <ele>357.13596</ele>
        <time>2023-04-11T12:15:35.000Z</time>
      </trkpt>
      <trkpt lat="45.83361" lon="4.66973">
        <ele>357.07092</ele>
        <time>2023-04-11T12:15:36.000Z</time>
      </trkpt>
      <trkpt lat="45.83365" lon="4.66976">
        <ele>357.0589</ele>
        <time>2023-04-11T12:15:37.000Z</time>
      </trkpt>
      <trkpt lat="45.83368" lon="4.6698">
        <ele>357.04916</ele>
        <time>2023-04-11T12:15:38.000Z</time>
      </trkpt>
      <trkpt lat="45.83369" lon="4.66986">
        <ele>357.00208</ele>
        <time>2023-04-11T12:15:39.000Z</time>
      </trkpt>
      <trkpt lat="45.8337" lon="4.66989">
        <ele>356.97473</ele>
        <time>2023-04-11T12:15:40.000Z</time>
      </trkpt>
      <trkpt lat="45.83371" lon="4.66994">
        <ele>357.0553</ele>
        <time>2023-04-11T12:15:41.000Z</time>
      </trkpt>
      <trkpt lat="45.83371" lon="4.67">
        <ele>357.13654</ele>
        <time>2023-04-11T12:15:42.000Z</time>
      </trkpt>
      <trkpt lat="45.83371" lon="4.67004">
        <ele>357.17392</ele>
        <time>2023-04-11T12:15:43.000Z</time>
      </trkpt>
      <trkpt lat="45.8337" lon="4.6701">
        <ele>357.23453</ele>
        <time>2023-04-11T12:15:44.000Z</time>
      </trkpt>
      <trkpt lat="45.8337" lon="4.67015">
        <ele>357.2811</ele>
        <time>2023-04-11T12:15:45.000Z</time>
      </trkpt>
      <trkpt lat="45.8337" lon="4.67021">
        <ele>357.28632</ele>
        <time>2023-04-11T12:15:46.000Z</time>
      </trkpt>
      <trkpt lat="45.83371" lon="4.67026">
        <ele>357.30075</ele>
        <time>2023-04-11T12:15:47.000Z</time>
      </trkpt>
      <trkpt lat="45.83372" lon="4.67032">
        <ele>357.33893</ele>
        <time>2023-04-11T12:15:48.000Z</time>
      </trkpt>
      <trkpt lat="45.83373" lon="4.67037">
        <ele>357.39969</ele>
        <time>2023-04-11T12:15:49.000Z</time>
      </trkpt>
      <trkpt lat="45.83376" lon="4.67041">
        <ele>357.44086</ele>
        <time>2023-04-11T12:15:50.000Z</time>
      </trkpt>
      <trkpt lat="45.83379" lon="4.67045">
        <ele>357.47821</ele>
        <time>2023-04-11T12:15:51.000Z</time>
      </trkpt>
      <trkpt lat="45.83382" lon="4.67048">
        <ele>357.5202</ele>
        <time>2023-04-11T12:15:52.000Z</time>
      </trkpt>
      <trkpt lat="45.83386" lon="4.67051">
        <ele>357.58221</ele>
        <time>2023-04-11T12:15:53.000Z</time>
      </trkpt>
      <trkpt lat="45.83389" lon="4.67055">
        <ele>357.67606</ele>
        <time>2023-04-11T12:15:54.000Z</time>
      </trkpt>
      <trkpt lat="45.83393" lon="4.67059">
        <ele>357.79065</ele>
        <time>2023-04-11T12:15:55.000Z</time>
      </trkpt>
      <trkpt lat="45.83397" lon="4.67063">
        <ele>357.91122</ele>
        <time>2023-04-11T12:15:56.000Z</time>
      </trkpt>
      <trkpt lat="45.83401" lon="4.67067">
        <ele>357.88058</ele>
        <time>2023-04-11T12:15:57.000Z</time>
      </trkpt>
      <trkpt lat="45.83406" lon="4.67072">
        <ele>357.87219</ele>
        <time>2023-04-11T12:15:58.000Z</time>
      </trkpt>
      <trkpt lat="45.8341" lon="4.67076">
        <ele>357.90973</ele>
        <time>2023-04-11T12:15:59.000Z</time>
      </trkpt>
      <trkpt lat="45.83415" lon="4.67081">
        <ele>357.91898</ele>
        <time>2023-04-11T12:16:00.000Z</time>
      </trkpt>
      <trkpt lat="45.83419" lon="4.67087">
        <ele>357.85712</ele>
        <time>2023-04-11T12:16:01.000Z</time>
      </trkpt>
      <trkpt lat="45.83422" lon="4.67092">
        <ele>357.82031</ele>
        <time>2023-04-11T12:16:02.000Z</time>
      </trkpt>
      <trkpt lat="45.83427" lon="4.67097">
        <ele>357.77991</ele>
        <time>2023-04-11T12:16:03.000Z</time>
      </trkpt>
      <trkpt lat="45.83431" lon="4.67103">
        <ele>357.68033</ele>
        <time>2023-04-11T12:16:04.000Z</time>
      </trkpt>
      <trkpt lat="45.83435" lon="4.67109">
        <ele>357.60205</ele>
        <time>2023-04-11T12:16:05.000Z</time>
      </trkpt>
      <trkpt lat="45.83439" lon="4.67115">
        <ele>357.52725</ele>
        <time>2023-04-11T12:16:06.000Z</time>
      </trkpt>
      <trkpt lat="45.83443" lon="4.67119">
        <ele>357.44656</ele>
        <time>2023-04-11T12:16:07.000Z</time>
      </trkpt>
      <trkpt lat="45.83447" lon="4.67125">
        <ele>357.34561</ele>
        <time>2023-04-11T12:16:08.000Z</time>
      </trkpt>
      <trkpt lat="45.83451" lon="4.67131">
        <ele>357.22177</ele>
        <time>2023-04-11T12:16:09.000Z</time>
      </trkpt>
      <trkpt lat="45.83456" lon="4.67137">
        <ele>357.07635</ele>
        <time>2023-04-11T12:16:10.000Z</time>
      </trkpt>
      <trkpt lat="45.8346" lon="4.67143">
        <ele>356.93839</ele>
        <time>2023-04-11T12:16:11.000Z</time>
      </trkpt>
      <trkpt lat="45.83464" lon="4.6715">
        <ele>356.84637</ele>
        <time>2023-04-11T12:16:12.000Z</time>
      </trkpt>
      <trkpt lat="45.83468" lon="4.67156">
        <ele>356.7525</ele>
        <time>2023-04-11T12:16:13.000Z</time>
      </trkpt>
      <trkpt lat="45.83473" lon="4.67163">
        <ele>356.59799</ele>
        <time>2023-04-11T12:16:14.000Z</time>
      </trkpt>
      <trkpt lat="45.83477" lon="4.67169">
        <ele>356.42963</ele>
        <time>2023-04-11T12:16:15.000Z</time>
      </trkpt>
      <trkpt lat="45.83481" lon="4.67175">
        <ele>356.10587</ele>
        <time>2023-04-11T12:16:16.000Z</time>
      </trkpt>
      <trkpt lat="45.83486" lon="4.67182">
        <ele>355.89365</ele>
        <time>2023-04-11T12:16:17.000Z</time>
      </trkpt>
      <trkpt lat="45.83491" lon="4.67188">
        <ele>355.67322</ele>
        <time>2023-04-11T12:16:18.000Z</time>
      </trkpt>
      <trkpt lat="45.83496" lon="4.67193">
        <ele>355.49789</ele>
        <time>2023-04-11T12:16:19.000Z</time>
      </trkpt>
      <trkpt lat="45.83501" lon="4.67199">
        <ele>355.31866</ele>
        <time>2023-04-11T12:16:20.000Z</time>
      </trkpt>
      <trkpt lat="45.83507" lon="4.67205">
        <ele>355.12592</ele>
        <time>2023-04-11T12:16:21.000Z</time>
      </trkpt>
      <trkpt lat="45.83512" lon="4.6721">
        <ele>354.91733</ele>
        <time>2023-04-11T12:16:22.000Z</time>
      </trkpt>
      <trkpt lat="45.83519" lon="4.67216">
        <ele>354.70819</ele>
        <time>2023-04-11T12:16:23.000Z</time>
      </trkpt>
      <trkpt lat="45.83524" lon="4.67221">
        <ele>354.49786</ele>
        <time>2023-04-11T12:16:24.000Z</time>
      </trkpt>
      <trkpt lat="45.83529" lon="4.67226">
        <ele>354.24142</ele>
        <time>2023-04-11T12:16:25.000Z</time>
      </trkpt>
      <trkpt lat="45.83535" lon="4.67232">
        <ele>354.0788</ele>
        <time>2023-04-11T12:16:26.000Z</time>
      </trkpt>
      <trkpt lat="45.83541" lon="4.67237">
        <ele>353.92215</ele>
        <time>2023-04-11T12:16:27.000Z</time>
      </trkpt>
      <trkpt lat="45.83547" lon="4.67241">
        <ele>353.82294</ele>
        <time>2023-04-11T12:16:28.000Z</time>
      </trkpt>
      <trkpt lat="45.83552" lon="4.67245">
        <ele>353.7558</ele>
        <time>2023-04-11T12:16:29.000Z</time>
      </trkpt>
      <trkpt lat="45.83558" lon="4.67249">
        <ele>353.74554</ele>
        <time>2023-04-11T12:16:30.000Z</time>
      </trkpt>
      <trkpt lat="45.83564" lon="4.67254">
        <ele>353.71698</ele>
        <time>2023-04-11T12:16:31.000Z</time>
      </trkpt>
      <trkpt lat="45.8357" lon="4.67259">
        <ele>353.71729</ele>
        <time>2023-04-11T12:16:32.000Z</time>
      </trkpt>
      <trkpt lat="45.83576" lon="4.67263">
        <ele>353.45963</ele>
        <time>2023-04-11T12:16:33.000Z</time>
      </trkpt>
      <trkpt lat="45.83581" lon="4.67268">
        <ele>353.23599</ele>
        <time>2023-04-11T12:16:34.000Z</time>
      </trkpt>
      <trkpt lat="45.83587" lon="4.67273">
        <ele>352.98969</ele>
        <time>2023-04-11T12:16:35.000Z</time>
      </trkpt>
      <trkpt lat="45.83593" lon="4.67278">
        <ele>352.85727</ele>
        <time>2023-04-11T12:16:36.000Z</time>
      </trkpt>
      <trkpt lat="45.83598" lon="4.67283">
        <ele>352.73041</ele>
        <time>2023-04-11T12:16:37.000Z</time>
      </trkpt>
      <trkpt lat="45.83604" lon="4.67288">
        <ele>352.58755</ele>
        <time>2023-04-11T12:16:38.000Z</time>
      </trkpt>
      <trkpt lat="45.8361" lon="4.67292">
        <ele>352.3692</ele>
        <time>2023-04-11T12:16:39.000Z</time>
      </trkpt>
      <trkpt lat="45.83616" lon="4.67296">
        <ele>352.13898</ele>
        <time>2023-04-11T12:16:40.000Z</time>
      </trkpt>
      <trkpt lat="45.83622" lon="4.67302">
        <ele>351.94022</ele>
        <time>2023-04-11T12:16:41.000Z</time>
      </trkpt>
      <trkpt lat="45.83629" lon="4.67306">
        <ele>351.72583</ele>
        <time>2023-04-11T12:16:42.000Z</time>
      </trkpt>
      <trkpt lat="45.83635" lon="4.67309">
        <ele>351.49594</ele>
        <time>2023-04-11T12:16:43.000Z</time>
      </trkpt>
      <trkpt lat="45.83642" lon="4.67314">
        <ele>351.31879</ele>
        <time>2023-04-11T12:16:44.000Z</time>
      </trkpt>
      <trkpt lat="45.83649" lon="4.67318">
        <ele>351.18686</ele>
        <time>2023-04-11T12:16:45.000Z</time>
      </trkpt>
      <trkpt lat="45.83655" lon="4.67322">
        <ele>350.93686</ele>
        <time>2023-04-11T12:16:46.000Z</time>
      </trkpt>
      <trkpt lat="45.83661" lon="4.67326">
        <ele>350.68893</ele>
        <time>2023-04-11T12:16:47.000Z</time>
      </trkpt>
      <trkpt lat="45.83667" lon="4.6733">
        <ele>350.37296</ele>
        <time>2023-04-11T12:16:48.000Z</time>
      </trkpt>
      <trkpt lat="45.83674" lon="4.67334">
        <ele>350.05939</ele>
        <time>2023-04-11T12:16:49.000Z</time>
      </trkpt>
      <trkpt lat="45.8368" lon="4.67338">
        <ele>349.73016</ele>
        <time>2023-04-11T12:16:50.000Z</time>
      </trkpt>
      <trkpt lat="45.83687" lon="4.67342">
        <ele>349.60022</ele>
        <time>2023-04-11T12:16:51.000Z</time>
      </trkpt>
      <trkpt lat="45.83693" lon="4.67346">
        <ele>349.40668</ele>
        <time>2023-04-11T12:16:52.000Z</time>
      </trkpt>
      <trkpt lat="45.83699" lon="4.67351">
        <ele>349.44864</ele>
        <time>2023-04-11T12:16:53.000Z</time>
      </trkpt>
      <trkpt lat="45.83705" lon="4.67355">
        <ele>349.50494</ele>
        <time>2023-04-11T12:16:54.000Z</time>
      </trkpt>
      <trkpt lat="45.83712" lon="4.67359">
        <ele>349.25934</ele>
        <time>2023-04-11T12:16:55.000Z</time>
      </trkpt>
      <trkpt lat="45.83717" lon="4.67363">
        <ele>349.13504</ele>
        <time>2023-04-11T12:16:56.000Z</time>
      </trkpt>
      <trkpt lat="45.83723" lon="4.67366">
        <ele>349.01117</ele>
        <time>2023-04-11T12:16:57.000Z</time>
      </trkpt>
      <trkpt lat="45.83729" lon="4.67369">
        <ele>348.86075</ele>
        <time>2023-04-11T12:16:58.000Z</time>
      </trkpt>
      <trkpt lat="45.83735" lon="4.67374">
        <ele>348.73917</ele>
        <time>2023-04-11T12:16:59.000Z</time>
      </trkpt>
      <trkpt lat="45.83741" lon="4.67378">
        <ele>348.64191</ele>
        <time>2023-04-11T12:17:00.000Z</time>
      </trkpt>
      <trkpt lat="45.83747" lon="4.67381">
        <ele>348.4819</ele>
        <time>2023-04-11T12:17:01.000Z</time>
      </trkpt>
      <trkpt lat="45.83752" lon="4.67385">
        <ele>348.31827</ele>
        <time>2023-04-11T12:17:02.000Z</time>
      </trkpt>
      <trkpt lat="45.83758" lon="4.67388">
        <ele>348.14154</ele>
        <time>2023-04-11T12:17:03.000Z</time>
      </trkpt>
      <trkpt lat="45.83764" lon="4.67392">
        <ele>348.19379</ele>
        <time>2023-04-11T12:17:04.000Z</time>
      </trkpt>
      <trkpt lat="45.83771" lon="4.67396">
        <ele>348.27121</ele>
        <time>2023-04-11T12:17:05.000Z</time>
      </trkpt>
      <trkpt lat="45.83777" lon="4.67399">
        <ele>348.08258</ele>
        <time>2023-04-11T12:17:06.000Z</time>
      </trkpt>
      <trkpt lat="45.83784" lon="4.67402">
        <ele>347.94537</ele>
        <time>2023-04-11T12:17:07.000Z</time>
      </trkpt>
      <trkpt lat="45.8379" lon="4.67404">
        <ele>347.83194</ele>
        <time>2023-04-11T12:17:08.000Z</time>
      </trkpt>
      <trkpt lat="45.83796" lon="4.67405">
        <ele>347.71753</ele>
        <time>2023-04-11T12:17:09.000Z</time>
      </trkpt>
      <trkpt lat="45.83803" lon="4.67408">
        <ele>347.58469</ele>
        <time>2023-04-11T12:17:10.000Z</time>
      </trkpt>
      <trkpt lat="45.83808" lon="4.67411">
        <ele>347.26099</ele>
        <time>2023-04-11T12:17:11.000Z</time>
      </trkpt>
      <trkpt lat="45.83814" lon="4.67413">
        <ele>346.92065</ele>
        <time>2023-04-11T12:17:12.000Z</time>
      </trkpt>
      <trkpt lat="45.83821" lon="4.67415">
        <ele>346.57434</ele>
        <time>2023-04-11T12:17:13.000Z</time>
      </trkpt>
      <trkpt lat="45.83827" lon="4.67418">
        <ele>346.40439</ele>
        <time>2023-04-11T12:17:14.000Z</time>
      </trkpt>
      <trkpt lat="45.83833" lon="4.67422">
        <ele>346.55048</ele>
        <time>2023-04-11T12:17:15.000Z</time>
      </trkpt>
      <trkpt lat="45.83839" lon="4.67425">
        <ele>346.60367</ele>
        <time>2023-04-11T12:17:16.000Z</time>
      </trkpt>
      <trkpt lat="45.83845" lon="4.67427">
        <ele>346.6452</ele>
        <time>2023-04-11T12:17:17.000Z</time>
      </trkpt>
      <trkpt lat="45.83851" lon="4.67431">
        <ele>346.74115</ele>
        <time>2023-04-11T12:17:18.000Z</time>
      </trkpt>
      <trkpt lat="45.83858" lon="4.67434">
        <ele>346.81482</ele>
        <time>2023-04-11T12:17:19.000Z</time>
      </trkpt>
      <trkpt lat="45.83864" lon="4.67437">
        <ele>346.92017</ele>
        <time>2023-04-11T12:17:20.000Z</time>
      </trkpt>
      <trkpt lat="45.8387" lon="4.6744">
        <ele>346.70947</ele>
        <time>2023-04-11T12:17:21.000Z</time>
      </trkpt>
      <trkpt lat="45.83877" lon="4.67442">
        <ele>346.56683</ele>
        <time>2023-04-11T12:17:22.000Z</time>
      </trkpt>
      <trkpt lat="45.83883" lon="4.67446">
        <ele>346.44232</ele>
        <time>2023-04-11T12:17:23.000Z</time>
      </trkpt>
      <trkpt lat="45.8389" lon="4.67448">
        <ele>346.06436</ele>
        <time>2023-04-11T12:17:24.000Z</time>
      </trkpt>
      <trkpt lat="45.83897" lon="4.6745">
        <ele>345.64731</ele>
        <time>2023-04-11T12:17:25.000Z</time>
      </trkpt>
      <trkpt lat="45.83904" lon="4.67451">
        <ele>345.74545</ele>
        <time>2023-04-11T12:17:26.000Z</time>
      </trkpt>
      <trkpt lat="45.83911" lon="4.67454">
        <ele>345.78137</ele>
        <time>2023-04-11T12:17:27.000Z</time>
      </trkpt>
      <trkpt lat="45.83916" lon="4.67456">
        <ele>345.83636</ele>
        <time>2023-04-11T12:17:28.000Z</time>
      </trkpt>
      <trkpt lat="45.83924" lon="4.67458">
        <ele>345.90338</ele>
        <time>2023-04-11T12:17:29.000Z</time>
      </trkpt>
      <trkpt lat="45.8393" lon="4.6746">
        <ele>345.96857</ele>
        <time>2023-04-11T12:17:30.000Z</time>
      </trkpt>
      <trkpt lat="45.83937" lon="4.67462">
        <ele>346.10156</ele>
        <time>2023-04-11T12:17:31.000Z</time>
      </trkpt>
      <trkpt lat="45.83944" lon="4.67464">
        <ele>345.89108</ele>
        <time>2023-04-11T12:17:32.000Z</time>
      </trkpt>
      <trkpt lat="45.8395" lon="4.67466">
        <ele>345.79999</ele>
        <time>2023-04-11T12:17:33.000Z</time>
      </trkpt>
      <trkpt lat="45.83956" lon="4.67468">
        <ele>345.51288</ele>
        <time>2023-04-11T12:17:34.000Z</time>
      </trkpt>
      <trkpt lat="45.83963" lon="4.6747">
        <ele>345.22113</ele>
        <time>2023-04-11T12:17:35.000Z</time>
      </trkpt>
      <trkpt lat="45.83969" lon="4.67472">
        <ele>344.93018</ele>
        <time>2023-04-11T12:17:36.000Z</time>
      </trkpt>
      <trkpt lat="45.83975" lon="4.67473">
        <ele>344.63885</ele>
        <time>2023-04-11T12:17:37.000Z</time>
      </trkpt>
      <trkpt lat="45.83981" lon="4.67473">
        <ele>344.22955</ele>
        <time>2023-04-11T12:17:38.000Z</time>
      </trkpt>
      <trkpt lat="45.83987" lon="4.67474">
        <ele>343.81451</ele>
        <time>2023-04-11T12:17:39.000Z</time>
      </trkpt>
      <trkpt lat="45.83993" lon="4.67476">
        <ele>343.36044</ele>
        <time>2023-04-11T12:17:40.000Z</time>
      </trkpt>
      <trkpt lat="45.84" lon="4.67476">
        <ele>343.29306</ele>
        <time>2023-04-11T12:17:41.000Z</time>
      </trkpt>
      <trkpt lat="45.84005" lon="4.67479">
        <ele>343.13525</ele>
        <time>2023-04-11T12:17:42.000Z</time>
      </trkpt>
      <trkpt lat="45.84011" lon="4.67481">
        <ele>342.94586</ele>
        <time>2023-04-11T12:17:43.000Z</time>
      </trkpt>
      <trkpt lat="45.84017" lon="4.67482">
        <ele>342.98071</ele>
        <time>2023-04-11T12:17:44.000Z</time>
      </trkpt>
      <trkpt lat="45.84023" lon="4.67484">
        <ele>343.00998</ele>
        <time>2023-04-11T12:17:45.000Z</time>
      </trkpt>
      <trkpt lat="45.84029" lon="4.67486">
        <ele>342.7977</ele>
        <time>2023-04-11T12:17:46.000Z</time>
      </trkpt>
      <trkpt lat="45.84033" lon="4.67488">
        <ele>342.57617</ele>
        <time>2023-04-11T12:17:47.000Z</time>
      </trkpt>
      <trkpt lat="45.84039" lon="4.6749">
        <ele>342.33862</ele>
        <time>2023-04-11T12:17:48.000Z</time>
      </trkpt>
      <trkpt lat="45.84045" lon="4.67492">
        <ele>342.13354</ele>
        <time>2023-04-11T12:17:49.000Z</time>
      </trkpt>
      <trkpt lat="45.84051" lon="4.67494">
        <ele>341.58151</ele>
        <time>2023-04-11T12:17:50.000Z</time>
      </trkpt>
      <trkpt lat="45.84058" lon="4.67495">
        <ele>341.03564</ele>
        <time>2023-04-11T12:17:51.000Z</time>
      </trkpt>
      <trkpt lat="45.84064" lon="4.67496">
        <ele>340.84879</ele>
        <time>2023-04-11T12:17:52.000Z</time>
      </trkpt>
      <trkpt lat="45.8407" lon="4.67498">
        <ele>340.54541</ele>
        <time>2023-04-11T12:17:53.000Z</time>
      </trkpt>
      <trkpt lat="45.84076" lon="4.67499">
        <ele>340.26794</ele>
        <time>2023-04-11T12:17:54.000Z</time>
      </trkpt>
      <trkpt lat="45.84082" lon="4.67501">
        <ele>339.98206</ele>
        <time>2023-04-11T12:17:55.000Z</time>
      </trkpt>
      <trkpt lat="45.84088" lon="4.67503">
        <ele>339.70337</ele>
        <time>2023-04-11T12:17:56.000Z</time>
      </trkpt>
      <trkpt lat="45.84094" lon="4.67506">
        <ele>339.44424</ele>
        <time>2023-04-11T12:17:57.000Z</time>
      </trkpt>
      <trkpt lat="45.841" lon="4.6751">
        <ele>339.29605</ele>
        <time>2023-04-11T12:17:58.000Z</time>
      </trkpt>
      <trkpt lat="45.84106" lon="4.67513">
        <ele>339.15292</ele>
        <time>2023-04-11T12:17:59.000Z</time>
      </trkpt>
      <trkpt lat="45.84111" lon="4.67518">
        <ele>339.00668</ele>
        <time>2023-04-11T12:18:00.000Z</time>
      </trkpt>
      <trkpt lat="45.84116" lon="4.67523">
        <ele>338.85101</ele>
        <time>2023-04-11T12:18:01.000Z</time>
      </trkpt>
      <trkpt lat="45.84122" lon="4.67527">
        <ele>338.73969</ele>
        <time>2023-04-11T12:18:02.000Z</time>
      </trkpt>
      <trkpt lat="45.84126" lon="4.67531">
        <ele>338.62561</ele>
        <time>2023-04-11T12:18:03.000Z</time>
      </trkpt>
      <trkpt lat="45.8413" lon="4.67536">
        <ele>338.31891</ele>
        <time>2023-04-11T12:18:04.000Z</time>
      </trkpt>
      <trkpt lat="45.84135" lon="4.67541">
        <ele>337.98456</ele>
        <time>2023-04-11T12:18:05.000Z</time>
      </trkpt>
      <trkpt lat="45.84139" lon="4.67546">
        <ele>337.69656</ele>
        <time>2023-04-11T12:18:06.000Z</time>
      </trkpt>
      <trkpt lat="45.84144" lon="4.67551">
        <ele>337.44196</ele>
        <time>2023-04-11T12:18:07.000Z</time>
      </trkpt>
      <trkpt lat="45.84147" lon="4.67557">
        <ele>337.52988</ele>
        <time>2023-04-11T12:18:08.000Z</time>
      </trkpt>
      <trkpt lat="45.84152" lon="4.67562">
        <ele>337.32428</ele>
        <time>2023-04-11T12:18:09.000Z</time>
      </trkpt>
      <trkpt lat="45.84157" lon="4.67567">
        <ele>337.50616</ele>
        <time>2023-04-11T12:18:10.000Z</time>
      </trkpt>
      <trkpt lat="45.84162" lon="4.67572">
        <ele>337.62643</ele>
        <time>2023-04-11T12:18:11.000Z</time>
      </trkpt>
      <trkpt lat="45.84167" lon="4.67577">
        <ele>337.73804</ele>
        <time>2023-04-11T12:18:12.000Z</time>
      </trkpt>
      <trkpt lat="45.84171" lon="4.67581">
        <ele>337.85699</ele>
        <time>2023-04-11T12:18:13.000Z</time>
      </trkpt>
      <trkpt lat="45.84176" lon="4.67586">
        <ele>337.95099</ele>
        <time>2023-04-11T12:18:14.000Z</time>
      </trkpt>
      <trkpt lat="45.84181" lon="4.67592">
        <ele>338.05405</ele>
        <time>2023-04-11T12:18:15.000Z</time>
      </trkpt>
      <trkpt lat="45.84187" lon="4.67597">
        <ele>338.14954</ele>
        <time>2023-04-11T12:18:16.000Z</time>
      </trkpt>
      <trkpt lat="45.84191" lon="4.67603">
        <ele>338.23065</ele>
        <time>2023-04-11T12:18:17.000Z</time>
      </trkpt>
      <trkpt lat="45.84196" lon="4.67608">
        <ele>338.28564</ele>
        <time>2023-04-11T12:18:18.000Z</time>
      </trkpt>
      <trkpt lat="45.84201" lon="4.67613">
        <ele>338.3432</ele>
        <time>2023-04-11T12:18:19.000Z</time>
      </trkpt>
      <trkpt lat="45.84205" lon="4.67618">
        <ele>338.39285</ele>
        <time>2023-04-11T12:18:20.000Z</time>
      </trkpt>
      <trkpt lat="45.8421" lon="4.67622">
        <ele>338.38531</ele>
        <time>2023-04-11T12:18:21.000Z</time>
      </trkpt>
      <trkpt lat="45.84213" lon="4.67626">
        <ele>338.36639</ele>
        <time>2023-04-11T12:18:22.000Z</time>
      </trkpt>
      <trkpt lat="45.84217" lon="4.6763">
        <ele>338.39044</ele>
        <time>2023-04-11T12:18:23.000Z</time>
      </trkpt>
      <trkpt lat="45.84222" lon="4.67633">
        <ele>338.41409</ele>
        <time>2023-04-11T12:18:24.000Z</time>
      </trkpt>
      <trkpt lat="45.84227" lon="4.67636">
        <ele>338.47821</ele>
        <time>2023-04-11T12:18:25.000Z</time>
      </trkpt>
      <trkpt lat="45.84232" lon="4.67638">
        <ele>338.52515</ele>
        <time>2023-04-11T12:18:26.000Z</time>
      </trkpt>
      <trkpt lat="45.84238" lon="4.6764">
        <ele>338.57416</ele>
        <time>2023-04-11T12:18:27.000Z</time>
      </trkpt>
      <trkpt lat="45.84244" lon="4.67642">
        <ele>338.26935</ele>
        <time>2023-04-11T12:18:28.000Z</time>
      </trkpt>
      <trkpt lat="45.8425" lon="4.67644">
        <ele>338.23166</ele>
        <time>2023-04-11T12:18:29.000Z</time>
      </trkpt>
      <trkpt lat="45.84256" lon="4.67645">
        <ele>338.16055</ele>
        <time>2023-04-11T12:18:30.000Z</time>
      </trkpt>
      <trkpt lat="45.84262" lon="4.67646">
        <ele>338.0755</ele>
        <time>2023-04-11T12:18:31.000Z</time>
      </trkpt>
      <trkpt lat="45.84268" lon="4.67646">
        <ele>337.9624</ele>
        <time>2023-04-11T12:18:32.000Z</time>
      </trkpt>
      <trkpt lat="45.84274" lon="4.67647">
        <ele>337.86273</ele>
        <time>2023-04-11T12:18:33.000Z</time>
      </trkpt>
      <trkpt lat="45.84279" lon="4.67645">
        <ele>337.76837</ele>
        <time>2023-04-11T12:18:34.000Z</time>
      </trkpt>
      <trkpt lat="45.84284" lon="4.67643">
        <ele>337.69189</ele>
        <time>2023-04-11T12:18:35.000Z</time>
      </trkpt>
      <trkpt lat="45.8429" lon="4.67641">
        <ele>337.63486</ele>
        <time>2023-04-11T12:18:36.000Z</time>
      </trkpt>
      <trkpt lat="45.84296" lon="4.67639">
        <ele>337.58365</ele>
        <time>2023-04-11T12:18:37.000Z</time>
      </trkpt>
      <trkpt lat="45.84301" lon="4.67638">
        <ele>337.49716</ele>
        <time>2023-04-11T12:18:38.000Z</time>
      </trkpt>
      <trkpt lat="45.84306" lon="4.67636">
        <ele>337.40652</ele>
        <time>2023-04-11T12:18:39.000Z</time>
      </trkpt>
      <trkpt lat="45.84311" lon="4.67633">
        <ele>337.36401</ele>
        <time>2023-04-11T12:18:40.000Z</time>
      </trkpt>
      <trkpt lat="45.84316" lon="4.67629">
        <ele>337.38281</ele>
        <time>2023-04-11T12:18:41.000Z</time>
      </trkpt>
      <trkpt lat="45.84322" lon="4.67625">
        <ele>337.40454</ele>
        <time>2023-04-11T12:18:42.000Z</time>
      </trkpt>
      <trkpt lat="45.84327" lon="4.67622">
        <ele>337.43228</ele>
        <time>2023-04-11T12:18:43.000Z</time>
      </trkpt>
      <trkpt lat="45.84332" lon="4.67619">
        <ele>337.46033</ele>
        <time>2023-04-11T12:18:44.000Z</time>
      </trkpt>
      <trkpt lat="45.84337" lon="4.67616">
        <ele>337.47797</ele>
        <time>2023-04-11T12:18:45.000Z</time>
      </trkpt>
      <trkpt lat="45.84342" lon="4.67612">
        <ele>337.48831</ele>
        <time>2023-04-11T12:18:46.000Z</time>
      </trkpt>
      <trkpt lat="45.84347" lon="4.67609">
        <ele>337.4798</ele>
        <time>2023-04-11T12:18:47.000Z</time>
      </trkpt>
      <trkpt lat="45.84352" lon="4.67605">
        <ele>337.51117</ele>
        <time>2023-04-11T12:18:48.000Z</time>
      </trkpt>
      <trkpt lat="45.84357" lon="4.67602">
        <ele>337.52762</ele>
        <time>2023-04-11T12:18:49.000Z</time>
      </trkpt>
      <trkpt lat="45.84362" lon="4.676">
        <ele>337.55096</ele>
        <time>2023-04-11T12:18:50.000Z</time>
      </trkpt>
      <trkpt lat="45.84368" lon="4.67597">
        <ele>337.58627</ele>
        <time>2023-04-11T12:18:51.000Z</time>
      </trkpt>
      <trkpt lat="45.84372" lon="4.67595">
        <ele>337.64523</ele>
        <time>2023-04-11T12:18:52.000Z</time>
      </trkpt>
      <trkpt lat="45.84378" lon="4.67594">
        <ele>337.70273</ele>
        <time>2023-04-11T12:18:53.000Z</time>
      </trkpt>
      <trkpt lat="45.84384" lon="4.67592">
        <ele>337.76984</ele>
        <time>2023-04-11T12:18:54.000Z</time>
      </trkpt>
      <trkpt lat="45.84389" lon="4.67591">
        <ele>337.84897</ele>
        <time>2023-04-11T12:18:55.000Z</time>
      </trkpt>
      <trkpt lat="45.84395" lon="4.67591">
        <ele>337.91025</ele>
        <time>2023-04-11T12:18:56.000Z</time>
      </trkpt>
      <trkpt lat="45.844" lon="4.67591">
        <ele>337.98166</ele>
        <time>2023-04-11T12:18:57.000Z</time>
      </trkpt>
      <trkpt lat="45.84405" lon="4.67591">
        <ele>338.10944</ele>
        <time>2023-04-11T12:18:58.000Z</time>
      </trkpt>
      <trkpt lat="45.84411" lon="4.67592">
        <ele>338.23184</ele>
        <time>2023-04-11T12:18:59.000Z</time>
      </trkpt>
      <trkpt lat="45.84416" lon="4.67593">
        <ele>338.29935</ele>
        <time>2023-04-11T12:19:00.000Z</time>
      </trkpt>
      <trkpt lat="45.84421" lon="4.67596">
        <ele>338.33411</ele>
        <time>2023-04-11T12:19:01.000Z</time>
      </trkpt>
      <trkpt lat="45.84425" lon="4.67597">
        <ele>338.32416</ele>
        <time>2023-04-11T12:19:02.000Z</time>
      </trkpt>
      <trkpt lat="45.84429" lon="4.67599">
        <ele>338.32471</ele>
        <time>2023-04-11T12:19:03.000Z</time>
      </trkpt>
      <trkpt lat="45.84433" lon="4.67598">
        <ele>338.28174</ele>
        <time>2023-04-11T12:19:04.000Z</time>
      </trkpt>
      <trkpt lat="45.84438" lon="4.67597">
        <ele>338.27579</ele>
        <time>2023-04-11T12:19:05.000Z</time>
      </trkpt>
      <trkpt lat="45.84442" lon="4.67592">
        <ele>338.30597</ele>
        <time>2023-04-11T12:19:06.000Z</time>
      </trkpt>
      <trkpt lat="45.84446" lon="4.67588">
        <ele>338.34882</ele>
        <time>2023-04-11T12:19:07.000Z</time>
      </trkpt>
      <trkpt lat="45.8445" lon="4.67583">
        <ele>338.37195</ele>
        <time>2023-04-11T12:19:08.000Z</time>
      </trkpt>
      <trkpt lat="45.84454" lon="4.67579">
        <ele>338.35501</ele>
        <time>2023-04-11T12:19:09.000Z</time>
      </trkpt>
      <trkpt lat="45.84458" lon="4.67576">
        <ele>338.34503</ele>
        <time>2023-04-11T12:19:10.000Z</time>
      </trkpt>
      <trkpt lat="45.84461" lon="4.67572">
        <ele>338.57202</ele>
        <time>2023-04-11T12:19:11.000Z</time>
      </trkpt>
      <trkpt lat="45.84465" lon="4.67569">
        <ele>338.82709</ele>
        <time>2023-04-11T12:19:12.000Z</time>
      </trkpt>
      <trkpt lat="45.84469" lon="4.67565">
        <ele>339.16019</ele>
        <time>2023-04-11T12:19:13.000Z</time>
      </trkpt>
      <trkpt lat="45.84473" lon="4.67561">
        <ele>339.49988</ele>
        <time>2023-04-11T12:19:14.000Z</time>
      </trkpt>
      <trkpt lat="45.84477" lon="4.67556">
        <ele>339.40891</ele>
        <time>2023-04-11T12:19:15.000Z</time>
      </trkpt>
      <trkpt lat="45.84482" lon="4.67552">
        <ele>339.40326</ele>
        <time>2023-04-11T12:19:16.000Z</time>
      </trkpt>
      <trkpt lat="45.84487" lon="4.67549">
        <ele>339.39679</ele>
        <time>2023-04-11T12:19:17.000Z</time>
      </trkpt>
      <trkpt lat="45.84491" lon="4.67547">
        <ele>339.36145</ele>
        <time>2023-04-11T12:19:18.000Z</time>
      </trkpt>
      <trkpt lat="45.84496" lon="4.67547">
        <ele>339.32333</ele>
        <time>2023-04-11T12:19:19.000Z</time>
      </trkpt>
      <trkpt lat="45.84501" lon="4.67548">
        <ele>339.31201</ele>
        <time>2023-04-11T12:19:20.000Z</time>
      </trkpt>
      <trkpt lat="45.84506" lon="4.67552">
        <ele>339.33087</ele>
        <time>2023-04-11T12:19:21.000Z</time>
      </trkpt>
      <trkpt lat="45.8451" lon="4.67558">
        <ele>339.38385</ele>
        <time>2023-04-11T12:19:22.000Z</time>
      </trkpt>
      <trkpt lat="45.84514" lon="4.67562">
        <ele>339.3941</ele>
        <time>2023-04-11T12:19:23.000Z</time>
      </trkpt>
      <trkpt lat="45.84518" lon="4.67568">
        <ele>339.42154</ele>
        <time>2023-04-11T12:19:24.000Z</time>
      </trkpt>
      <trkpt lat="45.84522" lon="4.67572">
        <ele>339.41443</ele>
        <time>2023-04-11T12:19:25.000Z</time>
      </trkpt>
      <trkpt lat="45.84527" lon="4.67576">
        <ele>339.38242</ele>
        <time>2023-04-11T12:19:26.000Z</time>
      </trkpt>
      <trkpt lat="45.84532" lon="4.67579">
        <ele>339.35083</ele>
        <time>2023-04-11T12:19:27.000Z</time>
      </trkpt>
      <trkpt lat="45.84537" lon="4.67582">
        <ele>339.32053</ele>
        <time>2023-04-11T12:19:28.000Z</time>
      </trkpt>
      <trkpt lat="45.84541" lon="4.67584">
        <ele>339.34399</ele>
        <time>2023-04-11T12:19:29.000Z</time>
      </trkpt>
      <trkpt lat="45.84545" lon="4.67586">
        <ele>339.37604</ele>
        <time>2023-04-11T12:19:30.000Z</time>
      </trkpt>
      <trkpt lat="45.84551" lon="4.67587">
        <ele>339.19437</ele>
        <time>2023-04-11T12:19:31.000Z</time>
      </trkpt>
      <trkpt lat="45.84555" lon="4.67588">
        <ele>338.9743</ele>
        <time>2023-04-11T12:19:32.000Z</time>
      </trkpt>
      <trkpt lat="45.8456" lon="4.6759">
        <ele>338.65912</ele>
        <time>2023-04-11T12:19:33.000Z</time>
      </trkpt>
      <trkpt lat="45.84565" lon="4.67591">
        <ele>338.2981</ele>
        <time>2023-04-11T12:19:34.000Z</time>
      </trkpt>
      <trkpt lat="45.8457" lon="4.67591">
        <ele>338.36581</ele>
        <time>2023-04-11T12:19:35.000Z</time>
      </trkpt>
      <trkpt lat="45.84575" lon="4.67591">
        <ele>338.35223</ele>
        <time>2023-04-11T12:19:36.000Z</time>
      </trkpt>
      <trkpt lat="45.8458" lon="4.67591">
        <ele>338.31503</ele>
        <time>2023-04-11T12:19:37.000Z</time>
      </trkpt>
      <trkpt lat="45.84586" lon="4.6759">
        <ele>338.3107</ele>
        <time>2023-04-11T12:19:38.000Z</time>
      </trkpt>
      <trkpt lat="45.84591" lon="4.67588">
        <ele>338.29889</ele>
        <time>2023-04-11T12:19:39.000Z</time>
      </trkpt>
      <trkpt lat="45.84597" lon="4.67586">
        <ele>338.27594</ele>
        <time>2023-04-11T12:19:40.000Z</time>
      </trkpt>
      <trkpt lat="45.84602" lon="4.67584">
        <ele>338.27432</ele>
        <time>2023-04-11T12:19:41.000Z</time>
      </trkpt>
      <trkpt lat="45.84607" lon="4.67583">
        <ele>338.27167</ele>
        <time>2023-04-11T12:19:42.000Z</time>
      </trkpt>
      <trkpt lat="45.84612" lon="4.67581">
        <ele>338.29205</ele>
        <time>2023-04-11T12:19:43.000Z</time>
      </trkpt>
      <trkpt lat="45.84617" lon="4.67578">
        <ele>338.33325</ele>
        <time>2023-04-11T12:19:44.000Z</time>
      </trkpt>
      <trkpt lat="45.84622" lon="4.67575">
        <ele>338.37775</ele>
        <time>2023-04-11T12:19:45.000Z</time>
      </trkpt>
      <trkpt lat="45.84627" lon="4.67572">
        <ele>338.40851</ele>
        <time>2023-04-11T12:19:46.000Z</time>
      </trkpt>
      <trkpt lat="45.84631" lon="4.67568">
        <ele>338.40213</ele>
        <time>2023-04-11T12:19:47.000Z</time>
      </trkpt>
      <trkpt lat="45.84635" lon="4.67564">
        <ele>338.38354</ele>
        <time>2023-04-11T12:19:48.000Z</time>
      </trkpt>
      <trkpt lat="45.84639" lon="4.67559">
        <ele>338.32086</ele>
        <time>2023-04-11T12:19:49.000Z</time>
      </trkpt>
      <trkpt lat="45.84643" lon="4.67555">
        <ele>338.24371</ele>
        <time>2023-04-11T12:19:50.000Z</time>
      </trkpt>
      <trkpt lat="45.84646" lon="4.67551">
        <ele>338.15189</ele>
        <time>2023-04-11T12:19:51.000Z</time>
      </trkpt>
      <trkpt lat="45.8465" lon="4.67545">
        <ele>338.08163</ele>
        <time>2023-04-11T12:19:52.000Z</time>
      </trkpt>
      <trkpt lat="45.84654" lon="4.67541">
        <ele>338.00397</ele>
        <time>2023-04-11T12:19:53.000Z</time>
      </trkpt>
      <trkpt lat="45.84657" lon="4.67536">
        <ele>337.98132</ele>
        <time>2023-04-11T12:19:54.000Z</time>
      </trkpt>
      <trkpt lat="45.8466" lon="4.6753">
        <ele>337.97296</ele>
        <time>2023-04-11T12:19:55.000Z</time>
      </trkpt>
      <trkpt lat="45.84662" lon="4.67525">
        <ele>337.94498</ele>
        <time>2023-04-11T12:19:56.000Z</time>
      </trkpt>
      <trkpt lat="45.84665" lon="4.67518">
        <ele>337.9364</ele>
        <time>2023-04-11T12:19:57.000Z</time>
      </trkpt>
      <trkpt lat="45.84668" lon="4.67512">
        <ele>338.17633</ele>
        <time>2023-04-11T12:19:58.000Z</time>
      </trkpt>
      <trkpt lat="45.84671" lon="4.67507">
        <ele>338.43124</ele>
        <time>2023-04-11T12:19:59.000Z</time>
      </trkpt>
      <trkpt lat="45.84674" lon="4.67501">
        <ele>338.69876</ele>
        <time>2023-04-11T12:20:00.000Z</time>
      </trkpt>
      <trkpt lat="45.84676" lon="4.67495">
        <ele>338.99689</ele>
        <time>2023-04-11T12:20:01.000Z</time>
      </trkpt>
      <trkpt lat="45.8468" lon="4.6749">
        <ele>339.30508</ele>
        <time>2023-04-11T12:20:02.000Z</time>
      </trkpt>
      <trkpt lat="45.84683" lon="4.67484">
        <ele>339.21429</ele>
        <time>2023-04-11T12:20:03.000Z</time>
      </trkpt>
      <trkpt lat="45.84685" lon="4.6748">
        <ele>339.1275</ele>
        <time>2023-04-11T12:20:04.000Z</time>
      </trkpt>
      <trkpt lat="45.84689" lon="4.67474">
        <ele>339.02069</ele>
        <time>2023-04-11T12:20:05.000Z</time>
      </trkpt>
      <trkpt lat="45.84693" lon="4.67467">
        <ele>338.92413</ele>
        <time>2023-04-11T12:20:06.000Z</time>
      </trkpt>
      <trkpt lat="45.84698" lon="4.67462">
        <ele>338.85648</ele>
        <time>2023-04-11T12:20:07.000Z</time>
      </trkpt>
      <trkpt lat="45.84704" lon="4.67459">
        <ele>338.78165</ele>
        <time>2023-04-11T12:20:08.000Z</time>
      </trkpt>
      <trkpt lat="45.84709" lon="4.67457">
        <ele>338.76563</ele>
        <time>2023-04-11T12:20:09.000Z</time>
      </trkpt>
      <trkpt lat="45.84715" lon="4.67456">
        <ele>338.742</ele>
        <time>2023-04-11T12:20:10.000Z</time>
      </trkpt>
      <trkpt lat="45.8472" lon="4.67456">
        <ele>338.95697</ele>
        <time>2023-04-11T12:20:11.000Z</time>
      </trkpt>
      <trkpt lat="45.84726" lon="4.67456">
        <ele>339.20697</ele>
        <time>2023-04-11T12:20:12.000Z</time>
      </trkpt>
      <trkpt lat="45.84731" lon="4.67454">
        <ele>339.46478</ele>
        <time>2023-04-11T12:20:13.000Z</time>
      </trkpt>
      <trkpt lat="45.84736" lon="4.67454">
        <ele>339.68845</ele>
        <time>2023-04-11T12:20:14.000Z</time>
      </trkpt>
      <trkpt lat="45.8474" lon="4.67455">
        <ele>339.85413</ele>
        <time>2023-04-11T12:20:15.000Z</time>
      </trkpt>
      <trkpt lat="45.84746" lon="4.67454">
        <ele>340.08868</ele>
        <time>2023-04-11T12:20:16.000Z</time>
      </trkpt>
      <trkpt lat="45.84751" lon="4.67453">
        <ele>339.89365</ele>
        <time>2023-04-11T12:20:17.000Z</time>
      </trkpt>
      <trkpt lat="45.84756" lon="4.67452">
        <ele>339.52203</ele>
        <time>2023-04-11T12:20:18.000Z</time>
      </trkpt>
      <trkpt lat="45.84761" lon="4.67451">
        <ele>339.15884</ele>
        <time>2023-04-11T12:20:19.000Z</time>
      </trkpt>
      <trkpt lat="45.84765" lon="4.6745">
        <ele>338.80817</ele>
        <time>2023-04-11T12:20:20.000Z</time>
      </trkpt>
      <trkpt lat="45.84769" lon="4.6745">
        <ele>338.37268</ele>
        <time>2023-04-11T12:20:21.000Z</time>
      </trkpt>
      <trkpt lat="45.84774" lon="4.67448">
        <ele>337.92667</ele>
        <time>2023-04-11T12:20:22.000Z</time>
      </trkpt>
      <trkpt lat="45.84779" lon="4.67447">
        <ele>337.89615</ele>
        <time>2023-04-11T12:20:23.000Z</time>
      </trkpt>
      <trkpt lat="45.84783" lon="4.67446">
        <ele>337.84503</ele>
        <time>2023-04-11T12:20:24.000Z</time>
      </trkpt>
      <trkpt lat="45.84788" lon="4.67444">
        <ele>337.85083</ele>
        <time>2023-04-11T12:20:25.000Z</time>
      </trkpt>
      <trkpt lat="45.84793" lon="4.67443">
        <ele>337.85059</ele>
        <time>2023-04-11T12:20:26.000Z</time>
      </trkpt>
      <trkpt lat="45.84797" lon="4.67443">
        <ele>337.86362</ele>
        <time>2023-04-11T12:20:27.000Z</time>
      </trkpt>
      <trkpt lat="45.84802" lon="4.67443">
        <ele>337.86807</ele>
        <time>2023-04-11T12:20:28.000Z</time>
      </trkpt>
      <trkpt lat="45.84807" lon="4.67443">
        <ele>338.14682</ele>
        <time>2023-04-11T12:20:29.000Z</time>
      </trkpt>
      <trkpt lat="45.84812" lon="4.67443">
        <ele>338.48422</ele>
        <time>2023-04-11T12:20:30.000Z</time>
      </trkpt>
      <trkpt lat="45.84817" lon="4.67444">
        <ele>338.61234</ele>
        <time>2023-04-11T12:20:31.000Z</time>
      </trkpt>
      <trkpt lat="45.84821" lon="4.67444">
        <ele>338.70575</ele>
        <time>2023-04-11T12:20:32.000Z</time>
      </trkpt>
      <trkpt lat="45.84826" lon="4.67444">
        <ele>338.81299</ele>
        <time>2023-04-11T12:20:33.000Z</time>
      </trkpt>
      <trkpt lat="45.84831" lon="4.67443">
        <ele>338.47931</ele>
        <time>2023-04-11T12:20:34.000Z</time>
      </trkpt>
      <trkpt lat="45.84836" lon="4.67442">
        <ele>338.17853</ele>
        <time>2023-04-11T12:20:35.000Z</time>
      </trkpt>
      <trkpt lat="45.84841" lon="4.67442">
        <ele>337.81754</ele>
        <time>2023-04-11T12:20:36.000Z</time>
      </trkpt>
      <trkpt lat="45.84847" lon="4.67441">
        <ele>337.86407</ele>
        <time>2023-04-11T12:20:37.000Z</time>
      </trkpt>
      <trkpt lat="45.84852" lon="4.67441">
        <ele>337.81635</ele>
        <time>2023-04-11T12:20:38.000Z</time>
      </trkpt>
      <trkpt lat="45.84857" lon="4.67439">
        <ele>338.00833</ele>
        <time>2023-04-11T12:20:39.000Z</time>
      </trkpt>
      <trkpt lat="45.84863" lon="4.67438">
        <ele>338.17657</ele>
        <time>2023-04-11T12:20:40.000Z</time>
      </trkpt>
      <trkpt lat="45.84868" lon="4.67439">
        <ele>338.33813</ele>
        <time>2023-04-11T12:20:41.000Z</time>
      </trkpt>
      <trkpt lat="45.84874" lon="4.67439">
        <ele>338.50571</ele>
        <time>2023-04-11T12:20:42.000Z</time>
      </trkpt>
      <trkpt lat="45.84879" lon="4.67437">
        <ele>338.75058</ele>
        <time>2023-04-11T12:20:43.000Z</time>
      </trkpt>
      <trkpt lat="45.84885" lon="4.67437">
        <ele>338.99716</ele>
        <time>2023-04-11T12:20:44.000Z</time>
      </trkpt>
      <trkpt lat="45.8489" lon="4.67436">
        <ele>338.73779</ele>
        <time>2023-04-11T12:20:45.000Z</time>
      </trkpt>
      <trkpt lat="45.84894" lon="4.67436">
        <ele>338.55405</ele>
        <time>2023-04-11T12:20:46.000Z</time>
      </trkpt>
      <trkpt lat="45.849" lon="4.67435">
        <ele>338.37662</ele>
        <time>2023-04-11T12:20:47.000Z</time>
      </trkpt>
      <trkpt lat="45.84905" lon="4.67434">
        <ele>338.20792</ele>
        <time>2023-04-11T12:20:48.000Z</time>
      </trkpt>
      <trkpt lat="45.84911" lon="4.67433">
        <ele>337.77228</ele>
        <time>2023-04-11T12:20:49.000Z</time>
      </trkpt>
      <trkpt lat="45.84916" lon="4.67433">
        <ele>337.29129</ele>
        <time>2023-04-11T12:20:50.000Z</time>
      </trkpt>
      <trkpt lat="45.84921" lon="4.67433">
        <ele>336.76495</ele>
        <time>2023-04-11T12:20:51.000Z</time>
      </trkpt>
      <trkpt lat="45.84926" lon="4.67432">
        <ele>336.23737</ele>
        <time>2023-04-11T12:20:52.000Z</time>
      </trkpt>
      <trkpt lat="45.84931" lon="4.67432">
        <ele>335.6972</ele>
        <time>2023-04-11T12:20:53.000Z</time>
      </trkpt>
      <trkpt lat="45.84936" lon="4.67431">
        <ele>335.57855</ele>
        <time>2023-04-11T12:20:54.000Z</time>
      </trkpt>
      <trkpt lat="45.84941" lon="4.6743">
        <ele>335.46796</ele>
        <time>2023-04-11T12:20:55.000Z</time>
      </trkpt>
      <trkpt lat="45.84946" lon="4.67429">
        <ele>335.39282</ele>
        <time>2023-04-11T12:20:56.000Z</time>
      </trkpt>
      <trkpt lat="45.84951" lon="4.67427">
        <ele>335.34238</ele>
        <time>2023-04-11T12:20:57.000Z</time>
      </trkpt>
      <trkpt lat="45.84956" lon="4.67424">
        <ele>335.30573</ele>
        <time>2023-04-11T12:20:58.000Z</time>
      </trkpt>
      <trkpt lat="45.8496" lon="4.67423">
        <ele>335.01239</ele>
        <time>2023-04-11T12:20:59.000Z</time>
      </trkpt>
      <trkpt lat="45.84965" lon="4.67424">
        <ele>334.68741</ele>
        <time>2023-04-11T12:21:00.000Z</time>
      </trkpt>
      <trkpt lat="45.8497" lon="4.67423">
        <ele>334.27524</ele>
        <time>2023-04-11T12:21:01.000Z</time>
      </trkpt>
      <trkpt lat="45.84974" lon="4.67423">
        <ele>333.858</ele>
        <time>2023-04-11T12:21:02.000Z</time>
      </trkpt>
      <trkpt lat="45.84979" lon="4.67422">
        <ele>333.35745</ele>
        <time>2023-04-11T12:21:03.000Z</time>
      </trkpt>
      <trkpt lat="45.84984" lon="4.6742">
        <ele>332.86078</ele>
        <time>2023-04-11T12:21:04.000Z</time>
      </trkpt>
      <trkpt lat="45.84989" lon="4.67419">
        <ele>333.18536</ele>
        <time>2023-04-11T12:21:05.000Z</time>
      </trkpt>
      <trkpt lat="45.84994" lon="4.67417">
        <ele>333.4465</ele>
        <time>2023-04-11T12:21:06.000Z</time>
      </trkpt>
      <trkpt lat="45.84998" lon="4.67417">
        <ele>333.70517</ele>
        <time>2023-04-11T12:21:07.000Z</time>
      </trkpt>
      <trkpt lat="45.85003" lon="4.67417">
        <ele>333.96747</ele>
        <time>2023-04-11T12:21:08.000Z</time>
      </trkpt>
      <trkpt lat="45.85008" lon="4.67416">
        <ele>334.18378</ele>
        <time>2023-04-11T12:21:09.000Z</time>
      </trkpt>
      <trkpt lat="45.85012" lon="4.67414">
        <ele>334.3815</ele>
        <time>2023-04-11T12:21:10.000Z</time>
      </trkpt>
      <trkpt lat="45.85017" lon="4.67413">
        <ele>334.59232</ele>
        <time>2023-04-11T12:21:11.000Z</time>
      </trkpt>
      <trkpt lat="45.85022" lon="4.67412">
        <ele>334.78592</ele>
        <time>2023-04-11T12:21:12.000Z</time>
      </trkpt>
      <trkpt lat="45.85027" lon="4.67409">
        <ele>334.97284</ele>
        <time>2023-04-11T12:21:13.000Z</time>
      </trkpt>
      <trkpt lat="45.85032" lon="4.67406">
        <ele>335.17435</ele>
        <time>2023-04-11T12:21:14.000Z</time>
      </trkpt>
      <trkpt lat="45.85037" lon="4.67403">
        <ele>335.35571</ele>
        <time>2023-04-11T12:21:15.000Z</time>
      </trkpt>
      <trkpt lat="45.85042" lon="4.674">
        <ele>335.49536</ele>
        <time>2023-04-11T12:21:16.000Z</time>
      </trkpt>
      <trkpt lat="45.85047" lon="4.67396">
        <ele>335.49872</ele>
        <time>2023-04-11T12:21:17.000Z</time>
      </trkpt>
      <trkpt lat="45.85053" lon="4.67393">
        <ele>335.14212</ele>
        <time>2023-04-11T12:21:18.000Z</time>
      </trkpt>
      <trkpt lat="45.85058" lon="4.67389">
        <ele>334.80063</ele>
        <time>2023-04-11T12:21:19.000Z</time>
      </trkpt>
      <trkpt lat="45.85065" lon="4.67385">
        <ele>334.49826</ele>
        <time>2023-04-11T12:21:20.000Z</time>
      </trkpt>
      <trkpt lat="45.85071" lon="4.67381">
        <ele>334.29984</ele>
        <time>2023-04-11T12:21:21.000Z</time>
      </trkpt>
      <trkpt lat="45.85078" lon="4.67377">
        <ele>334.22299</ele>
        <time>2023-04-11T12:21:22.000Z</time>
      </trkpt>
      <trkpt lat="45.85084" lon="4.67374">
        <ele>334.08087</ele>
        <time>2023-04-11T12:21:23.000Z</time>
      </trkpt>
      <trkpt lat="45.8509" lon="4.67371">
        <ele>334.22198</ele>
        <time>2023-04-11T12:21:24.000Z</time>
      </trkpt>
      <trkpt lat="45.85097" lon="4.67367">
        <ele>333.98639</ele>
        <time>2023-04-11T12:21:25.000Z</time>
      </trkpt>
      <trkpt lat="45.85102" lon="4.67363">
        <ele>333.80225</ele>
        <time>2023-04-11T12:21:26.000Z</time>
      </trkpt>
      <trkpt lat="45.85108" lon="4.6736">
        <ele>333.60187</ele>
        <time>2023-04-11T12:21:27.000Z</time>
      </trkpt>
      <trkpt lat="45.85114" lon="4.67357">
        <ele>333.40265</ele>
        <time>2023-04-11T12:21:28.000Z</time>
      </trkpt>
      <trkpt lat="45.85121" lon="4.67353">
        <ele>333.24765</ele>
        <time>2023-04-11T12:21:29.000Z</time>
      </trkpt>
      <trkpt lat="45.85127" lon="4.67349">
        <ele>332.66327</ele>
        <time>2023-04-11T12:21:30.000Z</time>
      </trkpt>
      <trkpt lat="45.85132" lon="4.67346">
        <ele>332.16391</ele>
        <time>2023-04-11T12:21:31.000Z</time>
      </trkpt>
      <trkpt lat="45.85139" lon="4.67342">
        <ele>331.6651</ele>
        <time>2023-04-11T12:21:32.000Z</time>
      </trkpt>
      <trkpt lat="45.85144" lon="4.67337">
        <ele>331.16714</ele>
        <time>2023-04-11T12:21:33.000Z</time>
      </trkpt>
      <trkpt lat="45.8515" lon="4.67334">
        <ele>330.66885</ele>
        <time>2023-04-11T12:21:34.000Z</time>
      </trkpt>
      <trkpt lat="45.85155" lon="4.67331">
        <ele>330.65497</ele>
        <time>2023-04-11T12:21:35.000Z</time>
      </trkpt>
      <trkpt lat="45.8516" lon="4.67328">
        <ele>330.23029</ele>
        <time>2023-04-11T12:21:36.000Z</time>
      </trkpt>
      <trkpt lat="45.85165" lon="4.67326">
        <ele>329.909</ele>
        <time>2023-04-11T12:21:37.000Z</time>
      </trkpt>
      <trkpt lat="45.85171" lon="4.67324">
        <ele>329.9213</ele>
        <time>2023-04-11T12:21:38.000Z</time>
      </trkpt>
      <trkpt lat="45.85176" lon="4.67322">
        <ele>329.90024</ele>
        <time>2023-04-11T12:21:39.000Z</time>
      </trkpt>
      <trkpt lat="45.8518" lon="4.6732">
        <ele>329.87982</ele>
        <time>2023-04-11T12:21:40.000Z</time>
      </trkpt>
      <trkpt lat="45.85185" lon="4.67317">
        <ele>329.90067</ele>
        <time>2023-04-11T12:21:41.000Z</time>
      </trkpt>
      <trkpt lat="45.8519" lon="4.67315">
        <ele>329.81027</ele>
        <time>2023-04-11T12:21:42.000Z</time>
      </trkpt>
      <trkpt lat="45.85195" lon="4.67312">
        <ele>329.73788</ele>
        <time>2023-04-11T12:21:43.000Z</time>
      </trkpt>
      <trkpt lat="45.85199" lon="4.67311">
        <ele>329.38901</ele>
        <time>2023-04-11T12:21:44.000Z</time>
      </trkpt>
      <trkpt lat="45.85204" lon="4.67312">
        <ele>329.0524</ele>
        <time>2023-04-11T12:21:45.000Z</time>
      </trkpt>
      <trkpt lat="45.85207" lon="4.67315">
        <ele>328.69263</ele>
        <time>2023-04-11T12:21:46.000Z</time>
      </trkpt>
      <trkpt lat="45.85211" lon="4.67319">
        <ele>328.35339</ele>
        <time>2023-04-11T12:21:47.000Z</time>
      </trkpt>
      <trkpt lat="45.85213" lon="4.67324">
        <ele>328.06436</ele>
        <time>2023-04-11T12:21:48.000Z</time>
      </trkpt>
      <trkpt lat="45.85215" lon="4.6733">
        <ele>327.73474</ele>
        <time>2023-04-11T12:21:49.000Z</time>
      </trkpt>
      <trkpt lat="45.85217" lon="4.67335">
        <ele>327.85355</ele>
        <time>2023-04-11T12:21:50.000Z</time>
      </trkpt>
      <trkpt lat="45.85221" lon="4.67339">
        <ele>327.91281</ele>
        <time>2023-04-11T12:21:51.000Z</time>
      </trkpt>
      <trkpt lat="45.85225" lon="4.67338">
        <ele>327.97549</ele>
        <time>2023-04-11T12:21:52.000Z</time>
      </trkpt>
      <trkpt lat="45.8523" lon="4.67339">
        <ele>328.09204</ele>
        <time>2023-04-11T12:21:53.000Z</time>
      </trkpt>
      <trkpt lat="45.85234" lon="4.67339">
        <ele>328.20361</ele>
        <time>2023-04-11T12:21:54.000Z</time>
      </trkpt>
      <trkpt lat="45.85239" lon="4.67337">
        <ele>327.86469</ele>
        <time>2023-04-11T12:21:55.000Z</time>
      </trkpt>
      <trkpt lat="45.85244" lon="4.67335">
        <ele>327.97043</ele>
        <time>2023-04-11T12:21:56.000Z</time>
      </trkpt>
      <trkpt lat="45.85248" lon="4.67334">
        <ele>328.36319</ele>
        <time>2023-04-11T12:21:57.000Z</time>
      </trkpt>
      <trkpt lat="45.85252" lon="4.6733">
        <ele>328.79477</ele>
        <time>2023-04-11T12:21:58.000Z</time>
      </trkpt>
      <trkpt lat="45.85257" lon="4.67329">
        <ele>329.22467</ele>
        <time>2023-04-11T12:21:59.000Z</time>
      </trkpt>
      <trkpt lat="45.85262" lon="4.67327">
        <ele>329.66336</ele>
        <time>2023-04-11T12:22:00.000Z</time>
      </trkpt>
      <trkpt lat="45.85266" lon="4.67325">
        <ele>330.09232</ele>
        <time>2023-04-11T12:22:01.000Z</time>
      </trkpt>
      <trkpt lat="45.8527" lon="4.67324">
        <ele>330.58795</ele>
        <time>2023-04-11T12:22:02.000Z</time>
      </trkpt>
      <trkpt lat="45.85274" lon="4.67322">
        <ele>331.15146</ele>
        <time>2023-04-11T12:22:03.000Z</time>
      </trkpt>
      <trkpt lat="45.85278" lon="4.67318">
        <ele>331.68237</ele>
        <time>2023-04-11T12:22:04.000Z</time>
      </trkpt>
      <trkpt lat="45.85281" lon="4.67316">
        <ele>332.2467</ele>
        <time>2023-04-11T12:22:05.000Z</time>
      </trkpt>
      <trkpt lat="45.85283" lon="4.67314">
        <ele>332.66196</ele>
        <time>2023-04-11T12:22:06.000Z</time>
      </trkpt>
      <trkpt lat="45.85284" lon="4.67312">
        <ele>332.24289</ele>
        <time>2023-04-11T12:22:07.000Z</time>
      </trkpt>
      <trkpt lat="45.85285" lon="4.67309">
        <ele>331.76489</ele>
        <time>2023-04-11T12:22:08.000Z</time>
      </trkpt>
      <trkpt lat="45.85285" lon="4.67305">
        <ele>331.27814</ele>
        <time>2023-04-11T12:22:09.000Z</time>
      </trkpt>
      <trkpt lat="45.85285" lon="4.67301">
        <ele>330.7728</ele>
        <time>2023-04-11T12:22:10.000Z</time>
      </trkpt>
      <trkpt lat="45.85284" lon="4.67297">
        <ele>330.2121</ele>
        <time>2023-04-11T12:22:12.000Z</time>
      </trkpt>
      <trkpt lat="45.85283" lon="4.67293">
        <ele>329.66492</ele>
        <time>2023-04-11T12:22:13.000Z</time>
      </trkpt>
      <trkpt lat="45.85282" lon="4.6729">
        <ele>329.0462</ele>
        <time>2023-04-11T12:22:14.000Z</time>
      </trkpt>
      <trkpt lat="45.85282" lon="4.67286">
        <ele>328.46115</ele>
        <time>2023-04-11T12:22:15.000Z</time>
      </trkpt>
      <trkpt lat="45.85282" lon="4.67282">
        <ele>327.84076</ele>
        <time>2023-04-11T12:22:16.000Z</time>
      </trkpt>
      <trkpt lat="45.85281" lon="4.67278">
        <ele>327.22958</ele>
        <time>2023-04-11T12:22:17.000Z</time>
      </trkpt>
      <trkpt lat="45.85281" lon="4.67273">
        <ele>326.36746</ele>
        <time>2023-04-11T12:22:18.000Z</time>
      </trkpt>
      <trkpt lat="45.85281" lon="4.67269">
        <ele>325.47964</ele>
        <time>2023-04-11T12:22:19.000Z</time>
      </trkpt>
      <trkpt lat="45.8528" lon="4.67265">
        <ele>324.64087</ele>
        <time>2023-04-11T12:22:20.000Z</time>
      </trkpt>
      <trkpt lat="45.8528" lon="4.67261">
        <ele>323.92642</ele>
        <time>2023-04-11T12:22:21.000Z</time>
      </trkpt>
      <trkpt lat="45.8528" lon="4.67257">
        <ele>323.20657</ele>
        <time>2023-04-11T12:22:22.000Z</time>
      </trkpt>
      <trkpt lat="45.85279" lon="4.67253">
        <ele>322.42944</ele>
        <time>2023-04-11T12:22:23.000Z</time>
      </trkpt>
      <trkpt lat="45.85279" lon="4.67248">
        <ele>321.62909</ele>
        <time>2023-04-11T12:22:24.000Z</time>
      </trkpt>
      <trkpt lat="45.85278" lon="4.67243">
        <ele>320.58728</ele>
        <time>2023-04-11T12:22:25.000Z</time>
      </trkpt>
      <trkpt lat="45.85277" lon="4.67238">
        <ele>319.56146</ele>
        <time>2023-04-11T12:22:26.000Z</time>
      </trkpt>
      <trkpt lat="45.85277" lon="4.67234">
        <ele>318.66617</ele>
        <time>2023-04-11T12:22:27.000Z</time>
      </trkpt>
      <trkpt lat="45.85277" lon="4.67228">
        <ele>318.56183</ele>
        <time>2023-04-11T12:22:28.000Z</time>
      </trkpt>
      <trkpt lat="45.85276" lon="4.67223">
        <ele>318.465</ele>
        <time>2023-04-11T12:22:29.000Z</time>
      </trkpt>
      <trkpt lat="45.85276" lon="4.67218">
        <ele>318.35086</ele>
        <time>2023-04-11T12:22:30.000Z</time>
      </trkpt>
      <trkpt lat="45.85276" lon="4.67212">
        <ele>318.17603</ele>
        <time>2023-04-11T12:22:31.000Z</time>
      </trkpt>
      <trkpt lat="45.85275" lon="4.67206">
        <ele>318.00626</ele>
        <time>2023-04-11T12:22:32.000Z</time>
      </trkpt>
      <trkpt lat="45.85274" lon="4.67201">
        <ele>317.81052</ele>
        <time>2023-04-11T12:22:33.000Z</time>
      </trkpt>
      <trkpt lat="45.85274" lon="4.67196">
        <ele>317.61414</ele>
        <time>2023-04-11T12:22:34.000Z</time>
      </trkpt>
      <trkpt lat="45.85274" lon="4.6719">
        <ele>317.383</ele>
        <time>2023-04-11T12:22:35.000Z</time>
      </trkpt>
      <trkpt lat="45.85274" lon="4.67184">
        <ele>317.12173</ele>
        <time>2023-04-11T12:22:36.000Z</time>
      </trkpt>
      <trkpt lat="45.85273" lon="4.67178">
        <ele>316.81915</ele>
        <time>2023-04-11T12:22:37.000Z</time>
      </trkpt>
      <trkpt lat="45.85272" lon="4.67173">
        <ele>316.50543</ele>
        <time>2023-04-11T12:22:38.000Z</time>
      </trkpt>
      <trkpt lat="45.8527" lon="4.67167">
        <ele>316.15051</ele>
        <time>2023-04-11T12:22:39.000Z</time>
      </trkpt>
      <trkpt lat="45.85268" lon="4.67162">
        <ele>315.7597</ele>
        <time>2023-04-11T12:22:40.000Z</time>
      </trkpt>
      <trkpt lat="45.85265" lon="4.67157">
        <ele>315.23422</ele>
        <time>2023-04-11T12:22:41.000Z</time>
      </trkpt>
      <trkpt lat="45.85262" lon="4.67154">
        <ele>314.6778</ele>
        <time>2023-04-11T12:22:42.000Z</time>
      </trkpt>
      <trkpt lat="45.85259" lon="4.6715">
        <ele>314.06863</ele>
        <time>2023-04-11T12:22:43.000Z</time>
      </trkpt>
      <trkpt lat="45.85256" lon="4.67148">
        <ele>313.43402</ele>
        <time>2023-04-11T12:22:44.000Z</time>
      </trkpt>
      <trkpt lat="45.85253" lon="4.67145">
        <ele>313.04202</ele>
        <time>2023-04-11T12:22:45.000Z</time>
      </trkpt>
      <trkpt lat="45.85249" lon="4.67142">
        <ele>312.57745</ele>
        <time>2023-04-11T12:22:46.000Z</time>
      </trkpt>
      <trkpt lat="45.85245" lon="4.6714">
        <ele>312.11548</ele>
        <time>2023-04-11T12:22:47.000Z</time>
      </trkpt>
      <trkpt lat="45.8524" lon="4.67138">
        <ele>311.64508</ele>
        <time>2023-04-11T12:22:48.000Z</time>
      </trkpt>
      <trkpt lat="45.85235" lon="4.67134">
        <ele>311.13522</ele>
        <time>2023-04-11T12:22:49.000Z</time>
      </trkpt>
      <trkpt lat="45.8523" lon="4.67132">
        <ele>310.63971</ele>
        <time>2023-04-11T12:22:50.000Z</time>
      </trkpt>
      <trkpt lat="45.85226" lon="4.67128">
        <ele>310.19089</ele>
        <time>2023-04-11T12:22:51.000Z</time>
      </trkpt>
      <trkpt lat="45.85223" lon="4.67124">
        <ele>309.70148</ele>
        <time>2023-04-11T12:22:52.000Z</time>
      </trkpt>
      <trkpt lat="45.85219" lon="4.67121">
        <ele>309.22079</ele>
        <time>2023-04-11T12:22:53.000Z</time>
      </trkpt>
      <trkpt lat="45.85215" lon="4.67119">
        <ele>309.01932</ele>
        <time>2023-04-11T12:22:54.000Z</time>
      </trkpt>
      <trkpt lat="45.85211" lon="4.67117">
        <ele>308.84344</ele>
        <time>2023-04-11T12:22:55.000Z</time>
      </trkpt>
      <trkpt lat="45.85206" lon="4.67115">
        <ele>308.69662</ele>
        <time>2023-04-11T12:22:56.000Z</time>
      </trkpt>
      <trkpt lat="45.85201" lon="4.67111">
        <ele>308.12845</ele>
        <time>2023-04-11T12:22:57.000Z</time>
      </trkpt>
      <trkpt lat="45.85196" lon="4.67107">
        <ele>307.62628</ele>
        <time>2023-04-11T12:22:58.000Z</time>
      </trkpt>
      <trkpt lat="45.85191" lon="4.67104">
        <ele>307.15802</ele>
        <time>2023-04-11T12:22:59.000Z</time>
      </trkpt>
      <trkpt lat="45.85186" lon="4.67101">
        <ele>306.70868</ele>
        <time>2023-04-11T12:23:00.000Z</time>
      </trkpt>
      <trkpt lat="45.85181" lon="4.67097">
        <ele>306.25195</ele>
        <time>2023-04-11T12:23:01.000Z</time>
      </trkpt>
      <trkpt lat="45.85176" lon="4.67094">
        <ele>305.784</ele>
        <time>2023-04-11T12:23:02.000Z</time>
      </trkpt>
      <trkpt lat="45.85171" lon="4.6709">
        <ele>305.32608</ele>
        <time>2023-04-11T12:23:03.000Z</time>
      </trkpt>
      <trkpt lat="45.85167" lon="4.67086">
        <ele>304.86099</ele>
        <time>2023-04-11T12:23:04.000Z</time>
      </trkpt>
      <trkpt lat="45.85163" lon="4.67083">
        <ele>304.41794</ele>
        <time>2023-04-11T12:23:05.000Z</time>
      </trkpt>
      <trkpt lat="45.85159" lon="4.67081">
        <ele>304</ele>
        <time>2023-04-11T12:23:06.000Z</time>
      </trkpt>
      <trkpt lat="45.85155" lon="4.67077">
        <ele>303.53046</ele>
        <time>2023-04-11T12:23:07.000Z</time>
      </trkpt>
      <trkpt lat="45.8515" lon="4.67075">
        <ele>303.13135</ele>
        <time>2023-04-11T12:23:08.000Z</time>
      </trkpt>
      <trkpt lat="45.85146" lon="4.67073">
        <ele>302.79218</ele>
        <time>2023-04-11T12:23:09.000Z</time>
      </trkpt>
      <trkpt lat="45.85142" lon="4.67071">
        <ele>302.4368</ele>
        <time>2023-04-11T12:23:10.000Z</time>
      </trkpt>
      <trkpt lat="45.85138" lon="4.67069">
        <ele>302.1207</ele>
        <time>2023-04-11T12:23:11.000Z</time>
      </trkpt>
      <trkpt lat="45.85135" lon="4.67067">
        <ele>301.86603</ele>
        <time>2023-04-11T12:23:12.000Z</time>
      </trkpt>
      <trkpt lat="45.85131" lon="4.67065">
        <ele>301.61569</ele>
        <time>2023-04-11T12:23:13.000Z</time>
      </trkpt>
      <trkpt lat="45.85127" lon="4.67064">
        <ele>301.10226</ele>
        <time>2023-04-11T12:23:14.000Z</time>
      </trkpt>
      <trkpt lat="45.85123" lon="4.67063">
        <ele>300.57352</ele>
        <time>2023-04-11T12:23:15.000Z</time>
      </trkpt>
      <trkpt lat="45.85119" lon="4.67064">
        <ele>300.55243</ele>
        <time>2023-04-11T12:23:16.000Z</time>
      </trkpt>
      <trkpt lat="45.85116" lon="4.67062">
        <ele>300.9902</ele>
        <time>2023-04-11T12:23:17.000Z</time>
      </trkpt>
      <trkpt lat="45.85114" lon="4.6706">
        <ele>301.36667</ele>
        <time>2023-04-11T12:23:18.000Z</time>
      </trkpt>
      <trkpt lat="45.85113" lon="4.67057">
        <ele>301.72723</ele>
        <time>2023-04-11T12:23:19.000Z</time>
      </trkpt>
      <trkpt lat="45.85113" lon="4.67054">
        <ele>301.58102</ele>
        <time>2023-04-11T12:23:21.000Z</time>
      </trkpt>
      <trkpt lat="45.85115" lon="4.67055">
        <ele>301.42438</ele>
        <time>2023-04-11T12:23:33.000Z</time>
      </trkpt>
      <trkpt lat="45.85116" lon="4.6705">
        <ele>301.2171</ele>
        <time>2023-04-11T12:23:35.000Z</time>
      </trkpt>
      <trkpt lat="45.85117" lon="4.67046">
        <ele>300.99237</ele>
        <time>2023-04-11T12:23:36.000Z</time>
      </trkpt>
      <trkpt lat="45.85119" lon="4.67042">
        <ele>300.76367</ele>
        <time>2023-04-11T12:23:37.000Z</time>
      </trkpt>
      <trkpt lat="45.85121" lon="4.67039">
        <ele>300.51785</ele>
        <time>2023-04-11T12:23:38.000Z</time>
      </trkpt>
      <trkpt lat="45.85123" lon="4.67035">
        <ele>300.27045</ele>
        <time>2023-04-11T12:23:39.000Z</time>
      </trkpt>
      <trkpt lat="45.85125" lon="4.67033">
        <ele>300.06656</ele>
        <time>2023-04-11T12:23:40.000Z</time>
      </trkpt>
      <trkpt lat="45.85128" lon="4.6703">
        <ele>300.01859</ele>
        <time>2023-04-11T12:23:41.000Z</time>
      </trkpt>
      <trkpt lat="45.8513" lon="4.67028">
        <ele>300.05856</ele>
        <time>2023-04-11T12:23:42.000Z</time>
      </trkpt>
      <trkpt lat="45.85133" lon="4.67027">
        <ele>300.27295</ele>
        <time>2023-04-11T12:23:43.000Z</time>
      </trkpt>
      <trkpt lat="45.85135" lon="4.67025">
        <ele>299.922</ele>
        <time>2023-04-11T12:23:44.000Z</time>
      </trkpt>
      <trkpt lat="45.85138" lon="4.67023">
        <ele>299.56512</ele>
        <time>2023-04-11T12:23:45.000Z</time>
      </trkpt>
      <trkpt lat="45.85141" lon="4.67022">
        <ele>299.19757</ele>
        <time>2023-04-11T12:23:46.000Z</time>
      </trkpt>
      <trkpt lat="45.85144" lon="4.67021">
        <ele>298.82578</ele>
        <time>2023-04-11T12:23:47.000Z</time>
      </trkpt>
      <trkpt lat="45.85146" lon="4.67021">
        <ele>298.4314</ele>
        <time>2023-04-11T12:23:48.000Z</time>
      </trkpt>
      <trkpt lat="45.85149" lon="4.67021">
        <ele>297.51093</ele>
        <time>2023-04-11T12:23:49.000Z</time>
      </trkpt>
      <trkpt lat="45.85151" lon="4.67021">
        <ele>296.54285</ele>
        <time>2023-04-11T12:23:50.000Z</time>
      </trkpt>
      <trkpt lat="45.85154" lon="4.67021">
        <ele>295.54599</ele>
        <time>2023-04-11T12:23:51.000Z</time>
      </trkpt>
      <trkpt lat="45.85156" lon="4.67021">
        <ele>294.59247</ele>
        <time>2023-04-11T12:23:52.000Z</time>
      </trkpt>
      <trkpt lat="45.85158" lon="4.67022">
        <ele>294.10309</ele>
        <time>2023-04-11T12:23:53.000Z</time>
      </trkpt>
      <trkpt lat="45.8516" lon="4.67022">
        <ele>293.94907</ele>
        <time>2023-04-11T12:23:54.000Z</time>
      </trkpt>
      <trkpt lat="45.85162" lon="4.67023">
        <ele>293.9353</ele>
        <time>2023-04-11T12:23:55.000Z</time>
      </trkpt>
      <trkpt lat="45.85165" lon="4.67023">
        <ele>294.33759</ele>
        <time>2023-04-11T12:23:56.000Z</time>
      </trkpt>
      <trkpt lat="45.85168" lon="4.67024">
        <ele>294.87555</ele>
        <time>2023-04-11T12:23:57.000Z</time>
      </trkpt>
      <trkpt lat="45.85169" lon="4.67024">
        <ele>295.47528</ele>
        <time>2023-04-11T12:23:58.000Z</time>
      </trkpt>
      <trkpt lat="45.85172" lon="4.67026">
        <ele>295.89127</ele>
        <time>2023-04-11T12:24:00.000Z</time>
      </trkpt>
      <trkpt lat="45.85172" lon="4.67028">
        <ele>296.36884</ele>
        <time>2023-04-11T12:24:02.000Z</time>
      </trkpt>
      <trkpt lat="45.85176" lon="4.67028">
        <ele>295.99945</ele>
        <time>2023-04-11T12:24:29.000Z</time>
      </trkpt>
      <trkpt lat="45.85178" lon="4.67028">
        <ele>295.45969</ele>
        <time>2023-04-11T12:24:31.000Z</time>
      </trkpt>
      <trkpt lat="45.85178" lon="4.67025">
        <ele>295.1604</ele>
        <time>2023-04-11T12:24:42.000Z</time>
      </trkpt>
      <trkpt lat="45.85179" lon="4.67026">
        <ele>295.42337</ele>
        <time>2023-04-11T12:25:18.000Z</time>
      </trkpt>
      <trkpt lat="45.85182" lon="4.67027">
        <ele>295.66876</ele>
        <time>2023-04-11T12:25:19.000Z</time>
      </trkpt>
      <trkpt lat="45.85183" lon="4.67028">
        <ele>295.89975</ele>
        <time>2023-04-11T12:25:20.000Z</time>
      </trkpt>
      <trkpt lat="45.85186" lon="4.67028">
        <ele>296.10492</ele>
        <time>2023-04-11T12:25:21.000Z</time>
      </trkpt>
      <trkpt lat="45.85188" lon="4.67028">
        <ele>296.2673</ele>
        <time>2023-04-11T12:25:22.000Z</time>
      </trkpt>
      <trkpt lat="45.8519" lon="4.67029">
        <ele>296.44998</ele>
        <time>2023-04-11T12:25:23.000Z</time>
      </trkpt>
      <trkpt lat="45.85193" lon="4.67029">
        <ele>296.65295</ele>
        <time>2023-04-11T12:25:24.000Z</time>
      </trkpt>
      <trkpt lat="45.85196" lon="4.6703">
        <ele>296.78241</ele>
        <time>2023-04-11T12:25:25.000Z</time>
      </trkpt>
      <trkpt lat="45.85199" lon="4.6703">
        <ele>296.79385</ele>
        <time>2023-04-11T12:25:26.000Z</time>
      </trkpt>
      <trkpt lat="45.85203" lon="4.6703">
        <ele>297.16104</ele>
        <time>2023-04-11T12:25:27.000Z</time>
      </trkpt>
      <trkpt lat="45.85207" lon="4.67029">
        <ele>297.2291</ele>
        <time>2023-04-11T12:25:28.000Z</time>
      </trkpt>
      <trkpt lat="45.85211" lon="4.67029">
        <ele>297.27853</ele>
        <time>2023-04-11T12:25:29.000Z</time>
      </trkpt>
      <trkpt lat="45.85215" lon="4.67029">
        <ele>296.93198</ele>
        <time>2023-04-11T12:25:30.000Z</time>
      </trkpt>
      <trkpt lat="45.85219" lon="4.6703">
        <ele>296.46497</ele>
        <time>2023-04-11T12:25:31.000Z</time>
      </trkpt>
      <trkpt lat="45.85223" lon="4.67032">
        <ele>295.31793</ele>
        <time>2023-04-11T12:25:32.000Z</time>
      </trkpt>
      <trkpt lat="45.8523" lon="4.67035">
        <ele>294.56213</ele>
        <time>2023-04-11T12:25:33.000Z</time>
      </trkpt>
      <trkpt lat="45.85235" lon="4.67036">
        <ele>293.69833</ele>
        <time>2023-04-11T12:25:34.000Z</time>
      </trkpt>
      <trkpt lat="45.8524" lon="4.67036">
        <ele>293.38834</ele>
        <time>2023-04-11T12:25:35.000Z</time>
      </trkpt>
      <trkpt lat="45.85245" lon="4.67036">
        <ele>293.08234</ele>
        <time>2023-04-11T12:25:36.000Z</time>
      </trkpt>
      <trkpt lat="45.8525" lon="4.67035">
        <ele>292.38681</ele>
        <time>2023-04-11T12:25:37.000Z</time>
      </trkpt>
      <trkpt lat="45.85255" lon="4.67034">
        <ele>291.70563</ele>
        <time>2023-04-11T12:25:38.000Z</time>
      </trkpt>
      <trkpt lat="45.85261" lon="4.67033">
        <ele>291.01105</ele>
        <time>2023-04-11T12:25:39.000Z</time>
      </trkpt>
      <trkpt lat="45.85266" lon="4.67032">
        <ele>290.33234</ele>
        <time>2023-04-11T12:25:40.000Z</time>
      </trkpt>
      <trkpt lat="45.85272" lon="4.6703">
        <ele>289.71738</ele>
        <time>2023-04-11T12:25:41.000Z</time>
      </trkpt>
      <trkpt lat="45.85277" lon="4.67027">
        <ele>289.22473</ele>
        <time>2023-04-11T12:25:42.000Z</time>
      </trkpt>
      <trkpt lat="45.85284" lon="4.67025">
        <ele>288.73547</ele>
        <time>2023-04-11T12:25:43.000Z</time>
      </trkpt>
      <trkpt lat="45.85289" lon="4.67024">
        <ele>288.216</ele>
        <time>2023-04-11T12:25:44.000Z</time>
      </trkpt>
      <trkpt lat="45.85296" lon="4.67023">
        <ele>287.82138</ele>
        <time>2023-04-11T12:25:45.000Z</time>
      </trkpt>
      <trkpt lat="45.85302" lon="4.67021">
        <ele>287.50473</ele>
        <time>2023-04-11T12:25:46.000Z</time>
      </trkpt>
      <trkpt lat="45.85309" lon="4.6702">
        <ele>286.85538</ele>
        <time>2023-04-11T12:25:47.000Z</time>
      </trkpt>
      <trkpt lat="45.85316" lon="4.67017">
        <ele>286.18475</ele>
        <time>2023-04-11T12:25:48.000Z</time>
      </trkpt>
      <trkpt lat="45.85322" lon="4.67015">
        <ele>285.45172</ele>
        <time>2023-04-11T12:25:49.000Z</time>
      </trkpt>
      <trkpt lat="45.85328" lon="4.67012">
        <ele>284.76431</ele>
        <time>2023-04-11T12:25:50.000Z</time>
      </trkpt>
      <trkpt lat="45.85334" lon="4.67008">
        <ele>284.05624</ele>
        <time>2023-04-11T12:25:51.000Z</time>
      </trkpt>
      <trkpt lat="45.8534" lon="4.67005">
        <ele>283.99078</ele>
        <time>2023-04-11T12:25:52.000Z</time>
      </trkpt>
      <trkpt lat="45.85346" lon="4.67001">
        <ele>283.83917</ele>
        <time>2023-04-11T12:25:53.000Z</time>
      </trkpt>
      <trkpt lat="45.85352" lon="4.66996">
        <ele>283.72955</ele>
        <time>2023-04-11T12:25:54.000Z</time>
      </trkpt>
      <trkpt lat="45.85358" lon="4.66991">
        <ele>283.65335</ele>
        <time>2023-04-11T12:25:55.000Z</time>
      </trkpt>
      <trkpt lat="45.85364" lon="4.66986">
        <ele>283.5965</ele>
        <time>2023-04-11T12:25:56.000Z</time>
      </trkpt>
      <trkpt lat="45.85369" lon="4.66982">
        <ele>283.5361</ele>
        <time>2023-04-11T12:25:57.000Z</time>
      </trkpt>
      <trkpt lat="45.85375" lon="4.66977">
        <ele>283.4335</ele>
        <time>2023-04-11T12:25:58.000Z</time>
      </trkpt>
      <trkpt lat="45.85381" lon="4.66974">
        <ele>283.3588</ele>
        <time>2023-04-11T12:25:59.000Z</time>
      </trkpt>
      <trkpt lat="45.85386" lon="4.6697">
        <ele>283.29645</ele>
        <time>2023-04-11T12:26:00.000Z</time>
      </trkpt>
      <trkpt lat="45.85392" lon="4.66966">
        <ele>283.65948</ele>
        <time>2023-04-11T12:26:01.000Z</time>
      </trkpt>
      <trkpt lat="45.85398" lon="4.66964">
        <ele>283.95721</ele>
        <time>2023-04-11T12:26:02.000Z</time>
      </trkpt>
      <trkpt lat="45.85405" lon="4.66961">
        <ele>284.38501</ele>
        <time>2023-04-11T12:26:03.000Z</time>
      </trkpt>
      <trkpt lat="45.85412" lon="4.6696">
        <ele>284.18436</ele>
        <time>2023-04-11T12:26:04.000Z</time>
      </trkpt>
      <trkpt lat="45.85418" lon="4.66958">
        <ele>284.05389</ele>
        <time>2023-04-11T12:26:05.000Z</time>
      </trkpt>
      <trkpt lat="45.85424" lon="4.66959">
        <ele>283.94733</ele>
        <time>2023-04-11T12:26:06.000Z</time>
      </trkpt>
      <trkpt lat="45.85432" lon="4.66959">
        <ele>283.8222</ele>
        <time>2023-04-11T12:26:07.000Z</time>
      </trkpt>
      <trkpt lat="45.85439" lon="4.6696">
        <ele>283.71411</ele>
        <time>2023-04-11T12:26:08.000Z</time>
      </trkpt>
      <trkpt lat="45.85446" lon="4.66961">
        <ele>283.5654</ele>
        <time>2023-04-11T12:26:09.000Z</time>
      </trkpt>
      <trkpt lat="45.85454" lon="4.66961">
        <ele>283.44366</ele>
        <time>2023-04-11T12:26:10.000Z</time>
      </trkpt>
      <trkpt lat="45.85462" lon="4.66961">
        <ele>283.35358</ele>
        <time>2023-04-11T12:26:11.000Z</time>
      </trkpt>
      <trkpt lat="45.85469" lon="4.6696">
        <ele>283.31937</ele>
        <time>2023-04-11T12:26:12.000Z</time>
      </trkpt>
      <trkpt lat="45.85474" lon="4.66959">
        <ele>283.21527</ele>
        <time>2023-04-11T12:26:13.000Z</time>
      </trkpt>
      <trkpt lat="45.8548" lon="4.66958">
        <ele>283.08279</ele>
        <time>2023-04-11T12:26:14.000Z</time>
      </trkpt>
      <trkpt lat="45.85486" lon="4.66959">
        <ele>283.05142</ele>
        <time>2023-04-11T12:26:15.000Z</time>
      </trkpt>
      <trkpt lat="45.85493" lon="4.66957">
        <ele>283.01401</ele>
        <time>2023-04-11T12:26:16.000Z</time>
      </trkpt>
      <trkpt lat="45.855" lon="4.66955">
        <ele>282.94086</ele>
        <time>2023-04-11T12:26:17.000Z</time>
      </trkpt>
      <trkpt lat="45.85505" lon="4.66952">
        <ele>282.84943</ele>
        <time>2023-04-11T12:26:18.000Z</time>
      </trkpt>
      <trkpt lat="45.85511" lon="4.6695">
        <ele>282.77319</ele>
        <time>2023-04-11T12:26:19.000Z</time>
      </trkpt>
      <trkpt lat="45.85516" lon="4.66949">
        <ele>282.75073</ele>
        <time>2023-04-11T12:26:20.000Z</time>
      </trkpt>
      <trkpt lat="45.85521" lon="4.66948">
        <ele>282.27423</ele>
        <time>2023-04-11T12:26:21.000Z</time>
      </trkpt>
      <trkpt lat="45.85525" lon="4.66949">
        <ele>281.80878</ele>
        <time>2023-04-11T12:26:22.000Z</time>
      </trkpt>
      <trkpt lat="45.85527" lon="4.66949">
        <ele>281.23907</ele>
        <time>2023-04-11T12:26:23.000Z</time>
      </trkpt>
      <trkpt lat="45.85531" lon="4.6695">
        <ele>281.29745</ele>
        <time>2023-04-11T12:26:24.000Z</time>
      </trkpt>
      <trkpt lat="45.85532" lon="4.66951">
        <ele>281.26791</ele>
        <time>2023-04-11T12:26:25.000Z</time>
      </trkpt>
      <trkpt lat="45.85534" lon="4.66954">
        <ele>281.33011</ele>
        <time>2023-04-11T12:26:26.000Z</time>
      </trkpt>
      <trkpt lat="45.85535" lon="4.66959">
        <ele>281.42435</ele>
        <time>2023-04-11T12:26:27.000Z</time>
      </trkpt>
      <trkpt lat="45.85536" lon="4.66963">
        <ele>281.58624</ele>
        <time>2023-04-11T12:26:28.000Z</time>
      </trkpt>
      <trkpt lat="45.85537" lon="4.66969">
        <ele>281.67767</ele>
        <time>2023-04-11T12:26:29.000Z</time>
      </trkpt>
      <trkpt lat="45.85538" lon="4.66974">
        <ele>281.64728</ele>
        <time>2023-04-11T12:26:30.000Z</time>
      </trkpt>
      <trkpt lat="45.8554" lon="4.66978">
        <ele>281.61932</ele>
        <time>2023-04-11T12:26:31.000Z</time>
      </trkpt>
      <trkpt lat="45.85542" lon="4.66983">
        <ele>281.55515</ele>
        <time>2023-04-11T12:26:32.000Z</time>
      </trkpt>
      <trkpt lat="45.85544" lon="4.66989">
        <ele>281.41058</ele>
        <time>2023-04-11T12:26:33.000Z</time>
      </trkpt>
      <trkpt lat="45.85546" lon="4.66994">
        <ele>281.26889</ele>
        <time>2023-04-11T12:26:34.000Z</time>
      </trkpt>
      <trkpt lat="45.85547" lon="4.66999">
        <ele>281.13852</ele>
        <time>2023-04-11T12:26:35.000Z</time>
      </trkpt>
      <trkpt lat="45.85548" lon="4.67005">
        <ele>281.05075</ele>
        <time>2023-04-11T12:26:36.000Z</time>
      </trkpt>
      <trkpt lat="45.8555" lon="4.67009">
        <ele>280.98215</ele>
        <time>2023-04-11T12:26:37.000Z</time>
      </trkpt>
      <trkpt lat="45.85552" lon="4.67014">
        <ele>280.9682</ele>
        <time>2023-04-11T12:26:38.000Z</time>
      </trkpt>
      <trkpt lat="45.85553" lon="4.6702">
        <ele>280.91144</ele>
        <time>2023-04-11T12:26:39.000Z</time>
      </trkpt>
      <trkpt lat="45.85555" lon="4.67024">
        <ele>280.81293</ele>
        <time>2023-04-11T12:26:40.000Z</time>
      </trkpt>
      <trkpt lat="45.85556" lon="4.67028">
        <ele>280.78595</ele>
        <time>2023-04-11T12:26:41.000Z</time>
      </trkpt>
      <trkpt lat="45.85557" lon="4.67031">
        <ele>280.73486</ele>
        <time>2023-04-11T12:26:42.000Z</time>
      </trkpt>
      <trkpt lat="45.85558" lon="4.67033">
        <ele>280.67343</ele>
        <time>2023-04-11T12:26:43.000Z</time>
      </trkpt>
      <trkpt lat="45.85559" lon="4.67036">
        <ele>280.62079</ele>
        <time>2023-04-11T12:26:44.000Z</time>
      </trkpt>
      <trkpt lat="45.85559" lon="4.67039">
        <ele>280.58005</ele>
        <time>2023-04-11T12:26:45.000Z</time>
      </trkpt>
      <trkpt lat="45.85559" lon="4.67042">
        <ele>280.44647</ele>
        <time>2023-04-11T12:26:46.000Z</time>
      </trkpt>
      <trkpt lat="45.8556" lon="4.67045">
        <ele>280.30194</ele>
        <time>2023-04-11T12:26:47.000Z</time>
      </trkpt>
      <trkpt lat="45.8556" lon="4.67048">
        <ele>280.13464</ele>
        <time>2023-04-11T12:26:48.000Z</time>
      </trkpt>
      <trkpt lat="45.85561" lon="4.67052">
        <ele>280.08029</ele>
        <time>2023-04-11T12:26:49.000Z</time>
      </trkpt>
      <trkpt lat="45.85562" lon="4.67056">
        <ele>280.16901</ele>
        <time>2023-04-11T12:26:50.000Z</time>
      </trkpt>
      <trkpt lat="45.85563" lon="4.6706">
        <ele>280.18597</ele>
        <time>2023-04-11T12:26:51.000Z</time>
      </trkpt>
      <trkpt lat="45.85565" lon="4.67064">
        <ele>280.08746</ele>
        <time>2023-04-11T12:26:52.000Z</time>
      </trkpt>
      <trkpt lat="45.85566" lon="4.67069">
        <ele>280.05664</ele>
        <time>2023-04-11T12:26:53.000Z</time>
      </trkpt>
      <trkpt lat="45.85568" lon="4.67074">
        <ele>279.98749</ele>
        <time>2023-04-11T12:26:54.000Z</time>
      </trkpt>
      <trkpt lat="45.8557" lon="4.67079">
        <ele>279.9342</ele>
        <time>2023-04-11T12:26:55.000Z</time>
      </trkpt>
      <trkpt lat="45.85572" lon="4.67084">
        <ele>279.98141</ele>
        <time>2023-04-11T12:26:56.000Z</time>
      </trkpt>
      <trkpt lat="45.85574" lon="4.67089">
        <ele>280.09146</ele>
        <time>2023-04-11T12:26:57.000Z</time>
      </trkpt>
      <trkpt lat="45.85577" lon="4.67095">
        <ele>280.05304</ele>
        <time>2023-04-11T12:26:58.000Z</time>
      </trkpt>
      <trkpt lat="45.8558" lon="4.67102">
        <ele>280.0451</ele>
        <time>2023-04-11T12:26:59.000Z</time>
      </trkpt>
      <trkpt lat="45.85582" lon="4.67107">
        <ele>280.04184</ele>
        <time>2023-04-11T12:27:00.000Z</time>
      </trkpt>
      <trkpt lat="45.85584" lon="4.67112">
        <ele>279.96347</ele>
        <time>2023-04-11T12:27:01.000Z</time>
      </trkpt>
      <trkpt lat="45.85587" lon="4.6712">
        <ele>279.89801</ele>
        <time>2023-04-11T12:27:02.000Z</time>
      </trkpt>
      <trkpt lat="45.85589" lon="4.67126">
        <ele>280.16995</ele>
        <time>2023-04-11T12:27:03.000Z</time>
      </trkpt>
      <trkpt lat="45.85592" lon="4.67133">
        <ele>280.64496</ele>
        <time>2023-04-11T12:27:04.000Z</time>
      </trkpt>
      <trkpt lat="45.85593" lon="4.67139">
        <ele>280.4238</ele>
        <time>2023-04-11T12:27:05.000Z</time>
      </trkpt>
      <trkpt lat="45.85595" lon="4.67142">
        <ele>279.4938</ele>
        <time>2023-04-11T12:27:06.000Z</time>
      </trkpt>
      <trkpt lat="45.85598" lon="4.67147">
        <ele>278.58121</ele>
        <time>2023-04-11T12:27:07.000Z</time>
      </trkpt>
      <trkpt lat="45.85602" lon="4.67151">
        <ele>277.58878</ele>
        <time>2023-04-11T12:27:08.000Z</time>
      </trkpt>
      <trkpt lat="45.85604" lon="4.67155">
        <ele>276.58347</ele>
        <time>2023-04-11T12:27:09.000Z</time>
      </trkpt>
      <trkpt lat="45.85607" lon="4.6716">
        <ele>275.60834</ele>
        <time>2023-04-11T12:27:10.000Z</time>
      </trkpt>
      <trkpt lat="45.85609" lon="4.67165">
        <ele>274.71722</ele>
        <time>2023-04-11T12:27:11.000Z</time>
      </trkpt>
      <trkpt lat="45.85611" lon="4.67171">
        <ele>274.00342</ele>
        <time>2023-04-11T12:27:12.000Z</time>
      </trkpt>
      <trkpt lat="45.85611" lon="4.67174">
        <ele>273.30411</ele>
        <time>2023-04-11T12:27:13.000Z</time>
      </trkpt>
      <trkpt lat="45.85613" lon="4.67179">
        <ele>272.53204</ele>
        <time>2023-04-11T12:27:14.000Z</time>
      </trkpt>
      <trkpt lat="45.85614" lon="4.67183">
        <ele>271.8089</ele>
        <time>2023-04-11T12:27:15.000Z</time>
      </trkpt>
      <trkpt lat="45.85619" lon="4.6719">
        <ele>270.98651</ele>
        <time>2023-04-11T12:27:16.000Z</time>
      </trkpt>
      <trkpt lat="45.85622" lon="4.67194">
        <ele>270.12344</ele>
        <time>2023-04-11T12:27:17.000Z</time>
      </trkpt>
      <trkpt lat="45.85625" lon="4.67198">
        <ele>269.41498</ele>
        <time>2023-04-11T12:27:18.000Z</time>
      </trkpt>
      <trkpt lat="45.85627" lon="4.67203">
        <ele>268.67865</ele>
        <time>2023-04-11T12:27:19.000Z</time>
      </trkpt>
      <trkpt lat="45.85629" lon="4.67206">
        <ele>267.93823</ele>
        <time>2023-04-11T12:27:20.000Z</time>
      </trkpt>
      <trkpt lat="45.85633" lon="4.67209">
        <ele>267.26385</ele>
        <time>2023-04-11T12:27:21.000Z</time>
      </trkpt>
      <trkpt lat="45.85638" lon="4.67214">
        <ele>266.56158</ele>
        <time>2023-04-11T12:27:22.000Z</time>
      </trkpt>
      <trkpt lat="45.85642" lon="4.67218">
        <ele>265.5141</ele>
        <time>2023-04-11T12:27:23.000Z</time>
      </trkpt>
      <trkpt lat="45.85646" lon="4.67221">
        <ele>264.28046</ele>
        <time>2023-04-11T12:27:24.000Z</time>
      </trkpt>
      <trkpt lat="45.85648" lon="4.67225">
        <ele>263.68521</ele>
        <time>2023-04-11T12:27:25.000Z</time>
      </trkpt>
      <trkpt lat="45.85652" lon="4.67229">
        <ele>263.84924</ele>
        <time>2023-04-11T12:27:26.000Z</time>
      </trkpt>
      <trkpt lat="45.85656" lon="4.67233">
        <ele>263.9856</ele>
        <time>2023-04-11T12:27:27.000Z</time>
      </trkpt>
      <trkpt lat="45.85661" lon="4.67238">
        <ele>264.19</ele>
        <time>2023-04-11T12:27:28.000Z</time>
      </trkpt>
      <trkpt lat="45.85666" lon="4.6724">
        <ele>264.41867</ele>
        <time>2023-04-11T12:27:29.000Z</time>
      </trkpt>
      <trkpt lat="45.85671" lon="4.67243">
        <ele>264.50537</ele>
        <time>2023-04-11T12:27:30.000Z</time>
      </trkpt>
      <trkpt lat="45.85676" lon="4.67246">
        <ele>264.57895</ele>
        <time>2023-04-11T12:27:31.000Z</time>
      </trkpt>
      <trkpt lat="45.85681" lon="4.67249">
        <ele>264.64105</ele>
        <time>2023-04-11T12:27:32.000Z</time>
      </trkpt>
      <trkpt lat="45.85687" lon="4.67252">
        <ele>264.62482</ele>
        <time>2023-04-11T12:27:33.000Z</time>
      </trkpt>
      <trkpt lat="45.85691" lon="4.67254">
        <ele>264.79111</ele>
        <time>2023-04-11T12:27:34.000Z</time>
      </trkpt>
      <trkpt lat="45.85697" lon="4.67257">
        <ele>264.84973</ele>
        <time>2023-04-11T12:27:35.000Z</time>
      </trkpt>
      <trkpt lat="45.85701" lon="4.6726">
        <ele>264.88437</ele>
        <time>2023-04-11T12:27:36.000Z</time>
      </trkpt>
      <trkpt lat="45.85705" lon="4.67262">
        <ele>264.76608</ele>
        <time>2023-04-11T12:27:37.000Z</time>
      </trkpt>
      <trkpt lat="45.85711" lon="4.67264">
        <ele>264.64572</ele>
        <time>2023-04-11T12:27:38.000Z</time>
      </trkpt>
      <trkpt lat="45.85716" lon="4.67267">
        <ele>264.52097</ele>
        <time>2023-04-11T12:27:39.000Z</time>
      </trkpt>
      <trkpt lat="45.85721" lon="4.6727">
        <ele>264.30487</ele>
        <time>2023-04-11T12:27:40.000Z</time>
      </trkpt>
      <trkpt lat="45.85725" lon="4.67274">
        <ele>264.02444</ele>
        <time>2023-04-11T12:27:41.000Z</time>
      </trkpt>
      <trkpt lat="45.85729" lon="4.67277">
        <ele>263.83765</ele>
        <time>2023-04-11T12:27:42.000Z</time>
      </trkpt>
      <trkpt lat="45.85731" lon="4.6728">
        <ele>263.62488</ele>
        <time>2023-04-11T12:27:43.000Z</time>
      </trkpt>
      <trkpt lat="45.85735" lon="4.67285">
        <ele>263.40033</ele>
        <time>2023-04-11T12:27:44.000Z</time>
      </trkpt>
      <trkpt lat="45.85738" lon="4.67288">
        <ele>263.17267</ele>
        <time>2023-04-11T12:27:45.000Z</time>
      </trkpt>
      <trkpt lat="45.85742" lon="4.67292">
        <ele>262.8671</ele>
        <time>2023-04-11T12:27:46.000Z</time>
      </trkpt>
      <trkpt lat="45.85746" lon="4.67295">
        <ele>262.56927</ele>
        <time>2023-04-11T12:27:47.000Z</time>
      </trkpt>
      <trkpt lat="45.85749" lon="4.67299">
        <ele>262.3205</ele>
        <time>2023-04-11T12:27:48.000Z</time>
      </trkpt>
      <trkpt lat="45.85753" lon="4.67303">
        <ele>262.11713</ele>
        <time>2023-04-11T12:27:49.000Z</time>
      </trkpt>
      <trkpt lat="45.85757" lon="4.67305">
        <ele>261.98077</ele>
        <time>2023-04-11T12:27:50.000Z</time>
      </trkpt>
      <trkpt lat="45.85759" lon="4.67309">
        <ele>261.84863</ele>
        <time>2023-04-11T12:27:51.000Z</time>
      </trkpt>
      <trkpt lat="45.85762" lon="4.67314">
        <ele>261.65872</ele>
        <time>2023-04-11T12:27:52.000Z</time>
      </trkpt>
      <trkpt lat="45.85765" lon="4.67316">
        <ele>261.5289</ele>
        <time>2023-04-11T12:27:53.000Z</time>
      </trkpt>
      <trkpt lat="45.85767" lon="4.67321">
        <ele>261.31659</ele>
        <time>2023-04-11T12:27:54.000Z</time>
      </trkpt>
      <trkpt lat="45.8577" lon="4.67324">
        <ele>261.10147</ele>
        <time>2023-04-11T12:27:55.000Z</time>
      </trkpt>
      <trkpt lat="45.85772" lon="4.67327">
        <ele>261.07138</ele>
        <time>2023-04-11T12:27:56.000Z</time>
      </trkpt>
      <trkpt lat="45.85775" lon="4.6733">
        <ele>261.1293</ele>
        <time>2023-04-11T12:27:57.000Z</time>
      </trkpt>
      <trkpt lat="45.85776" lon="4.67334">
        <ele>261.13641</ele>
        <time>2023-04-11T12:27:58.000Z</time>
      </trkpt>
      <trkpt lat="45.85776" lon="4.67339">
        <ele>261.16644</ele>
        <time>2023-04-11T12:27:59.000Z</time>
      </trkpt>
      <trkpt lat="45.85776" lon="4.67344">
        <ele>261.04022</ele>
        <time>2023-04-11T12:28:00.000Z</time>
      </trkpt>
      <trkpt lat="45.85776" lon="4.67348">
        <ele>260.94846</ele>
        <time>2023-04-11T12:28:01.000Z</time>
      </trkpt>
      <trkpt lat="45.85776" lon="4.67352">
        <ele>260.79846</ele>
        <time>2023-04-11T12:28:02.000Z</time>
      </trkpt>
      <trkpt lat="45.85777" lon="4.67356">
        <ele>260.72202</ele>
        <time>2023-04-11T12:28:03.000Z</time>
      </trkpt>
      <trkpt lat="45.85777" lon="4.67359">
        <ele>260.6825</ele>
        <time>2023-04-11T12:28:04.000Z</time>
      </trkpt>
      <trkpt lat="45.85776" lon="4.67362">
        <ele>260.69928</ele>
        <time>2023-04-11T12:28:05.000Z</time>
      </trkpt>
      <trkpt lat="45.85774" lon="4.67364">
        <ele>260.89243</ele>
        <time>2023-04-11T12:28:06.000Z</time>
      </trkpt>
      <trkpt lat="45.85771" lon="4.67367">
        <ele>261.1409</ele>
        <time>2023-04-11T12:28:07.000Z</time>
      </trkpt>
      <trkpt lat="45.85769" lon="4.6737">
        <ele>261.3197</ele>
        <time>2023-04-11T12:28:08.000Z</time>
      </trkpt>
      <trkpt lat="45.85767" lon="4.67373">
        <ele>261.24225</ele>
        <time>2023-04-11T12:28:09.000Z</time>
      </trkpt>
      <trkpt lat="45.85765" lon="4.67377">
        <ele>261.15598</ele>
        <time>2023-04-11T12:28:10.000Z</time>
      </trkpt>
      <trkpt lat="45.85763" lon="4.67381">
        <ele>261.09528</ele>
        <time>2023-04-11T12:28:11.000Z</time>
      </trkpt>
      <trkpt lat="45.85761" lon="4.67385">
        <ele>261.02301</ele>
        <time>2023-04-11T12:28:12.000Z</time>
      </trkpt>
      <trkpt lat="45.85759" lon="4.67389">
        <ele>260.9328</ele>
        <time>2023-04-11T12:28:13.000Z</time>
      </trkpt>
      <trkpt lat="45.85757" lon="4.67393">
        <ele>260.84418</ele>
        <time>2023-04-11T12:28:14.000Z</time>
      </trkpt>
      <trkpt lat="45.85755" lon="4.67398">
        <ele>260.78973</ele>
        <time>2023-04-11T12:28:15.000Z</time>
      </trkpt>
      <trkpt lat="45.85753" lon="4.67402">
        <ele>260.58475</ele>
        <time>2023-04-11T12:28:16.000Z</time>
      </trkpt>
      <trkpt lat="45.8575" lon="4.67406">
        <ele>260.44455</ele>
        <time>2023-04-11T12:28:17.000Z</time>
      </trkpt>
      <trkpt lat="45.85748" lon="4.67411">
        <ele>260.35242</ele>
        <time>2023-04-11T12:28:18.000Z</time>
      </trkpt>
      <trkpt lat="45.85746" lon="4.67415">
        <ele>260.28159</ele>
        <time>2023-04-11T12:28:19.000Z</time>
      </trkpt>
      <trkpt lat="45.85745" lon="4.67419">
        <ele>260.46295</ele>
        <time>2023-04-11T12:28:20.000Z</time>
      </trkpt>
      <trkpt lat="45.85743" lon="4.67424">
        <ele>260.63467</ele>
        <time>2023-04-11T12:28:21.000Z</time>
      </trkpt>
      <trkpt lat="45.85741" lon="4.67428">
        <ele>260.82681</ele>
        <time>2023-04-11T12:28:22.000Z</time>
      </trkpt>
      <trkpt lat="45.8574" lon="4.67432">
        <ele>260.98764</ele>
        <time>2023-04-11T12:28:23.000Z</time>
      </trkpt>
      <trkpt lat="45.85738" lon="4.67436">
        <ele>261.14539</ele>
        <time>2023-04-11T12:28:24.000Z</time>
      </trkpt>
      <trkpt lat="45.85737" lon="4.6744">
        <ele>261.27374</ele>
        <time>2023-04-11T12:28:25.000Z</time>
      </trkpt>
      <trkpt lat="45.85734" lon="4.67444">
        <ele>261.27719</ele>
        <time>2023-04-11T12:28:26.000Z</time>
      </trkpt>
      <trkpt lat="45.85732" lon="4.67448">
        <ele>261.245</ele>
        <time>2023-04-11T12:28:27.000Z</time>
      </trkpt>
      <trkpt lat="45.8573" lon="4.67451">
        <ele>261.11298</ele>
        <time>2023-04-11T12:28:28.000Z</time>
      </trkpt>
      <trkpt lat="45.85727" lon="4.67454">
        <ele>261.20193</ele>
        <time>2023-04-11T12:28:29.000Z</time>
      </trkpt>
      <trkpt lat="45.85725" lon="4.67458">
        <ele>261.29239</ele>
        <time>2023-04-11T12:28:30.000Z</time>
      </trkpt>
      <trkpt lat="45.85722" lon="4.67462">
        <ele>261.33905</ele>
        <time>2023-04-11T12:28:31.000Z</time>
      </trkpt>
      <trkpt lat="45.8572" lon="4.67466">
        <ele>261.38046</ele>
        <time>2023-04-11T12:28:32.000Z</time>
      </trkpt>
      <trkpt lat="45.85717" lon="4.6747">
        <ele>261.4729</ele>
        <time>2023-04-11T12:28:33.000Z</time>
      </trkpt>
      <trkpt lat="45.85715" lon="4.67474">
        <ele>261.63452</ele>
        <time>2023-04-11T12:28:34.000Z</time>
      </trkpt>
      <trkpt lat="45.85712" lon="4.67478">
        <ele>261.79584</ele>
        <time>2023-04-11T12:28:35.000Z</time>
      </trkpt>
      <trkpt lat="45.8571" lon="4.67482">
        <ele>261.98859</ele>
        <time>2023-04-11T12:28:36.000Z</time>
      </trkpt>
      <trkpt lat="45.85708" lon="4.67487">
        <ele>262.19373</ele>
        <time>2023-04-11T12:28:37.000Z</time>
      </trkpt>
      <trkpt lat="45.85705" lon="4.67491">
        <ele>262.14774</ele>
        <time>2023-04-11T12:28:38.000Z</time>
      </trkpt>
      <trkpt lat="45.85703" lon="4.67494">
        <ele>262.06152</ele>
        <time>2023-04-11T12:28:39.000Z</time>
      </trkpt>
      <trkpt lat="45.857" lon="4.67497">
        <ele>261.97916</ele>
        <time>2023-04-11T12:28:40.000Z</time>
      </trkpt>
      <trkpt lat="45.85697" lon="4.675">
        <ele>261.88254</ele>
        <time>2023-04-11T12:28:41.000Z</time>
      </trkpt>
      <trkpt lat="45.85694" lon="4.67504">
        <ele>261.80231</ele>
        <time>2023-04-11T12:28:42.000Z</time>
      </trkpt>
      <trkpt lat="45.85691" lon="4.67507">
        <ele>261.70303</ele>
        <time>2023-04-11T12:28:43.000Z</time>
      </trkpt>
      <trkpt lat="45.85688" lon="4.6751">
        <ele>261.59067</ele>
        <time>2023-04-11T12:28:44.000Z</time>
      </trkpt>
      <trkpt lat="45.85686" lon="4.67513">
        <ele>261.49298</ele>
        <time>2023-04-11T12:28:45.000Z</time>
      </trkpt>
      <trkpt lat="45.85683" lon="4.67516">
        <ele>261.40143</ele>
        <time>2023-04-11T12:28:46.000Z</time>
      </trkpt>
      <trkpt lat="45.85681" lon="4.67519">
        <ele>261.31232</ele>
        <time>2023-04-11T12:28:47.000Z</time>
      </trkpt>
      <trkpt lat="45.85678" lon="4.67523">
        <ele>261.32053</ele>
        <time>2023-04-11T12:28:48.000Z</time>
      </trkpt>
      <trkpt lat="45.85675" lon="4.67526">
        <ele>261.30048</ele>
        <time>2023-04-11T12:28:49.000Z</time>
      </trkpt>
      <trkpt lat="45.85672" lon="4.67529">
        <ele>261.26605</ele>
        <time>2023-04-11T12:28:50.000Z</time>
      </trkpt>
      <trkpt lat="45.85669" lon="4.67532">
        <ele>261.22443</ele>
        <time>2023-04-11T12:28:51.000Z</time>
      </trkpt>
      <trkpt lat="45.85667" lon="4.67534">
        <ele>261.19812</ele>
        <time>2023-04-11T12:28:52.000Z</time>
      </trkpt>
      <trkpt lat="45.85664" lon="4.67536">
        <ele>261.12372</ele>
        <time>2023-04-11T12:28:53.000Z</time>
      </trkpt>
      <trkpt lat="45.85662" lon="4.67539">
        <ele>261.04028</ele>
        <time>2023-04-11T12:28:54.000Z</time>
      </trkpt>
      <trkpt lat="45.8566" lon="4.67541">
        <ele>260.88901</ele>
        <time>2023-04-11T12:28:55.000Z</time>
      </trkpt>
      <trkpt lat="45.85657" lon="4.67543">
        <ele>260.73599</ele>
        <time>2023-04-11T12:28:56.000Z</time>
      </trkpt>
      <trkpt lat="45.85654" lon="4.67545">
        <ele>260.56531</ele>
        <time>2023-04-11T12:28:57.000Z</time>
      </trkpt>
      <trkpt lat="45.8565" lon="4.67548">
        <ele>260.64285</ele>
        <time>2023-04-11T12:28:58.000Z</time>
      </trkpt>
      <trkpt lat="45.85647" lon="4.67551">
        <ele>260.73419</ele>
        <time>2023-04-11T12:28:59.000Z</time>
      </trkpt>
      <trkpt lat="45.85644" lon="4.67554">
        <ele>260.78033</ele>
        <time>2023-04-11T12:29:00.000Z</time>
      </trkpt>
      <trkpt lat="45.85641" lon="4.67557">
        <ele>260.76593</ele>
        <time>2023-04-11T12:29:01.000Z</time>
      </trkpt>
      <trkpt lat="45.85638" lon="4.6756">
        <ele>260.71799</ele>
        <time>2023-04-11T12:29:02.000Z</time>
      </trkpt>
      <trkpt lat="45.85635" lon="4.67564">
        <ele>260.67734</ele>
        <time>2023-04-11T12:29:03.000Z</time>
      </trkpt>
      <trkpt lat="45.85631" lon="4.67568">
        <ele>260.63211</ele>
        <time>2023-04-11T12:29:04.000Z</time>
      </trkpt>
      <trkpt lat="45.85628" lon="4.67571">
        <ele>260.56857</ele>
        <time>2023-04-11T12:29:05.000Z</time>
      </trkpt>
      <trkpt lat="45.85622" lon="4.67573">
        <ele>260.48065</ele>
        <time>2023-04-11T12:29:06.000Z</time>
      </trkpt>
      <trkpt lat="45.85618" lon="4.67575">
        <ele>260.37558</ele>
        <time>2023-04-11T12:29:07.000Z</time>
      </trkpt>
      <trkpt lat="45.85614" lon="4.67578">
        <ele>260.38705</ele>
        <time>2023-04-11T12:29:08.000Z</time>
      </trkpt>
      <trkpt lat="45.8561" lon="4.67582">
        <ele>260.45169</ele>
        <time>2023-04-11T12:29:09.000Z</time>
      </trkpt>
      <trkpt lat="45.85607" lon="4.67587">
        <ele>260.29053</ele>
        <time>2023-04-11T12:29:10.000Z</time>
      </trkpt>
      <trkpt lat="45.85603" lon="4.67591">
        <ele>260.21548</ele>
        <time>2023-04-11T12:29:11.000Z</time>
      </trkpt>
      <trkpt lat="45.856" lon="4.67594">
        <ele>260.06</ele>
        <time>2023-04-11T12:29:12.000Z</time>
      </trkpt>
      <trkpt lat="45.85596" lon="4.67598">
        <ele>259.92175</ele>
        <time>2023-04-11T12:29:13.000Z</time>
      </trkpt>
      <trkpt lat="45.85592" lon="4.67604">
        <ele>259.7926</ele>
        <time>2023-04-11T12:29:14.000Z</time>
      </trkpt>
      <trkpt lat="45.85589" lon="4.67609">
        <ele>259.67957</ele>
        <time>2023-04-11T12:29:15.000Z</time>
      </trkpt>
      <trkpt lat="45.85585" lon="4.67612">
        <ele>259.52701</ele>
        <time>2023-04-11T12:29:16.000Z</time>
      </trkpt>
      <trkpt lat="45.85582" lon="4.67617">
        <ele>259.39682</ele>
        <time>2023-04-11T12:29:17.000Z</time>
      </trkpt>
      <trkpt lat="45.85579" lon="4.67621">
        <ele>259.26706</ele>
        <time>2023-04-11T12:29:18.000Z</time>
      </trkpt>
      <trkpt lat="45.85574" lon="4.67625">
        <ele>259.1561</ele>
        <time>2023-04-11T12:29:19.000Z</time>
      </trkpt>
      <trkpt lat="45.85571" lon="4.6763">
        <ele>259.08487</ele>
        <time>2023-04-11T12:29:20.000Z</time>
      </trkpt>
      <trkpt lat="45.85568" lon="4.67634">
        <ele>259.08331</ele>
        <time>2023-04-11T12:29:21.000Z</time>
      </trkpt>
      <trkpt lat="45.85565" lon="4.67639">
        <ele>259.11649</ele>
        <time>2023-04-11T12:29:22.000Z</time>
      </trkpt>
      <trkpt lat="45.8556" lon="4.67642">
        <ele>259.14215</ele>
        <time>2023-04-11T12:29:23.000Z</time>
      </trkpt>
      <trkpt lat="45.85557" lon="4.67647">
        <ele>259.1506</ele>
        <time>2023-04-11T12:29:24.000Z</time>
      </trkpt>
      <trkpt lat="45.85553" lon="4.67649">
        <ele>259.16412</ele>
        <time>2023-04-11T12:29:25.000Z</time>
      </trkpt>
      <trkpt lat="45.8555" lon="4.67654">
        <ele>259.1564</ele>
        <time>2023-04-11T12:29:26.000Z</time>
      </trkpt>
      <trkpt lat="45.85546" lon="4.67659">
        <ele>259.11444</ele>
        <time>2023-04-11T12:29:27.000Z</time>
      </trkpt>
      <trkpt lat="45.85541" lon="4.67663">
        <ele>258.92621</ele>
        <time>2023-04-11T12:29:28.000Z</time>
      </trkpt>
      <trkpt lat="45.85537" lon="4.67668">
        <ele>258.71487</ele>
        <time>2023-04-11T12:29:29.000Z</time>
      </trkpt>
      <trkpt lat="45.85533" lon="4.67674">
        <ele>258.74771</ele>
        <time>2023-04-11T12:29:30.000Z</time>
      </trkpt>
      <trkpt lat="45.8553" lon="4.67679">
        <ele>258.7182</ele>
        <time>2023-04-11T12:29:31.000Z</time>
      </trkpt>
      <trkpt lat="45.85527" lon="4.67683">
        <ele>258.73312</ele>
        <time>2023-04-11T12:29:32.000Z</time>
      </trkpt>
      <trkpt lat="45.85523" lon="4.67689">
        <ele>258.74908</ele>
        <time>2023-04-11T12:29:33.000Z</time>
      </trkpt>
      <trkpt lat="45.8552" lon="4.67694">
        <ele>258.76123</ele>
        <time>2023-04-11T12:29:34.000Z</time>
      </trkpt>
      <trkpt lat="45.85517" lon="4.677">
        <ele>258.78021</ele>
        <time>2023-04-11T12:29:35.000Z</time>
      </trkpt>
      <trkpt lat="45.85514" lon="4.67705">
        <ele>258.78766</ele>
        <time>2023-04-11T12:29:36.000Z</time>
      </trkpt>
      <trkpt lat="45.85511" lon="4.67711">
        <ele>258.79318</ele>
        <time>2023-04-11T12:29:37.000Z</time>
      </trkpt>
      <trkpt lat="45.85507" lon="4.67717">
        <ele>258.74167</ele>
        <time>2023-04-11T12:29:38.000Z</time>
      </trkpt>
      <trkpt lat="45.85505" lon="4.67723">
        <ele>258.71698</ele>
        <time>2023-04-11T12:29:39.000Z</time>
      </trkpt>
      <trkpt lat="45.85502" lon="4.67729">
        <ele>258.71948</ele>
        <time>2023-04-11T12:29:40.000Z</time>
      </trkpt>
      <trkpt lat="45.85499" lon="4.67734">
        <ele>258.68781</ele>
        <time>2023-04-11T12:29:41.000Z</time>
      </trkpt>
      <trkpt lat="45.85496" lon="4.67741">
        <ele>258.63577</ele>
        <time>2023-04-11T12:29:42.000Z</time>
      </trkpt>
      <trkpt lat="45.85495" lon="4.67746">
        <ele>258.53772</ele>
        <time>2023-04-11T12:29:43.000Z</time>
      </trkpt>
      <trkpt lat="45.85493" lon="4.67753">
        <ele>258.46268</ele>
        <time>2023-04-11T12:29:44.000Z</time>
      </trkpt>
      <trkpt lat="45.85491" lon="4.6776">
        <ele>258.48248</ele>
        <time>2023-04-11T12:29:45.000Z</time>
      </trkpt>
      <trkpt lat="45.85489" lon="4.67767">
        <ele>258.58371</ele>
        <time>2023-04-11T12:29:46.000Z</time>
      </trkpt>
      <trkpt lat="45.85487" lon="4.67773">
        <ele>258.52524</ele>
        <time>2023-04-11T12:29:47.000Z</time>
      </trkpt>
      <trkpt lat="45.85486" lon="4.6778">
        <ele>258.5416</ele>
        <time>2023-04-11T12:29:48.000Z</time>
      </trkpt>
      <trkpt lat="45.85487" lon="4.67789">
        <ele>258.52838</ele>
        <time>2023-04-11T12:29:49.000Z</time>
      </trkpt>
      <trkpt lat="45.85488" lon="4.67796">
        <ele>258.46417</ele>
        <time>2023-04-11T12:29:50.000Z</time>
      </trkpt>
      <trkpt lat="45.8549" lon="4.67803">
        <ele>258.40048</ele>
        <time>2023-04-11T12:29:51.000Z</time>
      </trkpt>
      <trkpt lat="45.85492" lon="4.6781">
        <ele>258.36606</ele>
        <time>2023-04-11T12:29:52.000Z</time>
      </trkpt>
      <trkpt lat="45.85494" lon="4.67817">
        <ele>258.3233</ele>
        <time>2023-04-11T12:29:53.000Z</time>
      </trkpt>
      <trkpt lat="45.85496" lon="4.67824">
        <ele>258.27554</ele>
        <time>2023-04-11T12:29:54.000Z</time>
      </trkpt>
      <trkpt lat="45.85497" lon="4.67831">
        <ele>258.23508</ele>
        <time>2023-04-11T12:29:55.000Z</time>
      </trkpt>
      <trkpt lat="45.85499" lon="4.67837">
        <ele>258.22372</ele>
        <time>2023-04-11T12:29:56.000Z</time>
      </trkpt>
      <trkpt lat="45.855" lon="4.67844">
        <ele>258.19058</ele>
        <time>2023-04-11T12:29:57.000Z</time>
      </trkpt>
      <trkpt lat="45.85501" lon="4.6785">
        <ele>258.18915</ele>
        <time>2023-04-11T12:29:58.000Z</time>
      </trkpt>
      <trkpt lat="45.85503" lon="4.67856">
        <ele>258.22125</ele>
        <time>2023-04-11T12:29:59.000Z</time>
      </trkpt>
      <trkpt lat="45.85504" lon="4.67862">
        <ele>258.17679</ele>
        <time>2023-04-11T12:30:00.000Z</time>
      </trkpt>
      <trkpt lat="45.85506" lon="4.67869">
        <ele>258.17706</ele>
        <time>2023-04-11T12:30:01.000Z</time>
      </trkpt>
      <trkpt lat="45.85508" lon="4.67875">
        <ele>258.22638</ele>
        <time>2023-04-11T12:30:02.000Z</time>
      </trkpt>
      <trkpt lat="45.85509" lon="4.67881">
        <ele>258.3132</ele>
        <time>2023-04-11T12:30:03.000Z</time>
      </trkpt>
      <trkpt lat="45.8551" lon="4.67886">
        <ele>258.4046</ele>
        <time>2023-04-11T12:30:04.000Z</time>
      </trkpt>
      <trkpt lat="45.85512" lon="4.67892">
        <ele>258.4086</ele>
        <time>2023-04-11T12:30:05.000Z</time>
      </trkpt>
      <trkpt lat="45.85513" lon="4.67896">
        <ele>258.37515</ele>
        <time>2023-04-11T12:30:06.000Z</time>
      </trkpt>
      <trkpt lat="45.85514" lon="4.67899">
        <ele>258.56354</ele>
        <time>2023-04-11T12:30:07.000Z</time>
      </trkpt>
      <trkpt lat="45.85515" lon="4.67903">
        <ele>258.72891</ele>
        <time>2023-04-11T12:30:08.000Z</time>
      </trkpt>
      <trkpt lat="45.85517" lon="4.67908">
        <ele>258.9201</ele>
        <time>2023-04-11T12:30:09.000Z</time>
      </trkpt>
      <trkpt lat="45.85518" lon="4.67912">
        <ele>259.19849</ele>
        <time>2023-04-11T12:30:10.000Z</time>
      </trkpt>
      <trkpt lat="45.8552" lon="4.67916">
        <ele>259.27237</ele>
        <time>2023-04-11T12:30:11.000Z</time>
      </trkpt>
      <trkpt lat="45.85521" lon="4.6792">
        <ele>259.39957</ele>
        <time>2023-04-11T12:30:12.000Z</time>
      </trkpt>
      <trkpt lat="45.85523" lon="4.67924">
        <ele>259.51883</ele>
        <time>2023-04-11T12:30:13.000Z</time>
      </trkpt>
      <trkpt lat="45.85524" lon="4.67928">
        <ele>259.60696</ele>
        <time>2023-04-11T12:30:14.000Z</time>
      </trkpt>
      <trkpt lat="45.85526" lon="4.67932">
        <ele>259.68137</ele>
        <time>2023-04-11T12:30:15.000Z</time>
      </trkpt>
      <trkpt lat="45.85527" lon="4.67936">
        <ele>259.7319</ele>
        <time>2023-04-11T12:30:16.000Z</time>
      </trkpt>
      <trkpt lat="45.85529" lon="4.6794">
        <ele>259.77695</ele>
        <time>2023-04-11T12:30:17.000Z</time>
      </trkpt>
      <trkpt lat="45.8553" lon="4.67944">
        <ele>259.79547</ele>
        <time>2023-04-11T12:30:18.000Z</time>
      </trkpt>
      <trkpt lat="45.85531" lon="4.67947">
        <ele>259.72369</ele>
        <time>2023-04-11T12:30:19.000Z</time>
      </trkpt>
      <trkpt lat="45.85532" lon="4.6795">
        <ele>259.70645</ele>
        <time>2023-04-11T12:30:20.000Z</time>
      </trkpt>
      <trkpt lat="45.85532" lon="4.67954">
        <ele>259.67358</ele>
        <time>2023-04-11T12:30:22.000Z</time>
      </trkpt>
      <trkpt lat="45.85532" lon="4.67957">
        <ele>259.60464</ele>
        <time>2023-04-11T12:30:24.000Z</time>
      </trkpt>
      <trkpt lat="45.85531" lon="4.67959">
        <ele>259.61945</ele>
        <time>2023-04-11T12:30:29.000Z</time>
      </trkpt>
      <trkpt lat="45.8553" lon="4.67963">
        <ele>259.60248</ele>
        <time>2023-04-11T12:30:32.000Z</time>
      </trkpt>
      <trkpt lat="45.85531" lon="4.67965">
        <ele>259.57236</ele>
        <time>2023-04-11T12:30:33.000Z</time>
      </trkpt>
      <trkpt lat="45.85533" lon="4.67968">
        <ele>259.50458</ele>
        <time>2023-04-11T12:30:34.000Z</time>
      </trkpt>
      <trkpt lat="45.85536" lon="4.67972">
        <ele>259.36615</ele>
        <time>2023-04-11T12:30:35.000Z</time>
      </trkpt>
      <trkpt lat="45.85538" lon="4.67977">
        <ele>259.16486</ele>
        <time>2023-04-11T12:30:36.000Z</time>
      </trkpt>
      <trkpt lat="45.85539" lon="4.67982">
        <ele>258.9473</ele>
        <time>2023-04-11T12:30:37.000Z</time>
      </trkpt>
      <trkpt lat="45.8554" lon="4.67988">
        <ele>258.673</ele>
        <time>2023-04-11T12:30:38.000Z</time>
      </trkpt>
      <trkpt lat="45.8554" lon="4.67994">
        <ele>258.61548</ele>
        <time>2023-04-11T12:30:39.000Z</time>
      </trkpt>
      <trkpt lat="45.85541" lon="4.68">
        <ele>258.51434</ele>
        <time>2023-04-11T12:30:40.000Z</time>
      </trkpt>
      <trkpt lat="45.85543" lon="4.68006">
        <ele>258.35132</ele>
        <time>2023-04-11T12:30:41.000Z</time>
      </trkpt>
      <trkpt lat="45.85544" lon="4.68011">
        <ele>258.17252</ele>
        <time>2023-04-11T12:30:42.000Z</time>
      </trkpt>
      <trkpt lat="45.85546" lon="4.68017">
        <ele>258.00797</ele>
        <time>2023-04-11T12:30:43.000Z</time>
      </trkpt>
      <trkpt lat="45.85548" lon="4.68022">
        <ele>257.85968</ele>
        <time>2023-04-11T12:30:44.000Z</time>
      </trkpt>
      <trkpt lat="45.8555" lon="4.68027">
        <ele>257.75012</ele>
        <time>2023-04-11T12:30:45.000Z</time>
      </trkpt>
      <trkpt lat="45.85553" lon="4.68033">
        <ele>257.7207</ele>
        <time>2023-04-11T12:30:46.000Z</time>
      </trkpt>
      <trkpt lat="45.85555" lon="4.68039">
        <ele>257.72736</ele>
        <time>2023-04-11T12:30:47.000Z</time>
      </trkpt>
      <trkpt lat="45.85557" lon="4.68044">
        <ele>257.69318</ele>
        <time>2023-04-11T12:30:48.000Z</time>
      </trkpt>
      <trkpt lat="45.85558" lon="4.68048">
        <ele>257.6236</ele>
        <time>2023-04-11T12:30:49.000Z</time>
      </trkpt>
      <trkpt lat="45.85559" lon="4.68053">
        <ele>257.50696</ele>
        <time>2023-04-11T12:30:50.000Z</time>
      </trkpt>
      <trkpt lat="45.85562" lon="4.6806">
        <ele>257.33041</ele>
        <time>2023-04-11T12:30:51.000Z</time>
      </trkpt>
      <trkpt lat="45.85563" lon="4.68066">
        <ele>257.2034</ele>
        <time>2023-04-11T12:30:52.000Z</time>
      </trkpt>
      <trkpt lat="45.85565" lon="4.68071">
        <ele>257.09863</ele>
        <time>2023-04-11T12:30:53.000Z</time>
      </trkpt>
      <trkpt lat="45.85567" lon="4.68076">
        <ele>257.0538</ele>
        <time>2023-04-11T12:30:54.000Z</time>
      </trkpt>
      <trkpt lat="45.85569" lon="4.68082">
        <ele>257.09256</ele>
        <time>2023-04-11T12:30:55.000Z</time>
      </trkpt>
      <trkpt lat="45.85571" lon="4.68089">
        <ele>257.16705</ele>
        <time>2023-04-11T12:30:56.000Z</time>
      </trkpt>
      <trkpt lat="45.85573" lon="4.68095">
        <ele>257.31168</ele>
        <time>2023-04-11T12:30:57.000Z</time>
      </trkpt>
      <trkpt lat="45.85576" lon="4.68101">
        <ele>257.47052</ele>
        <time>2023-04-11T12:30:58.000Z</time>
      </trkpt>
      <trkpt lat="45.85578" lon="4.68107">
        <ele>257.55673</ele>
        <time>2023-04-11T12:30:59.000Z</time>
      </trkpt>
      <trkpt lat="45.8558" lon="4.68113">
        <ele>257.61566</ele>
        <time>2023-04-11T12:31:00.000Z</time>
      </trkpt>
      <trkpt lat="45.85582" lon="4.68118">
        <ele>257.74051</ele>
        <time>2023-04-11T12:31:01.000Z</time>
      </trkpt>
      <trkpt lat="45.85584" lon="4.68123">
        <ele>257.85437</ele>
        <time>2023-04-11T12:31:02.000Z</time>
      </trkpt>
      <trkpt lat="45.85587" lon="4.68128">
        <ele>257.93622</ele>
        <time>2023-04-11T12:31:03.000Z</time>
      </trkpt>
      <trkpt lat="45.85592" lon="4.68132">
        <ele>258.05841</ele>
        <time>2023-04-11T12:31:04.000Z</time>
      </trkpt>
      <trkpt lat="45.85594" lon="4.68137">
        <ele>258.18927</ele>
        <time>2023-04-11T12:31:05.000Z</time>
      </trkpt>
      <trkpt lat="45.85596" lon="4.68141">
        <ele>258.24374</ele>
        <time>2023-04-11T12:31:06.000Z</time>
      </trkpt>
      <trkpt lat="45.856" lon="4.68146">
        <ele>258.33514</ele>
        <time>2023-04-11T12:31:07.000Z</time>
      </trkpt>
      <trkpt lat="45.85602" lon="4.68151">
        <ele>258.49094</ele>
        <time>2023-04-11T12:31:08.000Z</time>
      </trkpt>
      <trkpt lat="45.85606" lon="4.68155">
        <ele>258.67929</ele>
        <time>2023-04-11T12:31:09.000Z</time>
      </trkpt>
      <trkpt lat="45.85607" lon="4.6816">
        <ele>258.81024</ele>
        <time>2023-04-11T12:31:10.000Z</time>
      </trkpt>
      <trkpt lat="45.85609" lon="4.68163">
        <ele>258.86945</ele>
        <time>2023-04-11T12:31:11.000Z</time>
      </trkpt>
      <trkpt lat="45.85613" lon="4.68165">
        <ele>258.92612</ele>
        <time>2023-04-11T12:31:12.000Z</time>
      </trkpt>
      <trkpt lat="45.85616" lon="4.68166">
        <ele>259.00903</ele>
        <time>2023-04-11T12:31:13.000Z</time>
      </trkpt>
      <trkpt lat="45.85618" lon="4.68169">
        <ele>259.03448</ele>
        <time>2023-04-11T12:31:14.000Z</time>
      </trkpt>
      <trkpt lat="45.85621" lon="4.68172">
        <ele>259.04498</ele>
        <time>2023-04-11T12:31:15.000Z</time>
      </trkpt>
      <trkpt lat="45.85622" lon="4.68174">
        <ele>259.07147</ele>
        <time>2023-04-11T12:31:16.000Z</time>
      </trkpt>
      <trkpt lat="45.85624" lon="4.68175">
        <ele>259.01395</ele>
        <time>2023-04-11T12:31:17.000Z</time>
      </trkpt>
      <trkpt lat="45.85627" lon="4.68174">
        <ele>258.93073</ele>
        <time>2023-04-11T12:31:18.000Z</time>
      </trkpt>
      <trkpt lat="45.85629" lon="4.6817">
        <ele>258.9462</ele>
        <time>2023-04-11T12:31:19.000Z</time>
      </trkpt>
      <trkpt lat="45.85631" lon="4.68167">
        <ele>258.94724</ele>
        <time>2023-04-11T12:31:20.000Z</time>
      </trkpt>
      <trkpt lat="45.85633" lon="4.68162">
        <ele>258.93527</ele>
        <time>2023-04-11T12:31:21.000Z</time>
      </trkpt>
      <trkpt lat="45.85635" lon="4.68159">
        <ele>258.97665</ele>
        <time>2023-04-11T12:31:22.000Z</time>
      </trkpt>
      <trkpt lat="45.85637" lon="4.68156">
        <ele>259.03302</ele>
        <time>2023-04-11T12:31:23.000Z</time>
      </trkpt>
      <trkpt lat="45.85638" lon="4.68154">
        <ele>259.00781</ele>
        <time>2023-04-11T12:31:24.000Z</time>
      </trkpt>
      <trkpt lat="45.85639" lon="4.68152">
        <ele>258.96649</ele>
        <time>2023-04-11T12:31:25.000Z</time>
      </trkpt>
      <trkpt lat="45.85641" lon="4.6815">
        <ele>258.91672</ele>
        <time>2023-04-11T12:31:26.000Z</time>
      </trkpt>
      <trkpt lat="45.85643" lon="4.68149">
        <ele>258.83282</ele>
        <time>2023-04-11T12:31:27.000Z</time>
      </trkpt>
      <trkpt lat="45.85644" lon="4.68147">
        <ele>258.72302</ele>
        <time>2023-04-11T12:31:28.000Z</time>
      </trkpt>
      <trkpt lat="45.85646" lon="4.68144">
        <ele>258.64047</ele>
        <time>2023-04-11T12:31:29.000Z</time>
      </trkpt>
      <trkpt lat="45.85648" lon="4.68141">
        <ele>258.63745</ele>
        <time>2023-04-11T12:31:31.000Z</time>
      </trkpt>
      <trkpt lat="45.8565" lon="4.68139">
        <ele>258.62897</ele>
        <time>2023-04-11T12:31:33.000Z</time>
      </trkpt>
      <trkpt lat="45.85649" lon="4.68135">
        <ele>258.59769</ele>
        <time>2023-04-11T12:31:35.000Z</time>
      </trkpt>
      <trkpt lat="45.85648" lon="4.68132">
        <ele>258.53601</ele>
        <time>2023-04-11T12:31:36.000Z</time>
      </trkpt>
      <trkpt lat="45.85646" lon="4.6813">
        <ele>258.51382</ele>
        <time>2023-04-11T12:31:37.000Z</time>
      </trkpt>
      <trkpt lat="45.85645" lon="4.68127">
        <ele>258.49188</ele>
        <time>2023-04-11T12:31:38.000Z</time>
      </trkpt>
      <trkpt lat="45.85645" lon="4.68125">
        <ele>258.43396</ele>
        <time>2023-04-11T12:31:39.000Z</time>
      </trkpt>
      <trkpt lat="45.85648" lon="4.68122">
        <ele>258.37512</ele>
        <time>2023-04-11T12:31:40.000Z</time>
      </trkpt>
      <trkpt lat="45.85651" lon="4.68121">
        <ele>258.44992</ele>
        <time>2023-04-11T12:31:41.000Z</time>
      </trkpt>
      <trkpt lat="45.85654" lon="4.68122">
        <ele>258.53146</ele>
        <time>2023-04-11T12:31:42.000Z</time>
      </trkpt>
      <trkpt lat="45.85656" lon="4.68123">
        <ele>258.43079</ele>
        <time>2023-04-11T12:31:43.000Z</time>
      </trkpt>
      <trkpt lat="45.85657" lon="4.68126">
        <ele>258.38092</ele>
        <time>2023-04-11T12:31:44.000Z</time>
      </trkpt>
      <trkpt lat="45.85658" lon="4.68129">
        <ele>258.24493</ele>
        <time>2023-04-11T12:31:45.000Z</time>
      </trkpt>
      <trkpt lat="45.85658" lon="4.68132">
        <ele>258.13443</ele>
        <time>2023-04-11T12:31:46.000Z</time>
      </trkpt>
      <trkpt lat="45.85657" lon="4.68135">
        <ele>258.02936</ele>
        <time>2023-04-11T12:31:47.000Z</time>
      </trkpt>
      <trkpt lat="45.85657" lon="4.68138">
        <ele>257.91107</ele>
        <time>2023-04-11T12:31:48.000Z</time>
      </trkpt>
      <trkpt lat="45.85656" lon="4.68141">
        <ele>257.81796</ele>
        <time>2023-04-11T12:31:49.000Z</time>
      </trkpt>
      <trkpt lat="45.85656" lon="4.68145">
        <ele>257.70398</ele>
        <time>2023-04-11T12:31:50.000Z</time>
      </trkpt>
      <trkpt lat="45.85657" lon="4.68149">
        <ele>257.58954</ele>
        <time>2023-04-11T12:31:51.000Z</time>
      </trkpt>
      <trkpt lat="45.85658" lon="4.68152">
        <ele>257.48376</ele>
        <time>2023-04-11T12:31:52.000Z</time>
      </trkpt>
      <trkpt lat="45.8566" lon="4.68155">
        <ele>257.38312</ele>
        <time>2023-04-11T12:31:53.000Z</time>
      </trkpt>
      <trkpt lat="45.85662" lon="4.68157">
        <ele>257.34161</ele>
        <time>2023-04-11T12:31:54.000Z</time>
      </trkpt>
      <trkpt lat="45.85664" lon="4.68159">
        <ele>257.30502</ele>
        <time>2023-04-11T12:31:55.000Z</time>
      </trkpt>
      <trkpt lat="45.85666" lon="4.68161">
        <ele>257.26508</ele>
        <time>2023-04-11T12:31:56.000Z</time>
      </trkpt>
      <trkpt lat="45.85667" lon="4.68164">
        <ele>257.22372</ele>
        <time>2023-04-11T12:31:57.000Z</time>
      </trkpt>
      <trkpt lat="45.85669" lon="4.68166">
        <ele>257.17139</ele>
        <time>2023-04-11T12:31:58.000Z</time>
      </trkpt>
      <trkpt lat="45.85672" lon="4.68169">
        <ele>257.1156</ele>
        <time>2023-04-11T12:31:59.000Z</time>
      </trkpt>
      <trkpt lat="45.85674" lon="4.68172">
        <ele>257.09848</ele>
        <time>2023-04-11T12:32:00.000Z</time>
      </trkpt>
      <trkpt lat="45.85677" lon="4.68176">
        <ele>256.9415</ele>
        <time>2023-04-11T12:32:01.000Z</time>
      </trkpt>
      <trkpt lat="45.85679" lon="4.6818">
        <ele>256.70148</ele>
        <time>2023-04-11T12:32:02.000Z</time>
      </trkpt>
      <trkpt lat="45.85682" lon="4.68184">
        <ele>256.66449</ele>
        <time>2023-04-11T12:32:03.000Z</time>
      </trkpt>
      <trkpt lat="45.85685" lon="4.68189">
        <ele>256.60919</ele>
        <time>2023-04-11T12:32:04.000Z</time>
      </trkpt>
      <trkpt lat="45.85688" lon="4.68193">
        <ele>256.60828</ele>
        <time>2023-04-11T12:32:05.000Z</time>
      </trkpt>
      <trkpt lat="45.85691" lon="4.68198">
        <ele>256.58054</ele>
        <time>2023-04-11T12:32:06.000Z</time>
      </trkpt>
      <trkpt lat="45.85694" lon="4.68204">
        <ele>256.55176</ele>
        <time>2023-04-11T12:32:07.000Z</time>
      </trkpt>
      <trkpt lat="45.85697" lon="4.68208">
        <ele>256.50897</ele>
        <time>2023-04-11T12:32:08.000Z</time>
      </trkpt>
      <trkpt lat="45.85698" lon="4.68211">
        <ele>256.47491</ele>
        <time>2023-04-11T12:32:09.000Z</time>
      </trkpt>
      <trkpt lat="45.85701" lon="4.68216">
        <ele>256.46579</ele>
        <time>2023-04-11T12:32:10.000Z</time>
      </trkpt>
      <trkpt lat="45.85705" lon="4.6822">
        <ele>256.41992</ele>
        <time>2023-04-11T12:32:11.000Z</time>
      </trkpt>
      <trkpt lat="45.85708" lon="4.68225">
        <ele>256.38293</ele>
        <time>2023-04-11T12:32:12.000Z</time>
      </trkpt>
      <trkpt lat="45.85711" lon="4.6823">
        <ele>256.32776</ele>
        <time>2023-04-11T12:32:13.000Z</time>
      </trkpt>
      <trkpt lat="45.85713" lon="4.68234">
        <ele>256.25977</ele>
        <time>2023-04-11T12:32:14.000Z</time>
      </trkpt>
      <trkpt lat="45.85717" lon="4.68238">
        <ele>256.36276</ele>
        <time>2023-04-11T12:32:15.000Z</time>
      </trkpt>
      <trkpt lat="45.8572" lon="4.68243">
        <ele>256.46161</ele>
        <time>2023-04-11T12:32:16.000Z</time>
      </trkpt>
      <trkpt lat="45.85724" lon="4.68248">
        <ele>256.5661</ele>
        <time>2023-04-11T12:32:17.000Z</time>
      </trkpt>
      <trkpt lat="45.85728" lon="4.68252">
        <ele>256.67447</ele>
        <time>2023-04-11T12:32:18.000Z</time>
      </trkpt>
      <trkpt lat="45.85731" lon="4.68255">
        <ele>256.52408</ele>
        <time>2023-04-11T12:32:19.000Z</time>
      </trkpt>
      <trkpt lat="45.85735" lon="4.6826">
        <ele>256.41635</ele>
        <time>2023-04-11T12:32:20.000Z</time>
      </trkpt>
      <trkpt lat="45.85738" lon="4.68265">
        <ele>256.31461</ele>
        <time>2023-04-11T12:32:21.000Z</time>
      </trkpt>
      <trkpt lat="45.85743" lon="4.68268">
        <ele>256.29898</ele>
        <time>2023-04-11T12:32:22.000Z</time>
      </trkpt>
      <trkpt lat="45.85747" lon="4.68273">
        <ele>256.25705</ele>
        <time>2023-04-11T12:32:23.000Z</time>
      </trkpt>
      <trkpt lat="45.85752" lon="4.68278">
        <ele>256.17191</ele>
        <time>2023-04-11T12:32:24.000Z</time>
      </trkpt>
      <trkpt lat="45.85755" lon="4.68283">
        <ele>256.07477</ele>
        <time>2023-04-11T12:32:25.000Z</time>
      </trkpt>
      <trkpt lat="45.8576" lon="4.68287">
        <ele>255.99516</ele>
        <time>2023-04-11T12:32:26.000Z</time>
      </trkpt>
      <trkpt lat="45.85764" lon="4.6829">
        <ele>255.95699</ele>
        <time>2023-04-11T12:32:27.000Z</time>
      </trkpt>
      <trkpt lat="45.85767" lon="4.68294">
        <ele>255.90369</ele>
        <time>2023-04-11T12:32:28.000Z</time>
      </trkpt>
      <trkpt lat="45.85771" lon="4.68299">
        <ele>255.82993</ele>
        <time>2023-04-11T12:32:29.000Z</time>
      </trkpt>
      <trkpt lat="45.85773" lon="4.68303">
        <ele>255.75098</ele>
        <time>2023-04-11T12:32:30.000Z</time>
      </trkpt>
      <trkpt lat="45.85777" lon="4.68309">
        <ele>255.66251</ele>
        <time>2023-04-11T12:32:31.000Z</time>
      </trkpt>
      <trkpt lat="45.8578" lon="4.68314">
        <ele>255.53159</ele>
        <time>2023-04-11T12:32:32.000Z</time>
      </trkpt>
      <trkpt lat="45.85785" lon="4.68317">
        <ele>255.44043</ele>
        <time>2023-04-11T12:32:33.000Z</time>
      </trkpt>
      <trkpt lat="45.85789" lon="4.6832">
        <ele>255.396</ele>
        <time>2023-04-11T12:32:34.000Z</time>
      </trkpt>
      <trkpt lat="45.85793" lon="4.68323">
        <ele>255.16251</ele>
        <time>2023-04-11T12:32:35.000Z</time>
      </trkpt>
      <trkpt lat="45.85797" lon="4.68326">
        <ele>254.96358</ele>
        <time>2023-04-11T12:32:36.000Z</time>
      </trkpt>
      <trkpt lat="45.85801" lon="4.68328">
        <ele>254.73828</ele>
        <time>2023-04-11T12:32:37.000Z</time>
      </trkpt>
      <trkpt lat="45.85806" lon="4.68329">
        <ele>254.4996</ele>
        <time>2023-04-11T12:32:38.000Z</time>
      </trkpt>
      <trkpt lat="45.8581" lon="4.68333">
        <ele>254.5831</ele>
        <time>2023-04-11T12:32:39.000Z</time>
      </trkpt>
      <trkpt lat="45.85814" lon="4.68338">
        <ele>254.63559</ele>
        <time>2023-04-11T12:32:40.000Z</time>
      </trkpt>
      <trkpt lat="45.85818" lon="4.68343">
        <ele>254.6149</ele>
        <time>2023-04-11T12:32:41.000Z</time>
      </trkpt>
      <trkpt lat="45.85822" lon="4.68348">
        <ele>254.53894</ele>
        <time>2023-04-11T12:32:42.000Z</time>
      </trkpt>
      <trkpt lat="45.85824" lon="4.68353">
        <ele>254.68306</ele>
        <time>2023-04-11T12:32:43.000Z</time>
      </trkpt>
      <trkpt lat="45.85827" lon="4.68358">
        <ele>254.88834</ele>
        <time>2023-04-11T12:32:44.000Z</time>
      </trkpt>
      <trkpt lat="45.8583" lon="4.68363">
        <ele>255.1012</ele>
        <time>2023-04-11T12:32:45.000Z</time>
      </trkpt>
      <trkpt lat="45.85834" lon="4.68369">
        <ele>255.02739</ele>
        <time>2023-04-11T12:32:46.000Z</time>
      </trkpt>
      <trkpt lat="45.85838" lon="4.68373">
        <ele>254.99146</ele>
        <time>2023-04-11T12:32:47.000Z</time>
      </trkpt>
      <trkpt lat="45.85839" lon="4.68377">
        <ele>255.00549</ele>
        <time>2023-04-11T12:32:48.000Z</time>
      </trkpt>
      <trkpt lat="45.85844" lon="4.6838">
        <ele>255.03775</ele>
        <time>2023-04-11T12:32:49.000Z</time>
      </trkpt>
      <trkpt lat="45.85846" lon="4.68384">
        <ele>255.0795</ele>
        <time>2023-04-11T12:32:50.000Z</time>
      </trkpt>
      <trkpt lat="45.85848" lon="4.68389">
        <ele>255.18925</ele>
        <time>2023-04-11T12:32:51.000Z</time>
      </trkpt>
      <trkpt lat="45.8585" lon="4.68393">
        <ele>255.51208</ele>
        <time>2023-04-11T12:32:52.000Z</time>
      </trkpt>
      <trkpt lat="45.85852" lon="4.68398">
        <ele>255.8219</ele>
        <time>2023-04-11T12:32:53.000Z</time>
      </trkpt>
      <trkpt lat="45.85854" lon="4.68403">
        <ele>256.22656</ele>
        <time>2023-04-11T12:32:54.000Z</time>
      </trkpt>
      <trkpt lat="45.85856" lon="4.68407">
        <ele>256.33408</ele>
        <time>2023-04-11T12:32:55.000Z</time>
      </trkpt>
      <trkpt lat="45.85858" lon="4.68412">
        <ele>256.52362</ele>
        <time>2023-04-11T12:32:56.000Z</time>
      </trkpt>
      <trkpt lat="45.85859" lon="4.68417">
        <ele>256.71802</ele>
        <time>2023-04-11T12:32:57.000Z</time>
      </trkpt>
      <trkpt lat="45.8586" lon="4.68421">
        <ele>256.91995</ele>
        <time>2023-04-11T12:32:58.000Z</time>
      </trkpt>
      <trkpt lat="45.85861" lon="4.68426">
        <ele>256.99139</ele>
        <time>2023-04-11T12:32:59.000Z</time>
      </trkpt>
      <trkpt lat="45.85862" lon="4.68431">
        <ele>257.08575</ele>
        <time>2023-04-11T12:33:00.000Z</time>
      </trkpt>
      <trkpt lat="45.85862" lon="4.68436">
        <ele>257.28387</ele>
        <time>2023-04-11T12:33:01.000Z</time>
      </trkpt>
      <trkpt lat="45.85863" lon="4.68442">
        <ele>257.38593</ele>
        <time>2023-04-11T12:33:02.000Z</time>
      </trkpt>
      <trkpt lat="45.85863" lon="4.68448">
        <ele>257.31363</ele>
        <time>2023-04-11T12:33:03.000Z</time>
      </trkpt>
      <trkpt lat="45.85865" lon="4.68454">
        <ele>257.23303</ele>
        <time>2023-04-11T12:33:04.000Z</time>
      </trkpt>
      <trkpt lat="45.85866" lon="4.6846">
        <ele>257.14737</ele>
        <time>2023-04-11T12:33:05.000Z</time>
      </trkpt>
      <trkpt lat="45.85868" lon="4.68465">
        <ele>257.31183</ele>
        <time>2023-04-11T12:33:06.000Z</time>
      </trkpt>
      <trkpt lat="45.85869" lon="4.68472">
        <ele>257.43011</ele>
        <time>2023-04-11T12:33:07.000Z</time>
      </trkpt>
      <trkpt lat="45.85869" lon="4.68479">
        <ele>257.52701</ele>
        <time>2023-04-11T12:33:08.000Z</time>
      </trkpt>
      <trkpt lat="45.85871" lon="4.68485">
        <ele>257.64337</ele>
        <time>2023-04-11T12:33:09.000Z</time>
      </trkpt>
      <trkpt lat="45.85871" lon="4.6849">
        <ele>257.70306</ele>
        <time>2023-04-11T12:33:10.000Z</time>
      </trkpt>
      <trkpt lat="45.85871" lon="4.68496">
        <ele>257.71713</ele>
        <time>2023-04-11T12:33:11.000Z</time>
      </trkpt>
      <trkpt lat="45.85872" lon="4.68503">
        <ele>257.53888</ele>
        <time>2023-04-11T12:33:12.000Z</time>
      </trkpt>
      <trkpt lat="45.85873" lon="4.68509">
        <ele>257.49506</ele>
        <time>2023-04-11T12:33:13.000Z</time>
      </trkpt>
      <trkpt lat="45.85873" lon="4.68515">
        <ele>257.31766</ele>
        <time>2023-04-11T12:33:14.000Z</time>
      </trkpt>
      <trkpt lat="45.85874" lon="4.68522">
        <ele>257.45673</ele>
        <time>2023-04-11T12:33:15.000Z</time>
      </trkpt>
      <trkpt lat="45.85875" lon="4.68529">
        <ele>257.48065</ele>
        <time>2023-04-11T12:33:16.000Z</time>
      </trkpt>
      <trkpt lat="45.85876" lon="4.68536">
        <ele>257.4975</ele>
        <time>2023-04-11T12:33:17.000Z</time>
      </trkpt>
      <trkpt lat="45.85876" lon="4.68542">
        <ele>257.50272</ele>
        <time>2023-04-11T12:33:18.000Z</time>
      </trkpt>
      <trkpt lat="45.85878" lon="4.68548">
        <ele>257.55731</ele>
        <time>2023-04-11T12:33:19.000Z</time>
      </trkpt>
      <trkpt lat="45.85879" lon="4.68555">
        <ele>257.55243</ele>
        <time>2023-04-11T12:33:20.000Z</time>
      </trkpt>
      <trkpt lat="45.8588" lon="4.68561">
        <ele>257.60968</ele>
        <time>2023-04-11T12:33:21.000Z</time>
      </trkpt>
      <trkpt lat="45.8588" lon="4.68566">
        <ele>257.49054</ele>
        <time>2023-04-11T12:33:22.000Z</time>
      </trkpt>
      <trkpt lat="45.85882" lon="4.68571">
        <ele>257.39923</ele>
        <time>2023-04-11T12:33:23.000Z</time>
      </trkpt>
      <trkpt lat="45.85883" lon="4.68576">
        <ele>257.25955</ele>
        <time>2023-04-11T12:33:24.000Z</time>
      </trkpt>
      <trkpt lat="45.85884" lon="4.68581">
        <ele>257.14581</ele>
        <time>2023-04-11T12:33:25.000Z</time>
      </trkpt>
      <trkpt lat="45.85885" lon="4.68585">
        <ele>257.07782</ele>
        <time>2023-04-11T12:33:26.000Z</time>
      </trkpt>
      <trkpt lat="45.85886" lon="4.6859">
        <ele>257.02338</ele>
        <time>2023-04-11T12:33:27.000Z</time>
      </trkpt>
      <trkpt lat="45.85886" lon="4.68594">
        <ele>256.95041</ele>
        <time>2023-04-11T12:33:28.000Z</time>
      </trkpt>
      <trkpt lat="45.85887" lon="4.68598">
        <ele>256.88345</ele>
        <time>2023-04-11T12:33:29.000Z</time>
      </trkpt>
      <trkpt lat="45.85887" lon="4.68603">
        <ele>256.87396</ele>
        <time>2023-04-11T12:33:30.000Z</time>
      </trkpt>
      <trkpt lat="45.85888" lon="4.68608">
        <ele>256.83139</ele>
        <time>2023-04-11T12:33:31.000Z</time>
      </trkpt>
      <trkpt lat="45.85888" lon="4.68613">
        <ele>256.77924</ele>
        <time>2023-04-11T12:33:32.000Z</time>
      </trkpt>
      <trkpt lat="45.85889" lon="4.68618">
        <ele>256.59048</ele>
        <time>2023-04-11T12:33:33.000Z</time>
      </trkpt>
      <trkpt lat="45.85889" lon="4.68623">
        <ele>256.4223</ele>
        <time>2023-04-11T12:33:34.000Z</time>
      </trkpt>
      <trkpt lat="45.85889" lon="4.68627">
        <ele>256.24554</ele>
        <time>2023-04-11T12:33:35.000Z</time>
      </trkpt>
      <trkpt lat="45.8589" lon="4.68632">
        <ele>256.07971</ele>
        <time>2023-04-11T12:33:36.000Z</time>
      </trkpt>
      <trkpt lat="45.8589" lon="4.68638">
        <ele>255.92007</ele>
        <time>2023-04-11T12:33:37.000Z</time>
      </trkpt>
      <trkpt lat="45.8589" lon="4.68643">
        <ele>255.76358</ele>
        <time>2023-04-11T12:33:38.000Z</time>
      </trkpt>
      <trkpt lat="45.8589" lon="4.68648">
        <ele>255.63509</ele>
        <time>2023-04-11T12:33:39.000Z</time>
      </trkpt>
      <trkpt lat="45.8589" lon="4.68653">
        <ele>255.51921</ele>
        <time>2023-04-11T12:33:40.000Z</time>
      </trkpt>
      <trkpt lat="45.8589" lon="4.68658">
        <ele>255.30594</ele>
        <time>2023-04-11T12:33:41.000Z</time>
      </trkpt>
      <trkpt lat="45.8589" lon="4.68663">
        <ele>255.38464</ele>
        <time>2023-04-11T12:33:42.000Z</time>
      </trkpt>
      <trkpt lat="45.8589" lon="4.68668">
        <ele>255.41971</ele>
        <time>2023-04-11T12:33:43.000Z</time>
      </trkpt>
      <trkpt lat="45.8589" lon="4.68674">
        <ele>255.45699</ele>
        <time>2023-04-11T12:33:44.000Z</time>
      </trkpt>
      <trkpt lat="45.8589" lon="4.68679">
        <ele>255.47884</ele>
        <time>2023-04-11T12:33:45.000Z</time>
      </trkpt>
      <trkpt lat="45.85889" lon="4.68685">
        <ele>255.47417</ele>
        <time>2023-04-11T12:33:46.000Z</time>
      </trkpt>
      <trkpt lat="45.85889" lon="4.6869">
        <ele>255.44441</ele>
        <time>2023-04-11T12:33:47.000Z</time>
      </trkpt>
      <trkpt lat="45.85889" lon="4.68695">
        <ele>255.42558</ele>
        <time>2023-04-11T12:33:48.000Z</time>
      </trkpt>
      <trkpt lat="45.85888" lon="4.68701">
        <ele>255.36148</ele>
        <time>2023-04-11T12:33:49.000Z</time>
      </trkpt>
      <trkpt lat="45.85887" lon="4.68705">
        <ele>255.3739</ele>
        <time>2023-04-11T12:33:50.000Z</time>
      </trkpt>
      <trkpt lat="45.85886" lon="4.68709">
        <ele>255.39053</ele>
        <time>2023-04-11T12:33:51.000Z</time>
      </trkpt>
      <trkpt lat="45.85885" lon="4.68713">
        <ele>255.39104</ele>
        <time>2023-04-11T12:33:52.000Z</time>
      </trkpt>
      <trkpt lat="45.85885" lon="4.68717">
        <ele>255.38818</ele>
        <time>2023-04-11T12:33:53.000Z</time>
      </trkpt>
      <trkpt lat="45.85885" lon="4.6872">
        <ele>255.36874</ele>
        <time>2023-04-11T12:33:54.000Z</time>
      </trkpt>
      <trkpt lat="45.85885" lon="4.68723">
        <ele>255.35461</ele>
        <time>2023-04-11T12:33:55.000Z</time>
      </trkpt>
      <trkpt lat="45.85884" lon="4.68726">
        <ele>255.35933</ele>
        <time>2023-04-11T12:33:56.000Z</time>
      </trkpt>
      <trkpt lat="45.85884" lon="4.68729">
        <ele>255.35733</ele>
        <time>2023-04-11T12:33:57.000Z</time>
      </trkpt>
      <trkpt lat="45.85883" lon="4.68732">
        <ele>255.3481</ele>
        <time>2023-04-11T12:33:58.000Z</time>
      </trkpt>
      <trkpt lat="45.85883" lon="4.68736">
        <ele>255.33174</ele>
        <time>2023-04-11T12:33:59.000Z</time>
      </trkpt>
      <trkpt lat="45.85882" lon="4.68739">
        <ele>255.30008</ele>
        <time>2023-04-11T12:34:00.000Z</time>
      </trkpt>
      <trkpt lat="45.85881" lon="4.68743">
        <ele>255.30859</ele>
        <time>2023-04-11T12:34:01.000Z</time>
      </trkpt>
      <trkpt lat="45.85881" lon="4.68747">
        <ele>255.2832</ele>
        <time>2023-04-11T12:34:02.000Z</time>
      </trkpt>
      <trkpt lat="45.8588" lon="4.68751">
        <ele>255.25481</ele>
        <time>2023-04-11T12:34:03.000Z</time>
      </trkpt>
      <trkpt lat="45.85879" lon="4.68755">
        <ele>255.26797</ele>
        <time>2023-04-11T12:34:04.000Z</time>
      </trkpt>
      <trkpt lat="45.85878" lon="4.68759">
        <ele>255.28427</ele>
        <time>2023-04-11T12:34:05.000Z</time>
      </trkpt>
      <trkpt lat="45.85877" lon="4.68764">
        <ele>255.31795</ele>
        <time>2023-04-11T12:34:06.000Z</time>
      </trkpt>
      <trkpt lat="45.85877" lon="4.68768">
        <ele>255.41208</ele>
        <time>2023-04-11T12:34:07.000Z</time>
      </trkpt>
      <trkpt lat="45.85879" lon="4.68768">
        <ele>255.50533</ele>
        <time>2023-04-11T12:34:53.000Z</time>
      </trkpt>
      <trkpt lat="45.85878" lon="4.68772">
        <ele>255.64133</ele>
        <time>2023-04-11T12:35:03.000Z</time>
      </trkpt>
      <trkpt lat="45.85877" lon="4.68777">
        <ele>255.66589</ele>
        <time>2023-04-11T12:35:05.000Z</time>
      </trkpt>
      <trkpt lat="45.85877" lon="4.68781">
        <ele>255.71927</ele>
        <time>2023-04-11T12:35:06.000Z</time>
      </trkpt>
      <trkpt lat="45.85876" lon="4.68785">
        <ele>255.80307</ele>
        <time>2023-04-11T12:35:07.000Z</time>
      </trkpt>
      <trkpt lat="45.85876" lon="4.68789">
        <ele>256.01846</ele>
        <time>2023-04-11T12:35:08.000Z</time>
      </trkpt>
      <trkpt lat="45.85875" lon="4.68793">
        <ele>256.25696</ele>
        <time>2023-04-11T12:35:09.000Z</time>
      </trkpt>
      <trkpt lat="45.85874" lon="4.68798">
        <ele>256.55707</ele>
        <time>2023-04-11T12:35:10.000Z</time>
      </trkpt>
      <trkpt lat="45.85873" lon="4.68803">
        <ele>256.86395</ele>
        <time>2023-04-11T12:35:11.000Z</time>
      </trkpt>
      <trkpt lat="45.85872" lon="4.68808">
        <ele>257.14267</ele>
        <time>2023-04-11T12:35:12.000Z</time>
      </trkpt>
      <trkpt lat="45.85872" lon="4.68814">
        <ele>257.17209</ele>
        <time>2023-04-11T12:35:13.000Z</time>
      </trkpt>
      <trkpt lat="45.85871" lon="4.68819">
        <ele>257.2644</ele>
        <time>2023-04-11T12:35:14.000Z</time>
      </trkpt>
      <trkpt lat="45.85871" lon="4.68824">
        <ele>257.3732</ele>
        <time>2023-04-11T12:35:15.000Z</time>
      </trkpt>
      <trkpt lat="45.8587" lon="4.6883">
        <ele>257.42526</ele>
        <time>2023-04-11T12:35:16.000Z</time>
      </trkpt>
      <trkpt lat="45.8587" lon="4.68836">
        <ele>257.48627</ele>
        <time>2023-04-11T12:35:17.000Z</time>
      </trkpt>
      <trkpt lat="45.85869" lon="4.68842">
        <ele>257.61691</ele>
        <time>2023-04-11T12:35:18.000Z</time>
      </trkpt>
      <trkpt lat="45.85868" lon="4.68848">
        <ele>257.7616</ele>
        <time>2023-04-11T12:35:19.000Z</time>
      </trkpt>
      <trkpt lat="45.85868" lon="4.68854">
        <ele>257.96539</ele>
        <time>2023-04-11T12:35:20.000Z</time>
      </trkpt>
      <trkpt lat="45.85867" lon="4.68859">
        <ele>257.88556</ele>
        <time>2023-04-11T12:35:21.000Z</time>
      </trkpt>
      <trkpt lat="45.85867" lon="4.68866">
        <ele>257.80191</ele>
        <time>2023-04-11T12:35:22.000Z</time>
      </trkpt>
      <trkpt lat="45.85865" lon="4.68872">
        <ele>257.72153</ele>
        <time>2023-04-11T12:35:23.000Z</time>
      </trkpt>
      <trkpt lat="45.85865" lon="4.68878">
        <ele>257.6376</ele>
        <time>2023-04-11T12:35:24.000Z</time>
      </trkpt>
      <trkpt lat="45.85865" lon="4.68885">
        <ele>257.57617</ele>
        <time>2023-04-11T12:35:25.000Z</time>
      </trkpt>
      <trkpt lat="45.85864" lon="4.68891">
        <ele>257.62579</ele>
        <time>2023-04-11T12:35:26.000Z</time>
      </trkpt>
      <trkpt lat="45.85863" lon="4.68898">
        <ele>257.71664</ele>
        <time>2023-04-11T12:35:27.000Z</time>
      </trkpt>
      <trkpt lat="45.85862" lon="4.68905">
        <ele>257.74356</ele>
        <time>2023-04-11T12:35:28.000Z</time>
      </trkpt>
      <trkpt lat="45.85862" lon="4.68912">
        <ele>257.7374</ele>
        <time>2023-04-11T12:35:29.000Z</time>
      </trkpt>
      <trkpt lat="45.85862" lon="4.68919">
        <ele>257.6904</ele>
        <time>2023-04-11T12:35:30.000Z</time>
      </trkpt>
      <trkpt lat="45.85861" lon="4.68925">
        <ele>257.34448</ele>
        <time>2023-04-11T12:35:31.000Z</time>
      </trkpt>
      <trkpt lat="45.8586" lon="4.68932">
        <ele>257.06067</ele>
        <time>2023-04-11T12:35:32.000Z</time>
      </trkpt>
      <trkpt lat="45.8586" lon="4.68939">
        <ele>257.05121</ele>
        <time>2023-04-11T12:35:33.000Z</time>
      </trkpt>
      <trkpt lat="45.8586" lon="4.68945">
        <ele>256.97394</ele>
        <time>2023-04-11T12:35:34.000Z</time>
      </trkpt>
      <trkpt lat="45.8586" lon="4.6895">
        <ele>256.83344</ele>
        <time>2023-04-11T12:35:35.000Z</time>
      </trkpt>
      <trkpt lat="45.85861" lon="4.68959">
        <ele>256.76544</ele>
        <time>2023-04-11T12:35:36.000Z</time>
      </trkpt>
      <trkpt lat="45.85862" lon="4.68965">
        <ele>256.72791</ele>
        <time>2023-04-11T12:35:37.000Z</time>
      </trkpt>
      <trkpt lat="45.85861" lon="4.68972">
        <ele>256.7088</ele>
        <time>2023-04-11T12:35:38.000Z</time>
      </trkpt>
      <trkpt lat="45.85861" lon="4.68979">
        <ele>256.7225</ele>
        <time>2023-04-11T12:35:39.000Z</time>
      </trkpt>
      <trkpt lat="45.85862" lon="4.68985">
        <ele>256.74371</ele>
        <time>2023-04-11T12:35:40.000Z</time>
      </trkpt>
      <trkpt lat="45.85863" lon="4.68992">
        <ele>257.07855</ele>
        <time>2023-04-11T12:35:41.000Z</time>
      </trkpt>
      <trkpt lat="45.85864" lon="4.68997">
        <ele>257.12225</ele>
        <time>2023-04-11T12:35:42.000Z</time>
      </trkpt>
      <trkpt lat="45.85866" lon="4.69004">
        <ele>257.20422</ele>
        <time>2023-04-11T12:35:43.000Z</time>
      </trkpt>
      <trkpt lat="45.85867" lon="4.6901">
        <ele>257.28348</ele>
        <time>2023-04-11T12:35:44.000Z</time>
      </trkpt>
      <trkpt lat="45.85868" lon="4.69016">
        <ele>257.35492</ele>
        <time>2023-04-11T12:35:45.000Z</time>
      </trkpt>
      <trkpt lat="45.85869" lon="4.69021">
        <ele>257.36127</ele>
        <time>2023-04-11T12:35:46.000Z</time>
      </trkpt>
      <trkpt lat="45.8587" lon="4.69026">
        <ele>257.28134</ele>
        <time>2023-04-11T12:35:47.000Z</time>
      </trkpt>
      <trkpt lat="45.8587" lon="4.69031">
        <ele>257.11996</ele>
        <time>2023-04-11T12:35:48.000Z</time>
      </trkpt>
      <trkpt lat="45.85869" lon="4.69036">
        <ele>256.95407</ele>
        <time>2023-04-11T12:35:49.000Z</time>
      </trkpt>
      <trkpt lat="45.85868" lon="4.69041">
        <ele>256.8717</ele>
        <time>2023-04-11T12:35:50.000Z</time>
      </trkpt>
      <trkpt lat="45.85866" lon="4.69047">
        <ele>257.10364</ele>
        <time>2023-04-11T12:35:51.000Z</time>
      </trkpt>
      <trkpt lat="45.85865" lon="4.69052">
        <ele>257.35196</ele>
        <time>2023-04-11T12:35:52.000Z</time>
      </trkpt>
      <trkpt lat="45.85863" lon="4.69058">
        <ele>257.32913</ele>
        <time>2023-04-11T12:35:53.000Z</time>
      </trkpt>
      <trkpt lat="45.85862" lon="4.69063">
        <ele>257.32574</ele>
        <time>2023-04-11T12:35:54.000Z</time>
      </trkpt>
      <trkpt lat="45.85862" lon="4.69069">
        <ele>257.34332</ele>
        <time>2023-04-11T12:35:55.000Z</time>
      </trkpt>
      <trkpt lat="45.85862" lon="4.69074">
        <ele>257.31229</ele>
        <time>2023-04-11T12:35:56.000Z</time>
      </trkpt>
      <trkpt lat="45.8586" lon="4.69079">
        <ele>257.26538</ele>
        <time>2023-04-11T12:35:57.000Z</time>
      </trkpt>
      <trkpt lat="45.85859" lon="4.69084">
        <ele>257.11392</ele>
        <time>2023-04-11T12:35:58.000Z</time>
      </trkpt>
      <trkpt lat="45.85858" lon="4.69088">
        <ele>256.89362</ele>
        <time>2023-04-11T12:35:59.000Z</time>
      </trkpt>
      <trkpt lat="45.85857" lon="4.69093">
        <ele>256.58582</ele>
        <time>2023-04-11T12:36:00.000Z</time>
      </trkpt>
      <trkpt lat="45.85856" lon="4.69098">
        <ele>256.27283</ele>
        <time>2023-04-11T12:36:01.000Z</time>
      </trkpt>
      <trkpt lat="45.85856" lon="4.69104">
        <ele>256.18097</ele>
        <time>2023-04-11T12:36:02.000Z</time>
      </trkpt>
      <trkpt lat="45.85855" lon="4.69108">
        <ele>256.0585</ele>
        <time>2023-04-11T12:36:03.000Z</time>
      </trkpt>
      <trkpt lat="45.85855" lon="4.69114">
        <ele>255.91707</ele>
        <time>2023-04-11T12:36:04.000Z</time>
      </trkpt>
      <trkpt lat="45.85854" lon="4.69119">
        <ele>255.75589</ele>
        <time>2023-04-11T12:36:05.000Z</time>
      </trkpt>
      <trkpt lat="45.85854" lon="4.69124">
        <ele>255.57141</ele>
        <time>2023-04-11T12:36:06.000Z</time>
      </trkpt>
      <trkpt lat="45.85853" lon="4.69129">
        <ele>255.42461</ele>
        <time>2023-04-11T12:36:07.000Z</time>
      </trkpt>
      <trkpt lat="45.85852" lon="4.69134">
        <ele>255.29158</ele>
        <time>2023-04-11T12:36:08.000Z</time>
      </trkpt>
      <trkpt lat="45.85852" lon="4.69138">
        <ele>255.19742</ele>
        <time>2023-04-11T12:36:09.000Z</time>
      </trkpt>
      <trkpt lat="45.8585" lon="4.69143">
        <ele>255.00198</ele>
        <time>2023-04-11T12:36:10.000Z</time>
      </trkpt>
      <trkpt lat="45.85849" lon="4.69149">
        <ele>254.8031</ele>
        <time>2023-04-11T12:36:11.000Z</time>
      </trkpt>
      <trkpt lat="45.85848" lon="4.69154">
        <ele>254.62244</ele>
        <time>2023-04-11T12:36:12.000Z</time>
      </trkpt>
      <trkpt lat="45.85848" lon="4.6916">
        <ele>254.69162</ele>
        <time>2023-04-11T12:36:13.000Z</time>
      </trkpt>
      <trkpt lat="45.85847" lon="4.69166">
        <ele>254.741</ele>
        <time>2023-04-11T12:36:14.000Z</time>
      </trkpt>
      <trkpt lat="45.85847" lon="4.69172">
        <ele>254.88501</ele>
        <time>2023-04-11T12:36:15.000Z</time>
      </trkpt>
      <trkpt lat="45.85845" lon="4.69183">
        <ele>255.09207</ele>
        <time>2023-04-11T12:36:16.000Z</time>
      </trkpt>
      <trkpt lat="45.85844" lon="4.69191">
        <ele>255.32906</ele>
        <time>2023-04-11T12:36:17.000Z</time>
      </trkpt>
      <trkpt lat="45.85844" lon="4.69199">
        <ele>255.60307</ele>
        <time>2023-04-11T12:36:18.000Z</time>
      </trkpt>
      <trkpt lat="45.85842" lon="4.69204">
        <ele>255.83855</ele>
        <time>2023-04-11T12:36:19.000Z</time>
      </trkpt>
      <trkpt lat="45.85842" lon="4.6921">
        <ele>255.86145</ele>
        <time>2023-04-11T12:36:20.000Z</time>
      </trkpt>
      <trkpt lat="45.85842" lon="4.69216">
        <ele>255.88489</ele>
        <time>2023-04-11T12:36:21.000Z</time>
      </trkpt>
      <trkpt lat="45.8584" lon="4.69223">
        <ele>255.91995</ele>
        <time>2023-04-11T12:36:22.000Z</time>
      </trkpt>
      <trkpt lat="45.85839" lon="4.69229">
        <ele>255.94131</ele>
        <time>2023-04-11T12:36:23.000Z</time>
      </trkpt>
      <trkpt lat="45.85838" lon="4.69234">
        <ele>255.97421</ele>
        <time>2023-04-11T12:36:24.000Z</time>
      </trkpt>
      <trkpt lat="45.85837" lon="4.6924">
        <ele>256.03833</ele>
        <time>2023-04-11T12:36:25.000Z</time>
      </trkpt>
      <trkpt lat="45.85836" lon="4.69246">
        <ele>256.09268</ele>
        <time>2023-04-11T12:36:26.000Z</time>
      </trkpt>
      <trkpt lat="45.85834" lon="4.69252">
        <ele>256.11353</ele>
        <time>2023-04-11T12:36:27.000Z</time>
      </trkpt>
      <trkpt lat="45.85833" lon="4.69259">
        <ele>256.30453</ele>
        <time>2023-04-11T12:36:28.000Z</time>
      </trkpt>
      <trkpt lat="45.85832" lon="4.69265">
        <ele>256.51852</ele>
        <time>2023-04-11T12:36:29.000Z</time>
      </trkpt>
      <trkpt lat="45.85831" lon="4.69271">
        <ele>256.80817</ele>
        <time>2023-04-11T12:36:30.000Z</time>
      </trkpt>
      <trkpt lat="45.85831" lon="4.69276">
        <ele>256.6955</ele>
        <time>2023-04-11T12:36:31.000Z</time>
      </trkpt>
      <trkpt lat="45.85831" lon="4.69282">
        <ele>256.57034</ele>
        <time>2023-04-11T12:36:32.000Z</time>
      </trkpt>
      <trkpt lat="45.85833" lon="4.69289">
        <ele>256.49872</ele>
        <time>2023-04-11T12:36:33.000Z</time>
      </trkpt>
      <trkpt lat="45.85833" lon="4.69295">
        <ele>256.36743</ele>
        <time>2023-04-11T12:36:34.000Z</time>
      </trkpt>
      <trkpt lat="45.85834" lon="4.69301">
        <ele>256.15768</ele>
        <time>2023-04-11T12:36:35.000Z</time>
      </trkpt>
      <trkpt lat="45.85836" lon="4.69307">
        <ele>256.10254</ele>
        <time>2023-04-11T12:36:36.000Z</time>
      </trkpt>
      <trkpt lat="45.85837" lon="4.69314">
        <ele>255.58211</ele>
        <time>2023-04-11T12:36:37.000Z</time>
      </trkpt>
      <trkpt lat="45.85839" lon="4.6932">
        <ele>254.90425</ele>
        <time>2023-04-11T12:36:38.000Z</time>
      </trkpt>
      <trkpt lat="45.8584" lon="4.69326">
        <ele>254.26457</ele>
        <time>2023-04-11T12:36:39.000Z</time>
      </trkpt>
      <trkpt lat="45.85841" lon="4.69332">
        <ele>253.85391</ele>
        <time>2023-04-11T12:36:40.000Z</time>
      </trkpt>
      <trkpt lat="45.85842" lon="4.69338">
        <ele>253.41855</ele>
        <time>2023-04-11T12:36:41.000Z</time>
      </trkpt>
      <trkpt lat="45.85844" lon="4.69344">
        <ele>253.01399</ele>
        <time>2023-04-11T12:36:42.000Z</time>
      </trkpt>
      <trkpt lat="45.85846" lon="4.69349">
        <ele>252.57986</ele>
        <time>2023-04-11T12:36:43.000Z</time>
      </trkpt>
      <trkpt lat="45.85848" lon="4.69355">
        <ele>252.13628</ele>
        <time>2023-04-11T12:36:44.000Z</time>
      </trkpt>
      <trkpt lat="45.8585" lon="4.69361">
        <ele>251.68362</ele>
        <time>2023-04-11T12:36:45.000Z</time>
      </trkpt>
      <trkpt lat="45.8585" lon="4.69368">
        <ele>251.23576</ele>
        <time>2023-04-11T12:36:46.000Z</time>
      </trkpt>
      <trkpt lat="45.85848" lon="4.69375">
        <ele>250.76501</ele>
        <time>2023-04-11T12:36:47.000Z</time>
      </trkpt>
      <trkpt lat="45.85846" lon="4.6938">
        <ele>250.11406</ele>
        <time>2023-04-11T12:36:48.000Z</time>
      </trkpt>
      <trkpt lat="45.85844" lon="4.69386">
        <ele>249.42896</ele>
        <time>2023-04-11T12:36:49.000Z</time>
      </trkpt>
      <trkpt lat="45.85842" lon="4.69392">
        <ele>248.65739</ele>
        <time>2023-04-11T12:36:50.000Z</time>
      </trkpt>
      <trkpt lat="45.85839" lon="4.69398">
        <ele>248.25574</ele>
        <time>2023-04-11T12:36:51.000Z</time>
      </trkpt>
      <trkpt lat="45.85836" lon="4.69403">
        <ele>247.80991</ele>
        <time>2023-04-11T12:36:52.000Z</time>
      </trkpt>
      <trkpt lat="45.85832" lon="4.69407">
        <ele>247.37935</ele>
        <time>2023-04-11T12:36:53.000Z</time>
      </trkpt>
      <trkpt lat="45.85829" lon="4.69411">
        <ele>247.0144</ele>
        <time>2023-04-11T12:36:54.000Z</time>
      </trkpt>
      <trkpt lat="45.85826" lon="4.69416">
        <ele>246.68839</ele>
        <time>2023-04-11T12:36:55.000Z</time>
      </trkpt>
      <trkpt lat="45.85823" lon="4.69422">
        <ele>246.12781</ele>
        <time>2023-04-11T12:36:56.000Z</time>
      </trkpt>
      <trkpt lat="45.85822" lon="4.69427">
        <ele>245.97873</ele>
        <time>2023-04-11T12:36:57.000Z</time>
      </trkpt>
      <trkpt lat="45.85822" lon="4.69434">
        <ele>245.99431</ele>
        <time>2023-04-11T12:36:58.000Z</time>
      </trkpt>
      <trkpt lat="45.85822" lon="4.69441">
        <ele>246.01855</ele>
        <time>2023-04-11T12:36:59.000Z</time>
      </trkpt>
      <trkpt lat="45.85822" lon="4.69447">
        <ele>246.04768</ele>
        <time>2023-04-11T12:37:00.000Z</time>
      </trkpt>
      <trkpt lat="45.85823" lon="4.69453">
        <ele>246.0845</ele>
        <time>2023-04-11T12:37:01.000Z</time>
      </trkpt>
      <trkpt lat="45.85823" lon="4.6946">
        <ele>246.11337</ele>
        <time>2023-04-11T12:37:02.000Z</time>
      </trkpt>
      <trkpt lat="45.85823" lon="4.69466">
        <ele>246.18179</ele>
        <time>2023-04-11T12:37:03.000Z</time>
      </trkpt>
      <trkpt lat="45.85823" lon="4.69472">
        <ele>246.27206</ele>
        <time>2023-04-11T12:37:04.000Z</time>
      </trkpt>
      <trkpt lat="45.85823" lon="4.69479">
        <ele>246.33984</ele>
        <time>2023-04-11T12:37:05.000Z</time>
      </trkpt>
      <trkpt lat="45.85824" lon="4.69485">
        <ele>246.39783</ele>
        <time>2023-04-11T12:37:06.000Z</time>
      </trkpt>
      <trkpt lat="45.85825" lon="4.69491">
        <ele>246.48796</ele>
        <time>2023-04-11T12:37:07.000Z</time>
      </trkpt>
      <trkpt lat="45.85825" lon="4.69496">
        <ele>246.5667</ele>
        <time>2023-04-11T12:37:08.000Z</time>
      </trkpt>
      <trkpt lat="45.85826" lon="4.69501">
        <ele>246.62688</ele>
        <time>2023-04-11T12:37:09.000Z</time>
      </trkpt>
      <trkpt lat="45.85827" lon="4.69505">
        <ele>246.73189</ele>
        <time>2023-04-11T12:37:10.000Z</time>
      </trkpt>
      <trkpt lat="45.85828" lon="4.69511">
        <ele>246.83757</ele>
        <time>2023-04-11T12:37:11.000Z</time>
      </trkpt>
      <trkpt lat="45.85828" lon="4.69518">
        <ele>246.93893</ele>
        <time>2023-04-11T12:37:12.000Z</time>
      </trkpt>
      <trkpt lat="45.85829" lon="4.69525">
        <ele>247.01884</ele>
        <time>2023-04-11T12:37:13.000Z</time>
      </trkpt>
      <trkpt lat="45.8583" lon="4.69532">
        <ele>247.12854</ele>
        <time>2023-04-11T12:37:14.000Z</time>
      </trkpt>
      <trkpt lat="45.85831" lon="4.69538">
        <ele>247.23083</ele>
        <time>2023-04-11T12:37:15.000Z</time>
      </trkpt>
      <trkpt lat="45.85832" lon="4.69544">
        <ele>247.35799</ele>
        <time>2023-04-11T12:37:16.000Z</time>
      </trkpt>
      <trkpt lat="45.85833" lon="4.69548">
        <ele>247.48633</ele>
        <time>2023-04-11T12:37:17.000Z</time>
      </trkpt>
      <trkpt lat="45.85833" lon="4.69553">
        <ele>247.57617</ele>
        <time>2023-04-11T12:37:18.000Z</time>
      </trkpt>
      <trkpt lat="45.85833" lon="4.69559">
        <ele>247.65532</ele>
        <time>2023-04-11T12:37:19.000Z</time>
      </trkpt>
      <trkpt lat="45.85834" lon="4.69564">
        <ele>247.7574</ele>
        <time>2023-04-11T12:37:20.000Z</time>
      </trkpt>
      <trkpt lat="45.85834" lon="4.6957">
        <ele>247.88354</ele>
        <time>2023-04-11T12:37:21.000Z</time>
      </trkpt>
      <trkpt lat="45.85835" lon="4.69575">
        <ele>248.01285</ele>
        <time>2023-04-11T12:37:22.000Z</time>
      </trkpt>
      <trkpt lat="45.85835" lon="4.6958">
        <ele>248.13052</ele>
        <time>2023-04-11T12:37:23.000Z</time>
      </trkpt>
      <trkpt lat="45.85835" lon="4.69585">
        <ele>248.20088</ele>
        <time>2023-04-11T12:37:24.000Z</time>
      </trkpt>
      <trkpt lat="45.85836" lon="4.69591">
        <ele>248.28296</ele>
        <time>2023-04-11T12:37:25.000Z</time>
      </trkpt>
      <trkpt lat="45.85837" lon="4.69596">
        <ele>248.33134</ele>
        <time>2023-04-11T12:37:26.000Z</time>
      </trkpt>
      <trkpt lat="45.85838" lon="4.69602">
        <ele>248.36697</ele>
        <time>2023-04-11T12:37:27.000Z</time>
      </trkpt>
      <trkpt lat="45.85839" lon="4.69608">
        <ele>248.41812</ele>
        <time>2023-04-11T12:37:28.000Z</time>
      </trkpt>
      <trkpt lat="45.85841" lon="4.69614">
        <ele>248.4209</ele>
        <time>2023-04-11T12:37:29.000Z</time>
      </trkpt>
      <trkpt lat="45.85842" lon="4.69619">
        <ele>248.39197</ele>
        <time>2023-04-11T12:37:30.000Z</time>
      </trkpt>
      <trkpt lat="45.85843" lon="4.69625">
        <ele>248.30754</ele>
        <time>2023-04-11T12:37:31.000Z</time>
      </trkpt>
      <trkpt lat="45.85844" lon="4.6963">
        <ele>248.20166</ele>
        <time>2023-04-11T12:37:32.000Z</time>
      </trkpt>
      <trkpt lat="45.85846" lon="4.69636">
        <ele>248.00204</ele>
        <time>2023-04-11T12:37:33.000Z</time>
      </trkpt>
      <trkpt lat="45.85847" lon="4.69643">
        <ele>247.80261</ele>
        <time>2023-04-11T12:37:34.000Z</time>
      </trkpt>
      <trkpt lat="45.85849" lon="4.69649">
        <ele>247.58456</ele>
        <time>2023-04-11T12:37:35.000Z</time>
      </trkpt>
      <trkpt lat="45.8585" lon="4.69654">
        <ele>247.3577</ele>
        <time>2023-04-11T12:37:36.000Z</time>
      </trkpt>
      <trkpt lat="45.85852" lon="4.6966">
        <ele>247.16573</ele>
        <time>2023-04-11T12:37:37.000Z</time>
      </trkpt>
      <trkpt lat="45.85857" lon="4.69673">
        <ele>246.92448</ele>
        <time>2023-04-11T12:37:38.000Z</time>
      </trkpt>
      <trkpt lat="45.85859" lon="4.6968">
        <ele>246.69272</ele>
        <time>2023-04-11T12:37:39.000Z</time>
      </trkpt>
      <trkpt lat="45.85861" lon="4.69686">
        <ele>246.56216</ele>
        <time>2023-04-11T12:37:40.000Z</time>
      </trkpt>
      <trkpt lat="45.85864" lon="4.69693">
        <ele>246.40707</ele>
        <time>2023-04-11T12:37:41.000Z</time>
      </trkpt>
      <trkpt lat="45.85866" lon="4.69699">
        <ele>246.20825</ele>
        <time>2023-04-11T12:37:42.000Z</time>
      </trkpt>
      <trkpt lat="45.8587" lon="4.69706">
        <ele>246.02165</ele>
        <time>2023-04-11T12:37:43.000Z</time>
      </trkpt>
      <trkpt lat="45.85873" lon="4.69711">
        <ele>245.88736</ele>
        <time>2023-04-11T12:37:44.000Z</time>
      </trkpt>
      <trkpt lat="45.85877" lon="4.69716">
        <ele>245.78035</ele>
        <time>2023-04-11T12:37:45.000Z</time>
      </trkpt>
      <trkpt lat="45.85879" lon="4.69723">
        <ele>245.68599</ele>
        <time>2023-04-11T12:37:46.000Z</time>
      </trkpt>
      <trkpt lat="45.85882" lon="4.69728">
        <ele>245.59175</ele>
        <time>2023-04-11T12:37:47.000Z</time>
      </trkpt>
      <trkpt lat="45.85885" lon="4.69734">
        <ele>245.52522</ele>
        <time>2023-04-11T12:37:48.000Z</time>
      </trkpt>
      <trkpt lat="45.85888" lon="4.6974">
        <ele>245.51346</ele>
        <time>2023-04-11T12:37:49.000Z</time>
      </trkpt>
      <trkpt lat="45.85892" lon="4.69745">
        <ele>245.56343</ele>
        <time>2023-04-11T12:37:50.000Z</time>
      </trkpt>
      <trkpt lat="45.85897" lon="4.6975">
        <ele>245.66838</ele>
        <time>2023-04-11T12:37:51.000Z</time>
      </trkpt>
      <trkpt lat="45.85898" lon="4.69755">
        <ele>245.76819</ele>
        <time>2023-04-11T12:37:52.000Z</time>
      </trkpt>
      <trkpt lat="45.85901" lon="4.69759">
        <ele>245.95157</ele>
        <time>2023-04-11T12:37:53.000Z</time>
      </trkpt>
      <trkpt lat="45.85903" lon="4.69764">
        <ele>246.1147</ele>
        <time>2023-04-11T12:37:54.000Z</time>
      </trkpt>
      <trkpt lat="45.85907" lon="4.69768">
        <ele>246.28702</ele>
        <time>2023-04-11T12:37:55.000Z</time>
      </trkpt>
      <trkpt lat="45.8591" lon="4.69773">
        <ele>246.45894</ele>
        <time>2023-04-11T12:37:56.000Z</time>
      </trkpt>
      <trkpt lat="45.85913" lon="4.6978">
        <ele>246.61215</ele>
        <time>2023-04-11T12:37:57.000Z</time>
      </trkpt>
      <trkpt lat="45.85916" lon="4.69786">
        <ele>246.84021</ele>
        <time>2023-04-11T12:37:58.000Z</time>
      </trkpt>
      <trkpt lat="45.85918" lon="4.69791">
        <ele>247.01114</ele>
        <time>2023-04-11T12:37:59.000Z</time>
      </trkpt>
      <trkpt lat="45.85922" lon="4.69797">
        <ele>247.06204</ele>
        <time>2023-04-11T12:38:00.000Z</time>
      </trkpt>
      <trkpt lat="45.85924" lon="4.69801">
        <ele>247.06136</ele>
        <time>2023-04-11T12:38:01.000Z</time>
      </trkpt>
      <trkpt lat="45.85929" lon="4.69806">
        <ele>247.0909</ele>
        <time>2023-04-11T12:38:02.000Z</time>
      </trkpt>
      <trkpt lat="45.85932" lon="4.69812">
        <ele>247.10825</ele>
        <time>2023-04-11T12:38:03.000Z</time>
      </trkpt>
      <trkpt lat="45.85935" lon="4.69817">
        <ele>247.03902</ele>
        <time>2023-04-11T12:38:04.000Z</time>
      </trkpt>
      <trkpt lat="45.85939" lon="4.69821">
        <ele>246.93506</ele>
        <time>2023-04-11T12:38:05.000Z</time>
      </trkpt>
      <trkpt lat="45.85942" lon="4.69825">
        <ele>246.8577</ele>
        <time>2023-04-11T12:38:06.000Z</time>
      </trkpt>
      <trkpt lat="45.85946" lon="4.6983">
        <ele>246.8179</ele>
        <time>2023-04-11T12:38:07.000Z</time>
      </trkpt>
      <trkpt lat="45.8595" lon="4.69834">
        <ele>246.77274</ele>
        <time>2023-04-11T12:38:08.000Z</time>
      </trkpt>
      <trkpt lat="45.85954" lon="4.69837">
        <ele>246.74858</ele>
        <time>2023-04-11T12:38:09.000Z</time>
      </trkpt>
      <trkpt lat="45.85959" lon="4.69841">
        <ele>246.65683</ele>
        <time>2023-04-11T12:38:10.000Z</time>
      </trkpt>
      <trkpt lat="45.85962" lon="4.69843">
        <ele>246.5094</ele>
        <time>2023-04-11T12:38:11.000Z</time>
      </trkpt>
      <trkpt lat="45.85967" lon="4.69848">
        <ele>246.392</ele>
        <time>2023-04-11T12:38:12.000Z</time>
      </trkpt>
      <trkpt lat="45.85971" lon="4.69851">
        <ele>246.26717</ele>
        <time>2023-04-11T12:38:13.000Z</time>
      </trkpt>
      <trkpt lat="45.85976" lon="4.69855">
        <ele>246.1489</ele>
        <time>2023-04-11T12:38:14.000Z</time>
      </trkpt>
      <trkpt lat="45.85981" lon="4.6986">
        <ele>245.98323</ele>
        <time>2023-04-11T12:38:15.000Z</time>
      </trkpt>
      <trkpt lat="45.85984" lon="4.69863">
        <ele>245.83138</ele>
        <time>2023-04-11T12:38:16.000Z</time>
      </trkpt>
      <trkpt lat="45.85989" lon="4.69868">
        <ele>245.72151</ele>
        <time>2023-04-11T12:38:17.000Z</time>
      </trkpt>
      <trkpt lat="45.85994" lon="4.69872">
        <ele>245.61263</ele>
        <time>2023-04-11T12:38:18.000Z</time>
      </trkpt>
      <trkpt lat="45.85998" lon="4.69876">
        <ele>245.55278</ele>
        <time>2023-04-11T12:38:19.000Z</time>
      </trkpt>
      <trkpt lat="45.86003" lon="4.69879">
        <ele>245.4747</ele>
        <time>2023-04-11T12:38:20.000Z</time>
      </trkpt>
      <trkpt lat="45.86008" lon="4.69882">
        <ele>245.42648</ele>
        <time>2023-04-11T12:38:21.000Z</time>
      </trkpt>
      <trkpt lat="45.86012" lon="4.69885">
        <ele>245.3575</ele>
        <time>2023-04-11T12:38:22.000Z</time>
      </trkpt>
      <trkpt lat="45.86016" lon="4.69887">
        <ele>245.2977</ele>
        <time>2023-04-11T12:38:23.000Z</time>
      </trkpt>
      <trkpt lat="45.86021" lon="4.69889">
        <ele>245.26413</ele>
        <time>2023-04-11T12:38:24.000Z</time>
      </trkpt>
      <trkpt lat="45.86026" lon="4.6989">
        <ele>245.27444</ele>
        <time>2023-04-11T12:38:25.000Z</time>
      </trkpt>
      <trkpt lat="45.86031" lon="4.6989">
        <ele>245.23103</ele>
        <time>2023-04-11T12:38:26.000Z</time>
      </trkpt>
      <trkpt lat="45.86035" lon="4.6989">
        <ele>245.18423</ele>
        <time>2023-04-11T12:38:27.000Z</time>
      </trkpt>
      <trkpt lat="45.8604" lon="4.69889">
        <ele>245.10974</ele>
        <time>2023-04-11T12:38:28.000Z</time>
      </trkpt>
      <trkpt lat="45.86045" lon="4.69889">
        <ele>245.04758</ele>
        <time>2023-04-11T12:38:29.000Z</time>
      </trkpt>
      <trkpt lat="45.8605" lon="4.69889">
        <ele>244.9832</ele>
        <time>2023-04-11T12:38:30.000Z</time>
      </trkpt>
      <trkpt lat="45.86054" lon="4.69889">
        <ele>244.96103</ele>
        <time>2023-04-11T12:38:31.000Z</time>
      </trkpt>
      <trkpt lat="45.86059" lon="4.69887">
        <ele>244.97762</ele>
        <time>2023-04-11T12:38:32.000Z</time>
      </trkpt>
      <trkpt lat="45.86065" lon="4.69885">
        <ele>245.00273</ele>
        <time>2023-04-11T12:38:33.000Z</time>
      </trkpt>
      <trkpt lat="45.86069" lon="4.69883">
        <ele>245.0024</ele>
        <time>2023-04-11T12:38:34.000Z</time>
      </trkpt>
      <trkpt lat="45.86074" lon="4.69882">
        <ele>245.00545</ele>
        <time>2023-04-11T12:38:35.000Z</time>
      </trkpt>
      <trkpt lat="45.8608" lon="4.69881">
        <ele>245.03329</ele>
        <time>2023-04-11T12:38:36.000Z</time>
      </trkpt>
      <trkpt lat="45.86085" lon="4.6988">
        <ele>244.98738</ele>
        <time>2023-04-11T12:38:37.000Z</time>
      </trkpt>
      <trkpt lat="45.86089" lon="4.69878">
        <ele>244.91252</ele>
        <time>2023-04-11T12:38:38.000Z</time>
      </trkpt>
      <trkpt lat="45.86093" lon="4.69878">
        <ele>244.84785</ele>
        <time>2023-04-11T12:38:39.000Z</time>
      </trkpt>
      <trkpt lat="45.86098" lon="4.69876">
        <ele>244.7753</ele>
        <time>2023-04-11T12:38:40.000Z</time>
      </trkpt>
      <trkpt lat="45.86105" lon="4.69871">
        <ele>244.73665</ele>
        <time>2023-04-11T12:38:41.000Z</time>
      </trkpt>
      <trkpt lat="45.86112" lon="4.69868">
        <ele>244.69083</ele>
        <time>2023-04-11T12:38:42.000Z</time>
      </trkpt>
      <trkpt lat="45.86116" lon="4.69865">
        <ele>244.69218</ele>
        <time>2023-04-11T12:38:43.000Z</time>
      </trkpt>
      <trkpt lat="45.86121" lon="4.69863">
        <ele>244.76299</ele>
        <time>2023-04-11T12:38:44.000Z</time>
      </trkpt>
      <trkpt lat="45.86127" lon="4.69859">
        <ele>244.77505</ele>
        <time>2023-04-11T12:38:45.000Z</time>
      </trkpt>
      <trkpt lat="45.86132" lon="4.69855">
        <ele>244.81979</ele>
        <time>2023-04-11T12:38:46.000Z</time>
      </trkpt>
      <trkpt lat="45.86135" lon="4.69851">
        <ele>244.84624</ele>
        <time>2023-04-11T12:38:47.000Z</time>
      </trkpt>
      <trkpt lat="45.86138" lon="4.69847">
        <ele>244.86821</ele>
        <time>2023-04-11T12:38:48.000Z</time>
      </trkpt>
      <trkpt lat="45.86142" lon="4.69843">
        <ele>244.91345</ele>
        <time>2023-04-11T12:38:49.000Z</time>
      </trkpt>
      <trkpt lat="45.86146" lon="4.69839">
        <ele>244.99052</ele>
        <time>2023-04-11T12:38:50.000Z</time>
      </trkpt>
      <trkpt lat="45.8615" lon="4.69836">
        <ele>245.04565</ele>
        <time>2023-04-11T12:38:51.000Z</time>
      </trkpt>
      <trkpt lat="45.86155" lon="4.69834">
        <ele>245.04163</ele>
        <time>2023-04-11T12:38:52.000Z</time>
      </trkpt>
      <trkpt lat="45.86159" lon="4.6983">
        <ele>245.06364</ele>
        <time>2023-04-11T12:38:53.000Z</time>
      </trkpt>
      <trkpt lat="45.86164" lon="4.69828">
        <ele>245.10368</ele>
        <time>2023-04-11T12:38:54.000Z</time>
      </trkpt>
      <trkpt lat="45.86169" lon="4.69824">
        <ele>245.20857</ele>
        <time>2023-04-11T12:38:55.000Z</time>
      </trkpt>
      <trkpt lat="45.86173" lon="4.69821">
        <ele>245.27786</ele>
        <time>2023-04-11T12:38:56.000Z</time>
      </trkpt>
      <trkpt lat="45.86177" lon="4.69818">
        <ele>245.3667</ele>
        <time>2023-04-11T12:38:57.000Z</time>
      </trkpt>
      <trkpt lat="45.86182" lon="4.69815">
        <ele>245.4635</ele>
        <time>2023-04-11T12:38:58.000Z</time>
      </trkpt>
      <trkpt lat="45.86186" lon="4.6981">
        <ele>245.56111</ele>
        <time>2023-04-11T12:38:59.000Z</time>
      </trkpt>
      <trkpt lat="45.86191" lon="4.69807">
        <ele>245.67998</ele>
        <time>2023-04-11T12:39:00.000Z</time>
      </trkpt>
      <trkpt lat="45.86194" lon="4.69803">
        <ele>245.78755</ele>
        <time>2023-04-11T12:39:01.000Z</time>
      </trkpt>
      <trkpt lat="45.86198" lon="4.698">
        <ele>245.92557</ele>
        <time>2023-04-11T12:39:02.000Z</time>
      </trkpt>
      <trkpt lat="45.86202" lon="4.69797">
        <ele>246.03116</ele>
        <time>2023-04-11T12:39:03.000Z</time>
      </trkpt>
      <trkpt lat="45.86206" lon="4.69796">
        <ele>246.11247</ele>
        <time>2023-04-11T12:39:04.000Z</time>
      </trkpt>
      <trkpt lat="45.8621" lon="4.69793">
        <ele>246.24988</ele>
        <time>2023-04-11T12:39:05.000Z</time>
      </trkpt>
      <trkpt lat="45.86214" lon="4.6979">
        <ele>246.42534</ele>
        <time>2023-04-11T12:39:06.000Z</time>
      </trkpt>
      <trkpt lat="45.86218" lon="4.69789">
        <ele>246.55952</ele>
        <time>2023-04-11T12:39:07.000Z</time>
      </trkpt>
      <trkpt lat="45.86221" lon="4.69785">
        <ele>246.72</ele>
        <time>2023-04-11T12:39:08.000Z</time>
      </trkpt>
      <trkpt lat="45.86224" lon="4.69782">
        <ele>246.84839</ele>
        <time>2023-04-11T12:39:09.000Z</time>
      </trkpt>
      <trkpt lat="45.86228" lon="4.6978">
        <ele>246.88803</ele>
        <time>2023-04-11T12:39:10.000Z</time>
      </trkpt>
      <trkpt lat="45.8623" lon="4.69776">
        <ele>246.99348</ele>
        <time>2023-04-11T12:39:11.000Z</time>
      </trkpt>
      <trkpt lat="45.86233" lon="4.69776">
        <ele>247.02583</ele>
        <time>2023-04-11T12:39:12.000Z</time>
      </trkpt>
      <trkpt lat="45.86236" lon="4.69771">
        <ele>247.56624</ele>
        <time>2023-04-11T12:39:13.000Z</time>
      </trkpt>
      <trkpt lat="45.86239" lon="4.69766">
        <ele>248.08537</ele>
        <time>2023-04-11T12:39:14.000Z</time>
      </trkpt>
      <trkpt lat="45.86243" lon="4.69763">
        <ele>248.60393</ele>
        <time>2023-04-11T12:39:15.000Z</time>
      </trkpt>
      <trkpt lat="45.86248" lon="4.6976">
        <ele>249.20084</ele>
        <time>2023-04-11T12:39:16.000Z</time>
      </trkpt>
      <trkpt lat="45.86252" lon="4.69758">
        <ele>249.80405</ele>
        <time>2023-04-11T12:39:17.000Z</time>
      </trkpt>
      <trkpt lat="45.86256" lon="4.69757">
        <ele>250.37549</ele>
        <time>2023-04-11T12:39:18.000Z</time>
      </trkpt>
      <trkpt lat="45.86261" lon="4.69757">
        <ele>250.90805</ele>
        <time>2023-04-11T12:39:19.000Z</time>
      </trkpt>
      <trkpt lat="45.86266" lon="4.69756">
        <ele>251.44177</ele>
        <time>2023-04-11T12:39:20.000Z</time>
      </trkpt>
      <trkpt lat="45.8627" lon="4.69755">
        <ele>252.02263</ele>
        <time>2023-04-11T12:39:21.000Z</time>
      </trkpt>
      <trkpt lat="45.86274" lon="4.69753">
        <ele>252.62277</ele>
        <time>2023-04-11T12:39:22.000Z</time>
      </trkpt>
      <trkpt lat="45.86279" lon="4.69752">
        <ele>253.30721</ele>
        <time>2023-04-11T12:39:23.000Z</time>
      </trkpt>
      <trkpt lat="45.86283" lon="4.69752">
        <ele>253.63681</ele>
        <time>2023-04-11T12:39:24.000Z</time>
      </trkpt>
      <trkpt lat="45.86287" lon="4.69751">
        <ele>253.96201</ele>
        <time>2023-04-11T12:39:25.000Z</time>
      </trkpt>
      <trkpt lat="45.86292" lon="4.69751">
        <ele>254.24712</ele>
        <time>2023-04-11T12:39:26.000Z</time>
      </trkpt>
      <trkpt lat="45.86296" lon="4.69752">
        <ele>254.57266</ele>
        <time>2023-04-11T12:39:27.000Z</time>
      </trkpt>
      <trkpt lat="45.863" lon="4.69751">
        <ele>254.90817</ele>
        <time>2023-04-11T12:39:28.000Z</time>
      </trkpt>
      <trkpt lat="45.86305" lon="4.69751">
        <ele>255.21452</ele>
        <time>2023-04-11T12:39:29.000Z</time>
      </trkpt>
      <trkpt lat="45.86309" lon="4.69751">
        <ele>255.5856</ele>
        <time>2023-04-11T12:39:30.000Z</time>
      </trkpt>
      <trkpt lat="45.86313" lon="4.69751">
        <ele>256.08832</ele>
        <time>2023-04-11T12:39:31.000Z</time>
      </trkpt>
      <trkpt lat="45.86318" lon="4.69752">
        <ele>256.67926</ele>
        <time>2023-04-11T12:39:32.000Z</time>
      </trkpt>
      <trkpt lat="45.86321" lon="4.69751">
        <ele>256.71164</ele>
        <time>2023-04-11T12:39:33.000Z</time>
      </trkpt>
      <trkpt lat="45.86323" lon="4.6975">
        <ele>256.83502</ele>
        <time>2023-04-11T12:39:34.000Z</time>
      </trkpt>
      <trkpt lat="45.86324" lon="4.69748">
        <ele>256.66577</ele>
        <time>2023-04-11T12:39:35.000Z</time>
      </trkpt>
      <trkpt lat="45.86325" lon="4.69745">
        <ele>256.49048</ele>
        <time>2023-04-11T12:39:36.000Z</time>
      </trkpt>
      <trkpt lat="45.86326" lon="4.69742">
        <ele>256.33368</ele>
        <time>2023-04-11T12:39:37.000Z</time>
      </trkpt>
      <trkpt lat="45.86326" lon="4.69739">
        <ele>256.22235</ele>
        <time>2023-04-11T12:39:38.000Z</time>
      </trkpt>
      <trkpt lat="45.86327" lon="4.69736">
        <ele>256.32031</ele>
        <time>2023-04-11T12:39:39.000Z</time>
      </trkpt>
      <trkpt lat="45.86328" lon="4.69732">
        <ele>256.41583</ele>
        <time>2023-04-11T12:39:40.000Z</time>
      </trkpt>
      <trkpt lat="45.86329" lon="4.69729">
        <ele>256.47662</ele>
        <time>2023-04-11T12:39:41.000Z</time>
      </trkpt>
      <trkpt lat="45.8633" lon="4.69725">
        <ele>256.33945</ele>
        <time>2023-04-11T12:39:43.000Z</time>
      </trkpt>
      <trkpt lat="45.86332" lon="4.69726">
        <ele>256.2066</ele>
        <time>2023-04-11T12:39:49.000Z</time>
      </trkpt>
      <trkpt lat="45.8633" lon="4.69725">
        <ele>256.26938</ele>
        <time>2023-04-11T12:39:58.000Z</time>
      </trkpt>
      <trkpt lat="45.86328" lon="4.69726">
        <ele>256.30597</ele>
        <time>2023-04-11T12:39:59.000Z</time>
      </trkpt>
      <trkpt lat="45.86325" lon="4.69728">
        <ele>256.48517</ele>
        <time>2023-04-11T12:40:00.000Z</time>
      </trkpt>
      <trkpt lat="45.86324" lon="4.6973">
        <ele>256.72968</ele>
        <time>2023-04-11T12:40:01.000Z</time>
      </trkpt>
      <trkpt lat="45.86323" lon="4.69734">
        <ele>256.93564</ele>
        <time>2023-04-11T12:40:02.000Z</time>
      </trkpt>
      <trkpt lat="45.86323" lon="4.69739">
        <ele>257.15567</ele>
        <time>2023-04-11T12:40:03.000Z</time>
      </trkpt>
      <trkpt lat="45.86324" lon="4.69743">
        <ele>257.39813</ele>
        <time>2023-04-11T12:40:04.000Z</time>
      </trkpt>
      <trkpt lat="45.86325" lon="4.69747">
        <ele>257.51508</ele>
        <time>2023-04-11T12:40:05.000Z</time>
      </trkpt>
      <trkpt lat="45.86327" lon="4.69751">
        <ele>257.61493</ele>
        <time>2023-04-11T12:40:06.000Z</time>
      </trkpt>
      <trkpt lat="45.8633" lon="4.69755">
        <ele>257.72845</ele>
        <time>2023-04-11T12:40:07.000Z</time>
      </trkpt>
      <trkpt lat="45.86333" lon="4.69758">
        <ele>257.49188</ele>
        <time>2023-04-11T12:40:08.000Z</time>
      </trkpt>
      <trkpt lat="45.86336" lon="4.69761">
        <ele>257.5174</ele>
        <time>2023-04-11T12:40:09.000Z</time>
      </trkpt>
      <trkpt lat="45.86339" lon="4.69764">
        <ele>257.45575</ele>
        <time>2023-04-11T12:40:10.000Z</time>
      </trkpt>
      <trkpt lat="45.86342" lon="4.69767">
        <ele>257.35724</ele>
        <time>2023-04-11T12:40:11.000Z</time>
      </trkpt>
      <trkpt lat="45.86345" lon="4.69771">
        <ele>257.2421</ele>
        <time>2023-04-11T12:40:12.000Z</time>
      </trkpt>
      <trkpt lat="45.86348" lon="4.69775">
        <ele>256.92386</ele>
        <time>2023-04-11T12:40:13.000Z</time>
      </trkpt>
      <trkpt lat="45.86352" lon="4.69779">
        <ele>256.62897</ele>
        <time>2023-04-11T12:40:14.000Z</time>
      </trkpt>
      <trkpt lat="45.86355" lon="4.69783">
        <ele>256.32028</ele>
        <time>2023-04-11T12:40:15.000Z</time>
      </trkpt>
      <trkpt lat="45.86357" lon="4.69788">
        <ele>256.18475</ele>
        <time>2023-04-11T12:40:16.000Z</time>
      </trkpt>
      <trkpt lat="45.8636" lon="4.69793">
        <ele>255.93132</ele>
        <time>2023-04-11T12:40:17.000Z</time>
      </trkpt>
      <trkpt lat="45.86362" lon="4.69797">
        <ele>255.83533</ele>
        <time>2023-04-11T12:40:18.000Z</time>
      </trkpt>
      <trkpt lat="45.86365" lon="4.69802">
        <ele>255.75346</ele>
        <time>2023-04-11T12:40:19.000Z</time>
      </trkpt>
      <trkpt lat="45.86368" lon="4.69806">
        <ele>255.56357</ele>
        <time>2023-04-11T12:40:20.000Z</time>
      </trkpt>
      <trkpt lat="45.8637" lon="4.69811">
        <ele>255.32321</ele>
        <time>2023-04-11T12:40:21.000Z</time>
      </trkpt>
      <trkpt lat="45.86374" lon="4.69817">
        <ele>255.0999</ele>
        <time>2023-04-11T12:40:22.000Z</time>
      </trkpt>
      <trkpt lat="45.86377" lon="4.69822">
        <ele>254.46841</ele>
        <time>2023-04-11T12:40:23.000Z</time>
      </trkpt>
      <trkpt lat="45.8638" lon="4.69827">
        <ele>253.79387</ele>
        <time>2023-04-11T12:40:24.000Z</time>
      </trkpt>
      <trkpt lat="45.86383" lon="4.69832">
        <ele>253.08167</ele>
        <time>2023-04-11T12:40:25.000Z</time>
      </trkpt>
      <trkpt lat="45.86386" lon="4.69837">
        <ele>252.3757</ele>
        <time>2023-04-11T12:40:26.000Z</time>
      </trkpt>
      <trkpt lat="45.86389" lon="4.69843">
        <ele>251.67517</ele>
        <time>2023-04-11T12:40:27.000Z</time>
      </trkpt>
      <trkpt lat="45.86392" lon="4.69849">
        <ele>251.24771</ele>
        <time>2023-04-11T12:40:28.000Z</time>
      </trkpt>
      <trkpt lat="45.86393" lon="4.69854">
        <ele>250.85831</ele>
        <time>2023-04-11T12:40:29.000Z</time>
      </trkpt>
      <trkpt lat="45.86395" lon="4.69861">
        <ele>250.48894</ele>
        <time>2023-04-11T12:40:30.000Z</time>
      </trkpt>
      <trkpt lat="45.86396" lon="4.69866">
        <ele>250.18542</ele>
        <time>2023-04-11T12:40:31.000Z</time>
      </trkpt>
      <trkpt lat="45.86397" lon="4.69872">
        <ele>249.91069</ele>
        <time>2023-04-11T12:40:32.000Z</time>
      </trkpt>
      <trkpt lat="45.86398" lon="4.69878">
        <ele>249.60088</ele>
        <time>2023-04-11T12:40:33.000Z</time>
      </trkpt>
      <trkpt lat="45.86399" lon="4.69885">
        <ele>249.29581</ele>
        <time>2023-04-11T12:40:34.000Z</time>
      </trkpt>
      <trkpt lat="45.864" lon="4.69891">
        <ele>248.98276</ele>
        <time>2023-04-11T12:40:35.000Z</time>
      </trkpt>
      <trkpt lat="45.86401" lon="4.69897">
        <ele>248.69193</ele>
        <time>2023-04-11T12:40:36.000Z</time>
      </trkpt>
      <trkpt lat="45.86401" lon="4.69903">
        <ele>248.34604</ele>
        <time>2023-04-11T12:40:37.000Z</time>
      </trkpt>
      <trkpt lat="45.86402" lon="4.69909">
        <ele>248.02856</ele>
        <time>2023-04-11T12:40:38.000Z</time>
      </trkpt>
      <trkpt lat="45.86403" lon="4.69917">
        <ele>247.67143</ele>
        <time>2023-04-11T12:40:39.000Z</time>
      </trkpt>
      <trkpt lat="45.86403" lon="4.69924">
        <ele>247.31802</ele>
        <time>2023-04-11T12:40:40.000Z</time>
      </trkpt>
      <trkpt lat="45.86403" lon="4.6993">
        <ele>246.93472</ele>
        <time>2023-04-11T12:40:41.000Z</time>
      </trkpt>
      <trkpt lat="45.86404" lon="4.69937">
        <ele>246.58105</ele>
        <time>2023-04-11T12:40:42.000Z</time>
      </trkpt>
      <trkpt lat="45.86404" lon="4.69944">
        <ele>246.61621</ele>
        <time>2023-04-11T12:40:43.000Z</time>
      </trkpt>
      <trkpt lat="45.86404" lon="4.6995">
        <ele>246.7037</ele>
        <time>2023-04-11T12:40:44.000Z</time>
      </trkpt>
      <trkpt lat="45.86403" lon="4.69956">
        <ele>246.78352</ele>
        <time>2023-04-11T12:40:45.000Z</time>
      </trkpt>
      <trkpt lat="45.86403" lon="4.69963">
        <ele>246.85269</ele>
        <time>2023-04-11T12:40:46.000Z</time>
      </trkpt>
      <trkpt lat="45.86402" lon="4.69968">
        <ele>246.87146</ele>
        <time>2023-04-11T12:40:47.000Z</time>
      </trkpt>
      <trkpt lat="45.86402" lon="4.69973">
        <ele>246.9041</ele>
        <time>2023-04-11T12:40:48.000Z</time>
      </trkpt>
      <trkpt lat="45.86403" lon="4.69979">
        <ele>246.88321</ele>
        <time>2023-04-11T12:40:49.000Z</time>
      </trkpt>
      <trkpt lat="45.86402" lon="4.69985">
        <ele>246.85733</ele>
        <time>2023-04-11T12:40:50.000Z</time>
      </trkpt>
      <trkpt lat="45.86402" lon="4.69991">
        <ele>246.78381</ele>
        <time>2023-04-11T12:40:51.000Z</time>
      </trkpt>
      <trkpt lat="45.86402" lon="4.69998">
        <ele>246.6906</ele>
        <time>2023-04-11T12:40:52.000Z</time>
      </trkpt>
      <trkpt lat="45.86402" lon="4.70004">
        <ele>246.61182</ele>
        <time>2023-04-11T12:40:53.000Z</time>
      </trkpt>
      <trkpt lat="45.86402" lon="4.7001">
        <ele>246.49179</ele>
        <time>2023-04-11T12:40:54.000Z</time>
      </trkpt>
      <trkpt lat="45.86402" lon="4.70016">
        <ele>246.35596</ele>
        <time>2023-04-11T12:40:55.000Z</time>
      </trkpt>
      <trkpt lat="45.86401" lon="4.70023">
        <ele>246.19534</ele>
        <time>2023-04-11T12:40:56.000Z</time>
      </trkpt>
      <trkpt lat="45.864" lon="4.7003">
        <ele>246.09293</ele>
        <time>2023-04-11T12:40:57.000Z</time>
      </trkpt>
      <trkpt lat="45.864" lon="4.70037">
        <ele>245.94197</ele>
        <time>2023-04-11T12:40:58.000Z</time>
      </trkpt>
      <trkpt lat="45.86399" lon="4.70043">
        <ele>245.82242</ele>
        <time>2023-04-11T12:40:59.000Z</time>
      </trkpt>
      <trkpt lat="45.86398" lon="4.70049">
        <ele>245.69458</ele>
        <time>2023-04-11T12:41:00.000Z</time>
      </trkpt>
      <trkpt lat="45.86397" lon="4.70056">
        <ele>245.5634</ele>
        <time>2023-04-11T12:41:01.000Z</time>
      </trkpt>
      <trkpt lat="45.86396" lon="4.70062">
        <ele>245.4028</ele>
        <time>2023-04-11T12:41:02.000Z</time>
      </trkpt>
      <trkpt lat="45.86396" lon="4.70069">
        <ele>245.233</ele>
        <time>2023-04-11T12:41:03.000Z</time>
      </trkpt>
      <trkpt lat="45.86394" lon="4.70075">
        <ele>245.05106</ele>
        <time>2023-04-11T12:41:04.000Z</time>
      </trkpt>
      <trkpt lat="45.86393" lon="4.70082">
        <ele>244.86385</ele>
        <time>2023-04-11T12:41:05.000Z</time>
      </trkpt>
      <trkpt lat="45.86391" lon="4.70089">
        <ele>244.67822</ele>
        <time>2023-04-11T12:41:06.000Z</time>
      </trkpt>
      <trkpt lat="45.8639" lon="4.70096">
        <ele>244.4998</ele>
        <time>2023-04-11T12:41:07.000Z</time>
      </trkpt>
      <trkpt lat="45.86389" lon="4.70103">
        <ele>244.34172</ele>
        <time>2023-04-11T12:41:08.000Z</time>
      </trkpt>
      <trkpt lat="45.86389" lon="4.7011">
        <ele>244.21448</ele>
        <time>2023-04-11T12:41:09.000Z</time>
      </trkpt>
      <trkpt lat="45.86387" lon="4.70117">
        <ele>244.09409</ele>
        <time>2023-04-11T12:41:10.000Z</time>
      </trkpt>
      <trkpt lat="45.86386" lon="4.70125">
        <ele>243.95175</ele>
        <time>2023-04-11T12:41:11.000Z</time>
      </trkpt>
      <trkpt lat="45.86384" lon="4.70131">
        <ele>243.81851</ele>
        <time>2023-04-11T12:41:12.000Z</time>
      </trkpt>
      <trkpt lat="45.86382" lon="4.70138">
        <ele>243.73819</ele>
        <time>2023-04-11T12:41:13.000Z</time>
      </trkpt>
      <trkpt lat="45.86381" lon="4.70144">
        <ele>243.63567</ele>
        <time>2023-04-11T12:41:14.000Z</time>
      </trkpt>
      <trkpt lat="45.86381" lon="4.70151">
        <ele>243.56165</ele>
        <time>2023-04-11T12:41:15.000Z</time>
      </trkpt>
      <trkpt lat="45.86379" lon="4.70159">
        <ele>243.53146</ele>
        <time>2023-04-11T12:41:16.000Z</time>
      </trkpt>
      <trkpt lat="45.86378" lon="4.70166">
        <ele>243.54153</ele>
        <time>2023-04-11T12:41:17.000Z</time>
      </trkpt>
      <trkpt lat="45.86376" lon="4.70173">
        <ele>243.53848</ele>
        <time>2023-04-11T12:41:18.000Z</time>
      </trkpt>
      <trkpt lat="45.86374" lon="4.70179">
        <ele>243.52475</ele>
        <time>2023-04-11T12:41:19.000Z</time>
      </trkpt>
      <trkpt lat="45.86371" lon="4.70184">
        <ele>243.48422</ele>
        <time>2023-04-11T12:41:20.000Z</time>
      </trkpt>
      <trkpt lat="45.86368" lon="4.70189">
        <ele>243.43896</ele>
        <time>2023-04-11T12:41:21.000Z</time>
      </trkpt>
      <trkpt lat="45.86366" lon="4.70193">
        <ele>243.32324</ele>
        <time>2023-04-11T12:41:22.000Z</time>
      </trkpt>
      <trkpt lat="45.86362" lon="4.70198">
        <ele>243.22063</ele>
        <time>2023-04-11T12:41:23.000Z</time>
      </trkpt>
      <trkpt lat="45.8636" lon="4.70204">
        <ele>243.09526</ele>
        <time>2023-04-11T12:41:24.000Z</time>
      </trkpt>
      <trkpt lat="45.86358" lon="4.70209">
        <ele>242.98331</ele>
        <time>2023-04-11T12:41:25.000Z</time>
      </trkpt>
      <trkpt lat="45.86354" lon="4.70214">
        <ele>242.92557</ele>
        <time>2023-04-11T12:41:26.000Z</time>
      </trkpt>
      <trkpt lat="45.86351" lon="4.70219">
        <ele>242.901</ele>
        <time>2023-04-11T12:41:27.000Z</time>
      </trkpt>
      <trkpt lat="45.86348" lon="4.70224">
        <ele>242.89449</ele>
        <time>2023-04-11T12:41:28.000Z</time>
      </trkpt>
      <trkpt lat="45.86344" lon="4.7023">
        <ele>242.88069</ele>
        <time>2023-04-11T12:41:29.000Z</time>
      </trkpt>
      <trkpt lat="45.86341" lon="4.70235">
        <ele>242.84729</ele>
        <time>2023-04-11T12:41:30.000Z</time>
      </trkpt>
      <trkpt lat="45.86338" lon="4.70239">
        <ele>242.82715</ele>
        <time>2023-04-11T12:41:31.000Z</time>
      </trkpt>
      <trkpt lat="45.86335" lon="4.70245">
        <ele>242.81909</ele>
        <time>2023-04-11T12:41:32.000Z</time>
      </trkpt>
      <trkpt lat="45.86333" lon="4.70251">
        <ele>242.83598</ele>
        <time>2023-04-11T12:41:33.000Z</time>
      </trkpt>
      <trkpt lat="45.86332" lon="4.70257">
        <ele>242.90552</ele>
        <time>2023-04-11T12:41:34.000Z</time>
      </trkpt>
      <trkpt lat="45.86331" lon="4.70263">
        <ele>243.00095</ele>
        <time>2023-04-11T12:41:35.000Z</time>
      </trkpt>
      <trkpt lat="45.86329" lon="4.7027">
        <ele>243.04016</ele>
        <time>2023-04-11T12:41:36.000Z</time>
      </trkpt>
      <trkpt lat="45.86329" lon="4.70275">
        <ele>243.05537</ele>
        <time>2023-04-11T12:41:37.000Z</time>
      </trkpt>
      <trkpt lat="45.86325" lon="4.70282">
        <ele>243.07503</ele>
        <time>2023-04-11T12:41:38.000Z</time>
      </trkpt>
      <trkpt lat="45.86325" lon="4.70291">
        <ele>243.14792</ele>
        <time>2023-04-11T12:41:39.000Z</time>
      </trkpt>
      <trkpt lat="45.86324" lon="4.70297">
        <ele>243.18738</ele>
        <time>2023-04-11T12:41:40.000Z</time>
      </trkpt>
      <trkpt lat="45.86323" lon="4.70304">
        <ele>243.25595</ele>
        <time>2023-04-11T12:41:41.000Z</time>
      </trkpt>
      <trkpt lat="45.86322" lon="4.70311">
        <ele>243.37056</ele>
        <time>2023-04-11T12:41:42.000Z</time>
      </trkpt>
      <trkpt lat="45.86325" lon="4.70318">
        <ele>243.50919</ele>
        <time>2023-04-11T12:41:43.000Z</time>
      </trkpt>
      <trkpt lat="45.86329" lon="4.70324">
        <ele>243.62512</ele>
        <time>2023-04-11T12:41:44.000Z</time>
      </trkpt>
      <trkpt lat="45.86332" lon="4.70329">
        <ele>243.72397</ele>
        <time>2023-04-11T12:41:45.000Z</time>
      </trkpt>
      <trkpt lat="45.86335" lon="4.70334">
        <ele>243.75883</ele>
        <time>2023-04-11T12:41:46.000Z</time>
      </trkpt>
      <trkpt lat="45.86337" lon="4.70339">
        <ele>243.83235</ele>
        <time>2023-04-11T12:41:47.000Z</time>
      </trkpt>
      <trkpt lat="45.86341" lon="4.70344">
        <ele>243.8459</ele>
        <time>2023-04-11T12:41:48.000Z</time>
      </trkpt>
      <trkpt lat="45.86345" lon="4.70346">
        <ele>243.90079</ele>
        <time>2023-04-11T12:41:49.000Z</time>
      </trkpt>
      <trkpt lat="45.86348" lon="4.70348">
        <ele>243.96817</ele>
        <time>2023-04-11T12:41:50.000Z</time>
      </trkpt>
      <trkpt lat="45.86351" lon="4.70351">
        <ele>244.09238</ele>
        <time>2023-04-11T12:41:51.000Z</time>
      </trkpt>
      <trkpt lat="45.86356" lon="4.70353">
        <ele>244.19492</ele>
        <time>2023-04-11T12:41:52.000Z</time>
      </trkpt>
      <trkpt lat="45.8636" lon="4.70355">
        <ele>244.29504</ele>
        <time>2023-04-11T12:41:53.000Z</time>
      </trkpt>
      <trkpt lat="45.86363" lon="4.70359">
        <ele>244.37033</ele>
        <time>2023-04-11T12:41:54.000Z</time>
      </trkpt>
      <trkpt lat="45.86367" lon="4.70363">
        <ele>244.40617</ele>
        <time>2023-04-11T12:41:55.000Z</time>
      </trkpt>
      <trkpt lat="45.86372" lon="4.70368">
        <ele>244.48233</ele>
        <time>2023-04-11T12:41:56.000Z</time>
      </trkpt>
      <trkpt lat="45.86375" lon="4.70372">
        <ele>244.52336</ele>
        <time>2023-04-11T12:41:57.000Z</time>
      </trkpt>
      <trkpt lat="45.8638" lon="4.70375">
        <ele>244.63264</ele>
        <time>2023-04-11T12:41:58.000Z</time>
      </trkpt>
      <trkpt lat="45.86383" lon="4.7038">
        <ele>244.673</ele>
        <time>2023-04-11T12:41:59.000Z</time>
      </trkpt>
      <trkpt lat="45.86386" lon="4.70386">
        <ele>244.75754</ele>
        <time>2023-04-11T12:42:00.000Z</time>
      </trkpt>
      <trkpt lat="45.86388" lon="4.70392">
        <ele>244.86641</ele>
        <time>2023-04-11T12:42:01.000Z</time>
      </trkpt>
      <trkpt lat="45.86389" lon="4.70398">
        <ele>245.00594</ele>
        <time>2023-04-11T12:42:02.000Z</time>
      </trkpt>
      <trkpt lat="45.86391" lon="4.70404">
        <ele>245.11649</ele>
        <time>2023-04-11T12:42:03.000Z</time>
      </trkpt>
      <trkpt lat="45.86394" lon="4.7041">
        <ele>245.24731</ele>
        <time>2023-04-11T12:42:04.000Z</time>
      </trkpt>
      <trkpt lat="45.86395" lon="4.70416">
        <ele>245.40549</ele>
        <time>2023-04-11T12:42:05.000Z</time>
      </trkpt>
      <trkpt lat="45.86396" lon="4.70422">
        <ele>245.60481</ele>
        <time>2023-04-11T12:42:06.000Z</time>
      </trkpt>
      <trkpt lat="45.86397" lon="4.70427">
        <ele>245.78275</ele>
        <time>2023-04-11T12:42:07.000Z</time>
      </trkpt>
      <trkpt lat="45.86397" lon="4.70434">
        <ele>245.94394</ele>
        <time>2023-04-11T12:42:08.000Z</time>
      </trkpt>
      <trkpt lat="45.86397" lon="4.7044">
        <ele>246.06772</ele>
        <time>2023-04-11T12:42:09.000Z</time>
      </trkpt>
      <trkpt lat="45.86396" lon="4.70448">
        <ele>246.16617</ele>
        <time>2023-04-11T12:42:10.000Z</time>
      </trkpt>
      <trkpt lat="45.86393" lon="4.70455">
        <ele>246.22485</ele>
        <time>2023-04-11T12:42:11.000Z</time>
      </trkpt>
      <trkpt lat="45.8639" lon="4.7046">
        <ele>246.27505</ele>
        <time>2023-04-11T12:42:12.000Z</time>
      </trkpt>
      <trkpt lat="45.86387" lon="4.70466">
        <ele>246.24007</ele>
        <time>2023-04-11T12:42:13.000Z</time>
      </trkpt>
      <trkpt lat="45.86385" lon="4.70471">
        <ele>246.2131</ele>
        <time>2023-04-11T12:42:14.000Z</time>
      </trkpt>
      <trkpt lat="45.86382" lon="4.70477">
        <ele>246.13985</ele>
        <time>2023-04-11T12:42:15.000Z</time>
      </trkpt>
      <trkpt lat="45.8638" lon="4.7048">
        <ele>246.0706</ele>
        <time>2023-04-11T12:42:16.000Z</time>
      </trkpt>
      <trkpt lat="45.86377" lon="4.70483">
        <ele>246.04391</ele>
        <time>2023-04-11T12:42:17.000Z</time>
      </trkpt>
      <trkpt lat="45.86375" lon="4.7049">
        <ele>245.94473</ele>
        <time>2023-04-11T12:42:18.000Z</time>
      </trkpt>
      <trkpt lat="45.86371" lon="4.70494">
        <ele>245.85612</ele>
        <time>2023-04-11T12:42:19.000Z</time>
      </trkpt>
      <trkpt lat="45.86371" lon="4.70502">
        <ele>245.79135</ele>
        <time>2023-04-11T12:42:20.000Z</time>
      </trkpt>
      <trkpt lat="45.86371" lon="4.70508">
        <ele>245.6563</ele>
        <time>2023-04-11T12:42:21.000Z</time>
      </trkpt>
      <trkpt lat="45.86372" lon="4.70515">
        <ele>245.53984</ele>
        <time>2023-04-11T12:42:22.000Z</time>
      </trkpt>
      <trkpt lat="45.86373" lon="4.70522">
        <ele>245.42839</ele>
        <time>2023-04-11T12:42:23.000Z</time>
      </trkpt>
      <trkpt lat="45.86374" lon="4.70529">
        <ele>245.26514</ele>
        <time>2023-04-11T12:42:24.000Z</time>
      </trkpt>
      <trkpt lat="45.86374" lon="4.70535">
        <ele>245.08826</ele>
        <time>2023-04-11T12:42:25.000Z</time>
      </trkpt>
      <trkpt lat="45.86374" lon="4.70543">
        <ele>244.88489</ele>
        <time>2023-04-11T12:42:26.000Z</time>
      </trkpt>
      <trkpt lat="45.86375" lon="4.7055">
        <ele>244.71162</ele>
        <time>2023-04-11T12:42:27.000Z</time>
      </trkpt>
      <trkpt lat="45.86376" lon="4.70557">
        <ele>244.59981</ele>
        <time>2023-04-11T12:42:28.000Z</time>
      </trkpt>
      <trkpt lat="45.86378" lon="4.70563">
        <ele>244.51384</ele>
        <time>2023-04-11T12:42:29.000Z</time>
      </trkpt>
      <trkpt lat="45.86381" lon="4.70568">
        <ele>244.44357</ele>
        <time>2023-04-11T12:42:30.000Z</time>
      </trkpt>
      <trkpt lat="45.86384" lon="4.70573">
        <ele>244.35147</ele>
        <time>2023-04-11T12:42:31.000Z</time>
      </trkpt>
      <trkpt lat="45.86387" lon="4.70578">
        <ele>244.25815</ele>
        <time>2023-04-11T12:42:32.000Z</time>
      </trkpt>
      <trkpt lat="45.86392" lon="4.70578">
        <ele>244.21362</ele>
        <time>2023-04-11T12:42:33.000Z</time>
      </trkpt>
      <trkpt lat="45.86396" lon="4.70578">
        <ele>244.13875</ele>
        <time>2023-04-11T12:42:34.000Z</time>
      </trkpt>
      <trkpt lat="45.86402" lon="4.70576">
        <ele>244.08464</ele>
        <time>2023-04-11T12:42:35.000Z</time>
      </trkpt>
      <trkpt lat="45.86406" lon="4.70573">
        <ele>243.98926</ele>
        <time>2023-04-11T12:42:36.000Z</time>
      </trkpt>
      <trkpt lat="45.86411" lon="4.70571">
        <ele>243.9133</ele>
        <time>2023-04-11T12:42:37.000Z</time>
      </trkpt>
      <trkpt lat="45.86416" lon="4.70569">
        <ele>243.88541</ele>
        <time>2023-04-11T12:42:38.000Z</time>
      </trkpt>
      <trkpt lat="45.86419" lon="4.70568">
        <ele>243.86801</ele>
        <time>2023-04-11T12:42:39.000Z</time>
      </trkpt>
      <trkpt lat="45.86424" lon="4.70566">
        <ele>243.84241</ele>
        <time>2023-04-11T12:42:40.000Z</time>
      </trkpt>
      <trkpt lat="45.86428" lon="4.70565">
        <ele>243.8483</ele>
        <time>2023-04-11T12:42:41.000Z</time>
      </trkpt>
      <trkpt lat="45.86432" lon="4.70563">
        <ele>243.8356</ele>
        <time>2023-04-11T12:42:42.000Z</time>
      </trkpt>
      <trkpt lat="45.86437" lon="4.70562">
        <ele>243.82104</ele>
        <time>2023-04-11T12:42:43.000Z</time>
      </trkpt>
      <trkpt lat="45.86442" lon="4.70562">
        <ele>243.88351</ele>
        <time>2023-04-11T12:42:44.000Z</time>
      </trkpt>
      <trkpt lat="45.86447" lon="4.70561">
        <ele>243.9528</ele>
        <time>2023-04-11T12:42:45.000Z</time>
      </trkpt>
      <trkpt lat="45.86452" lon="4.7056">
        <ele>244.04831</ele>
        <time>2023-04-11T12:42:46.000Z</time>
      </trkpt>
      <trkpt lat="45.86456" lon="4.70559">
        <ele>244.14163</ele>
        <time>2023-04-11T12:42:47.000Z</time>
      </trkpt>
      <trkpt lat="45.86461" lon="4.70558">
        <ele>244.21944</ele>
        <time>2023-04-11T12:42:48.000Z</time>
      </trkpt>
      <trkpt lat="45.86466" lon="4.70557">
        <ele>244.29265</ele>
        <time>2023-04-11T12:42:49.000Z</time>
      </trkpt>
      <trkpt lat="45.8647" lon="4.70557">
        <ele>244.35037</ele>
        <time>2023-04-11T12:42:50.000Z</time>
      </trkpt>
      <trkpt lat="45.86475" lon="4.70557">
        <ele>244.43022</ele>
        <time>2023-04-11T12:42:51.000Z</time>
      </trkpt>
      <trkpt lat="45.86479" lon="4.70557">
        <ele>244.51619</ele>
        <time>2023-04-11T12:42:52.000Z</time>
      </trkpt>
      <trkpt lat="45.86484" lon="4.70558">
        <ele>244.59087</ele>
        <time>2023-04-11T12:42:53.000Z</time>
      </trkpt>
      <trkpt lat="45.86489" lon="4.70558">
        <ele>244.68021</ele>
        <time>2023-04-11T12:42:54.000Z</time>
      </trkpt>
      <trkpt lat="45.86494" lon="4.70559">
        <ele>244.73862</ele>
        <time>2023-04-11T12:42:55.000Z</time>
      </trkpt>
      <trkpt lat="45.86499" lon="4.7056">
        <ele>244.81079</ele>
        <time>2023-04-11T12:42:56.000Z</time>
      </trkpt>
      <trkpt lat="45.86504" lon="4.70561">
        <ele>244.88156</ele>
        <time>2023-04-11T12:42:57.000Z</time>
      </trkpt>
      <trkpt lat="45.86509" lon="4.70564">
        <ele>244.93137</ele>
        <time>2023-04-11T12:42:58.000Z</time>
      </trkpt>
      <trkpt lat="45.86513" lon="4.70566">
        <ele>244.96016</ele>
        <time>2023-04-11T12:42:59.000Z</time>
      </trkpt>
      <trkpt lat="45.86518" lon="4.70569">
        <ele>245.0042</ele>
        <time>2023-04-11T12:43:00.000Z</time>
      </trkpt>
      <trkpt lat="45.86522" lon="4.70572">
        <ele>245.06631</ele>
        <time>2023-04-11T12:43:01.000Z</time>
      </trkpt>
      <trkpt lat="45.86526" lon="4.70576">
        <ele>245.08928</ele>
        <time>2023-04-11T12:43:02.000Z</time>
      </trkpt>
      <trkpt lat="45.8653" lon="4.70579">
        <ele>245.10373</ele>
        <time>2023-04-11T12:43:03.000Z</time>
      </trkpt>
      <trkpt lat="45.86534" lon="4.70585">
        <ele>245.11072</ele>
        <time>2023-04-11T12:43:04.000Z</time>
      </trkpt>
      <trkpt lat="45.86538" lon="4.7059">
        <ele>245.08525</ele>
        <time>2023-04-11T12:43:05.000Z</time>
      </trkpt>
      <trkpt lat="45.86541" lon="4.70597">
        <ele>245.03024</ele>
        <time>2023-04-11T12:43:06.000Z</time>
      </trkpt>
      <trkpt lat="45.86544" lon="4.70604">
        <ele>244.89444</ele>
        <time>2023-04-11T12:43:07.000Z</time>
      </trkpt>
      <trkpt lat="45.86546" lon="4.70611">
        <ele>244.75342</ele>
        <time>2023-04-11T12:43:08.000Z</time>
      </trkpt>
      <trkpt lat="45.86549" lon="4.70618">
        <ele>244.6154</ele>
        <time>2023-04-11T12:43:09.000Z</time>
      </trkpt>
      <trkpt lat="45.86553" lon="4.70623">
        <ele>244.46826</ele>
        <time>2023-04-11T12:43:10.000Z</time>
      </trkpt>
      <trkpt lat="45.86558" lon="4.70627">
        <ele>244.33199</ele>
        <time>2023-04-11T12:43:11.000Z</time>
      </trkpt>
      <trkpt lat="45.86566" lon="4.70628">
        <ele>244.17378</ele>
        <time>2023-04-11T12:43:12.000Z</time>
      </trkpt>
      <trkpt lat="45.86572" lon="4.7063">
        <ele>243.94844</ele>
        <time>2023-04-11T12:43:13.000Z</time>
      </trkpt>
      <trkpt lat="45.86576" lon="4.7063">
        <ele>243.79166</ele>
        <time>2023-04-11T12:43:14.000Z</time>
      </trkpt>
      <trkpt lat="45.8658" lon="4.70629">
        <ele>243.74698</ele>
        <time>2023-04-11T12:43:15.000Z</time>
      </trkpt>
      <trkpt lat="45.86584" lon="4.70629">
        <ele>243.74631</ele>
        <time>2023-04-11T12:43:16.000Z</time>
      </trkpt>
      <trkpt lat="45.86587" lon="4.7063">
        <ele>243.68303</ele>
        <time>2023-04-11T12:43:17.000Z</time>
      </trkpt>
      <trkpt lat="45.86591" lon="4.70631">
        <ele>243.57446</ele>
        <time>2023-04-11T12:43:18.000Z</time>
      </trkpt>
      <trkpt lat="45.86595" lon="4.70628">
        <ele>243.55429</ele>
        <time>2023-04-11T12:43:19.000Z</time>
      </trkpt>
      <trkpt lat="45.86598" lon="4.70628">
        <ele>243.5488</ele>
        <time>2023-04-11T12:43:20.000Z</time>
      </trkpt>
      <trkpt lat="45.86603" lon="4.70628">
        <ele>243.54521</ele>
        <time>2023-04-11T12:43:21.000Z</time>
      </trkpt>
      <trkpt lat="45.86607" lon="4.70627">
        <ele>243.55193</ele>
        <time>2023-04-11T12:43:22.000Z</time>
      </trkpt>
      <trkpt lat="45.86612" lon="4.70629">
        <ele>243.55147</ele>
        <time>2023-04-11T12:43:23.000Z</time>
      </trkpt>
      <trkpt lat="45.86617" lon="4.70627">
        <ele>243.53589</ele>
        <time>2023-04-11T12:43:24.000Z</time>
      </trkpt>
      <trkpt lat="45.8662" lon="4.70627">
        <ele>243.56369</ele>
        <time>2023-04-11T12:43:25.000Z</time>
      </trkpt>
      <trkpt lat="45.86622" lon="4.70625">
        <ele>243.5676</ele>
        <time>2023-04-11T12:43:26.000Z</time>
      </trkpt>
      <trkpt lat="45.86624" lon="4.70623">
        <ele>243.6019</ele>
        <time>2023-04-11T12:43:27.000Z</time>
      </trkpt>
      <trkpt lat="45.86627" lon="4.70622">
        <ele>243.57666</ele>
        <time>2023-04-11T12:43:28.000Z</time>
      </trkpt>
      <trkpt lat="45.8663" lon="4.70621">
        <ele>243.53568</ele>
        <time>2023-04-11T12:43:29.000Z</time>
      </trkpt>
      <trkpt lat="45.86633" lon="4.7062">
        <ele>243.53218</ele>
        <time>2023-04-11T12:43:30.000Z</time>
      </trkpt>
      <trkpt lat="45.86636" lon="4.70621">
        <ele>243.52783</ele>
        <time>2023-04-11T12:43:31.000Z</time>
      </trkpt>
      <trkpt lat="45.86638" lon="4.70621">
        <ele>243.54297</ele>
        <time>2023-04-11T12:43:32.000Z</time>
      </trkpt>
      <trkpt lat="45.86641" lon="4.70621">
        <ele>243.59875</ele>
        <time>2023-04-11T12:43:33.000Z</time>
      </trkpt>
      <trkpt lat="45.86645" lon="4.7062">
        <ele>243.63162</ele>
        <time>2023-04-11T12:43:34.000Z</time>
      </trkpt>
      <trkpt lat="45.86648" lon="4.70619">
        <ele>243.64417</ele>
        <time>2023-04-11T12:43:35.000Z</time>
      </trkpt>
      <trkpt lat="45.86651" lon="4.70618">
        <ele>243.63074</ele>
        <time>2023-04-11T12:43:36.000Z</time>
      </trkpt>
      <trkpt lat="45.86655" lon="4.70616">
        <ele>243.63423</ele>
        <time>2023-04-11T12:43:37.000Z</time>
      </trkpt>
      <trkpt lat="45.86659" lon="4.70614">
        <ele>243.70126</ele>
        <time>2023-04-11T12:43:38.000Z</time>
      </trkpt>
      <trkpt lat="45.86663" lon="4.70612">
        <ele>243.71387</ele>
        <time>2023-04-11T12:43:39.000Z</time>
      </trkpt>
      <trkpt lat="45.86667" lon="4.7061">
        <ele>243.642</ele>
        <time>2023-04-11T12:43:40.000Z</time>
      </trkpt>
      <trkpt lat="45.86671" lon="4.70609">
        <ele>243.50107</ele>
        <time>2023-04-11T12:43:41.000Z</time>
      </trkpt>
      <trkpt lat="45.86676" lon="4.70609">
        <ele>243.35843</ele>
        <time>2023-04-11T12:43:42.000Z</time>
      </trkpt>
      <trkpt lat="45.86679" lon="4.70612">
        <ele>243.3165</ele>
        <time>2023-04-11T12:43:43.000Z</time>
      </trkpt>
      <trkpt lat="45.86682" lon="4.70616">
        <ele>243.26047</ele>
        <time>2023-04-11T12:43:44.000Z</time>
      </trkpt>
      <trkpt lat="45.86685" lon="4.70621">
        <ele>243.1877</ele>
        <time>2023-04-11T12:43:45.000Z</time>
      </trkpt>
      <trkpt lat="45.86687" lon="4.70627">
        <ele>243.13799</ele>
        <time>2023-04-11T12:43:46.000Z</time>
      </trkpt>
      <trkpt lat="45.86689" lon="4.70633">
        <ele>243.08414</ele>
        <time>2023-04-11T12:43:47.000Z</time>
      </trkpt>
      <trkpt lat="45.86692" lon="4.70639">
        <ele>243.09207</ele>
        <time>2023-04-11T12:43:48.000Z</time>
      </trkpt>
      <trkpt lat="45.86694" lon="4.70644">
        <ele>243.05984</ele>
        <time>2023-04-11T12:43:49.000Z</time>
      </trkpt>
      <trkpt lat="45.86699" lon="4.70651">
        <ele>243.00797</ele>
        <time>2023-04-11T12:43:50.000Z</time>
      </trkpt>
      <trkpt lat="45.867" lon="4.70657">
        <ele>242.97659</ele>
        <time>2023-04-11T12:43:51.000Z</time>
      </trkpt>
      <trkpt lat="45.86703" lon="4.70662">
        <ele>242.94312</ele>
        <time>2023-04-11T12:43:52.000Z</time>
      </trkpt>
      <trkpt lat="45.86704" lon="4.70668">
        <ele>242.94815</ele>
        <time>2023-04-11T12:43:53.000Z</time>
      </trkpt>
      <trkpt lat="45.86708" lon="4.70673">
        <ele>242.99113</ele>
        <time>2023-04-11T12:43:54.000Z</time>
      </trkpt>
      <trkpt lat="45.86711" lon="4.70679">
        <ele>243.0177</ele>
        <time>2023-04-11T12:43:55.000Z</time>
      </trkpt>
      <trkpt lat="45.8671" lon="4.70684">
        <ele>242.99182</ele>
        <time>2023-04-11T12:43:56.000Z</time>
      </trkpt>
      <trkpt lat="45.86711" lon="4.70689">
        <ele>242.96297</ele>
        <time>2023-04-11T12:43:57.000Z</time>
      </trkpt>
      <trkpt lat="45.86715" lon="4.70695">
        <ele>242.8992</ele>
        <time>2023-04-11T12:43:58.000Z</time>
      </trkpt>
      <trkpt lat="45.86718" lon="4.707">
        <ele>242.83615</ele>
        <time>2023-04-11T12:43:59.000Z</time>
      </trkpt>
      <trkpt lat="45.86722" lon="4.70704">
        <ele>242.8103</ele>
        <time>2023-04-11T12:44:00.000Z</time>
      </trkpt>
      <trkpt lat="45.86726" lon="4.70708">
        <ele>242.85567</ele>
        <time>2023-04-11T12:44:01.000Z</time>
      </trkpt>
      <trkpt lat="45.8673" lon="4.70712">
        <ele>242.91536</ele>
        <time>2023-04-11T12:44:02.000Z</time>
      </trkpt>
      <trkpt lat="45.86733" lon="4.70714">
        <ele>242.90271</ele>
        <time>2023-04-11T12:44:03.000Z</time>
      </trkpt>
      <trkpt lat="45.86737" lon="4.70717">
        <ele>242.90698</ele>
        <time>2023-04-11T12:44:04.000Z</time>
      </trkpt>
      <trkpt lat="45.86741" lon="4.7072">
        <ele>242.9261</ele>
        <time>2023-04-11T12:44:05.000Z</time>
      </trkpt>
      <trkpt lat="45.86745" lon="4.70721">
        <ele>242.89859</ele>
        <time>2023-04-11T12:44:06.000Z</time>
      </trkpt>
      <trkpt lat="45.86749" lon="4.70723">
        <ele>242.91426</ele>
        <time>2023-04-11T12:44:07.000Z</time>
      </trkpt>
      <trkpt lat="45.86752" lon="4.70726">
        <ele>242.91362</ele>
        <time>2023-04-11T12:44:08.000Z</time>
      </trkpt>
      <trkpt lat="45.86755" lon="4.7073">
        <ele>242.91714</ele>
        <time>2023-04-11T12:44:09.000Z</time>
      </trkpt>
      <trkpt lat="45.86758" lon="4.70735">
        <ele>242.95699</ele>
        <time>2023-04-11T12:44:11.000Z</time>
      </trkpt>
      <trkpt lat="45.86758" lon="4.70739">
        <ele>242.97701</ele>
        <time>2023-04-11T12:44:12.000Z</time>
      </trkpt>
      <trkpt lat="45.86759" lon="4.70744">
        <ele>243.00398</ele>
        <time>2023-04-11T12:44:13.000Z</time>
      </trkpt>
      <trkpt lat="45.86758" lon="4.70749">
        <ele>242.9888</ele>
        <time>2023-04-11T12:44:14.000Z</time>
      </trkpt>
      <trkpt lat="45.86758" lon="4.70756">
        <ele>242.92436</ele>
        <time>2023-04-11T12:44:15.000Z</time>
      </trkpt>
      <trkpt lat="45.86759" lon="4.70761">
        <ele>242.82219</ele>
        <time>2023-04-11T12:44:16.000Z</time>
      </trkpt>
      <trkpt lat="45.8676" lon="4.70767">
        <ele>242.77365</ele>
        <time>2023-04-11T12:44:17.000Z</time>
      </trkpt>
      <trkpt lat="45.86761" lon="4.70773">
        <ele>242.73233</ele>
        <time>2023-04-11T12:44:18.000Z</time>
      </trkpt>
      <trkpt lat="45.86762" lon="4.70778">
        <ele>242.69125</ele>
        <time>2023-04-11T12:44:19.000Z</time>
      </trkpt>
      <trkpt lat="45.86764" lon="4.70783">
        <ele>242.68188</ele>
        <time>2023-04-11T12:44:20.000Z</time>
      </trkpt>
      <trkpt lat="45.86766" lon="4.70788">
        <ele>242.72391</ele>
        <time>2023-04-11T12:44:21.000Z</time>
      </trkpt>
      <trkpt lat="45.86768" lon="4.70793">
        <ele>242.76277</ele>
        <time>2023-04-11T12:44:22.000Z</time>
      </trkpt>
      <trkpt lat="45.8677" lon="4.70799">
        <ele>242.81084</ele>
        <time>2023-04-11T12:44:23.000Z</time>
      </trkpt>
      <trkpt lat="45.86773" lon="4.70804">
        <ele>242.81059</ele>
        <time>2023-04-11T12:44:24.000Z</time>
      </trkpt>
      <trkpt lat="45.86778" lon="4.70811">
        <ele>242.81084</ele>
        <time>2023-04-11T12:44:25.000Z</time>
      </trkpt>
      <trkpt lat="45.86781" lon="4.70815">
        <ele>242.80669</ele>
        <time>2023-04-11T12:44:26.000Z</time>
      </trkpt>
      <trkpt lat="45.86785" lon="4.70818">
        <ele>242.86909</ele>
        <time>2023-04-11T12:44:27.000Z</time>
      </trkpt>
      <trkpt lat="45.86788" lon="4.70821">
        <ele>242.86014</ele>
        <time>2023-04-11T12:44:28.000Z</time>
      </trkpt>
      <trkpt lat="45.86793" lon="4.70824">
        <ele>242.83548</ele>
        <time>2023-04-11T12:44:29.000Z</time>
      </trkpt>
      <trkpt lat="45.86797" lon="4.70826">
        <ele>242.85078</ele>
        <time>2023-04-11T12:44:30.000Z</time>
      </trkpt>
      <trkpt lat="45.86802" lon="4.70828">
        <ele>242.85551</ele>
        <time>2023-04-11T12:44:31.000Z</time>
      </trkpt>
      <trkpt lat="45.86803" lon="4.70831">
        <ele>242.82759</ele>
        <time>2023-04-11T12:44:32.000Z</time>
      </trkpt>
      <trkpt lat="45.86804" lon="4.70835">
        <ele>242.82034</ele>
        <time>2023-04-11T12:44:33.000Z</time>
      </trkpt>
      <trkpt lat="45.86809" lon="4.70838">
        <ele>242.79187</ele>
        <time>2023-04-11T12:44:34.000Z</time>
      </trkpt>
      <trkpt lat="45.86813" lon="4.70845">
        <ele>242.72961</ele>
        <time>2023-04-11T12:44:35.000Z</time>
      </trkpt>
      <trkpt lat="45.86815" lon="4.70851">
        <ele>242.68619</ele>
        <time>2023-04-11T12:44:36.000Z</time>
      </trkpt>
      <trkpt lat="45.86818" lon="4.70857">
        <ele>242.61465</ele>
        <time>2023-04-11T12:44:37.000Z</time>
      </trkpt>
      <trkpt lat="45.86821" lon="4.70864">
        <ele>242.48087</ele>
        <time>2023-04-11T12:44:38.000Z</time>
      </trkpt>
      <trkpt lat="45.86824" lon="4.7087">
        <ele>242.36313</ele>
        <time>2023-04-11T12:44:39.000Z</time>
      </trkpt>
      <trkpt lat="45.86827" lon="4.70877">
        <ele>242.19231</ele>
        <time>2023-04-11T12:44:40.000Z</time>
      </trkpt>
      <trkpt lat="45.8683" lon="4.70883">
        <ele>242.00577</ele>
        <time>2023-04-11T12:44:41.000Z</time>
      </trkpt>
      <trkpt lat="45.86833" lon="4.70888">
        <ele>241.82889</ele>
        <time>2023-04-11T12:44:42.000Z</time>
      </trkpt>
      <trkpt lat="45.86835" lon="4.70894">
        <ele>241.66418</ele>
        <time>2023-04-11T12:44:43.000Z</time>
      </trkpt>
      <trkpt lat="45.86837" lon="4.709">
        <ele>241.54175</ele>
        <time>2023-04-11T12:44:44.000Z</time>
      </trkpt>
      <trkpt lat="45.86838" lon="4.70904">
        <ele>241.43356</ele>
        <time>2023-04-11T12:44:45.000Z</time>
      </trkpt>
      <trkpt lat="45.86841" lon="4.7091">
        <ele>241.35176</ele>
        <time>2023-04-11T12:44:46.000Z</time>
      </trkpt>
      <trkpt lat="45.86842" lon="4.70917">
        <ele>241.28003</ele>
        <time>2023-04-11T12:44:47.000Z</time>
      </trkpt>
      <trkpt lat="45.86845" lon="4.70922">
        <ele>241.16597</ele>
        <time>2023-04-11T12:44:48.000Z</time>
      </trkpt>
      <trkpt lat="45.86848" lon="4.70928">
        <ele>241.06421</ele>
        <time>2023-04-11T12:44:49.000Z</time>
      </trkpt>
      <trkpt lat="45.86851" lon="4.70933">
        <ele>240.94693</ele>
        <time>2023-04-11T12:44:50.000Z</time>
      </trkpt>
      <trkpt lat="45.86854" lon="4.70939">
        <ele>240.82014</ele>
        <time>2023-04-11T12:44:51.000Z</time>
      </trkpt>
      <trkpt lat="45.86854" lon="4.70943">
        <ele>240.71432</ele>
        <time>2023-04-11T12:44:52.000Z</time>
      </trkpt>
      <trkpt lat="45.86856" lon="4.70948">
        <ele>240.5907</ele>
        <time>2023-04-11T12:44:53.000Z</time>
      </trkpt>
      <trkpt lat="45.8686" lon="4.70953">
        <ele>240.50996</ele>
        <time>2023-04-11T12:44:54.000Z</time>
      </trkpt>
      <trkpt lat="45.86862" lon="4.70958">
        <ele>240.38266</ele>
        <time>2023-04-11T12:44:55.000Z</time>
      </trkpt>
      <trkpt lat="45.86865" lon="4.70964">
        <ele>240.2957</ele>
        <time>2023-04-11T12:44:56.000Z</time>
      </trkpt>
      <trkpt lat="45.86867" lon="4.70969">
        <ele>240.22823</ele>
        <time>2023-04-11T12:44:57.000Z</time>
      </trkpt>
      <trkpt lat="45.86869" lon="4.70974">
        <ele>240.25447</ele>
        <time>2023-04-11T12:44:58.000Z</time>
      </trkpt>
      <trkpt lat="45.86871" lon="4.7098">
        <ele>240.27966</ele>
        <time>2023-04-11T12:44:59.000Z</time>
      </trkpt>
      <trkpt lat="45.86871" lon="4.70986">
        <ele>240.35371</ele>
        <time>2023-04-11T12:45:00.000Z</time>
      </trkpt>
      <trkpt lat="45.86871" lon="4.70992">
        <ele>240.43344</ele>
        <time>2023-04-11T12:45:01.000Z</time>
      </trkpt>
      <trkpt lat="45.86872" lon="4.70999">
        <ele>240.48511</ele>
        <time>2023-04-11T12:45:02.000Z</time>
      </trkpt>
      <trkpt lat="45.86872" lon="4.71006">
        <ele>240.53922</ele>
        <time>2023-04-11T12:45:03.000Z</time>
      </trkpt>
      <trkpt lat="45.86873" lon="4.71013">
        <ele>240.58994</ele>
        <time>2023-04-11T12:45:04.000Z</time>
      </trkpt>
      <trkpt lat="45.86874" lon="4.71019">
        <ele>240.5925</ele>
        <time>2023-04-11T12:45:05.000Z</time>
      </trkpt>
      <trkpt lat="45.86875" lon="4.71024">
        <ele>240.56734</ele>
        <time>2023-04-11T12:45:06.000Z</time>
      </trkpt>
      <trkpt lat="45.86875" lon="4.71029">
        <ele>240.51413</ele>
        <time>2023-04-11T12:45:07.000Z</time>
      </trkpt>
      <trkpt lat="45.86875" lon="4.71034">
        <ele>240.50835</ele>
        <time>2023-04-11T12:45:08.000Z</time>
      </trkpt>
      <trkpt lat="45.86875" lon="4.71038">
        <ele>240.50842</ele>
        <time>2023-04-11T12:45:09.000Z</time>
      </trkpt>
      <trkpt lat="45.86876" lon="4.71042">
        <ele>240.51172</ele>
        <time>2023-04-11T12:45:10.000Z</time>
      </trkpt>
      <trkpt lat="45.86877" lon="4.71046">
        <ele>240.49162</ele>
        <time>2023-04-11T12:45:11.000Z</time>
      </trkpt>
      <trkpt lat="45.86879" lon="4.71049">
        <ele>240.44463</ele>
        <time>2023-04-11T12:45:12.000Z</time>
      </trkpt>
      <trkpt lat="45.86881" lon="4.71052">
        <ele>240.40967</ele>
        <time>2023-04-11T12:45:13.000Z</time>
      </trkpt>
      <trkpt lat="45.86883" lon="4.71055">
        <ele>240.40073</ele>
        <time>2023-04-11T12:45:14.000Z</time>
      </trkpt>
      <trkpt lat="45.86885" lon="4.71057">
        <ele>240.46098</ele>
        <time>2023-04-11T12:45:15.000Z</time>
      </trkpt>
      <trkpt lat="45.86888" lon="4.71059">
        <ele>240.43103</ele>
        <time>2023-04-11T12:45:16.000Z</time>
      </trkpt>
      <trkpt lat="45.8689" lon="4.71061">
        <ele>240.39816</ele>
        <time>2023-04-11T12:45:17.000Z</time>
      </trkpt>
      <trkpt lat="45.86892" lon="4.71064">
        <ele>240.3757</ele>
        <time>2023-04-11T12:45:18.000Z</time>
      </trkpt>
      <trkpt lat="45.86892" lon="4.71067">
        <ele>240.37598</ele>
        <time>2023-04-11T12:45:19.000Z</time>
      </trkpt>
      <trkpt lat="45.86892" lon="4.71071">
        <ele>240.36856</ele>
        <time>2023-04-11T12:45:21.000Z</time>
      </trkpt>
      <trkpt lat="45.8689" lon="4.71072">
        <ele>240.35678</ele>
        <time>2023-04-11T12:45:38.000Z</time>
      </trkpt>
      <trkpt lat="45.86888" lon="4.71072">
        <ele>240.41484</ele>
        <time>2023-04-11T12:45:45.000Z</time>
      </trkpt>
      <trkpt lat="45.86886" lon="4.71071">
        <ele>240.34946</ele>
        <time>2023-04-11T12:45:52.000Z</time>
      </trkpt>
      <trkpt lat="45.86883" lon="4.71073">
        <ele>240.30112</ele>
        <time>2023-04-11T12:45:54.000Z</time>
      </trkpt>
      <trkpt lat="45.86881" lon="4.71074">
        <ele>240.30879</ele>
        <time>2023-04-11T12:45:55.000Z</time>
      </trkpt>
      <trkpt lat="45.86879" lon="4.71075">
        <ele>240.30635</ele>
        <time>2023-04-11T12:45:56.000Z</time>
      </trkpt>
      <trkpt lat="45.86877" lon="4.71077">
        <ele>240.33186</ele>
        <time>2023-04-11T12:45:57.000Z</time>
      </trkpt>
      <trkpt lat="45.86875" lon="4.71079">
        <ele>240.39534</ele>
        <time>2023-04-11T12:45:58.000Z</time>
      </trkpt>
      <trkpt lat="45.86873" lon="4.7108">
        <ele>240.44388</ele>
        <time>2023-04-11T12:45:59.000Z</time>
      </trkpt>
      <trkpt lat="45.86871" lon="4.71081">
        <ele>240.524</ele>
        <time>2023-04-11T12:46:00.000Z</time>
      </trkpt>
      <trkpt lat="45.86869" lon="4.71081">
        <ele>240.63345</ele>
        <time>2023-04-11T12:46:01.000Z</time>
      </trkpt>
      <trkpt lat="45.86867" lon="4.71081">
        <ele>240.78381</ele>
        <time>2023-04-11T12:46:02.000Z</time>
      </trkpt>
      <trkpt lat="45.86865" lon="4.71082">
        <ele>240.92331</ele>
        <time>2023-04-11T12:46:04.000Z</time>
      </trkpt>
      <trkpt lat="45.86862" lon="4.71082">
        <ele>241.08504</ele>
        <time>2023-04-11T12:46:33.000Z</time>
      </trkpt>
      <trkpt lat="45.8686" lon="4.71082">
        <ele>241.22685</ele>
        <time>2023-04-11T12:46:34.000Z</time>
      </trkpt>
      <trkpt lat="45.86858" lon="4.71082">
        <ele>241.42529</ele>
        <time>2023-04-11T12:46:35.000Z</time>
      </trkpt>
      <trkpt lat="45.86856" lon="4.71082">
        <ele>241.58911</ele>
        <time>2023-04-11T12:46:36.000Z</time>
      </trkpt>
      <trkpt lat="45.86853" lon="4.71082">
        <ele>241.74258</ele>
        <time>2023-04-11T12:46:37.000Z</time>
      </trkpt>
      <trkpt lat="45.86851" lon="4.71082">
        <ele>241.87314</ele>
        <time>2023-04-11T12:46:38.000Z</time>
      </trkpt>
      <trkpt lat="45.86849" lon="4.71082">
        <ele>241.99515</ele>
        <time>2023-04-11T12:46:39.000Z</time>
      </trkpt>
      <trkpt lat="45.86847" lon="4.71082">
        <ele>242.09212</ele>
        <time>2023-04-11T12:46:40.000Z</time>
      </trkpt>
      <trkpt lat="45.86845" lon="4.71082">
        <ele>242.10957</ele>
        <time>2023-04-11T12:46:41.000Z</time>
      </trkpt>
      <trkpt lat="45.86842" lon="4.71082">
        <ele>242.24258</ele>
        <time>2023-04-11T12:46:43.000Z</time>
      </trkpt>
      <trkpt lat="45.8684" lon="4.71083">
        <ele>242.35757</ele>
        <time>2023-04-11T12:46:44.000Z</time>
      </trkpt>
      <trkpt lat="45.86836" lon="4.71083">
        <ele>242.45732</ele>
        <time>2023-04-11T12:46:46.000Z</time>
      </trkpt>
      <trkpt lat="45.86834" lon="4.71082">
        <ele>242.54288</ele>
        <time>2023-04-11T12:46:47.000Z</time>
      </trkpt>
      <trkpt lat="45.86831" lon="4.71082">
        <ele>242.57686</ele>
        <time>2023-04-11T12:46:48.000Z</time>
      </trkpt>
      <trkpt lat="45.86829" lon="4.71082">
        <ele>242.60947</ele>
        <time>2023-04-11T12:46:49.000Z</time>
      </trkpt>
      <trkpt lat="45.86827" lon="4.71081">
        <ele>242.66104</ele>
        <time>2023-04-11T12:46:50.000Z</time>
      </trkpt>
      <trkpt lat="45.86824" lon="4.71082">
        <ele>242.67415</ele>
        <time>2023-04-11T12:46:51.000Z</time>
      </trkpt>
      <trkpt lat="45.86822" lon="4.71082">
        <ele>242.6813</ele>
        <time>2023-04-11T12:46:52.000Z</time>
      </trkpt>
      <trkpt lat="45.8682" lon="4.7108">
        <ele>242.64438</ele>
        <time>2023-04-11T12:47:07.000Z</time>
      </trkpt>
      <trkpt lat="45.86818" lon="4.71078">
        <ele>242.61905</ele>
        <time>2023-04-11T12:47:09.000Z</time>
      </trkpt>
      <trkpt lat="45.86816" lon="4.71077">
        <ele>242.53633</ele>
        <time>2023-04-11T12:47:10.000Z</time>
      </trkpt>
      <trkpt lat="45.86814" lon="4.71077">
        <ele>242.48276</ele>
        <time>2023-04-11T12:47:11.000Z</time>
      </trkpt>
      <trkpt lat="45.86812" lon="4.71078">
        <ele>242.41724</ele>
        <time>2023-04-11T12:47:12.000Z</time>
      </trkpt>
      <trkpt lat="45.8681" lon="4.71079">
        <ele>242.3665</ele>
        <time>2023-04-11T12:47:13.000Z</time>
      </trkpt>
      <trkpt lat="45.8681" lon="4.71081">
        <ele>242.32816</ele>
        <time>2023-04-11T12:47:17.000Z</time>
      </trkpt>
      <trkpt lat="45.86808" lon="4.71083">
        <ele>242.29817</ele>
        <time>2023-04-11T12:47:47.000Z</time>
      </trkpt>
      <trkpt lat="45.86804" lon="4.71084">
        <ele>242.20903</ele>
        <time>2023-04-11T12:47:49.000Z</time>
      </trkpt>
      <trkpt lat="45.86802" lon="4.71084">
        <ele>242.11491</ele>
        <time>2023-04-11T12:47:50.000Z</time>
      </trkpt>
      <trkpt lat="45.86799" lon="4.71084">
        <ele>242.04565</ele>
        <time>2023-04-11T12:47:51.000Z</time>
      </trkpt>
      <trkpt lat="45.86797" lon="4.71083">
        <ele>241.9873</ele>
        <time>2023-04-11T12:47:52.000Z</time>
      </trkpt>
      <trkpt lat="45.86795" lon="4.71083">
        <ele>241.92876</ele>
        <time>2023-04-11T12:47:53.000Z</time>
      </trkpt>
      <trkpt lat="45.86792" lon="4.71083">
        <ele>241.84256</ele>
        <time>2023-04-11T12:47:54.000Z</time>
      </trkpt>
      <trkpt lat="45.8679" lon="4.71082">
        <ele>241.73764</ele>
        <time>2023-04-11T12:47:55.000Z</time>
      </trkpt>
      <trkpt lat="45.86788" lon="4.71082">
        <ele>241.67447</ele>
        <time>2023-04-11T12:47:56.000Z</time>
      </trkpt>
      <trkpt lat="45.86785" lon="4.71082">
        <ele>241.59868</ele>
        <time>2023-04-11T12:47:57.000Z</time>
      </trkpt>
      <trkpt lat="45.86782" lon="4.71082">
        <ele>241.54007</ele>
        <time>2023-04-11T12:47:58.000Z</time>
      </trkpt>
      <trkpt lat="45.86779" lon="4.71082">
        <ele>241.46643</ele>
        <time>2023-04-11T12:47:59.000Z</time>
      </trkpt>
      <trkpt lat="45.86776" lon="4.71081">
        <ele>241.39175</ele>
        <time>2023-04-11T12:48:00.000Z</time>
      </trkpt>
      <trkpt lat="45.86773" lon="4.71081">
        <ele>241.35425</ele>
        <time>2023-04-11T12:48:01.000Z</time>
      </trkpt>
      <trkpt lat="45.8677" lon="4.7108">
        <ele>241.3149</ele>
        <time>2023-04-11T12:48:02.000Z</time>
      </trkpt>
      <trkpt lat="45.86767" lon="4.7108">
        <ele>241.30222</ele>
        <time>2023-04-11T12:48:03.000Z</time>
      </trkpt>
      <trkpt lat="45.86764" lon="4.71079">
        <ele>241.30074</ele>
        <time>2023-04-11T12:48:04.000Z</time>
      </trkpt>
      <trkpt lat="45.86761" lon="4.71078">
        <ele>241.2869</ele>
        <time>2023-04-11T12:48:05.000Z</time>
      </trkpt>
      <trkpt lat="45.86758" lon="4.71078">
        <ele>241.30762</ele>
        <time>2023-04-11T12:48:06.000Z</time>
      </trkpt>
      <trkpt lat="45.86756" lon="4.71077">
        <ele>241.30994</ele>
        <time>2023-04-11T12:48:07.000Z</time>
      </trkpt>
      <trkpt lat="45.86753" lon="4.71076">
        <ele>241.3031</ele>
        <time>2023-04-11T12:48:08.000Z</time>
      </trkpt>
      <trkpt lat="45.86751" lon="4.71076">
        <ele>241.37207</ele>
        <time>2023-04-11T12:48:09.000Z</time>
      </trkpt>
      <trkpt lat="45.86748" lon="4.71075">
        <ele>241.40828</ele>
        <time>2023-04-11T12:48:10.000Z</time>
      </trkpt>
      <trkpt lat="45.86746" lon="4.71074">
        <ele>241.4353</ele>
        <time>2023-04-11T12:48:11.000Z</time>
      </trkpt>
      <trkpt lat="45.86743" lon="4.71072">
        <ele>241.43835</ele>
        <time>2023-04-11T12:48:12.000Z</time>
      </trkpt>
      <trkpt lat="45.8674" lon="4.71071">
        <ele>241.44902</ele>
        <time>2023-04-11T12:48:13.000Z</time>
      </trkpt>
      <trkpt lat="45.86738" lon="4.7107">
        <ele>241.44504</ele>
        <time>2023-04-11T12:48:14.000Z</time>
      </trkpt>
      <trkpt lat="45.86735" lon="4.71069">
        <ele>241.47409</ele>
        <time>2023-04-11T12:48:15.000Z</time>
      </trkpt>
      <trkpt lat="45.86733" lon="4.71068">
        <ele>241.51956</ele>
        <time>2023-04-11T12:48:16.000Z</time>
      </trkpt>
      <trkpt lat="45.8673" lon="4.71067">
        <ele>241.59006</ele>
        <time>2023-04-11T12:48:17.000Z</time>
      </trkpt>
      <trkpt lat="45.86728" lon="4.71066">
        <ele>241.63359</ele>
        <time>2023-04-11T12:48:18.000Z</time>
      </trkpt>
      <trkpt lat="45.86725" lon="4.71065">
        <ele>241.70566</ele>
        <time>2023-04-11T12:48:19.000Z</time>
      </trkpt>
      <trkpt lat="45.86723" lon="4.71063">
        <ele>241.74759</ele>
        <time>2023-04-11T12:48:20.000Z</time>
      </trkpt>
      <trkpt lat="45.8672" lon="4.71061">
        <ele>241.78336</ele>
        <time>2023-04-11T12:48:21.000Z</time>
      </trkpt>
      <trkpt lat="45.86718" lon="4.7106">
        <ele>241.77263</ele>
        <time>2023-04-11T12:48:22.000Z</time>
      </trkpt>
      <trkpt lat="45.86715" lon="4.71058">
        <ele>241.76494</ele>
        <time>2023-04-11T12:48:23.000Z</time>
      </trkpt>
      <trkpt lat="45.86712" lon="4.71057">
        <ele>241.71614</ele>
        <time>2023-04-11T12:48:24.000Z</time>
      </trkpt>
      <trkpt lat="45.8671" lon="4.71056">
        <ele>241.70996</ele>
        <time>2023-04-11T12:48:25.000Z</time>
      </trkpt>
      <trkpt lat="45.86707" lon="4.71055">
        <ele>241.69131</ele>
        <time>2023-04-11T12:48:26.000Z</time>
      </trkpt>
      <trkpt lat="45.86704" lon="4.71054">
        <ele>241.68571</ele>
        <time>2023-04-11T12:48:27.000Z</time>
      </trkpt>
      <trkpt lat="45.86701" lon="4.71052">
        <ele>241.66304</ele>
        <time>2023-04-11T12:48:28.000Z</time>
      </trkpt>
      <trkpt lat="45.86698" lon="4.71051">
        <ele>241.60196</ele>
        <time>2023-04-11T12:48:29.000Z</time>
      </trkpt>
      <trkpt lat="45.86695" lon="4.7105">
        <ele>241.58679</ele>
        <time>2023-04-11T12:48:30.000Z</time>
      </trkpt>
      <trkpt lat="45.86692" lon="4.71048">
        <ele>241.54825</ele>
        <time>2023-04-11T12:48:31.000Z</time>
      </trkpt>
      <trkpt lat="45.86689" lon="4.71047">
        <ele>241.51938</ele>
        <time>2023-04-11T12:48:32.000Z</time>
      </trkpt>
      <trkpt lat="45.86686" lon="4.71046">
        <ele>241.49741</ele>
        <time>2023-04-11T12:48:33.000Z</time>
      </trkpt>
      <trkpt lat="45.86683" lon="4.71045">
        <ele>241.52161</ele>
        <time>2023-04-11T12:48:34.000Z</time>
      </trkpt>
      <trkpt lat="45.8668" lon="4.71043">
        <ele>241.55948</ele>
        <time>2023-04-11T12:48:35.000Z</time>
      </trkpt>
      <trkpt lat="45.86677" lon="4.71042">
        <ele>241.5712</ele>
        <time>2023-04-11T12:48:36.000Z</time>
      </trkpt>
      <trkpt lat="45.86675" lon="4.71041">
        <ele>241.56267</ele>
        <time>2023-04-11T12:48:37.000Z</time>
      </trkpt>
      <trkpt lat="45.86672" lon="4.7104">
        <ele>241.58398</ele>
        <time>2023-04-11T12:48:38.000Z</time>
      </trkpt>
      <trkpt lat="45.86668" lon="4.71039">
        <ele>241.57796</ele>
        <time>2023-04-11T12:48:39.000Z</time>
      </trkpt>
      <trkpt lat="45.86665" lon="4.71038">
        <ele>241.59903</ele>
        <time>2023-04-11T12:48:40.000Z</time>
      </trkpt>
      <trkpt lat="45.86662" lon="4.71037">
        <ele>241.64751</ele>
        <time>2023-04-11T12:48:41.000Z</time>
      </trkpt>
      <trkpt lat="45.86659" lon="4.71036">
        <ele>241.72212</ele>
        <time>2023-04-11T12:48:42.000Z</time>
      </trkpt>
      <trkpt lat="45.86656" lon="4.71035">
        <ele>241.79538</ele>
        <time>2023-04-11T12:48:43.000Z</time>
      </trkpt>
      <trkpt lat="45.86653" lon="4.71034">
        <ele>241.88843</ele>
        <time>2023-04-11T12:48:44.000Z</time>
      </trkpt>
      <trkpt lat="45.8665" lon="4.71032">
        <ele>241.94638</ele>
        <time>2023-04-11T12:48:45.000Z</time>
      </trkpt>
      <trkpt lat="45.86647" lon="4.71031">
        <ele>241.97739</ele>
        <time>2023-04-11T12:48:46.000Z</time>
      </trkpt>
      <trkpt lat="45.86644" lon="4.71029">
        <ele>241.96257</ele>
        <time>2023-04-11T12:48:47.000Z</time>
      </trkpt>
      <trkpt lat="45.86641" lon="4.71028">
        <ele>241.97075</ele>
        <time>2023-04-11T12:48:48.000Z</time>
      </trkpt>
      <trkpt lat="45.86638" lon="4.71026">
        <ele>241.99573</ele>
        <time>2023-04-11T12:48:49.000Z</time>
      </trkpt>
      <trkpt lat="45.86635" lon="4.71025">
        <ele>241.99712</ele>
        <time>2023-04-11T12:48:50.000Z</time>
      </trkpt>
      <trkpt lat="45.86632" lon="4.71024">
        <ele>242.04208</ele>
        <time>2023-04-11T12:48:51.000Z</time>
      </trkpt>
      <trkpt lat="45.86629" lon="4.71022">
        <ele>242.05338</ele>
        <time>2023-04-11T12:48:52.000Z</time>
      </trkpt>
      <trkpt lat="45.86626" lon="4.71021">
        <ele>242.09041</ele>
        <time>2023-04-11T12:48:53.000Z</time>
      </trkpt>
      <trkpt lat="45.86623" lon="4.71019">
        <ele>242.07988</ele>
        <time>2023-04-11T12:48:54.000Z</time>
      </trkpt>
      <trkpt lat="45.8662" lon="4.71018">
        <ele>242.04941</ele>
        <time>2023-04-11T12:48:55.000Z</time>
      </trkpt>
      <trkpt lat="45.86618" lon="4.71017">
        <ele>242.07053</ele>
        <time>2023-04-11T12:48:56.000Z</time>
      </trkpt>
      <trkpt lat="45.86615" lon="4.71015">
        <ele>242.07779</ele>
        <time>2023-04-11T12:48:57.000Z</time>
      </trkpt>
      <trkpt lat="45.86612" lon="4.71014">
        <ele>242.03708</ele>
        <time>2023-04-11T12:48:58.000Z</time>
      </trkpt>
      <trkpt lat="45.86609" lon="4.71012">
        <ele>242.03731</ele>
        <time>2023-04-11T12:48:59.000Z</time>
      </trkpt>
      <trkpt lat="45.86605" lon="4.71011">
        <ele>242.0789</ele>
        <time>2023-04-11T12:49:00.000Z</time>
      </trkpt>
      <trkpt lat="45.86602" lon="4.7101">
        <ele>242.0778</ele>
        <time>2023-04-11T12:49:01.000Z</time>
      </trkpt>
      <trkpt lat="45.86599" lon="4.71008">
        <ele>242.10674</ele>
        <time>2023-04-11T12:49:02.000Z</time>
      </trkpt>
      <trkpt lat="45.86596" lon="4.71006">
        <ele>242.09903</ele>
        <time>2023-04-11T12:49:03.000Z</time>
      </trkpt>
      <trkpt lat="45.86593" lon="4.71005">
        <ele>242.08562</ele>
        <time>2023-04-11T12:49:04.000Z</time>
      </trkpt>
      <trkpt lat="45.8659" lon="4.71004">
        <ele>242.07767</ele>
        <time>2023-04-11T12:49:05.000Z</time>
      </trkpt>
      <trkpt lat="45.86586" lon="4.71003">
        <ele>242.08736</ele>
        <time>2023-04-11T12:49:06.000Z</time>
      </trkpt>
      <trkpt lat="45.86583" lon="4.71002">
        <ele>242.09956</ele>
        <time>2023-04-11T12:49:07.000Z</time>
      </trkpt>
      <trkpt lat="45.86579" lon="4.71001">
        <ele>242.09903</ele>
        <time>2023-04-11T12:49:08.000Z</time>
      </trkpt>
      <trkpt lat="45.86575" lon="4.71">
        <ele>242.12051</ele>
        <time>2023-04-11T12:49:09.000Z</time>
      </trkpt>
      <trkpt lat="45.86572" lon="4.71">
        <ele>242.14233</ele>
        <time>2023-04-11T12:49:10.000Z</time>
      </trkpt>
      <trkpt lat="45.86569" lon="4.70999">
        <ele>242.15463</ele>
        <time>2023-04-11T12:49:11.000Z</time>
      </trkpt>
      <trkpt lat="45.86565" lon="4.70997">
        <ele>242.21341</ele>
        <time>2023-04-11T12:49:12.000Z</time>
      </trkpt>
      <trkpt lat="45.86562" lon="4.70996">
        <ele>242.23715</ele>
        <time>2023-04-11T12:49:13.000Z</time>
      </trkpt>
      <trkpt lat="45.86558" lon="4.70994">
        <ele>242.29941</ele>
        <time>2023-04-11T12:49:14.000Z</time>
      </trkpt>
      <trkpt lat="45.86554" lon="4.70993">
        <ele>242.3763</ele>
        <time>2023-04-11T12:49:15.000Z</time>
      </trkpt>
      <trkpt lat="45.8655" lon="4.70992">
        <ele>242.4091</ele>
        <time>2023-04-11T12:49:16.000Z</time>
      </trkpt>
      <trkpt lat="45.86546" lon="4.70991">
        <ele>242.45712</ele>
        <time>2023-04-11T12:49:17.000Z</time>
      </trkpt>
      <trkpt lat="45.86543" lon="4.7099">
        <ele>242.52544</ele>
        <time>2023-04-11T12:49:18.000Z</time>
      </trkpt>
      <trkpt lat="45.86539" lon="4.7099">
        <ele>242.56924</ele>
        <time>2023-04-11T12:49:19.000Z</time>
      </trkpt>
      <trkpt lat="45.86536" lon="4.7099">
        <ele>242.58499</ele>
        <time>2023-04-11T12:49:20.000Z</time>
      </trkpt>
      <trkpt lat="45.86532" lon="4.7099">
        <ele>242.61404</ele>
        <time>2023-04-11T12:49:21.000Z</time>
      </trkpt>
      <trkpt lat="45.86528" lon="4.70989">
        <ele>242.61931</ele>
        <time>2023-04-11T12:49:22.000Z</time>
      </trkpt>
      <trkpt lat="45.86525" lon="4.70989">
        <ele>242.65511</ele>
        <time>2023-04-11T12:49:23.000Z</time>
      </trkpt>
      <trkpt lat="45.86521" lon="4.70989">
        <ele>242.70447</ele>
        <time>2023-04-11T12:49:24.000Z</time>
      </trkpt>
      <trkpt lat="45.86517" lon="4.70988">
        <ele>242.76505</ele>
        <time>2023-04-11T12:49:25.000Z</time>
      </trkpt>
      <trkpt lat="45.86514" lon="4.70988">
        <ele>242.83537</ele>
        <time>2023-04-11T12:49:26.000Z</time>
      </trkpt>
      <trkpt lat="45.8651" lon="4.70988">
        <ele>242.93913</ele>
        <time>2023-04-11T12:49:27.000Z</time>
      </trkpt>
      <trkpt lat="45.86507" lon="4.70988">
        <ele>243.04207</ele>
        <time>2023-04-11T12:49:28.000Z</time>
      </trkpt>
      <trkpt lat="45.86503" lon="4.70988">
        <ele>243.12973</ele>
        <time>2023-04-11T12:49:29.000Z</time>
      </trkpt>
      <trkpt lat="45.86499" lon="4.70987">
        <ele>243.23755</ele>
        <time>2023-04-11T12:49:30.000Z</time>
      </trkpt>
      <trkpt lat="45.86496" lon="4.70987">
        <ele>243.35266</ele>
        <time>2023-04-11T12:49:31.000Z</time>
      </trkpt>
      <trkpt lat="45.86493" lon="4.70987">
        <ele>243.44836</ele>
        <time>2023-04-11T12:49:32.000Z</time>
      </trkpt>
      <trkpt lat="45.8649" lon="4.70987">
        <ele>243.54341</ele>
        <time>2023-04-11T12:49:33.000Z</time>
      </trkpt>
      <trkpt lat="45.86488" lon="4.70987">
        <ele>243.62566</ele>
        <time>2023-04-11T12:49:34.000Z</time>
      </trkpt>
      <trkpt lat="45.86486" lon="4.70986">
        <ele>243.68839</ele>
        <time>2023-04-11T12:49:35.000Z</time>
      </trkpt>
      <trkpt lat="45.86484" lon="4.70985">
        <ele>243.7522</ele>
        <time>2023-04-11T12:49:36.000Z</time>
      </trkpt>
      <trkpt lat="45.86481" lon="4.70985">
        <ele>243.84277</ele>
        <time>2023-04-11T12:49:37.000Z</time>
      </trkpt>
      <trkpt lat="45.86479" lon="4.70984">
        <ele>243.93013</ele>
        <time>2023-04-11T12:49:38.000Z</time>
      </trkpt>
      <trkpt lat="45.86477" lon="4.70984">
        <ele>244.0228</ele>
        <time>2023-04-11T12:49:39.000Z</time>
      </trkpt>
      <trkpt lat="45.86474" lon="4.70984">
        <ele>244.09428</ele>
        <time>2023-04-11T12:49:41.000Z</time>
      </trkpt>
      <trkpt lat="45.86471" lon="4.70983">
        <ele>244.18681</ele>
        <time>2023-04-11T12:49:43.000Z</time>
      </trkpt>
      <trkpt lat="45.86468" lon="4.70982">
        <ele>244.27824</ele>
        <time>2023-04-11T12:49:45.000Z</time>
      </trkpt>
      <trkpt lat="45.86467" lon="4.7098">
        <ele>244.38803</ele>
        <time>2023-04-11T12:51:21.000Z</time>
      </trkpt>
      <trkpt lat="45.86469" lon="4.70981">
        <ele>244.45151</ele>
        <time>2023-04-11T12:51:29.000Z</time>
      </trkpt>
      <trkpt lat="45.86467" lon="4.70983">
        <ele>244.47403</ele>
        <time>2023-04-11T12:52:11.000Z</time>
      </trkpt>
      <trkpt lat="45.86464" lon="4.70983">
        <ele>244.51071</ele>
        <time>2023-04-11T12:52:12.000Z</time>
      </trkpt>
      <trkpt lat="45.86461" lon="4.70983">
        <ele>244.51648</ele>
        <time>2023-04-11T12:52:13.000Z</time>
      </trkpt>
      <trkpt lat="45.86457" lon="4.70983">
        <ele>244.51694</ele>
        <time>2023-04-11T12:52:14.000Z</time>
      </trkpt>
      <trkpt lat="45.86453" lon="4.70984">
        <ele>244.5239</ele>
        <time>2023-04-11T12:52:15.000Z</time>
      </trkpt>
      <trkpt lat="45.8645" lon="4.70984">
        <ele>244.49487</ele>
        <time>2023-04-11T12:52:16.000Z</time>
      </trkpt>
      <trkpt lat="45.86446" lon="4.70984">
        <ele>244.48555</ele>
        <time>2023-04-11T12:52:17.000Z</time>
      </trkpt>
      <trkpt lat="45.86441" lon="4.70985">
        <ele>244.48318</ele>
        <time>2023-04-11T12:52:18.000Z</time>
      </trkpt>
      <trkpt lat="45.86435" lon="4.70985">
        <ele>244.45187</ele>
        <time>2023-04-11T12:52:19.000Z</time>
      </trkpt>
      <trkpt lat="45.86431" lon="4.70987">
        <ele>244.44214</ele>
        <time>2023-04-11T12:52:20.000Z</time>
      </trkpt>
      <trkpt lat="45.86426" lon="4.70989">
        <ele>244.41536</ele>
        <time>2023-04-11T12:52:21.000Z</time>
      </trkpt>
      <trkpt lat="45.86421" lon="4.70993">
        <ele>244.36287</ele>
        <time>2023-04-11T12:52:22.000Z</time>
      </trkpt>
      <trkpt lat="45.86416" lon="4.70995">
        <ele>244.26187</ele>
        <time>2023-04-11T12:52:23.000Z</time>
      </trkpt>
      <trkpt lat="45.86411" lon="4.70997">
        <ele>244.179</ele>
        <time>2023-04-11T12:52:24.000Z</time>
      </trkpt>
      <trkpt lat="45.86406" lon="4.71001">
        <ele>244.09961</ele>
        <time>2023-04-11T12:52:25.000Z</time>
      </trkpt>
      <trkpt lat="45.86401" lon="4.71004">
        <ele>244.03886</ele>
        <time>2023-04-11T12:52:26.000Z</time>
      </trkpt>
      <trkpt lat="45.86396" lon="4.71007">
        <ele>243.96317</ele>
        <time>2023-04-11T12:52:27.000Z</time>
      </trkpt>
      <trkpt lat="45.86391" lon="4.71009">
        <ele>243.89615</ele>
        <time>2023-04-11T12:52:28.000Z</time>
      </trkpt>
      <trkpt lat="45.86386" lon="4.71012">
        <ele>243.82327</ele>
        <time>2023-04-11T12:52:29.000Z</time>
      </trkpt>
      <trkpt lat="45.86382" lon="4.71014">
        <ele>243.7684</ele>
        <time>2023-04-11T12:52:30.000Z</time>
      </trkpt>
      <trkpt lat="45.86378" lon="4.71018">
        <ele>243.74751</ele>
        <time>2023-04-11T12:52:31.000Z</time>
      </trkpt>
      <trkpt lat="45.86373" lon="4.71018">
        <ele>243.69717</ele>
        <time>2023-04-11T12:52:32.000Z</time>
      </trkpt>
      <trkpt lat="45.86369" lon="4.71021">
        <ele>243.66934</ele>
        <time>2023-04-11T12:52:33.000Z</time>
      </trkpt>
      <trkpt lat="45.86365" lon="4.71023">
        <ele>243.62875</ele>
        <time>2023-04-11T12:52:34.000Z</time>
      </trkpt>
      <trkpt lat="45.8636" lon="4.71024">
        <ele>243.60135</ele>
        <time>2023-04-11T12:52:35.000Z</time>
      </trkpt>
      <trkpt lat="45.86356" lon="4.71026">
        <ele>243.61206</ele>
        <time>2023-04-11T12:52:36.000Z</time>
      </trkpt>
      <trkpt lat="45.86351" lon="4.71026">
        <ele>243.60367</ele>
        <time>2023-04-11T12:52:37.000Z</time>
      </trkpt>
      <trkpt lat="45.86346" lon="4.71026">
        <ele>243.57878</ele>
        <time>2023-04-11T12:52:38.000Z</time>
      </trkpt>
      <trkpt lat="45.86343" lon="4.71025">
        <ele>243.61877</ele>
        <time>2023-04-11T12:52:39.000Z</time>
      </trkpt>
      <trkpt lat="45.86337" lon="4.71026">
        <ele>243.61685</ele>
        <time>2023-04-11T12:52:40.000Z</time>
      </trkpt>
      <trkpt lat="45.86333" lon="4.71024">
        <ele>243.65849</ele>
        <time>2023-04-11T12:52:41.000Z</time>
      </trkpt>
      <trkpt lat="45.86329" lon="4.71023">
        <ele>243.72214</ele>
        <time>2023-04-11T12:52:42.000Z</time>
      </trkpt>
      <trkpt lat="45.86324" lon="4.71023">
        <ele>243.79907</ele>
        <time>2023-04-11T12:52:43.000Z</time>
      </trkpt>
      <trkpt lat="45.8632" lon="4.71022">
        <ele>243.84656</ele>
        <time>2023-04-11T12:52:44.000Z</time>
      </trkpt>
      <trkpt lat="45.86315" lon="4.71021">
        <ele>243.86967</ele>
        <time>2023-04-11T12:52:45.000Z</time>
      </trkpt>
      <trkpt lat="45.8631" lon="4.71022">
        <ele>243.899</ele>
        <time>2023-04-11T12:52:46.000Z</time>
      </trkpt>
      <trkpt lat="45.86306" lon="4.71021">
        <ele>243.91983</ele>
        <time>2023-04-11T12:52:47.000Z</time>
      </trkpt>
      <trkpt lat="45.86302" lon="4.71021">
        <ele>243.92049</ele>
        <time>2023-04-11T12:52:48.000Z</time>
      </trkpt>
      <trkpt lat="45.86297" lon="4.71022">
        <ele>243.90384</ele>
        <time>2023-04-11T12:52:49.000Z</time>
      </trkpt>
      <trkpt lat="45.86293" lon="4.71023">
        <ele>243.8981</ele>
        <time>2023-04-11T12:52:50.000Z</time>
      </trkpt>
      <trkpt lat="45.86288" lon="4.71025">
        <ele>243.91763</ele>
        <time>2023-04-11T12:52:51.000Z</time>
      </trkpt>
      <trkpt lat="45.86284" lon="4.71026">
        <ele>243.92886</ele>
        <time>2023-04-11T12:52:52.000Z</time>
      </trkpt>
      <trkpt lat="45.8628" lon="4.71027">
        <ele>243.94504</ele>
        <time>2023-04-11T12:52:53.000Z</time>
      </trkpt>
      <trkpt lat="45.86276" lon="4.71028">
        <ele>243.98361</ele>
        <time>2023-04-11T12:52:54.000Z</time>
      </trkpt>
      <trkpt lat="45.86272" lon="4.71028">
        <ele>243.96284</ele>
        <time>2023-04-11T12:52:55.000Z</time>
      </trkpt>
      <trkpt lat="45.86267" lon="4.71027">
        <ele>243.96977</ele>
        <time>2023-04-11T12:52:56.000Z</time>
      </trkpt>
      <trkpt lat="45.86262" lon="4.71025">
        <ele>243.98238</ele>
        <time>2023-04-11T12:52:57.000Z</time>
      </trkpt>
      <trkpt lat="45.86259" lon="4.71021">
        <ele>243.97534</ele>
        <time>2023-04-11T12:52:58.000Z</time>
      </trkpt>
      <trkpt lat="45.86256" lon="4.71015">
        <ele>243.96123</ele>
        <time>2023-04-11T12:52:59.000Z</time>
      </trkpt>
      <trkpt lat="45.86252" lon="4.71011">
        <ele>243.97314</ele>
        <time>2023-04-11T12:53:00.000Z</time>
      </trkpt>
      <trkpt lat="45.86248" lon="4.71006">
        <ele>243.94487</ele>
        <time>2023-04-11T12:53:01.000Z</time>
      </trkpt>
      <trkpt lat="45.86244" lon="4.71002">
        <ele>243.91728</ele>
        <time>2023-04-11T12:53:02.000Z</time>
      </trkpt>
      <trkpt lat="45.86241" lon="4.70999">
        <ele>243.89017</ele>
        <time>2023-04-11T12:53:03.000Z</time>
      </trkpt>
      <trkpt lat="45.86237" lon="4.70995">
        <ele>243.86064</ele>
        <time>2023-04-11T12:53:04.000Z</time>
      </trkpt>
      <trkpt lat="45.86233" lon="4.70993">
        <ele>243.80759</ele>
        <time>2023-04-11T12:53:05.000Z</time>
      </trkpt>
      <trkpt lat="45.86229" lon="4.70994">
        <ele>243.7773</ele>
        <time>2023-04-11T12:53:06.000Z</time>
      </trkpt>
      <trkpt lat="45.86225" lon="4.70996">
        <ele>243.71004</ele>
        <time>2023-04-11T12:53:07.000Z</time>
      </trkpt>
      <trkpt lat="45.86222" lon="4.71">
        <ele>243.70256</ele>
        <time>2023-04-11T12:53:08.000Z</time>
      </trkpt>
      <trkpt lat="45.86219" lon="4.71002">
        <ele>243.66609</ele>
        <time>2023-04-11T12:53:09.000Z</time>
      </trkpt>
      <trkpt lat="45.86217" lon="4.71006">
        <ele>243.60941</ele>
        <time>2023-04-11T12:53:10.000Z</time>
      </trkpt>
      <trkpt lat="45.86214" lon="4.71009">
        <ele>243.56967</ele>
        <time>2023-04-11T12:53:11.000Z</time>
      </trkpt>
      <trkpt lat="45.86211" lon="4.71012">
        <ele>243.57072</ele>
        <time>2023-04-11T12:53:12.000Z</time>
      </trkpt>
      <trkpt lat="45.86208" lon="4.71016">
        <ele>243.54672</ele>
        <time>2023-04-11T12:53:13.000Z</time>
      </trkpt>
      <trkpt lat="45.86204" lon="4.7102">
        <ele>243.54495</ele>
        <time>2023-04-11T12:53:14.000Z</time>
      </trkpt>
      <trkpt lat="45.86201" lon="4.71025">
        <ele>243.56339</ele>
        <time>2023-04-11T12:53:15.000Z</time>
      </trkpt>
      <trkpt lat="45.86197" lon="4.71029">
        <ele>243.52084</ele>
        <time>2023-04-11T12:53:16.000Z</time>
      </trkpt>
      <trkpt lat="45.86193" lon="4.71033">
        <ele>243.46152</ele>
        <time>2023-04-11T12:53:17.000Z</time>
      </trkpt>
      <trkpt lat="45.86189" lon="4.71036">
        <ele>243.4772</ele>
        <time>2023-04-11T12:53:18.000Z</time>
      </trkpt>
      <trkpt lat="45.86186" lon="4.71039">
        <ele>243.47549</ele>
        <time>2023-04-11T12:53:19.000Z</time>
      </trkpt>
      <trkpt lat="45.86182" lon="4.71041">
        <ele>243.43576</ele>
        <time>2023-04-11T12:53:20.000Z</time>
      </trkpt>
      <trkpt lat="45.86178" lon="4.71043">
        <ele>243.39583</ele>
        <time>2023-04-11T12:53:21.000Z</time>
      </trkpt>
      <trkpt lat="45.86174" lon="4.71044">
        <ele>243.37407</ele>
        <time>2023-04-11T12:53:22.000Z</time>
      </trkpt>
      <trkpt lat="45.86171" lon="4.71044">
        <ele>243.36914</ele>
        <time>2023-04-11T12:53:23.000Z</time>
      </trkpt>
      <trkpt lat="45.86167" lon="4.71045">
        <ele>243.3647</ele>
        <time>2023-04-11T12:53:24.000Z</time>
      </trkpt>
      <trkpt lat="45.86163" lon="4.71047">
        <ele>243.42813</ele>
        <time>2023-04-11T12:53:25.000Z</time>
      </trkpt>
      <trkpt lat="45.86159" lon="4.71049">
        <ele>243.44666</ele>
        <time>2023-04-11T12:53:26.000Z</time>
      </trkpt>
      <trkpt lat="45.86155" lon="4.7105">
        <ele>243.49661</ele>
        <time>2023-04-11T12:53:27.000Z</time>
      </trkpt>
      <trkpt lat="45.86151" lon="4.71051">
        <ele>243.52202</ele>
        <time>2023-04-11T12:53:28.000Z</time>
      </trkpt>
      <trkpt lat="45.86147" lon="4.71053">
        <ele>243.58467</ele>
        <time>2023-04-11T12:53:29.000Z</time>
      </trkpt>
      <trkpt lat="45.86143" lon="4.71055">
        <ele>243.67928</ele>
        <time>2023-04-11T12:53:30.000Z</time>
      </trkpt>
      <trkpt lat="45.8614" lon="4.71058">
        <ele>243.70291</ele>
        <time>2023-04-11T12:53:31.000Z</time>
      </trkpt>
      <trkpt lat="45.86136" lon="4.71062">
        <ele>243.71663</ele>
        <time>2023-04-11T12:53:32.000Z</time>
      </trkpt>
      <trkpt lat="45.86133" lon="4.71066">
        <ele>243.73181</ele>
        <time>2023-04-11T12:53:33.000Z</time>
      </trkpt>
      <trkpt lat="45.8613" lon="4.71072">
        <ele>243.72192</ele>
        <time>2023-04-11T12:53:34.000Z</time>
      </trkpt>
      <trkpt lat="45.86128" lon="4.71077">
        <ele>243.7485</ele>
        <time>2023-04-11T12:53:35.000Z</time>
      </trkpt>
      <trkpt lat="45.86127" lon="4.71083">
        <ele>243.79208</ele>
        <time>2023-04-11T12:53:36.000Z</time>
      </trkpt>
      <trkpt lat="45.86125" lon="4.7109">
        <ele>243.83826</ele>
        <time>2023-04-11T12:53:37.000Z</time>
      </trkpt>
      <trkpt lat="45.86124" lon="4.71095">
        <ele>243.80899</ele>
        <time>2023-04-11T12:53:38.000Z</time>
      </trkpt>
      <trkpt lat="45.86122" lon="4.711">
        <ele>243.77425</ele>
        <time>2023-04-11T12:53:39.000Z</time>
      </trkpt>
      <trkpt lat="45.8612" lon="4.71106">
        <ele>243.79927</ele>
        <time>2023-04-11T12:53:40.000Z</time>
      </trkpt>
      <trkpt lat="45.86118" lon="4.71111">
        <ele>243.89938</ele>
        <time>2023-04-11T12:53:41.000Z</time>
      </trkpt>
      <trkpt lat="45.86116" lon="4.71116">
        <ele>243.98457</ele>
        <time>2023-04-11T12:53:42.000Z</time>
      </trkpt>
      <trkpt lat="45.86115" lon="4.71121">
        <ele>244.05624</ele>
        <time>2023-04-11T12:53:43.000Z</time>
      </trkpt>
      <trkpt lat="45.8611" lon="4.71125">
        <ele>244.15714</ele>
        <time>2023-04-11T12:53:44.000Z</time>
      </trkpt>
      <trkpt lat="45.86107" lon="4.71128">
        <ele>244.16959</ele>
        <time>2023-04-11T12:53:45.000Z</time>
      </trkpt>
      <trkpt lat="45.86104" lon="4.71132">
        <ele>244.19849</ele>
        <time>2023-04-11T12:53:46.000Z</time>
      </trkpt>
      <trkpt lat="45.86101" lon="4.71136">
        <ele>244.24507</ele>
        <time>2023-04-11T12:53:47.000Z</time>
      </trkpt>
      <trkpt lat="45.86098" lon="4.7114">
        <ele>244.28157</ele>
        <time>2023-04-11T12:53:48.000Z</time>
      </trkpt>
      <trkpt lat="45.86095" lon="4.71143">
        <ele>244.30637</ele>
        <time>2023-04-11T12:53:49.000Z</time>
      </trkpt>
      <trkpt lat="45.86092" lon="4.71141">
        <ele>244.31306</ele>
        <time>2023-04-11T12:53:50.000Z</time>
      </trkpt>
      <trkpt lat="45.86089" lon="4.71141">
        <ele>244.36374</ele>
        <time>2023-04-11T12:53:51.000Z</time>
      </trkpt>
      <trkpt lat="45.86086" lon="4.71139">
        <ele>244.37215</ele>
        <time>2023-04-11T12:53:52.000Z</time>
      </trkpt>
      <trkpt lat="45.86084" lon="4.71139">
        <ele>244.36624</ele>
        <time>2023-04-11T12:53:53.000Z</time>
      </trkpt>
      <trkpt lat="45.86082" lon="4.71138">
        <ele>244.32845</ele>
        <time>2023-04-11T12:53:54.000Z</time>
      </trkpt>
      <trkpt lat="45.86079" lon="4.71135">
        <ele>244.29358</ele>
        <time>2023-04-11T12:53:55.000Z</time>
      </trkpt>
      <trkpt lat="45.86076" lon="4.71131">
        <ele>244.2471</ele>
        <time>2023-04-11T12:53:56.000Z</time>
      </trkpt>
      <trkpt lat="45.86072" lon="4.71129">
        <ele>244.19797</ele>
        <time>2023-04-11T12:53:57.000Z</time>
      </trkpt>
      <trkpt lat="45.86069" lon="4.71126">
        <ele>244.20288</ele>
        <time>2023-04-11T12:53:58.000Z</time>
      </trkpt>
      <trkpt lat="45.86065" lon="4.71122">
        <ele>244.21907</ele>
        <time>2023-04-11T12:53:59.000Z</time>
      </trkpt>
      <trkpt lat="45.86062" lon="4.71119">
        <ele>244.21738</ele>
        <time>2023-04-11T12:54:00.000Z</time>
      </trkpt>
      <trkpt lat="45.86059" lon="4.71115">
        <ele>244.16377</ele>
        <time>2023-04-11T12:54:01.000Z</time>
      </trkpt>
      <trkpt lat="45.86056" lon="4.7111">
        <ele>244.10872</ele>
        <time>2023-04-11T12:54:02.000Z</time>
      </trkpt>
      <trkpt lat="45.86053" lon="4.71106">
        <ele>244.06966</ele>
        <time>2023-04-11T12:54:03.000Z</time>
      </trkpt>
      <trkpt lat="45.8605" lon="4.71101">
        <ele>244.02441</ele>
        <time>2023-04-11T12:54:04.000Z</time>
      </trkpt>
      <trkpt lat="45.86048" lon="4.71096">
        <ele>244.0247</ele>
        <time>2023-04-11T12:54:05.000Z</time>
      </trkpt>
      <trkpt lat="45.86045" lon="4.71091">
        <ele>244.03069</ele>
        <time>2023-04-11T12:54:06.000Z</time>
      </trkpt>
      <trkpt lat="45.86043" lon="4.71085">
        <ele>244.05473</ele>
        <time>2023-04-11T12:54:07.000Z</time>
      </trkpt>
      <trkpt lat="45.86041" lon="4.7108">
        <ele>244.05374</ele>
        <time>2023-04-11T12:54:08.000Z</time>
      </trkpt>
      <trkpt lat="45.86039" lon="4.71075">
        <ele>244.07947</ele>
        <time>2023-04-11T12:54:09.000Z</time>
      </trkpt>
      <trkpt lat="45.86038" lon="4.71069">
        <ele>244.09177</ele>
        <time>2023-04-11T12:54:10.000Z</time>
      </trkpt>
      <trkpt lat="45.86036" lon="4.7106">
        <ele>244.12598</ele>
        <time>2023-04-11T12:54:11.000Z</time>
      </trkpt>
      <trkpt lat="45.86036" lon="4.71054">
        <ele>244.20728</ele>
        <time>2023-04-11T12:54:12.000Z</time>
      </trkpt>
      <trkpt lat="45.86035" lon="4.71048">
        <ele>244.30774</ele>
        <time>2023-04-11T12:54:13.000Z</time>
      </trkpt>
      <trkpt lat="45.86035" lon="4.71044">
        <ele>244.42398</ele>
        <time>2023-04-11T12:54:14.000Z</time>
      </trkpt>
      <trkpt lat="45.86034" lon="4.71037">
        <ele>244.54541</ele>
        <time>2023-04-11T12:54:15.000Z</time>
      </trkpt>
      <trkpt lat="45.86032" lon="4.71031">
        <ele>244.69858</ele>
        <time>2023-04-11T12:54:16.000Z</time>
      </trkpt>
      <trkpt lat="45.8603" lon="4.71025">
        <ele>244.86459</ele>
        <time>2023-04-11T12:54:17.000Z</time>
      </trkpt>
      <trkpt lat="45.86027" lon="4.7102">
        <ele>244.9852</ele>
        <time>2023-04-11T12:54:18.000Z</time>
      </trkpt>
      <trkpt lat="45.86024" lon="4.71016">
        <ele>245.06157</ele>
        <time>2023-04-11T12:54:19.000Z</time>
      </trkpt>
      <trkpt lat="45.86021" lon="4.71011">
        <ele>245.15034</ele>
        <time>2023-04-11T12:54:20.000Z</time>
      </trkpt>
      <trkpt lat="45.86017" lon="4.71005">
        <ele>245.25215</ele>
        <time>2023-04-11T12:54:21.000Z</time>
      </trkpt>
      <trkpt lat="45.86014" lon="4.71">
        <ele>245.32471</ele>
        <time>2023-04-11T12:54:22.000Z</time>
      </trkpt>
      <trkpt lat="45.86011" lon="4.70994">
        <ele>245.34448</ele>
        <time>2023-04-11T12:54:23.000Z</time>
      </trkpt>
      <trkpt lat="45.86006" lon="4.7099">
        <ele>245.34656</ele>
        <time>2023-04-11T12:54:24.000Z</time>
      </trkpt>
      <trkpt lat="45.86002" lon="4.70985">
        <ele>245.3793</ele>
        <time>2023-04-11T12:54:25.000Z</time>
      </trkpt>
      <trkpt lat="45.85997" lon="4.70982">
        <ele>245.40373</ele>
        <time>2023-04-11T12:54:26.000Z</time>
      </trkpt>
      <trkpt lat="45.85993" lon="4.7098">
        <ele>245.39885</ele>
        <time>2023-04-11T12:54:27.000Z</time>
      </trkpt>
      <trkpt lat="45.85989" lon="4.70977">
        <ele>245.41069</ele>
        <time>2023-04-11T12:54:28.000Z</time>
      </trkpt>
      <trkpt lat="45.85984" lon="4.70975">
        <ele>245.49077</ele>
        <time>2023-04-11T12:54:29.000Z</time>
      </trkpt>
      <trkpt lat="45.85978" lon="4.70973">
        <ele>245.59036</ele>
        <time>2023-04-11T12:54:30.000Z</time>
      </trkpt>
      <trkpt lat="45.85973" lon="4.70972">
        <ele>245.64566</ele>
        <time>2023-04-11T12:54:31.000Z</time>
      </trkpt>
      <trkpt lat="45.85969" lon="4.7097">
        <ele>245.67131</ele>
        <time>2023-04-11T12:54:32.000Z</time>
      </trkpt>
      <trkpt lat="45.85964" lon="4.7097">
        <ele>245.6965</ele>
        <time>2023-04-11T12:54:33.000Z</time>
      </trkpt>
      <trkpt lat="45.85959" lon="4.70968">
        <ele>245.75293</ele>
        <time>2023-04-11T12:54:34.000Z</time>
      </trkpt>
      <trkpt lat="45.85954" lon="4.70967">
        <ele>245.77148</ele>
        <time>2023-04-11T12:54:35.000Z</time>
      </trkpt>
      <trkpt lat="45.85949" lon="4.70968">
        <ele>245.73001</ele>
        <time>2023-04-11T12:54:36.000Z</time>
      </trkpt>
      <trkpt lat="45.85944" lon="4.70968">
        <ele>245.68753</ele>
        <time>2023-04-11T12:54:37.000Z</time>
      </trkpt>
      <trkpt lat="45.8594" lon="4.70968">
        <ele>245.67139</ele>
        <time>2023-04-11T12:54:38.000Z</time>
      </trkpt>
      <trkpt lat="45.85935" lon="4.7097">
        <ele>245.68379</ele>
        <time>2023-04-11T12:54:39.000Z</time>
      </trkpt>
      <trkpt lat="45.85931" lon="4.7097">
        <ele>245.67154</ele>
        <time>2023-04-11T12:54:40.000Z</time>
      </trkpt>
      <trkpt lat="45.85926" lon="4.70973">
        <ele>245.67493</ele>
        <time>2023-04-11T12:54:41.000Z</time>
      </trkpt>
      <trkpt lat="45.85922" lon="4.70976">
        <ele>245.73103</ele>
        <time>2023-04-11T12:54:42.000Z</time>
      </trkpt>
      <trkpt lat="45.85918" lon="4.70979">
        <ele>245.82527</ele>
        <time>2023-04-11T12:54:43.000Z</time>
      </trkpt>
      <trkpt lat="45.85915" lon="4.70983">
        <ele>245.94267</ele>
        <time>2023-04-11T12:54:44.000Z</time>
      </trkpt>
      <trkpt lat="45.85912" lon="4.70987">
        <ele>246.03702</ele>
        <time>2023-04-11T12:54:45.000Z</time>
      </trkpt>
      <trkpt lat="45.85908" lon="4.70992">
        <ele>246.13501</ele>
        <time>2023-04-11T12:54:46.000Z</time>
      </trkpt>
      <trkpt lat="45.85904" lon="4.70995">
        <ele>246.27664</ele>
        <time>2023-04-11T12:54:47.000Z</time>
      </trkpt>
      <trkpt lat="45.859" lon="4.70998">
        <ele>246.38684</ele>
        <time>2023-04-11T12:54:48.000Z</time>
      </trkpt>
      <trkpt lat="45.85897" lon="4.71003">
        <ele>246.4178</ele>
        <time>2023-04-11T12:54:49.000Z</time>
      </trkpt>
      <trkpt lat="45.85894" lon="4.71007">
        <ele>246.47754</ele>
        <time>2023-04-11T12:54:50.000Z</time>
      </trkpt>
      <trkpt lat="45.85891" lon="4.7101">
        <ele>246.52388</ele>
        <time>2023-04-11T12:54:51.000Z</time>
      </trkpt>
      <trkpt lat="45.85888" lon="4.71015">
        <ele>246.58215</ele>
        <time>2023-04-11T12:54:52.000Z</time>
      </trkpt>
      <trkpt lat="45.85884" lon="4.71019">
        <ele>246.64485</ele>
        <time>2023-04-11T12:54:53.000Z</time>
      </trkpt>
      <trkpt lat="45.8588" lon="4.71024">
        <ele>246.69626</ele>
        <time>2023-04-11T12:54:54.000Z</time>
      </trkpt>
      <trkpt lat="45.85876" lon="4.71028">
        <ele>246.74968</ele>
        <time>2023-04-11T12:54:55.000Z</time>
      </trkpt>
      <trkpt lat="45.85872" lon="4.71032">
        <ele>246.84209</ele>
        <time>2023-04-11T12:54:56.000Z</time>
      </trkpt>
      <trkpt lat="45.85869" lon="4.71037">
        <ele>246.91939</ele>
        <time>2023-04-11T12:54:57.000Z</time>
      </trkpt>
      <trkpt lat="45.85865" lon="4.71042">
        <ele>247.01013</ele>
        <time>2023-04-11T12:54:58.000Z</time>
      </trkpt>
      <trkpt lat="45.85862" lon="4.71047">
        <ele>247.11526</ele>
        <time>2023-04-11T12:54:59.000Z</time>
      </trkpt>
      <trkpt lat="45.85859" lon="4.7105">
        <ele>247.1991</ele>
        <time>2023-04-11T12:55:00.000Z</time>
      </trkpt>
      <trkpt lat="45.85856" lon="4.71055">
        <ele>247.25667</ele>
        <time>2023-04-11T12:55:01.000Z</time>
      </trkpt>
      <trkpt lat="45.85853" lon="4.71059">
        <ele>247.30208</ele>
        <time>2023-04-11T12:55:02.000Z</time>
      </trkpt>
      <trkpt lat="45.85849" lon="4.71064">
        <ele>247.32793</ele>
        <time>2023-04-11T12:55:03.000Z</time>
      </trkpt>
      <trkpt lat="45.85846" lon="4.71069">
        <ele>247.33859</ele>
        <time>2023-04-11T12:55:04.000Z</time>
      </trkpt>
      <trkpt lat="45.85843" lon="4.71074">
        <ele>247.33972</ele>
        <time>2023-04-11T12:55:05.000Z</time>
      </trkpt>
      <trkpt lat="45.8584" lon="4.71079">
        <ele>247.33186</ele>
        <time>2023-04-11T12:55:06.000Z</time>
      </trkpt>
      <trkpt lat="45.85836" lon="4.71083">
        <ele>247.27397</ele>
        <time>2023-04-11T12:55:07.000Z</time>
      </trkpt>
      <trkpt lat="45.85833" lon="4.71088">
        <ele>247.24667</ele>
        <time>2023-04-11T12:55:08.000Z</time>
      </trkpt>
      <trkpt lat="45.8583" lon="4.71094">
        <ele>247.18221</ele>
        <time>2023-04-11T12:55:09.000Z</time>
      </trkpt>
      <trkpt lat="45.85827" lon="4.71099">
        <ele>247.10397</ele>
        <time>2023-04-11T12:55:10.000Z</time>
      </trkpt>
      <trkpt lat="45.85824" lon="4.71103">
        <ele>247.05327</ele>
        <time>2023-04-11T12:55:11.000Z</time>
      </trkpt>
      <trkpt lat="45.85821" lon="4.71108">
        <ele>247.00874</ele>
        <time>2023-04-11T12:55:12.000Z</time>
      </trkpt>
      <trkpt lat="45.85818" lon="4.71113">
        <ele>246.95992</ele>
        <time>2023-04-11T12:55:13.000Z</time>
      </trkpt>
      <trkpt lat="45.85816" lon="4.71117">
        <ele>246.93449</ele>
        <time>2023-04-11T12:55:14.000Z</time>
      </trkpt>
      <trkpt lat="45.85813" lon="4.71121">
        <ele>246.91098</ele>
        <time>2023-04-11T12:55:15.000Z</time>
      </trkpt>
      <trkpt lat="45.8581" lon="4.71125">
        <ele>246.89116</ele>
        <time>2023-04-11T12:55:16.000Z</time>
      </trkpt>
      <trkpt lat="45.85809" lon="4.7113">
        <ele>246.90005</ele>
        <time>2023-04-11T12:55:17.000Z</time>
      </trkpt>
      <trkpt lat="45.85807" lon="4.71135">
        <ele>246.90384</ele>
        <time>2023-04-11T12:55:18.000Z</time>
      </trkpt>
      <trkpt lat="45.85806" lon="4.71138">
        <ele>246.89819</ele>
        <time>2023-04-11T12:55:19.000Z</time>
      </trkpt>
      <trkpt lat="45.85803" lon="4.71141">
        <ele>246.92574</ele>
        <time>2023-04-11T12:55:20.000Z</time>
      </trkpt>
      <trkpt lat="45.85801" lon="4.71144">
        <ele>246.94003</ele>
        <time>2023-04-11T12:55:21.000Z</time>
      </trkpt>
      <trkpt lat="45.85799" lon="4.71146">
        <ele>246.96196</ele>
        <time>2023-04-11T12:55:22.000Z</time>
      </trkpt>
      <trkpt lat="45.85797" lon="4.71147">
        <ele>246.99817</ele>
        <time>2023-04-11T12:55:23.000Z</time>
      </trkpt>
      <trkpt lat="45.85795" lon="4.71149">
        <ele>247.0394</ele>
        <time>2023-04-11T12:55:24.000Z</time>
      </trkpt>
      <trkpt lat="45.85793" lon="4.71151">
        <ele>247.13078</ele>
        <time>2023-04-11T12:55:26.000Z</time>
      </trkpt>
      <trkpt lat="45.85791" lon="4.71153">
        <ele>247.22116</ele>
        <time>2023-04-11T12:55:27.000Z</time>
      </trkpt>
      <trkpt lat="45.85789" lon="4.71154">
        <ele>247.2874</ele>
        <time>2023-04-11T12:55:28.000Z</time>
      </trkpt>
      <trkpt lat="45.85788" lon="4.71156">
        <ele>247.37727</ele>
        <time>2023-04-11T12:55:29.000Z</time>
      </trkpt>
      <trkpt lat="45.85786" lon="4.71158">
        <ele>247.50131</ele>
        <time>2023-04-11T12:55:30.000Z</time>
      </trkpt>
      <trkpt lat="45.85784" lon="4.71162">
        <ele>247.61836</ele>
        <time>2023-04-11T12:55:31.000Z</time>
      </trkpt>
      <trkpt lat="45.85783" lon="4.71166">
        <ele>247.70309</ele>
        <time>2023-04-11T12:55:32.000Z</time>
      </trkpt>
      <trkpt lat="45.85782" lon="4.7117">
        <ele>247.77267</ele>
        <time>2023-04-11T12:55:33.000Z</time>
      </trkpt>
      <trkpt lat="45.85782" lon="4.71175">
        <ele>247.8512</ele>
        <time>2023-04-11T12:55:34.000Z</time>
      </trkpt>
      <trkpt lat="45.85781" lon="4.71179">
        <ele>247.90483</ele>
        <time>2023-04-11T12:55:35.000Z</time>
      </trkpt>
      <trkpt lat="45.8578" lon="4.71183">
        <ele>247.96602</ele>
        <time>2023-04-11T12:55:36.000Z</time>
      </trkpt>
      <trkpt lat="45.85779" lon="4.71186">
        <ele>248.02971</ele>
        <time>2023-04-11T12:55:37.000Z</time>
      </trkpt>
      <trkpt lat="45.85779" lon="4.7119">
        <ele>248.06367</ele>
        <time>2023-04-11T12:55:38.000Z</time>
      </trkpt>
      <trkpt lat="45.85778" lon="4.71195">
        <ele>248.05856</ele>
        <time>2023-04-11T12:55:39.000Z</time>
      </trkpt>
      <trkpt lat="45.85777" lon="4.71199">
        <ele>248.05501</ele>
        <time>2023-04-11T12:55:40.000Z</time>
      </trkpt>
      <trkpt lat="45.85775" lon="4.71203">
        <ele>248.02466</ele>
        <time>2023-04-11T12:55:41.000Z</time>
      </trkpt>
      <trkpt lat="45.85774" lon="4.71207">
        <ele>247.99654</ele>
        <time>2023-04-11T12:55:42.000Z</time>
      </trkpt>
      <trkpt lat="45.85772" lon="4.71212">
        <ele>247.97086</ele>
        <time>2023-04-11T12:55:43.000Z</time>
      </trkpt>
      <trkpt lat="45.85771" lon="4.71216">
        <ele>247.96609</ele>
        <time>2023-04-11T12:55:44.000Z</time>
      </trkpt>
      <trkpt lat="45.8577" lon="4.71221">
        <ele>247.96672</ele>
        <time>2023-04-11T12:55:45.000Z</time>
      </trkpt>
      <trkpt lat="45.85769" lon="4.71226">
        <ele>247.92484</ele>
        <time>2023-04-11T12:55:46.000Z</time>
      </trkpt>
      <trkpt lat="45.85768" lon="4.71231">
        <ele>247.91782</ele>
        <time>2023-04-11T12:55:47.000Z</time>
      </trkpt>
      <trkpt lat="45.85766" lon="4.71236">
        <ele>247.92558</ele>
        <time>2023-04-11T12:55:48.000Z</time>
      </trkpt>
      <trkpt lat="45.85765" lon="4.71241">
        <ele>247.90665</ele>
        <time>2023-04-11T12:55:49.000Z</time>
      </trkpt>
      <trkpt lat="45.85764" lon="4.71246">
        <ele>247.8645</ele>
        <time>2023-04-11T12:55:50.000Z</time>
      </trkpt>
      <trkpt lat="45.85762" lon="4.71252">
        <ele>247.77597</ele>
        <time>2023-04-11T12:55:51.000Z</time>
      </trkpt>
      <trkpt lat="45.8576" lon="4.71257">
        <ele>247.68779</ele>
        <time>2023-04-11T12:55:52.000Z</time>
      </trkpt>
      <trkpt lat="45.85758" lon="4.71261">
        <ele>247.65508</ele>
        <time>2023-04-11T12:55:53.000Z</time>
      </trkpt>
      <trkpt lat="45.85757" lon="4.71265">
        <ele>247.61987</ele>
        <time>2023-04-11T12:55:54.000Z</time>
      </trkpt>
      <trkpt lat="45.85756" lon="4.71269">
        <ele>247.5938</ele>
        <time>2023-04-11T12:55:55.000Z</time>
      </trkpt>
      <trkpt lat="45.85754" lon="4.71274">
        <ele>247.54788</ele>
        <time>2023-04-11T12:55:56.000Z</time>
      </trkpt>
      <trkpt lat="45.85753" lon="4.71277">
        <ele>247.44955</ele>
        <time>2023-04-11T12:55:57.000Z</time>
      </trkpt>
      <trkpt lat="45.85751" lon="4.7128">
        <ele>247.33102</ele>
        <time>2023-04-11T12:55:58.000Z</time>
      </trkpt>
      <trkpt lat="45.8575" lon="4.71284">
        <ele>247.26108</ele>
        <time>2023-04-11T12:55:59.000Z</time>
      </trkpt>
      <trkpt lat="45.85749" lon="4.71288">
        <ele>247.17673</ele>
        <time>2023-04-11T12:56:00.000Z</time>
      </trkpt>
      <trkpt lat="45.85748" lon="4.71291">
        <ele>247.11917</ele>
        <time>2023-04-11T12:56:01.000Z</time>
      </trkpt>
      <trkpt lat="45.85746" lon="4.71295">
        <ele>247.06601</ele>
        <time>2023-04-11T12:56:02.000Z</time>
      </trkpt>
      <trkpt lat="45.85743" lon="4.71296">
        <ele>247.00887</ele>
        <time>2023-04-11T12:56:03.000Z</time>
      </trkpt>
      <trkpt lat="45.8574" lon="4.71296">
        <ele>246.95146</ele>
        <time>2023-04-11T12:56:04.000Z</time>
      </trkpt>
      <trkpt lat="45.85738" lon="4.71295">
        <ele>246.93295</ele>
        <time>2023-04-11T12:56:05.000Z</time>
      </trkpt>
      <trkpt lat="45.85735" lon="4.71294">
        <ele>247.0101</ele>
        <time>2023-04-11T12:56:06.000Z</time>
      </trkpt>
      <trkpt lat="45.85733" lon="4.71294">
        <ele>247.03972</ele>
        <time>2023-04-11T12:56:07.000Z</time>
      </trkpt>
      <trkpt lat="45.8573" lon="4.71293">
        <ele>247.12</ele>
        <time>2023-04-11T12:56:08.000Z</time>
      </trkpt>
      <trkpt lat="45.85727" lon="4.71292">
        <ele>247.21062</ele>
        <time>2023-04-11T12:56:09.000Z</time>
      </trkpt>
      <trkpt lat="45.85724" lon="4.71291">
        <ele>247.36377</ele>
        <time>2023-04-11T12:56:10.000Z</time>
      </trkpt>
      <trkpt lat="45.85721" lon="4.7129">
        <ele>247.58911</ele>
        <time>2023-04-11T12:56:11.000Z</time>
      </trkpt>
      <trkpt lat="45.85719" lon="4.7129">
        <ele>247.84921</ele>
        <time>2023-04-11T12:56:12.000Z</time>
      </trkpt>
      <trkpt lat="45.85717" lon="4.71289">
        <ele>248.00874</ele>
        <time>2023-04-11T12:56:13.000Z</time>
      </trkpt>
      <trkpt lat="45.85715" lon="4.71289">
        <ele>248.16919</ele>
        <time>2023-04-11T12:56:14.000Z</time>
      </trkpt>
      <trkpt lat="45.85712" lon="4.71288">
        <ele>248.31152</ele>
        <time>2023-04-11T12:56:15.000Z</time>
      </trkpt>
      <trkpt lat="45.8571" lon="4.71288">
        <ele>248.47653</ele>
        <time>2023-04-11T12:56:16.000Z</time>
      </trkpt>
      <trkpt lat="45.85708" lon="4.71288">
        <ele>248.70686</ele>
        <time>2023-04-11T12:56:17.000Z</time>
      </trkpt>
      <trkpt lat="45.85706" lon="4.71287">
        <ele>248.96774</ele>
        <time>2023-04-11T12:56:18.000Z</time>
      </trkpt>
      <trkpt lat="45.85703" lon="4.71287">
        <ele>249.36661</ele>
        <time>2023-04-11T12:56:19.000Z</time>
      </trkpt>
      <trkpt lat="45.85701" lon="4.71287">
        <ele>249.79007</ele>
        <time>2023-04-11T12:56:20.000Z</time>
      </trkpt>
      <trkpt lat="45.85698" lon="4.71287">
        <ele>250.24492</ele>
        <time>2023-04-11T12:56:21.000Z</time>
      </trkpt>
      <trkpt lat="45.85696" lon="4.71286">
        <ele>250.7325</ele>
        <time>2023-04-11T12:56:22.000Z</time>
      </trkpt>
      <trkpt lat="45.85693" lon="4.71285">
        <ele>251.21872</ele>
        <time>2023-04-11T12:56:23.000Z</time>
      </trkpt>
      <trkpt lat="45.8569" lon="4.71283">
        <ele>251.70694</ele>
        <time>2023-04-11T12:56:24.000Z</time>
      </trkpt>
      <trkpt lat="45.85687" lon="4.71282">
        <ele>252.09842</ele>
        <time>2023-04-11T12:56:25.000Z</time>
      </trkpt>
      <trkpt lat="45.85685" lon="4.7128">
        <ele>252.37712</ele>
        <time>2023-04-11T12:56:26.000Z</time>
      </trkpt>
      <trkpt lat="45.85682" lon="4.71279">
        <ele>252.66074</ele>
        <time>2023-04-11T12:56:27.000Z</time>
      </trkpt>
      <trkpt lat="45.8568" lon="4.71277">
        <ele>252.90828</ele>
        <time>2023-04-11T12:56:28.000Z</time>
      </trkpt>
      <trkpt lat="45.85677" lon="4.71276">
        <ele>253.30673</ele>
        <time>2023-04-11T12:56:29.000Z</time>
      </trkpt>
      <trkpt lat="45.85674" lon="4.71273">
        <ele>253.63423</ele>
        <time>2023-04-11T12:56:30.000Z</time>
      </trkpt>
      <trkpt lat="45.8567" lon="4.71271">
        <ele>253.82959</ele>
        <time>2023-04-11T12:56:31.000Z</time>
      </trkpt>
      <trkpt lat="45.85668" lon="4.71269">
        <ele>253.99805</ele>
        <time>2023-04-11T12:56:32.000Z</time>
      </trkpt>
      <trkpt lat="45.85664" lon="4.71266">
        <ele>254.18645</ele>
        <time>2023-04-11T12:56:33.000Z</time>
      </trkpt>
      <trkpt lat="45.85661" lon="4.71264">
        <ele>254.57173</ele>
        <time>2023-04-11T12:56:34.000Z</time>
      </trkpt>
      <trkpt lat="45.85658" lon="4.71262">
        <ele>254.96426</ele>
        <time>2023-04-11T12:56:35.000Z</time>
      </trkpt>
      <trkpt lat="45.85655" lon="4.7126">
        <ele>255.34644</ele>
        <time>2023-04-11T12:56:36.000Z</time>
      </trkpt>
      <trkpt lat="45.85652" lon="4.71259">
        <ele>255.71179</ele>
        <time>2023-04-11T12:56:37.000Z</time>
      </trkpt>
      <trkpt lat="45.85648" lon="4.71259">
        <ele>256.09982</ele>
        <time>2023-04-11T12:56:38.000Z</time>
      </trkpt>
      <trkpt lat="45.85645" lon="4.71259">
        <ele>256.34769</ele>
        <time>2023-04-11T12:56:39.000Z</time>
      </trkpt>
      <trkpt lat="45.85641" lon="4.7126">
        <ele>256.57019</ele>
        <time>2023-04-11T12:56:40.000Z</time>
      </trkpt>
      <trkpt lat="45.85638" lon="4.71261">
        <ele>256.77991</ele>
        <time>2023-04-11T12:56:41.000Z</time>
      </trkpt>
      <trkpt lat="45.85635" lon="4.71262">
        <ele>256.96603</ele>
        <time>2023-04-11T12:56:42.000Z</time>
      </trkpt>
      <trkpt lat="45.85632" lon="4.71263">
        <ele>257.14658</ele>
        <time>2023-04-11T12:56:43.000Z</time>
      </trkpt>
      <trkpt lat="45.8563" lon="4.71264">
        <ele>257.29242</ele>
        <time>2023-04-11T12:56:44.000Z</time>
      </trkpt>
      <trkpt lat="45.85627" lon="4.71267">
        <ele>257.49747</ele>
        <time>2023-04-11T12:56:45.000Z</time>
      </trkpt>
      <trkpt lat="45.85625" lon="4.7127">
        <ele>257.74261</ele>
        <time>2023-04-11T12:56:46.000Z</time>
      </trkpt>
      <trkpt lat="45.85622" lon="4.71274">
        <ele>257.99063</ele>
        <time>2023-04-11T12:56:47.000Z</time>
      </trkpt>
      <trkpt lat="45.8562" lon="4.71278">
        <ele>258.2518</ele>
        <time>2023-04-11T12:56:48.000Z</time>
      </trkpt>
      <trkpt lat="45.85618" lon="4.71282">
        <ele>258.34863</ele>
        <time>2023-04-11T12:56:49.000Z</time>
      </trkpt>
      <trkpt lat="45.85616" lon="4.71285">
        <ele>258.47247</ele>
        <time>2023-04-11T12:56:50.000Z</time>
      </trkpt>
      <trkpt lat="45.85614" lon="4.71289">
        <ele>258.7088</ele>
        <time>2023-04-11T12:56:51.000Z</time>
      </trkpt>
      <trkpt lat="45.85612" lon="4.71294">
        <ele>258.97198</ele>
        <time>2023-04-11T12:56:52.000Z</time>
      </trkpt>
      <trkpt lat="45.8561" lon="4.71298">
        <ele>259.30084</ele>
        <time>2023-04-11T12:56:53.000Z</time>
      </trkpt>
      <trkpt lat="45.85607" lon="4.71302">
        <ele>259.43552</ele>
        <time>2023-04-11T12:56:54.000Z</time>
      </trkpt>
      <trkpt lat="45.85604" lon="4.71306">
        <ele>259.5896</ele>
        <time>2023-04-11T12:56:55.000Z</time>
      </trkpt>
      <trkpt lat="45.85601" lon="4.71309">
        <ele>259.73325</ele>
        <time>2023-04-11T12:56:56.000Z</time>
      </trkpt>
      <trkpt lat="45.85598" lon="4.71313">
        <ele>259.92075</ele>
        <time>2023-04-11T12:56:57.000Z</time>
      </trkpt>
      <trkpt lat="45.85595" lon="4.71316">
        <ele>260.06219</ele>
        <time>2023-04-11T12:56:58.000Z</time>
      </trkpt>
      <trkpt lat="45.85591" lon="4.71319">
        <ele>260.22601</ele>
        <time>2023-04-11T12:56:59.000Z</time>
      </trkpt>
      <trkpt lat="45.85588" lon="4.71322">
        <ele>260.40137</ele>
        <time>2023-04-11T12:57:00.000Z</time>
      </trkpt>
      <trkpt lat="45.85584" lon="4.71324">
        <ele>260.54047</ele>
        <time>2023-04-11T12:57:01.000Z</time>
      </trkpt>
      <trkpt lat="45.85581" lon="4.71327">
        <ele>260.68036</ele>
        <time>2023-04-11T12:57:02.000Z</time>
      </trkpt>
      <trkpt lat="45.85577" lon="4.71329">
        <ele>260.82751</ele>
        <time>2023-04-11T12:57:03.000Z</time>
      </trkpt>
      <trkpt lat="45.85573" lon="4.71331">
        <ele>260.97968</ele>
        <time>2023-04-11T12:57:04.000Z</time>
      </trkpt>
      <trkpt lat="45.85567" lon="4.71332">
        <ele>261.15594</ele>
        <time>2023-04-11T12:57:05.000Z</time>
      </trkpt>
      <trkpt lat="45.85563" lon="4.71335">
        <ele>261.34589</ele>
        <time>2023-04-11T12:57:06.000Z</time>
      </trkpt>
      <trkpt lat="45.85559" lon="4.71337">
        <ele>261.57303</ele>
        <time>2023-04-11T12:57:07.000Z</time>
      </trkpt>
      <trkpt lat="45.85555" lon="4.71339">
        <ele>261.7872</ele>
        <time>2023-04-11T12:57:08.000Z</time>
      </trkpt>
      <trkpt lat="45.8555" lon="4.71341">
        <ele>262.01068</ele>
        <time>2023-04-11T12:57:09.000Z</time>
      </trkpt>
      <trkpt lat="45.85546" lon="4.71343">
        <ele>262.0795</ele>
        <time>2023-04-11T12:57:10.000Z</time>
      </trkpt>
      <trkpt lat="45.85542" lon="4.71345">
        <ele>262.13995</ele>
        <time>2023-04-11T12:57:11.000Z</time>
      </trkpt>
      <trkpt lat="45.85538" lon="4.71346">
        <ele>262.22485</ele>
        <time>2023-04-11T12:57:12.000Z</time>
      </trkpt>
      <trkpt lat="45.85534" lon="4.71347">
        <ele>262.28217</ele>
        <time>2023-04-11T12:57:13.000Z</time>
      </trkpt>
      <trkpt lat="45.85529" lon="4.71348">
        <ele>262.3537</ele>
        <time>2023-04-11T12:57:14.000Z</time>
      </trkpt>
      <trkpt lat="45.85524" lon="4.7135">
        <ele>262.41916</ele>
        <time>2023-04-11T12:57:15.000Z</time>
      </trkpt>
      <trkpt lat="45.85519" lon="4.71352">
        <ele>262.51862</ele>
        <time>2023-04-11T12:57:16.000Z</time>
      </trkpt>
      <trkpt lat="45.85515" lon="4.71355">
        <ele>262.59918</ele>
        <time>2023-04-11T12:57:17.000Z</time>
      </trkpt>
      <trkpt lat="45.85511" lon="4.71356">
        <ele>262.74115</ele>
        <time>2023-04-11T12:57:18.000Z</time>
      </trkpt>
      <trkpt lat="45.85505" lon="4.71357">
        <ele>262.83728</ele>
        <time>2023-04-11T12:57:19.000Z</time>
      </trkpt>
      <trkpt lat="45.855" lon="4.71359">
        <ele>262.8866</ele>
        <time>2023-04-11T12:57:20.000Z</time>
      </trkpt>
      <trkpt lat="45.85497" lon="4.7136">
        <ele>262.96567</ele>
        <time>2023-04-11T12:57:21.000Z</time>
      </trkpt>
      <trkpt lat="45.85492" lon="4.71362">
        <ele>262.9809</ele>
        <time>2023-04-11T12:57:22.000Z</time>
      </trkpt>
      <trkpt lat="45.85488" lon="4.71363">
        <ele>263.32462</ele>
        <time>2023-04-11T12:57:23.000Z</time>
      </trkpt>
      <trkpt lat="45.85484" lon="4.71364">
        <ele>263.66083</ele>
        <time>2023-04-11T12:57:24.000Z</time>
      </trkpt>
      <trkpt lat="45.8548" lon="4.71366">
        <ele>263.96265</ele>
        <time>2023-04-11T12:57:25.000Z</time>
      </trkpt>
      <trkpt lat="45.85476" lon="4.71369">
        <ele>264.0246</ele>
        <time>2023-04-11T12:57:26.000Z</time>
      </trkpt>
      <trkpt lat="45.85471" lon="4.71371">
        <ele>264.06732</ele>
        <time>2023-04-11T12:57:27.000Z</time>
      </trkpt>
      <trkpt lat="45.85467" lon="4.71372">
        <ele>264.10309</ele>
        <time>2023-04-11T12:57:28.000Z</time>
      </trkpt>
      <trkpt lat="45.85463" lon="4.71375">
        <ele>264.49008</ele>
        <time>2023-04-11T12:57:29.000Z</time>
      </trkpt>
      <trkpt lat="45.85458" lon="4.71378">
        <ele>264.98773</ele>
        <time>2023-04-11T12:57:30.000Z</time>
      </trkpt>
      <trkpt lat="45.85454" lon="4.71382">
        <ele>265.50711</ele>
        <time>2023-04-11T12:57:31.000Z</time>
      </trkpt>
      <trkpt lat="45.8545" lon="4.71385">
        <ele>265.99936</ele>
        <time>2023-04-11T12:57:32.000Z</time>
      </trkpt>
      <trkpt lat="45.85447" lon="4.71388">
        <ele>266.51483</ele>
        <time>2023-04-11T12:57:33.000Z</time>
      </trkpt>
      <trkpt lat="45.85443" lon="4.71391">
        <ele>267.05023</ele>
        <time>2023-04-11T12:57:34.000Z</time>
      </trkpt>
      <trkpt lat="45.85439" lon="4.71394">
        <ele>267.58481</ele>
        <time>2023-04-11T12:57:35.000Z</time>
      </trkpt>
      <trkpt lat="45.85435" lon="4.71397">
        <ele>268.10162</ele>
        <time>2023-04-11T12:57:36.000Z</time>
      </trkpt>
      <trkpt lat="45.85431" lon="4.71399">
        <ele>268.6221</ele>
        <time>2023-04-11T12:57:37.000Z</time>
      </trkpt>
      <trkpt lat="45.85427" lon="4.71402">
        <ele>269.10361</ele>
        <time>2023-04-11T12:57:38.000Z</time>
      </trkpt>
      <trkpt lat="45.85423" lon="4.71406">
        <ele>269.45285</ele>
        <time>2023-04-11T12:57:39.000Z</time>
      </trkpt>
      <trkpt lat="45.85419" lon="4.7141">
        <ele>269.76459</ele>
        <time>2023-04-11T12:57:40.000Z</time>
      </trkpt>
      <trkpt lat="45.85416" lon="4.71414">
        <ele>270.02496</ele>
        <time>2023-04-11T12:57:41.000Z</time>
      </trkpt>
      <trkpt lat="45.85412" lon="4.71417">
        <ele>270.715</ele>
        <time>2023-04-11T12:57:42.000Z</time>
      </trkpt>
      <trkpt lat="45.85408" lon="4.7142">
        <ele>270.98175</ele>
        <time>2023-04-11T12:57:43.000Z</time>
      </trkpt>
      <trkpt lat="45.85404" lon="4.71423">
        <ele>271.28326</ele>
        <time>2023-04-11T12:57:44.000Z</time>
      </trkpt>
      <trkpt lat="45.85401" lon="4.71426">
        <ele>271.5878</ele>
        <time>2023-04-11T12:57:45.000Z</time>
      </trkpt>
      <trkpt lat="45.85397" lon="4.71429">
        <ele>272.08612</ele>
        <time>2023-04-11T12:57:46.000Z</time>
      </trkpt>
      <trkpt lat="45.85393" lon="4.71432">
        <ele>272.5661</ele>
        <time>2023-04-11T12:57:47.000Z</time>
      </trkpt>
      <trkpt lat="45.85388" lon="4.71436">
        <ele>272.90546</ele>
        <time>2023-04-11T12:57:48.000Z</time>
      </trkpt>
      <trkpt lat="45.85384" lon="4.71438">
        <ele>272.8024</ele>
        <time>2023-04-11T12:57:49.000Z</time>
      </trkpt>
      <trkpt lat="45.8538" lon="4.71441">
        <ele>272.69849</ele>
        <time>2023-04-11T12:57:50.000Z</time>
      </trkpt>
      <trkpt lat="45.85377" lon="4.71445">
        <ele>272.96671</ele>
        <time>2023-04-11T12:57:51.000Z</time>
      </trkpt>
      <trkpt lat="45.85373" lon="4.71449">
        <ele>273.1608</ele>
        <time>2023-04-11T12:57:52.000Z</time>
      </trkpt>
      <trkpt lat="45.8537" lon="4.71453">
        <ele>273.33102</ele>
        <time>2023-04-11T12:57:53.000Z</time>
      </trkpt>
      <trkpt lat="45.85366" lon="4.71457">
        <ele>273.4581</ele>
        <time>2023-04-11T12:57:54.000Z</time>
      </trkpt>
      <trkpt lat="45.85363" lon="4.71459">
        <ele>273.60736</ele>
        <time>2023-04-11T12:57:55.000Z</time>
      </trkpt>
      <trkpt lat="45.85359" lon="4.71463">
        <ele>273.75589</ele>
        <time>2023-04-11T12:57:56.000Z</time>
      </trkpt>
      <trkpt lat="45.85355" lon="4.71467">
        <ele>273.90561</ele>
        <time>2023-04-11T12:57:57.000Z</time>
      </trkpt>
      <trkpt lat="45.85352" lon="4.71471">
        <ele>274.04657</ele>
        <time>2023-04-11T12:57:58.000Z</time>
      </trkpt>
      <trkpt lat="45.85348" lon="4.71473">
        <ele>274.19547</ele>
        <time>2023-04-11T12:57:59.000Z</time>
      </trkpt>
      <trkpt lat="45.85344" lon="4.71475">
        <ele>274.33673</ele>
        <time>2023-04-11T12:58:00.000Z</time>
      </trkpt>
      <trkpt lat="45.85341" lon="4.71478">
        <ele>274.45404</ele>
        <time>2023-04-11T12:58:01.000Z</time>
      </trkpt>
      <trkpt lat="45.85337" lon="4.71481">
        <ele>274.60406</ele>
        <time>2023-04-11T12:58:02.000Z</time>
      </trkpt>
      <trkpt lat="45.85334" lon="4.71485">
        <ele>274.76215</ele>
        <time>2023-04-11T12:58:03.000Z</time>
      </trkpt>
      <trkpt lat="45.8533" lon="4.71489">
        <ele>274.94415</ele>
        <time>2023-04-11T12:58:04.000Z</time>
      </trkpt>
      <trkpt lat="45.85326" lon="4.71493">
        <ele>275.14371</ele>
        <time>2023-04-11T12:58:05.000Z</time>
      </trkpt>
      <trkpt lat="45.85322" lon="4.71496">
        <ele>275.35571</ele>
        <time>2023-04-11T12:58:06.000Z</time>
      </trkpt>
      <trkpt lat="45.85319" lon="4.715">
        <ele>275.56516</ele>
        <time>2023-04-11T12:58:07.000Z</time>
      </trkpt>
      <trkpt lat="45.85315" lon="4.71503">
        <ele>275.92221</ele>
        <time>2023-04-11T12:58:08.000Z</time>
      </trkpt>
      <trkpt lat="45.85311" lon="4.71507">
        <ele>276.42444</ele>
        <time>2023-04-11T12:58:09.000Z</time>
      </trkpt>
      <trkpt lat="45.85307" lon="4.71511">
        <ele>276.9483</ele>
        <time>2023-04-11T12:58:10.000Z</time>
      </trkpt>
      <trkpt lat="45.85303" lon="4.71514">
        <ele>277.0463</ele>
        <time>2023-04-11T12:58:11.000Z</time>
      </trkpt>
      <trkpt lat="45.85299" lon="4.71516">
        <ele>277.19736</ele>
        <time>2023-04-11T12:58:12.000Z</time>
      </trkpt>
      <trkpt lat="45.85295" lon="4.7152">
        <ele>277.34637</ele>
        <time>2023-04-11T12:58:13.000Z</time>
      </trkpt>
      <trkpt lat="45.85291" lon="4.71523">
        <ele>277.53046</ele>
        <time>2023-04-11T12:58:14.000Z</time>
      </trkpt>
      <trkpt lat="45.85288" lon="4.71526">
        <ele>277.66043</ele>
        <time>2023-04-11T12:58:15.000Z</time>
      </trkpt>
      <trkpt lat="45.85284" lon="4.71529">
        <ele>277.77789</ele>
        <time>2023-04-11T12:58:16.000Z</time>
      </trkpt>
      <trkpt lat="45.8528" lon="4.71532">
        <ele>277.89191</ele>
        <time>2023-04-11T12:58:17.000Z</time>
      </trkpt>
      <trkpt lat="45.85275" lon="4.71533">
        <ele>278.01743</ele>
        <time>2023-04-11T12:58:18.000Z</time>
      </trkpt>
      <trkpt lat="45.85271" lon="4.71536">
        <ele>278.2312</ele>
        <time>2023-04-11T12:58:19.000Z</time>
      </trkpt>
      <trkpt lat="45.85267" lon="4.71538">
        <ele>278.53601</ele>
        <time>2023-04-11T12:58:20.000Z</time>
      </trkpt>
      <trkpt lat="45.85263" lon="4.71541">
        <ele>278.91003</ele>
        <time>2023-04-11T12:58:21.000Z</time>
      </trkpt>
      <trkpt lat="45.85258" lon="4.71543">
        <ele>278.8876</ele>
        <time>2023-04-11T12:58:22.000Z</time>
      </trkpt>
      <trkpt lat="45.85253" lon="4.71546">
        <ele>278.91086</ele>
        <time>2023-04-11T12:58:23.000Z</time>
      </trkpt>
      <trkpt lat="45.85249" lon="4.71548">
        <ele>278.89844</ele>
        <time>2023-04-11T12:58:24.000Z</time>
      </trkpt>
      <trkpt lat="45.85243" lon="4.7155">
        <ele>278.85672</ele>
        <time>2023-04-11T12:58:25.000Z</time>
      </trkpt>
      <trkpt lat="45.85238" lon="4.71553">
        <ele>278.82831</ele>
        <time>2023-04-11T12:58:26.000Z</time>
      </trkpt>
      <trkpt lat="45.85234" lon="4.71554">
        <ele>278.8111</ele>
        <time>2023-04-11T12:58:27.000Z</time>
      </trkpt>
      <trkpt lat="45.85229" lon="4.71557">
        <ele>278.77533</ele>
        <time>2023-04-11T12:58:28.000Z</time>
      </trkpt>
      <trkpt lat="45.85224" lon="4.71559">
        <ele>278.66608</ele>
        <time>2023-04-11T12:58:29.000Z</time>
      </trkpt>
      <trkpt lat="45.85218" lon="4.71562">
        <ele>278.73798</ele>
        <time>2023-04-11T12:58:30.000Z</time>
      </trkpt>
      <trkpt lat="45.85213" lon="4.71565">
        <ele>278.50333</ele>
        <time>2023-04-11T12:58:31.000Z</time>
      </trkpt>
      <trkpt lat="45.85207" lon="4.71568">
        <ele>278.29352</ele>
        <time>2023-04-11T12:58:32.000Z</time>
      </trkpt>
      <trkpt lat="45.85202" lon="4.7157">
        <ele>278.06866</ele>
        <time>2023-04-11T12:58:33.000Z</time>
      </trkpt>
      <trkpt lat="45.85196" lon="4.71573">
        <ele>277.81561</ele>
        <time>2023-04-11T12:58:34.000Z</time>
      </trkpt>
      <trkpt lat="45.85191" lon="4.71576">
        <ele>277.57047</ele>
        <time>2023-04-11T12:58:35.000Z</time>
      </trkpt>
      <trkpt lat="45.85186" lon="4.71578">
        <ele>277.32611</ele>
        <time>2023-04-11T12:58:36.000Z</time>
      </trkpt>
      <trkpt lat="45.85181" lon="4.71581">
        <ele>277.04483</ele>
        <time>2023-04-11T12:58:37.000Z</time>
      </trkpt>
      <trkpt lat="45.85175" lon="4.71583">
        <ele>276.76227</ele>
        <time>2023-04-11T12:58:38.000Z</time>
      </trkpt>
      <trkpt lat="45.8517" lon="4.71584">
        <ele>276.5293</ele>
        <time>2023-04-11T12:58:39.000Z</time>
      </trkpt>
      <trkpt lat="45.85165" lon="4.71586">
        <ele>276.27863</ele>
        <time>2023-04-11T12:58:40.000Z</time>
      </trkpt>
      <trkpt lat="45.85159" lon="4.71588">
        <ele>276.02197</ele>
        <time>2023-04-11T12:58:41.000Z</time>
      </trkpt>
      <trkpt lat="45.85154" lon="4.71589">
        <ele>275.73541</ele>
        <time>2023-04-11T12:58:42.000Z</time>
      </trkpt>
      <trkpt lat="45.85149" lon="4.71591">
        <ele>275.47632</ele>
        <time>2023-04-11T12:58:43.000Z</time>
      </trkpt>
      <trkpt lat="45.85143" lon="4.71592">
        <ele>275.2662</ele>
        <time>2023-04-11T12:58:44.000Z</time>
      </trkpt>
      <trkpt lat="45.85138" lon="4.71592">
        <ele>275.07623</ele>
        <time>2023-04-11T12:58:45.000Z</time>
      </trkpt>
      <trkpt lat="45.85133" lon="4.71593">
        <ele>274.88141</ele>
        <time>2023-04-11T12:58:46.000Z</time>
      </trkpt>
      <trkpt lat="45.85129" lon="4.71592">
        <ele>274.7016</ele>
        <time>2023-04-11T12:58:47.000Z</time>
      </trkpt>
      <trkpt lat="45.85124" lon="4.71591">
        <ele>274.5495</ele>
        <time>2023-04-11T12:58:48.000Z</time>
      </trkpt>
      <trkpt lat="45.85119" lon="4.71592">
        <ele>274.41229</ele>
        <time>2023-04-11T12:58:49.000Z</time>
      </trkpt>
      <trkpt lat="45.85115" lon="4.71593">
        <ele>274.10687</ele>
        <time>2023-04-11T12:58:50.000Z</time>
      </trkpt>
      <trkpt lat="45.8511" lon="4.71594">
        <ele>274.14084</ele>
        <time>2023-04-11T12:58:51.000Z</time>
      </trkpt>
      <trkpt lat="45.85107" lon="4.71599">
        <ele>274.46655</ele>
        <time>2023-04-11T12:58:52.000Z</time>
      </trkpt>
      <trkpt lat="45.85104" lon="4.71602">
        <ele>274.67303</ele>
        <time>2023-04-11T12:58:53.000Z</time>
      </trkpt>
      <trkpt lat="45.85099" lon="4.71606">
        <ele>274.88803</ele>
        <time>2023-04-11T12:58:54.000Z</time>
      </trkpt>
      <trkpt lat="45.85096" lon="4.71611">
        <ele>275.11035</ele>
        <time>2023-04-11T12:58:55.000Z</time>
      </trkpt>
      <trkpt lat="45.85091" lon="4.71613">
        <ele>275.33258</ele>
        <time>2023-04-11T12:58:56.000Z</time>
      </trkpt>
      <trkpt lat="45.85088" lon="4.71617">
        <ele>275.58249</ele>
        <time>2023-04-11T12:58:57.000Z</time>
      </trkpt>
      <trkpt lat="45.85085" lon="4.71619">
        <ele>275.79214</ele>
        <time>2023-04-11T12:58:58.000Z</time>
      </trkpt>
      <trkpt lat="45.85081" lon="4.7162">
        <ele>275.98019</ele>
        <time>2023-04-11T12:58:59.000Z</time>
      </trkpt>
      <trkpt lat="45.85077" lon="4.71621">
        <ele>275.99506</ele>
        <time>2023-04-11T12:59:00.000Z</time>
      </trkpt>
      <trkpt lat="45.85073" lon="4.71623">
        <ele>276.04517</ele>
        <time>2023-04-11T12:59:01.000Z</time>
      </trkpt>
      <trkpt lat="45.85069" lon="4.71623">
        <ele>276.12091</ele>
        <time>2023-04-11T12:59:02.000Z</time>
      </trkpt>
      <trkpt lat="45.85065" lon="4.71625">
        <ele>276.19611</ele>
        <time>2023-04-11T12:59:03.000Z</time>
      </trkpt>
      <trkpt lat="45.85061" lon="4.71626">
        <ele>276.22061</ele>
        <time>2023-04-11T12:59:04.000Z</time>
      </trkpt>
      <trkpt lat="45.85057" lon="4.71628">
        <ele>276.09033</ele>
        <time>2023-04-11T12:59:05.000Z</time>
      </trkpt>
      <trkpt lat="45.85053" lon="4.7163">
        <ele>275.98407</ele>
        <time>2023-04-11T12:59:06.000Z</time>
      </trkpt>
      <trkpt lat="45.8505" lon="4.71633">
        <ele>275.86282</ele>
        <time>2023-04-11T12:59:07.000Z</time>
      </trkpt>
      <trkpt lat="45.85047" lon="4.71636">
        <ele>276.00403</ele>
        <time>2023-04-11T12:59:08.000Z</time>
      </trkpt>
      <trkpt lat="45.85043" lon="4.71639">
        <ele>276.19305</ele>
        <time>2023-04-11T12:59:09.000Z</time>
      </trkpt>
      <trkpt lat="45.85039" lon="4.71641">
        <ele>276.3736</ele>
        <time>2023-04-11T12:59:10.000Z</time>
      </trkpt>
      <trkpt lat="45.85035" lon="4.71642">
        <ele>276.56427</ele>
        <time>2023-04-11T12:59:11.000Z</time>
      </trkpt>
      <trkpt lat="45.85031" lon="4.71643">
        <ele>276.44742</ele>
        <time>2023-04-11T12:59:12.000Z</time>
      </trkpt>
      <trkpt lat="45.85027" lon="4.71645">
        <ele>276.48206</ele>
        <time>2023-04-11T12:59:13.000Z</time>
      </trkpt>
      <trkpt lat="45.85023" lon="4.71647">
        <ele>276.54645</ele>
        <time>2023-04-11T12:59:14.000Z</time>
      </trkpt>
      <trkpt lat="45.8502" lon="4.71648">
        <ele>276.58978</ele>
        <time>2023-04-11T12:59:15.000Z</time>
      </trkpt>
      <trkpt lat="45.85016" lon="4.7165">
        <ele>276.67572</ele>
        <time>2023-04-11T12:59:16.000Z</time>
      </trkpt>
      <trkpt lat="45.85012" lon="4.71651">
        <ele>276.76602</ele>
        <time>2023-04-11T12:59:17.000Z</time>
      </trkpt>
      <trkpt lat="45.85008" lon="4.71653">
        <ele>276.85565</ele>
        <time>2023-04-11T12:59:18.000Z</time>
      </trkpt>
      <trkpt lat="45.85005" lon="4.71655">
        <ele>276.95135</ele>
        <time>2023-04-11T12:59:19.000Z</time>
      </trkpt>
      <trkpt lat="45.85001" lon="4.71657">
        <ele>277.28085</ele>
        <time>2023-04-11T12:59:20.000Z</time>
      </trkpt>
      <trkpt lat="45.84998" lon="4.71658">
        <ele>277.56497</ele>
        <time>2023-04-11T12:59:21.000Z</time>
      </trkpt>
      <trkpt lat="45.84994" lon="4.7166">
        <ele>278.44119</ele>
        <time>2023-04-11T12:59:22.000Z</time>
      </trkpt>
      <trkpt lat="45.84991" lon="4.71661">
        <ele>279.32596</ele>
        <time>2023-04-11T12:59:23.000Z</time>
      </trkpt>
      <trkpt lat="45.84988" lon="4.71662">
        <ele>280.21893</ele>
        <time>2023-04-11T12:59:24.000Z</time>
      </trkpt>
      <trkpt lat="45.84984" lon="4.71664">
        <ele>281.23935</ele>
        <time>2023-04-11T12:59:25.000Z</time>
      </trkpt>
      <trkpt lat="45.84981" lon="4.71665">
        <ele>282.25961</ele>
        <time>2023-04-11T12:59:26.000Z</time>
      </trkpt>
      <trkpt lat="45.84977" lon="4.71666">
        <ele>283.25488</ele>
        <time>2023-04-11T12:59:27.000Z</time>
      </trkpt>
      <trkpt lat="45.84974" lon="4.71666">
        <ele>284.02972</ele>
        <time>2023-04-11T12:59:28.000Z</time>
      </trkpt>
      <trkpt lat="45.8497" lon="4.71666">
        <ele>284.81592</ele>
        <time>2023-04-11T12:59:29.000Z</time>
      </trkpt>
      <trkpt lat="45.84967" lon="4.71666">
        <ele>285.6022</ele>
        <time>2023-04-11T12:59:30.000Z</time>
      </trkpt>
      <trkpt lat="45.84964" lon="4.71666">
        <ele>286.3576</ele>
        <time>2023-04-11T12:59:31.000Z</time>
      </trkpt>
      <trkpt lat="45.8496" lon="4.71665">
        <ele>287.1441</ele>
        <time>2023-04-11T12:59:32.000Z</time>
      </trkpt>
      <trkpt lat="45.84957" lon="4.71665">
        <ele>287.92401</ele>
        <time>2023-04-11T12:59:33.000Z</time>
      </trkpt>
      <trkpt lat="45.84953" lon="4.71665">
        <ele>288.673</ele>
        <time>2023-04-11T12:59:34.000Z</time>
      </trkpt>
      <trkpt lat="45.8495" lon="4.71665">
        <ele>289.44879</ele>
        <time>2023-04-11T12:59:35.000Z</time>
      </trkpt>
      <trkpt lat="45.84946" lon="4.71664">
        <ele>290.2121</ele>
        <time>2023-04-11T12:59:36.000Z</time>
      </trkpt>
      <trkpt lat="45.84943" lon="4.71663">
        <ele>290.9444</ele>
        <time>2023-04-11T12:59:37.000Z</time>
      </trkpt>
      <trkpt lat="45.8494" lon="4.71661">
        <ele>291.70096</ele>
        <time>2023-04-11T12:59:38.000Z</time>
      </trkpt>
      <trkpt lat="45.84937" lon="4.7166">
        <ele>292.46719</ele>
        <time>2023-04-11T12:59:39.000Z</time>
      </trkpt>
      <trkpt lat="45.84935" lon="4.71659">
        <ele>293.15768</ele>
        <time>2023-04-11T12:59:40.000Z</time>
      </trkpt>
      <trkpt lat="45.84932" lon="4.71658">
        <ele>293.86954</ele>
        <time>2023-04-11T12:59:41.000Z</time>
      </trkpt>
      <trkpt lat="45.84929" lon="4.71659">
        <ele>294.09705</ele>
        <time>2023-04-11T12:59:42.000Z</time>
      </trkpt>
      <trkpt lat="45.84925" lon="4.7166">
        <ele>294.37607</ele>
        <time>2023-04-11T12:59:43.000Z</time>
      </trkpt>
      <trkpt lat="45.84922" lon="4.71661">
        <ele>294.63498</ele>
        <time>2023-04-11T12:59:44.000Z</time>
      </trkpt>
      <trkpt lat="45.84919" lon="4.71662">
        <ele>294.8938</ele>
        <time>2023-04-11T12:59:45.000Z</time>
      </trkpt>
      <trkpt lat="45.84917" lon="4.71662">
        <ele>295.1066</ele>
        <time>2023-04-11T12:59:46.000Z</time>
      </trkpt>
      <trkpt lat="45.84915" lon="4.71662">
        <ele>295.31644</ele>
        <time>2023-04-11T12:59:47.000Z</time>
      </trkpt>
      <trkpt lat="45.84913" lon="4.71662">
        <ele>295.44763</ele>
        <time>2023-04-11T12:59:48.000Z</time>
      </trkpt>
      <trkpt lat="45.84911" lon="4.71663">
        <ele>295.5351</ele>
        <time>2023-04-11T12:59:49.000Z</time>
      </trkpt>
      <trkpt lat="45.84909" lon="4.71664">
        <ele>295.60211</ele>
        <time>2023-04-11T12:59:50.000Z</time>
      </trkpt>
      <trkpt lat="45.84906" lon="4.71666">
        <ele>295.71609</ele>
        <time>2023-04-11T12:59:52.000Z</time>
      </trkpt>
      <trkpt lat="45.84904" lon="4.71667">
        <ele>295.7883</ele>
        <time>2023-04-11T12:59:53.000Z</time>
      </trkpt>
      <trkpt lat="45.84902" lon="4.71667">
        <ele>295.87625</ele>
        <time>2023-04-11T12:59:54.000Z</time>
      </trkpt>
      <trkpt lat="45.84902" lon="4.71663">
        <ele>296.10641</ele>
        <time>2023-04-11T12:59:55.000Z</time>
      </trkpt>
      <trkpt lat="45.849" lon="4.71663">
        <ele>296.31238</ele>
        <time>2023-04-11T12:59:56.000Z</time>
      </trkpt>
      <trkpt lat="45.84898" lon="4.71662">
        <ele>296.39606</ele>
        <time>2023-04-11T12:59:57.000Z</time>
      </trkpt>
      <trkpt lat="45.84894" lon="4.71664">
        <ele>296.46173</ele>
        <time>2023-04-11T12:59:59.000Z</time>
      </trkpt>
      <trkpt lat="45.84892" lon="4.71665">
        <ele>296.56506</ele>
        <time>2023-04-11T13:00:00.000Z</time>
      </trkpt>
      <trkpt lat="45.84889" lon="4.71666">
        <ele>296.67609</ele>
        <time>2023-04-11T13:00:01.000Z</time>
      </trkpt>
      <trkpt lat="45.84886" lon="4.71667">
        <ele>296.81207</ele>
        <time>2023-04-11T13:00:02.000Z</time>
      </trkpt>
      <trkpt lat="45.84884" lon="4.71669">
        <ele>296.91934</ele>
        <time>2023-04-11T13:00:03.000Z</time>
      </trkpt>
      <trkpt lat="45.84881" lon="4.71668">
        <ele>296.91324</ele>
        <time>2023-04-11T13:00:04.000Z</time>
      </trkpt>
      <trkpt lat="45.84879" lon="4.7167">
        <ele>296.92484</ele>
        <time>2023-04-11T13:00:05.000Z</time>
      </trkpt>
      <trkpt lat="45.84877" lon="4.71671">
        <ele>296.92206</ele>
        <time>2023-04-11T13:00:06.000Z</time>
      </trkpt>
      <trkpt lat="45.84874" lon="4.71672">
        <ele>296.93027</ele>
        <time>2023-04-11T13:00:07.000Z</time>
      </trkpt>
      <trkpt lat="45.84872" lon="4.71673">
        <ele>296.98206</ele>
        <time>2023-04-11T13:00:08.000Z</time>
      </trkpt>
      <trkpt lat="45.84869" lon="4.71674">
        <ele>297.03839</ele>
        <time>2023-04-11T13:00:09.000Z</time>
      </trkpt>
      <trkpt lat="45.84867" lon="4.71675">
        <ele>297.14471</ele>
        <time>2023-04-11T13:00:10.000Z</time>
      </trkpt>
      <trkpt lat="45.84865" lon="4.71677">
        <ele>297.229</ele>
        <time>2023-04-11T13:00:11.000Z</time>
      </trkpt>
      <trkpt lat="45.84863" lon="4.71679">
        <ele>297.36575</ele>
        <time>2023-04-11T13:00:12.000Z</time>
      </trkpt>
      <trkpt lat="45.84861" lon="4.71681">
        <ele>297.49323</ele>
        <time>2023-04-11T13:00:13.000Z</time>
      </trkpt>
      <trkpt lat="45.84858" lon="4.71682">
        <ele>297.65546</ele>
        <time>2023-04-11T13:00:14.000Z</time>
      </trkpt>
      <trkpt lat="45.84855" lon="4.71684">
        <ele>297.76999</ele>
        <time>2023-04-11T13:00:15.000Z</time>
      </trkpt>
      <trkpt lat="45.84852" lon="4.71685">
        <ele>297.68097</ele>
        <time>2023-04-11T13:00:16.000Z</time>
      </trkpt>
      <trkpt lat="45.8485" lon="4.71686">
        <ele>297.60034</ele>
        <time>2023-04-11T13:00:17.000Z</time>
      </trkpt>
      <trkpt lat="45.84848" lon="4.71687">
        <ele>297.62787</ele>
        <time>2023-04-11T13:00:18.000Z</time>
      </trkpt>
      <trkpt lat="45.84846" lon="4.71688">
        <ele>297.79752</ele>
        <time>2023-04-11T13:00:19.000Z</time>
      </trkpt>
      <trkpt lat="45.84844" lon="4.71689">
        <ele>297.95364</ele>
        <time>2023-04-11T13:00:20.000Z</time>
      </trkpt>
      <trkpt lat="45.84841" lon="4.71689">
        <ele>298.0835</ele>
        <time>2023-04-11T13:00:21.000Z</time>
      </trkpt>
      <trkpt lat="45.84839" lon="4.7169">
        <ele>298.1507</ele>
        <time>2023-04-11T13:00:22.000Z</time>
      </trkpt>
      <trkpt lat="45.84837" lon="4.71692">
        <ele>299.65594</ele>
        <time>2023-04-11T13:01:06.000Z</time>
      </trkpt>
      <trkpt lat="45.84835" lon="4.71694">
        <ele>301.15747</ele>
        <time>2023-04-11T13:01:07.000Z</time>
      </trkpt>
      <trkpt lat="45.84833" lon="4.71696">
        <ele>302.56961</ele>
        <time>2023-04-11T13:01:08.000Z</time>
      </trkpt>
      <trkpt lat="45.8483" lon="4.71697">
        <ele>303.97748</ele>
        <time>2023-04-11T13:01:09.000Z</time>
      </trkpt>
      <trkpt lat="45.84828" lon="4.71699">
        <ele>305.38684</ele>
        <time>2023-04-11T13:01:10.000Z</time>
      </trkpt>
      <trkpt lat="45.84825" lon="4.717">
        <ele>306.77438</ele>
        <time>2023-04-11T13:01:11.000Z</time>
      </trkpt>
      <trkpt lat="45.84823" lon="4.71702">
        <ele>308.19815</ele>
        <time>2023-04-11T13:01:12.000Z</time>
      </trkpt>
      <trkpt lat="45.84819" lon="4.71704">
        <ele>309.61008</ele>
        <time>2023-04-11T13:01:13.000Z</time>
      </trkpt>
      <trkpt lat="45.84816" lon="4.71706">
        <ele>310.97598</ele>
        <time>2023-04-11T13:01:14.000Z</time>
      </trkpt>
      <trkpt lat="45.84812" lon="4.71708">
        <ele>312.35922</ele>
        <time>2023-04-11T13:01:15.000Z</time>
      </trkpt>
      <trkpt lat="45.84808" lon="4.7171">
        <ele>314.07443</ele>
        <time>2023-04-11T13:01:16.000Z</time>
      </trkpt>
      <trkpt lat="45.84804" lon="4.71713">
        <ele>316.00626</ele>
        <time>2023-04-11T13:01:17.000Z</time>
      </trkpt>
      <trkpt lat="45.848" lon="4.71715">
        <ele>317.97528</ele>
        <time>2023-04-11T13:01:18.000Z</time>
      </trkpt>
      <trkpt lat="45.84797" lon="4.71718">
        <ele>319.21786</ele>
        <time>2023-04-11T13:01:19.000Z</time>
      </trkpt>
      <trkpt lat="45.84793" lon="4.71721">
        <ele>320.56473</ele>
        <time>2023-04-11T13:01:20.000Z</time>
      </trkpt>
      <trkpt lat="45.84789" lon="4.71724">
        <ele>321.87811</ele>
        <time>2023-04-11T13:01:21.000Z</time>
      </trkpt>
      <trkpt lat="45.84785" lon="4.71726">
        <ele>323.44464</ele>
        <time>2023-04-11T13:01:22.000Z</time>
      </trkpt>
      <trkpt lat="45.84781" lon="4.7173">
        <ele>325.25864</ele>
        <time>2023-04-11T13:01:23.000Z</time>
      </trkpt>
      <trkpt lat="45.84777" lon="4.71734">
        <ele>326.33868</ele>
        <time>2023-04-11T13:01:24.000Z</time>
      </trkpt>
      <trkpt lat="45.84774" lon="4.71736">
        <ele>327.62567</ele>
        <time>2023-04-11T13:01:25.000Z</time>
      </trkpt>
      <trkpt lat="45.8477" lon="4.7174">
        <ele>327.46075</ele>
        <time>2023-04-11T13:01:26.000Z</time>
      </trkpt>
      <trkpt lat="45.84765" lon="4.71743">
        <ele>327.27478</ele>
        <time>2023-04-11T13:01:27.000Z</time>
      </trkpt>
      <trkpt lat="45.84761" lon="4.71745">
        <ele>327.09601</ele>
        <time>2023-04-11T13:01:28.000Z</time>
      </trkpt>
      <trkpt lat="45.84757" lon="4.71748">
        <ele>326.95145</ele>
        <time>2023-04-11T13:01:29.000Z</time>
      </trkpt>
      <trkpt lat="45.84753" lon="4.71751">
        <ele>326.85309</ele>
        <time>2023-04-11T13:01:30.000Z</time>
      </trkpt>
      <trkpt lat="45.8475" lon="4.71755">
        <ele>326.74493</ele>
        <time>2023-04-11T13:01:31.000Z</time>
      </trkpt>
      <trkpt lat="45.84745" lon="4.71756">
        <ele>326.96335</ele>
        <time>2023-04-11T13:01:32.000Z</time>
      </trkpt>
      <trkpt lat="45.84741" lon="4.71759">
        <ele>327.1828</ele>
        <time>2023-04-11T13:01:33.000Z</time>
      </trkpt>
      <trkpt lat="45.84737" lon="4.71761">
        <ele>327.4725</ele>
        <time>2023-04-11T13:01:34.000Z</time>
      </trkpt>
      <trkpt lat="45.84733" lon="4.71764">
        <ele>328.00909</ele>
        <time>2023-04-11T13:01:35.000Z</time>
      </trkpt>
      <trkpt lat="45.84729" lon="4.71765">
        <ele>328.21405</ele>
        <time>2023-04-11T13:01:36.000Z</time>
      </trkpt>
      <trkpt lat="45.84725" lon="4.71766">
        <ele>327.43298</ele>
        <time>2023-04-11T13:01:37.000Z</time>
      </trkpt>
      <trkpt lat="45.84721" lon="4.71767">
        <ele>326.78336</ele>
        <time>2023-04-11T13:01:38.000Z</time>
      </trkpt>
      <trkpt lat="45.84716" lon="4.71768">
        <ele>326.93268</ele>
        <time>2023-04-11T13:01:39.000Z</time>
      </trkpt>
      <trkpt lat="45.84712" lon="4.7177">
        <ele>326.9436</ele>
        <time>2023-04-11T13:01:40.000Z</time>
      </trkpt>
      <trkpt lat="45.84708" lon="4.71771">
        <ele>326.9418</ele>
        <time>2023-04-11T13:01:41.000Z</time>
      </trkpt>
      <trkpt lat="45.84704" lon="4.71773">
        <ele>326.44775</ele>
        <time>2023-04-11T13:01:42.000Z</time>
      </trkpt>
      <trkpt lat="45.84701" lon="4.71775">
        <ele>324.47144</ele>
        <time>2023-04-11T13:01:43.000Z</time>
      </trkpt>
      <trkpt lat="45.84697" lon="4.71777">
        <ele>323.23511</ele>
        <time>2023-04-11T13:01:44.000Z</time>
      </trkpt>
      <trkpt lat="45.8469" lon="4.71781">
        <ele>321.88519</ele>
        <time>2023-04-11T13:01:45.000Z</time>
      </trkpt>
      <trkpt lat="45.84685" lon="4.71785">
        <ele>320.534</ele>
        <time>2023-04-11T13:01:46.000Z</time>
      </trkpt>
      <trkpt lat="45.84681" lon="4.71787">
        <ele>319.20612</ele>
        <time>2023-04-11T13:01:47.000Z</time>
      </trkpt>
      <trkpt lat="45.84676" lon="4.71789">
        <ele>317.91284</ele>
        <time>2023-04-11T13:01:48.000Z</time>
      </trkpt>
      <trkpt lat="45.84672" lon="4.71792">
        <ele>316.59937</ele>
        <time>2023-04-11T13:01:49.000Z</time>
      </trkpt>
      <trkpt lat="45.84668" lon="4.71795">
        <ele>315.24982</ele>
        <time>2023-04-11T13:01:50.000Z</time>
      </trkpt>
      <trkpt lat="45.84663" lon="4.71797">
        <ele>313.91925</ele>
        <time>2023-04-11T13:01:51.000Z</time>
      </trkpt>
      <trkpt lat="45.84659" lon="4.718">
        <ele>312.2876</ele>
        <time>2023-04-11T13:01:52.000Z</time>
      </trkpt>
      <trkpt lat="45.84655" lon="4.71803">
        <ele>310.66272</ele>
        <time>2023-04-11T13:01:53.000Z</time>
      </trkpt>
      <trkpt lat="45.8465" lon="4.71806">
        <ele>309.02716</ele>
        <time>2023-04-11T13:01:54.000Z</time>
      </trkpt>
      <trkpt lat="45.84646" lon="4.71808">
        <ele>307.11969</ele>
        <time>2023-04-11T13:01:55.000Z</time>
      </trkpt>
      <trkpt lat="45.84641" lon="4.7181">
        <ele>305.22247</ele>
        <time>2023-04-11T13:01:56.000Z</time>
      </trkpt>
      <trkpt lat="45.84637" lon="4.71812">
        <ele>304.07874</ele>
        <time>2023-04-11T13:01:57.000Z</time>
      </trkpt>
      <trkpt lat="45.84633" lon="4.71815">
        <ele>302.79965</ele>
        <time>2023-04-11T13:01:58.000Z</time>
      </trkpt>
      <trkpt lat="45.84628" lon="4.71817">
        <ele>301.47723</ele>
        <time>2023-04-11T13:01:59.000Z</time>
      </trkpt>
      <trkpt lat="45.84624" lon="4.71819">
        <ele>300.21387</ele>
        <time>2023-04-11T13:02:00.000Z</time>
      </trkpt>
      <trkpt lat="45.8462" lon="4.7182">
        <ele>299.00211</ele>
        <time>2023-04-11T13:02:01.000Z</time>
      </trkpt>
      <trkpt lat="45.84616" lon="4.71822">
        <ele>297.90775</ele>
        <time>2023-04-11T13:02:02.000Z</time>
      </trkpt>
      <trkpt lat="45.84612" lon="4.71825">
        <ele>298.01047</ele>
        <time>2023-04-11T13:02:03.000Z</time>
      </trkpt>
      <trkpt lat="45.84607" lon="4.71828">
        <ele>298.14386</ele>
        <time>2023-04-11T13:02:04.000Z</time>
      </trkpt>
      <trkpt lat="45.84603" lon="4.7183">
        <ele>298.2543</ele>
        <time>2023-04-11T13:02:05.000Z</time>
      </trkpt>
      <trkpt lat="45.84599" lon="4.71833">
        <ele>298.39224</ele>
        <time>2023-04-11T13:02:06.000Z</time>
      </trkpt>
      <trkpt lat="45.84595" lon="4.71835">
        <ele>298.51453</ele>
        <time>2023-04-11T13:02:07.000Z</time>
      </trkpt>
      <trkpt lat="45.84591" lon="4.71837">
        <ele>298.60785</ele>
        <time>2023-04-11T13:02:08.000Z</time>
      </trkpt>
      <trkpt lat="45.84587" lon="4.7184">
        <ele>298.71487</ele>
        <time>2023-04-11T13:02:09.000Z</time>
      </trkpt>
      <trkpt lat="45.84583" lon="4.71843">
        <ele>298.82205</ele>
        <time>2023-04-11T13:02:10.000Z</time>
      </trkpt>
      <trkpt lat="45.84579" lon="4.71846">
        <ele>298.91205</ele>
        <time>2023-04-11T13:02:11.000Z</time>
      </trkpt>
      <trkpt lat="45.84575" lon="4.71849">
        <ele>300.0202</ele>
        <time>2023-04-11T13:02:12.000Z</time>
      </trkpt>
      <trkpt lat="45.84571" lon="4.71851">
        <ele>301.11884</ele>
        <time>2023-04-11T13:02:13.000Z</time>
      </trkpt>
      <trkpt lat="45.84567" lon="4.71853">
        <ele>302.20502</ele>
        <time>2023-04-11T13:02:14.000Z</time>
      </trkpt>
      <trkpt lat="45.84564" lon="4.71855">
        <ele>303.50629</ele>
        <time>2023-04-11T13:02:15.000Z</time>
      </trkpt>
      <trkpt lat="45.8456" lon="4.71858">
        <ele>304.78867</ele>
        <time>2023-04-11T13:02:16.000Z</time>
      </trkpt>
      <trkpt lat="45.84556" lon="4.7186">
        <ele>306.07343</ele>
        <time>2023-04-11T13:02:17.000Z</time>
      </trkpt>
      <trkpt lat="45.84552" lon="4.71863">
        <ele>307.34723</ele>
        <time>2023-04-11T13:02:18.000Z</time>
      </trkpt>
      <trkpt lat="45.84548" lon="4.71865">
        <ele>308.6579</ele>
        <time>2023-04-11T13:02:19.000Z</time>
      </trkpt>
      <trkpt lat="45.84544" lon="4.71868">
        <ele>309.97409</ele>
        <time>2023-04-11T13:02:20.000Z</time>
      </trkpt>
      <trkpt lat="45.84541" lon="4.7187">
        <ele>311.28021</ele>
        <time>2023-04-11T13:02:21.000Z</time>
      </trkpt>
      <trkpt lat="45.84538" lon="4.71872">
        <ele>312.17963</ele>
        <time>2023-04-11T13:02:22.000Z</time>
      </trkpt>
      <trkpt lat="45.84535" lon="4.71875">
        <ele>313.11911</ele>
        <time>2023-04-11T13:02:23.000Z</time>
      </trkpt>
      <trkpt lat="45.84532" lon="4.71878">
        <ele>314.03442</ele>
        <time>2023-04-11T13:02:24.000Z</time>
      </trkpt>
      <trkpt lat="45.84529" lon="4.71881">
        <ele>314.95416</ele>
        <time>2023-04-11T13:02:25.000Z</time>
      </trkpt>
      <trkpt lat="45.84525" lon="4.71884">
        <ele>315.7702</ele>
        <time>2023-04-11T13:02:26.000Z</time>
      </trkpt>
      <trkpt lat="45.84522" lon="4.71887">
        <ele>316.61859</ele>
        <time>2023-04-11T13:02:27.000Z</time>
      </trkpt>
      <trkpt lat="45.84519" lon="4.7189">
        <ele>316.82376</ele>
        <time>2023-04-11T13:02:28.000Z</time>
      </trkpt>
      <trkpt lat="45.84515" lon="4.71892">
        <ele>316.9859</ele>
        <time>2023-04-11T13:02:29.000Z</time>
      </trkpt>
      <trkpt lat="45.84511" lon="4.71895">
        <ele>317.15424</ele>
        <time>2023-04-11T13:02:30.000Z</time>
      </trkpt>
      <trkpt lat="45.84508" lon="4.71898">
        <ele>317.34488</ele>
        <time>2023-04-11T13:02:31.000Z</time>
      </trkpt>
      <trkpt lat="45.84504" lon="4.71901">
        <ele>316.42377</ele>
        <time>2023-04-11T13:02:32.000Z</time>
      </trkpt>
      <trkpt lat="45.84501" lon="4.71904">
        <ele>316.5097</ele>
        <time>2023-04-11T13:02:33.000Z</time>
      </trkpt>
      <trkpt lat="45.84497" lon="4.71908">
        <ele>316.59756</ele>
        <time>2023-04-11T13:02:34.000Z</time>
      </trkpt>
      <trkpt lat="45.84493" lon="4.71911">
        <ele>316.44574</ele>
        <time>2023-04-11T13:02:35.000Z</time>
      </trkpt>
      <trkpt lat="45.84489" lon="4.71914">
        <ele>316.26331</ele>
        <time>2023-04-11T13:02:36.000Z</time>
      </trkpt>
      <trkpt lat="45.84485" lon="4.71916">
        <ele>316.09894</ele>
        <time>2023-04-11T13:02:37.000Z</time>
      </trkpt>
      <trkpt lat="45.84482" lon="4.71919">
        <ele>315.92389</ele>
        <time>2023-04-11T13:02:38.000Z</time>
      </trkpt>
      <trkpt lat="45.84478" lon="4.71922">
        <ele>315.77023</ele>
        <time>2023-04-11T13:02:39.000Z</time>
      </trkpt>
      <trkpt lat="45.84473" lon="4.71925">
        <ele>315.69818</ele>
        <time>2023-04-11T13:02:40.000Z</time>
      </trkpt>
      <trkpt lat="45.84469" lon="4.71927">
        <ele>315.65622</ele>
        <time>2023-04-11T13:02:41.000Z</time>
      </trkpt>
      <trkpt lat="45.84465" lon="4.71929">
        <ele>316.04236</ele>
        <time>2023-04-11T13:02:42.000Z</time>
      </trkpt>
      <trkpt lat="45.84461" lon="4.7193">
        <ele>316.05176</ele>
        <time>2023-04-11T13:02:43.000Z</time>
      </trkpt>
      <trkpt lat="45.84457" lon="4.71932">
        <ele>316.12305</ele>
        <time>2023-04-11T13:02:44.000Z</time>
      </trkpt>
      <trkpt lat="45.84453" lon="4.71932">
        <ele>316.22678</ele>
        <time>2023-04-11T13:02:45.000Z</time>
      </trkpt>
      <trkpt lat="45.84449" lon="4.71934">
        <ele>315.49268</ele>
        <time>2023-04-11T13:02:46.000Z</time>
      </trkpt>
      <trkpt lat="45.84444" lon="4.71935">
        <ele>314.87994</ele>
        <time>2023-04-11T13:02:47.000Z</time>
      </trkpt>
      <trkpt lat="45.8444" lon="4.71936">
        <ele>314.9003</ele>
        <time>2023-04-11T13:02:48.000Z</time>
      </trkpt>
      <trkpt lat="45.84437" lon="4.71937">
        <ele>314.95465</ele>
        <time>2023-04-11T13:02:49.000Z</time>
      </trkpt>
      <trkpt lat="45.84433" lon="4.71938">
        <ele>314.98822</ele>
        <time>2023-04-11T13:02:50.000Z</time>
      </trkpt>
      <trkpt lat="45.84429" lon="4.71939">
        <ele>314.96085</ele>
        <time>2023-04-11T13:02:51.000Z</time>
      </trkpt>
      <trkpt lat="45.84425" lon="4.7194">
        <ele>315.00903</ele>
        <time>2023-04-11T13:02:52.000Z</time>
      </trkpt>
      <trkpt lat="45.84421" lon="4.71941">
        <ele>314.06653</ele>
        <time>2023-04-11T13:02:53.000Z</time>
      </trkpt>
      <trkpt lat="45.84418" lon="4.71941">
        <ele>313.13937</ele>
        <time>2023-04-11T13:02:54.000Z</time>
      </trkpt>
      <trkpt lat="45.84415" lon="4.71941">
        <ele>312.24564</ele>
        <time>2023-04-11T13:02:55.000Z</time>
      </trkpt>
      <trkpt lat="45.84412" lon="4.71943">
        <ele>311.38074</ele>
        <time>2023-04-11T13:02:56.000Z</time>
      </trkpt>
      <trkpt lat="45.84408" lon="4.71944">
        <ele>310.57236</ele>
        <time>2023-04-11T13:02:57.000Z</time>
      </trkpt>
      <trkpt lat="45.84404" lon="4.71946">
        <ele>309.67615</ele>
        <time>2023-04-11T13:02:58.000Z</time>
      </trkpt>
      <trkpt lat="45.844" lon="4.71948">
        <ele>308.72452</ele>
        <time>2023-04-11T13:02:59.000Z</time>
      </trkpt>
      <trkpt lat="45.84396" lon="4.71949">
        <ele>307.84167</ele>
        <time>2023-04-11T13:03:00.000Z</time>
      </trkpt>
      <trkpt lat="45.84392" lon="4.71951">
        <ele>306.8764</ele>
        <time>2023-04-11T13:03:01.000Z</time>
      </trkpt>
      <trkpt lat="45.84389" lon="4.71952">
        <ele>305.84857</ele>
        <time>2023-04-11T13:03:02.000Z</time>
      </trkpt>
      <trkpt lat="45.84384" lon="4.71954">
        <ele>305.13345</ele>
        <time>2023-04-11T13:03:03.000Z</time>
      </trkpt>
      <trkpt lat="45.84381" lon="4.71955">
        <ele>304.35117</ele>
        <time>2023-04-11T13:03:04.000Z</time>
      </trkpt>
      <trkpt lat="45.84377" lon="4.71956">
        <ele>303.53546</ele>
        <time>2023-04-11T13:03:05.000Z</time>
      </trkpt>
      <trkpt lat="45.84373" lon="4.71956">
        <ele>303.82623</ele>
        <time>2023-04-11T13:03:06.000Z</time>
      </trkpt>
      <trkpt lat="45.84369" lon="4.71957">
        <ele>303.99091</ele>
        <time>2023-04-11T13:03:07.000Z</time>
      </trkpt>
      <trkpt lat="45.84366" lon="4.71958">
        <ele>304.17447</ele>
        <time>2023-04-11T13:03:08.000Z</time>
      </trkpt>
      <trkpt lat="45.84362" lon="4.71959">
        <ele>304.39777</ele>
        <time>2023-04-11T13:03:09.000Z</time>
      </trkpt>
      <trkpt lat="45.84359" lon="4.7196">
        <ele>304.65283</ele>
        <time>2023-04-11T13:03:10.000Z</time>
      </trkpt>
      <trkpt lat="45.84356" lon="4.71961">
        <ele>304.92401</ele>
        <time>2023-04-11T13:03:11.000Z</time>
      </trkpt>
      <trkpt lat="45.84352" lon="4.71963">
        <ele>305.21997</ele>
        <time>2023-04-11T13:03:12.000Z</time>
      </trkpt>
      <trkpt lat="45.84349" lon="4.71965">
        <ele>305.51495</ele>
        <time>2023-04-11T13:03:13.000Z</time>
      </trkpt>
      <trkpt lat="45.84345" lon="4.71966">
        <ele>305.76657</ele>
        <time>2023-04-11T13:03:14.000Z</time>
      </trkpt>
      <trkpt lat="45.84341" lon="4.71968">
        <ele>306.94244</ele>
        <time>2023-04-11T13:03:15.000Z</time>
      </trkpt>
      <trkpt lat="45.84337" lon="4.7197">
        <ele>308.20352</ele>
        <time>2023-04-11T13:03:16.000Z</time>
      </trkpt>
      <trkpt lat="45.84333" lon="4.71971">
        <ele>309.39606</ele>
        <time>2023-04-11T13:03:17.000Z</time>
      </trkpt>
      <trkpt lat="45.8433" lon="4.71973">
        <ele>310.64899</ele>
        <time>2023-04-11T13:03:18.000Z</time>
      </trkpt>
      <trkpt lat="45.84326" lon="4.71975">
        <ele>311.89331</ele>
        <time>2023-04-11T13:03:19.000Z</time>
      </trkpt>
      <trkpt lat="45.84323" lon="4.71976">
        <ele>312.99103</ele>
        <time>2023-04-11T13:03:20.000Z</time>
      </trkpt>
      <trkpt lat="45.84319" lon="4.71978">
        <ele>314.11057</ele>
        <time>2023-04-11T13:03:21.000Z</time>
      </trkpt>
      <trkpt lat="45.84316" lon="4.7198">
        <ele>315.32718</ele>
        <time>2023-04-11T13:03:22.000Z</time>
      </trkpt>
      <trkpt lat="45.84313" lon="4.71982">
        <ele>316.56952</ele>
        <time>2023-04-11T13:03:23.000Z</time>
      </trkpt>
      <trkpt lat="45.84309" lon="4.71983">
        <ele>316.76056</ele>
        <time>2023-04-11T13:03:24.000Z</time>
      </trkpt>
      <trkpt lat="45.84306" lon="4.71985">
        <ele>316.96515</ele>
        <time>2023-04-11T13:03:25.000Z</time>
      </trkpt>
      <trkpt lat="45.84302" lon="4.71987">
        <ele>317.01349</ele>
        <time>2023-04-11T13:03:26.000Z</time>
      </trkpt>
      <trkpt lat="45.84299" lon="4.71989">
        <ele>317.04132</ele>
        <time>2023-04-11T13:03:27.000Z</time>
      </trkpt>
      <trkpt lat="45.84296" lon="4.7199">
        <ele>317.06699</ele>
        <time>2023-04-11T13:03:28.000Z</time>
      </trkpt>
      <trkpt lat="45.84292" lon="4.71992">
        <ele>316.98785</ele>
        <time>2023-04-11T13:03:29.000Z</time>
      </trkpt>
      <trkpt lat="45.84289" lon="4.71994">
        <ele>316.87119</ele>
        <time>2023-04-11T13:03:30.000Z</time>
      </trkpt>
      <trkpt lat="45.84286" lon="4.71995">
        <ele>316.75485</ele>
        <time>2023-04-11T13:03:31.000Z</time>
      </trkpt>
      <trkpt lat="45.84283" lon="4.71996">
        <ele>316.60736</ele>
        <time>2023-04-11T13:03:32.000Z</time>
      </trkpt>
      <trkpt lat="45.8428" lon="4.71998">
        <ele>316.42545</ele>
        <time>2023-04-11T13:03:33.000Z</time>
      </trkpt>
      <trkpt lat="45.84277" lon="4.72">
        <ele>316.46661</ele>
        <time>2023-04-11T13:03:34.000Z</time>
      </trkpt>
      <trkpt lat="45.84273" lon="4.72002">
        <ele>315.52667</ele>
        <time>2023-04-11T13:03:35.000Z</time>
      </trkpt>
      <trkpt lat="45.8427" lon="4.72003">
        <ele>314.50854</ele>
        <time>2023-04-11T13:03:36.000Z</time>
      </trkpt>
      <trkpt lat="45.84267" lon="4.72005">
        <ele>313.51413</ele>
        <time>2023-04-11T13:03:37.000Z</time>
      </trkpt>
      <trkpt lat="45.84263" lon="4.72007">
        <ele>312.5589</ele>
        <time>2023-04-11T13:03:38.000Z</time>
      </trkpt>
      <trkpt lat="45.8426" lon="4.72009">
        <ele>311.64111</ele>
        <time>2023-04-11T13:03:39.000Z</time>
      </trkpt>
      <trkpt lat="45.84257" lon="4.72011">
        <ele>310.72125</ele>
        <time>2023-04-11T13:03:40.000Z</time>
      </trkpt>
      <trkpt lat="45.84254" lon="4.72012">
        <ele>309.81335</ele>
        <time>2023-04-11T13:03:41.000Z</time>
      </trkpt>
      <trkpt lat="45.84251" lon="4.72014">
        <ele>308.73267</ele>
        <time>2023-04-11T13:03:42.000Z</time>
      </trkpt>
      <trkpt lat="45.84247" lon="4.72015">
        <ele>307.63297</ele>
        <time>2023-04-11T13:03:43.000Z</time>
      </trkpt>
      <trkpt lat="45.84244" lon="4.72016">
        <ele>307.81329</ele>
        <time>2023-04-11T13:03:44.000Z</time>
      </trkpt>
      <trkpt lat="45.8424" lon="4.72018">
        <ele>307.96509</ele>
        <time>2023-04-11T13:03:45.000Z</time>
      </trkpt>
      <trkpt lat="45.84237" lon="4.7202">
        <ele>308.12234</ele>
        <time>2023-04-11T13:03:46.000Z</time>
      </trkpt>
      <trkpt lat="45.84233" lon="4.72022">
        <ele>308.26324</ele>
        <time>2023-04-11T13:03:47.000Z</time>
      </trkpt>
      <trkpt lat="45.8423" lon="4.72023">
        <ele>308.40826</ele>
        <time>2023-04-11T13:03:48.000Z</time>
      </trkpt>
      <trkpt lat="45.84227" lon="4.72025">
        <ele>308.6167</ele>
        <time>2023-04-11T13:03:49.000Z</time>
      </trkpt>
      <trkpt lat="45.84224" lon="4.72027">
        <ele>308.89227</ele>
        <time>2023-04-11T13:03:50.000Z</time>
      </trkpt>
      <trkpt lat="45.84221" lon="4.72028">
        <ele>310.0043</ele>
        <time>2023-04-11T13:03:51.000Z</time>
      </trkpt>
      <trkpt lat="45.84218" lon="4.72029">
        <ele>311.11508</ele>
        <time>2023-04-11T13:03:52.000Z</time>
      </trkpt>
      <trkpt lat="45.84215" lon="4.72031">
        <ele>312.25937</ele>
        <time>2023-04-11T13:03:53.000Z</time>
      </trkpt>
      <trkpt lat="45.84212" lon="4.72033">
        <ele>313.30725</ele>
        <time>2023-04-11T13:03:54.000Z</time>
      </trkpt>
      <trkpt lat="45.8421" lon="4.72035">
        <ele>314.47156</ele>
        <time>2023-04-11T13:03:55.000Z</time>
      </trkpt>
      <trkpt lat="45.84207" lon="4.72038">
        <ele>315.62454</ele>
        <time>2023-04-11T13:03:56.000Z</time>
      </trkpt>
      <trkpt lat="45.84204" lon="4.72041">
        <ele>316.78036</ele>
        <time>2023-04-11T13:03:57.000Z</time>
      </trkpt>
      <trkpt lat="45.84201" lon="4.72044">
        <ele>317.65436</ele>
        <time>2023-04-11T13:03:58.000Z</time>
      </trkpt>
      <trkpt lat="45.84198" lon="4.72047">
        <ele>318.56195</ele>
        <time>2023-04-11T13:03:59.000Z</time>
      </trkpt>
      <trkpt lat="45.84195" lon="4.7205">
        <ele>319.48834</ele>
        <time>2023-04-11T13:04:00.000Z</time>
      </trkpt>
      <trkpt lat="45.84192" lon="4.72053">
        <ele>320.43774</ele>
        <time>2023-04-11T13:04:01.000Z</time>
      </trkpt>
      <trkpt lat="45.84188" lon="4.72056">
        <ele>321.53806</ele>
        <time>2023-04-11T13:04:02.000Z</time>
      </trkpt>
      <trkpt lat="45.84185" lon="4.72059">
        <ele>322.67584</ele>
        <time>2023-04-11T13:04:03.000Z</time>
      </trkpt>
      <trkpt lat="45.84182" lon="4.72063">
        <ele>323.75104</ele>
        <time>2023-04-11T13:04:04.000Z</time>
      </trkpt>
      <trkpt lat="45.84178" lon="4.72066">
        <ele>324.94</ele>
        <time>2023-04-11T13:04:05.000Z</time>
      </trkpt>
      <trkpt lat="45.84175" lon="4.7207">
        <ele>326.16913</ele>
        <time>2023-04-11T13:04:06.000Z</time>
      </trkpt>
      <trkpt lat="45.84172" lon="4.72073">
        <ele>327.10928</ele>
        <time>2023-04-11T13:04:07.000Z</time>
      </trkpt>
      <trkpt lat="45.84169" lon="4.72076">
        <ele>328.11288</ele>
        <time>2023-04-11T13:04:08.000Z</time>
      </trkpt>
      <trkpt lat="45.84165" lon="4.7208">
        <ele>329.13071</ele>
        <time>2023-04-11T13:04:09.000Z</time>
      </trkpt>
      <trkpt lat="45.84162" lon="4.72083">
        <ele>330.11664</ele>
        <time>2023-04-11T13:04:10.000Z</time>
      </trkpt>
      <trkpt lat="45.84158" lon="4.72087">
        <ele>330.69366</ele>
        <time>2023-04-11T13:04:11.000Z</time>
      </trkpt>
      <trkpt lat="45.84155" lon="4.7209">
        <ele>330.8981</ele>
        <time>2023-04-11T13:04:12.000Z</time>
      </trkpt>
      <trkpt lat="45.84151" lon="4.72093">
        <ele>331.10178</ele>
        <time>2023-04-11T13:04:13.000Z</time>
      </trkpt>
      <trkpt lat="45.84148" lon="4.72096">
        <ele>331.20874</ele>
        <time>2023-04-11T13:04:14.000Z</time>
      </trkpt>
      <trkpt lat="45.84145" lon="4.72099">
        <ele>331.22806</ele>
        <time>2023-04-11T13:04:15.000Z</time>
      </trkpt>
      <trkpt lat="45.84141" lon="4.72102">
        <ele>331.24332</ele>
        <time>2023-04-11T13:04:16.000Z</time>
      </trkpt>
      <trkpt lat="45.84138" lon="4.72105">
        <ele>331.21954</ele>
        <time>2023-04-11T13:04:17.000Z</time>
      </trkpt>
      <trkpt lat="45.84135" lon="4.72108">
        <ele>331.44714</ele>
        <time>2023-04-11T13:04:18.000Z</time>
      </trkpt>
      <trkpt lat="45.84131" lon="4.72111">
        <ele>331.6319</ele>
        <time>2023-04-11T13:04:19.000Z</time>
      </trkpt>
      <trkpt lat="45.84128" lon="4.72114">
        <ele>331.81747</ele>
        <time>2023-04-11T13:04:20.000Z</time>
      </trkpt>
      <trkpt lat="45.84125" lon="4.72116">
        <ele>331.96594</ele>
        <time>2023-04-11T13:04:21.000Z</time>
      </trkpt>
      <trkpt lat="45.84122" lon="4.72119">
        <ele>332.26971</ele>
        <time>2023-04-11T13:04:22.000Z</time>
      </trkpt>
      <trkpt lat="45.84118" lon="4.72121">
        <ele>332.58044</ele>
        <time>2023-04-11T13:04:23.000Z</time>
      </trkpt>
      <trkpt lat="45.84115" lon="4.72123">
        <ele>332.83826</ele>
        <time>2023-04-11T13:04:24.000Z</time>
      </trkpt>
      <trkpt lat="45.84111" lon="4.72125">
        <ele>332.65894</ele>
        <time>2023-04-11T13:04:25.000Z</time>
      </trkpt>
      <trkpt lat="45.84108" lon="4.72126">
        <ele>332.5423</ele>
        <time>2023-04-11T13:04:26.000Z</time>
      </trkpt>
      <trkpt lat="45.84105" lon="4.72127">
        <ele>332.72662</ele>
        <time>2023-04-11T13:04:27.000Z</time>
      </trkpt>
      <trkpt lat="45.84101" lon="4.72128">
        <ele>332.83871</ele>
        <time>2023-04-11T13:04:28.000Z</time>
      </trkpt>
      <trkpt lat="45.84098" lon="4.7213">
        <ele>332.92401</ele>
        <time>2023-04-11T13:04:29.000Z</time>
      </trkpt>
      <trkpt lat="45.84095" lon="4.72131">
        <ele>332.99097</ele>
        <time>2023-04-11T13:04:30.000Z</time>
      </trkpt>
      <trkpt lat="45.84092" lon="4.72133">
        <ele>332.62149</ele>
        <time>2023-04-11T13:04:31.000Z</time>
      </trkpt>
      <trkpt lat="45.84089" lon="4.72134">
        <ele>332.59903</ele>
        <time>2023-04-11T13:04:32.000Z</time>
      </trkpt>
      <trkpt lat="45.84086" lon="4.72136">
        <ele>332.56842</ele>
        <time>2023-04-11T13:04:33.000Z</time>
      </trkpt>
      <trkpt lat="45.84083" lon="4.72137">
        <ele>332.53027</ele>
        <time>2023-04-11T13:04:34.000Z</time>
      </trkpt>
      <trkpt lat="45.8408" lon="4.72139">
        <ele>332.50897</ele>
        <time>2023-04-11T13:04:35.000Z</time>
      </trkpt>
      <trkpt lat="45.84077" lon="4.72141">
        <ele>332.48749</ele>
        <time>2023-04-11T13:04:36.000Z</time>
      </trkpt>
      <trkpt lat="45.84074" lon="4.72144">
        <ele>332.35706</ele>
        <time>2023-04-11T13:04:37.000Z</time>
      </trkpt>
      <trkpt lat="45.8407" lon="4.72146">
        <ele>332.24896</ele>
        <time>2023-04-11T13:04:38.000Z</time>
      </trkpt>
      <trkpt lat="45.84067" lon="4.72149">
        <ele>332.1687</ele>
        <time>2023-04-11T13:04:39.000Z</time>
      </trkpt>
      <trkpt lat="45.84064" lon="4.72151">
        <ele>332.03159</ele>
        <time>2023-04-11T13:04:40.000Z</time>
      </trkpt>
      <trkpt lat="45.8406" lon="4.72153">
        <ele>331.86877</ele>
        <time>2023-04-11T13:04:41.000Z</time>
      </trkpt>
      <trkpt lat="45.84057" lon="4.72156">
        <ele>331.64471</ele>
        <time>2023-04-11T13:04:42.000Z</time>
      </trkpt>
      <trkpt lat="45.84053" lon="4.72158">
        <ele>331.65485</ele>
        <time>2023-04-11T13:04:43.000Z</time>
      </trkpt>
      <trkpt lat="45.84049" lon="4.72159">
        <ele>331.55423</ele>
        <time>2023-04-11T13:04:44.000Z</time>
      </trkpt>
      <trkpt lat="45.84046" lon="4.7216">
        <ele>331.65887</ele>
        <time>2023-04-11T13:04:45.000Z</time>
      </trkpt>
      <trkpt lat="45.84042" lon="4.72161">
        <ele>331.68881</ele>
        <time>2023-04-11T13:04:46.000Z</time>
      </trkpt>
      <trkpt lat="45.84038" lon="4.72162">
        <ele>331.40585</ele>
        <time>2023-04-11T13:04:47.000Z</time>
      </trkpt>
      <trkpt lat="45.84035" lon="4.72163">
        <ele>331.15475</ele>
        <time>2023-04-11T13:04:48.000Z</time>
      </trkpt>
      <trkpt lat="45.84031" lon="4.72164">
        <ele>330.90399</ele>
        <time>2023-04-11T13:04:49.000Z</time>
      </trkpt>
      <trkpt lat="45.84027" lon="4.72164">
        <ele>330.65836</ele>
        <time>2023-04-11T13:04:50.000Z</time>
      </trkpt>
      <trkpt lat="45.84024" lon="4.72163">
        <ele>330.44662</ele>
        <time>2023-04-11T13:04:51.000Z</time>
      </trkpt>
      <trkpt lat="45.84022" lon="4.72163">
        <ele>330.23511</ele>
        <time>2023-04-11T13:04:52.000Z</time>
      </trkpt>
      <trkpt lat="45.84019" lon="4.72162">
        <ele>330.06485</ele>
        <time>2023-04-11T13:04:53.000Z</time>
      </trkpt>
      <trkpt lat="45.84015" lon="4.72162">
        <ele>329.92584</ele>
        <time>2023-04-11T13:04:54.000Z</time>
      </trkpt>
      <trkpt lat="45.84012" lon="4.72162">
        <ele>329.77869</ele>
        <time>2023-04-11T13:04:55.000Z</time>
      </trkpt>
      <trkpt lat="45.84009" lon="4.72164">
        <ele>329.63544</ele>
        <time>2023-04-11T13:04:56.000Z</time>
      </trkpt>
      <trkpt lat="45.84007" lon="4.72165">
        <ele>329.61465</ele>
        <time>2023-04-11T13:04:57.000Z</time>
      </trkpt>
      <trkpt lat="45.84005" lon="4.72166">
        <ele>329.72339</ele>
        <time>2023-04-11T13:04:59.000Z</time>
      </trkpt>
      <trkpt lat="45.84007" lon="4.72163">
        <ele>329.21902</ele>
        <time>2023-04-11T13:05:33.000Z</time>
      </trkpt>
      <trkpt lat="45.84008" lon="4.72161">
        <ele>328.73508</ele>
        <time>2023-04-11T13:05:34.000Z</time>
      </trkpt>
      <trkpt lat="45.84009" lon="4.72159">
        <ele>328.28897</ele>
        <time>2023-04-11T13:05:35.000Z</time>
      </trkpt>
      <trkpt lat="45.84012" lon="4.72158">
        <ele>327.73615</ele>
        <time>2023-04-11T13:05:36.000Z</time>
      </trkpt>
      <trkpt lat="45.84014" lon="4.72157">
        <ele>326.93875</ele>
        <time>2023-04-11T13:05:37.000Z</time>
      </trkpt>
      <trkpt lat="45.84017" lon="4.72156">
        <ele>326.14658</ele>
        <time>2023-04-11T13:05:38.000Z</time>
      </trkpt>
      <trkpt lat="45.84019" lon="4.72154">
        <ele>325.48087</ele>
        <time>2023-04-11T13:05:39.000Z</time>
      </trkpt>
      <trkpt lat="45.84021" lon="4.72151">
        <ele>324.76239</ele>
        <time>2023-04-11T13:05:40.000Z</time>
      </trkpt>
      <trkpt lat="45.84023" lon="4.72147">
        <ele>324.35422</ele>
        <time>2023-04-11T13:05:41.000Z</time>
      </trkpt>
      <trkpt lat="45.84023" lon="4.72142">
        <ele>323.87595</ele>
        <time>2023-04-11T13:05:42.000Z</time>
      </trkpt>
      <trkpt lat="45.84023" lon="4.72137">
        <ele>323.39438</ele>
        <time>2023-04-11T13:05:43.000Z</time>
      </trkpt>
      <trkpt lat="45.84023" lon="4.72131">
        <ele>322.90625</ele>
        <time>2023-04-11T13:05:44.000Z</time>
      </trkpt>
      <trkpt lat="45.84023" lon="4.72125">
        <ele>322.43701</ele>
        <time>2023-04-11T13:05:45.000Z</time>
      </trkpt>
      <trkpt lat="45.84022" lon="4.7212">
        <ele>321.94867</ele>
        <time>2023-04-11T13:05:46.000Z</time>
      </trkpt>
      <trkpt lat="45.84022" lon="4.72113">
        <ele>321.42172</ele>
        <time>2023-04-11T13:05:47.000Z</time>
      </trkpt>
      <trkpt lat="45.84021" lon="4.72106">
        <ele>320.85498</ele>
        <time>2023-04-11T13:05:48.000Z</time>
      </trkpt>
      <trkpt lat="45.84021" lon="4.72099">
        <ele>320.25345</ele>
        <time>2023-04-11T13:05:49.000Z</time>
      </trkpt>
      <trkpt lat="45.84021" lon="4.72092">
        <ele>319.66931</ele>
        <time>2023-04-11T13:05:50.000Z</time>
      </trkpt>
      <trkpt lat="45.84021" lon="4.72086">
        <ele>319.0285</ele>
        <time>2023-04-11T13:05:51.000Z</time>
      </trkpt>
      <trkpt lat="45.84019" lon="4.72081">
        <ele>318.24167</ele>
        <time>2023-04-11T13:05:52.000Z</time>
      </trkpt>
      <trkpt lat="45.84018" lon="4.72074">
        <ele>318.03046</ele>
        <time>2023-04-11T13:05:53.000Z</time>
      </trkpt>
      <trkpt lat="45.84019" lon="4.72068">
        <ele>319.38562</ele>
        <time>2023-04-11T13:05:54.000Z</time>
      </trkpt>
      <trkpt lat="45.84019" lon="4.72063">
        <ele>320.79791</ele>
        <time>2023-04-11T13:05:55.000Z</time>
      </trkpt>
      <trkpt lat="45.84019" lon="4.72057">
        <ele>322.20151</ele>
        <time>2023-04-11T13:05:56.000Z</time>
      </trkpt>
      <trkpt lat="45.84019" lon="4.72051">
        <ele>322.91882</ele>
        <time>2023-04-11T13:05:57.000Z</time>
      </trkpt>
      <trkpt lat="45.84018" lon="4.72045">
        <ele>323.75146</ele>
        <time>2023-04-11T13:05:58.000Z</time>
      </trkpt>
      <trkpt lat="45.84018" lon="4.72038">
        <ele>324.60806</ele>
        <time>2023-04-11T13:05:59.000Z</time>
      </trkpt>
      <trkpt lat="45.84017" lon="4.72032">
        <ele>325.51321</ele>
        <time>2023-04-11T13:06:00.000Z</time>
      </trkpt>
      <trkpt lat="45.84016" lon="4.72026">
        <ele>326.81766</ele>
        <time>2023-04-11T13:06:01.000Z</time>
      </trkpt>
      <trkpt lat="45.84015" lon="4.72018">
        <ele>328.25253</ele>
        <time>2023-04-11T13:06:02.000Z</time>
      </trkpt>
      <trkpt lat="45.84015" lon="4.72013">
        <ele>329.95593</ele>
        <time>2023-04-11T13:06:03.000Z</time>
      </trkpt>
      <trkpt lat="45.84016" lon="4.72007">
        <ele>330.96356</ele>
        <time>2023-04-11T13:06:04.000Z</time>
      </trkpt>
      <trkpt lat="45.84015" lon="4.72001">
        <ele>331.96613</ele>
        <time>2023-04-11T13:06:05.000Z</time>
      </trkpt>
      <trkpt lat="45.84014" lon="4.71995">
        <ele>333.0058</ele>
        <time>2023-04-11T13:06:06.000Z</time>
      </trkpt>
      <trkpt lat="45.84014" lon="4.71989">
        <ele>334.03821</ele>
        <time>2023-04-11T13:06:07.000Z</time>
      </trkpt>
      <trkpt lat="45.84014" lon="4.71984">
        <ele>335.09271</ele>
        <time>2023-04-11T13:06:08.000Z</time>
      </trkpt>
      <trkpt lat="45.84013" lon="4.71978">
        <ele>336.22894</ele>
        <time>2023-04-11T13:06:09.000Z</time>
      </trkpt>
      <trkpt lat="45.84013" lon="4.71971">
        <ele>337.34875</ele>
        <time>2023-04-11T13:06:10.000Z</time>
      </trkpt>
      <trkpt lat="45.84013" lon="4.71966">
        <ele>338.53693</ele>
        <time>2023-04-11T13:06:11.000Z</time>
      </trkpt>
      <trkpt lat="45.84013" lon="4.71961">
        <ele>339.76257</ele>
        <time>2023-04-11T13:06:12.000Z</time>
      </trkpt>
      <trkpt lat="45.84013" lon="4.71956">
        <ele>341.00385</ele>
        <time>2023-04-11T13:06:13.000Z</time>
      </trkpt>
      <trkpt lat="45.84013" lon="4.7195">
        <ele>340.70612</ele>
        <time>2023-04-11T13:06:14.000Z</time>
      </trkpt>
      <trkpt lat="45.84012" lon="4.71945">
        <ele>340.37762</ele>
        <time>2023-04-11T13:06:15.000Z</time>
      </trkpt>
      <trkpt lat="45.84012" lon="4.7194">
        <ele>340.02277</ele>
        <time>2023-04-11T13:06:16.000Z</time>
      </trkpt>
      <trkpt lat="45.84012" lon="4.71935">
        <ele>340.3938</ele>
        <time>2023-04-11T13:06:17.000Z</time>
      </trkpt>
      <trkpt lat="45.84012" lon="4.7193">
        <ele>340.6077</ele>
        <time>2023-04-11T13:06:18.000Z</time>
      </trkpt>
      <trkpt lat="45.84011" lon="4.71925">
        <ele>340.82138</ele>
        <time>2023-04-11T13:06:19.000Z</time>
      </trkpt>
      <trkpt lat="45.84011" lon="4.71921">
        <ele>341.00253</ele>
        <time>2023-04-11T13:06:20.000Z</time>
      </trkpt>
      <trkpt lat="45.84011" lon="4.71916">
        <ele>340.80777</ele>
        <time>2023-04-11T13:06:21.000Z</time>
      </trkpt>
      <trkpt lat="45.84011" lon="4.71912">
        <ele>340.51254</ele>
        <time>2023-04-11T13:06:22.000Z</time>
      </trkpt>
      <trkpt lat="45.8401" lon="4.71907">
        <ele>339.98749</ele>
        <time>2023-04-11T13:06:23.000Z</time>
      </trkpt>
      <trkpt lat="45.8401" lon="4.71903">
        <ele>340.18045</ele>
        <time>2023-04-11T13:06:24.000Z</time>
      </trkpt>
      <trkpt lat="45.8401" lon="4.71898">
        <ele>340.73666</ele>
        <time>2023-04-11T13:06:25.000Z</time>
      </trkpt>
      <trkpt lat="45.84009" lon="4.71893">
        <ele>341.27496</ele>
        <time>2023-04-11T13:06:26.000Z</time>
      </trkpt>
      <trkpt lat="45.84009" lon="4.71889">
        <ele>341.99683</ele>
        <time>2023-04-11T13:06:27.000Z</time>
      </trkpt>
      <trkpt lat="45.84007" lon="4.71885">
        <ele>342.15216</ele>
        <time>2023-04-11T13:06:28.000Z</time>
      </trkpt>
      <trkpt lat="45.84005" lon="4.71881">
        <ele>342.27161</ele>
        <time>2023-04-11T13:06:29.000Z</time>
      </trkpt>
      <trkpt lat="45.84002" lon="4.71877">
        <ele>342.41684</ele>
        <time>2023-04-11T13:06:30.000Z</time>
      </trkpt>
      <trkpt lat="45.84" lon="4.71873">
        <ele>342.6098</ele>
        <time>2023-04-11T13:06:31.000Z</time>
      </trkpt>
      <trkpt lat="45.83997" lon="4.7187">
        <ele>342.78531</ele>
        <time>2023-04-11T13:06:32.000Z</time>
      </trkpt>
      <trkpt lat="45.83993" lon="4.71866">
        <ele>342.9476</ele>
        <time>2023-04-11T13:06:33.000Z</time>
      </trkpt>
      <trkpt lat="45.83991" lon="4.71863">
        <ele>343.04324</ele>
        <time>2023-04-11T13:06:34.000Z</time>
      </trkpt>
      <trkpt lat="45.83988" lon="4.71859">
        <ele>343.37506</ele>
        <time>2023-04-11T13:06:35.000Z</time>
      </trkpt>
      <trkpt lat="45.83984" lon="4.71853">
        <ele>343.8739</ele>
        <time>2023-04-11T13:06:36.000Z</time>
      </trkpt>
      <trkpt lat="45.83981" lon="4.71848">
        <ele>344.38733</ele>
        <time>2023-04-11T13:06:37.000Z</time>
      </trkpt>
      <trkpt lat="45.83978" lon="4.71844">
        <ele>344.38428</ele>
        <time>2023-04-11T13:06:38.000Z</time>
      </trkpt>
      <trkpt lat="45.83974" lon="4.71839">
        <ele>344.45367</ele>
        <time>2023-04-11T13:06:39.000Z</time>
      </trkpt>
      <trkpt lat="45.83972" lon="4.71834">
        <ele>344.49158</ele>
        <time>2023-04-11T13:06:40.000Z</time>
      </trkpt>
      <trkpt lat="45.83969" lon="4.71829">
        <ele>344.51007</ele>
        <time>2023-04-11T13:06:41.000Z</time>
      </trkpt>
      <trkpt lat="45.83966" lon="4.71826">
        <ele>344.54956</ele>
        <time>2023-04-11T13:06:42.000Z</time>
      </trkpt>
      <trkpt lat="45.83963" lon="4.71821">
        <ele>344.84744</ele>
        <time>2023-04-11T13:06:43.000Z</time>
      </trkpt>
      <trkpt lat="45.83959" lon="4.71817">
        <ele>345.32968</ele>
        <time>2023-04-11T13:06:44.000Z</time>
      </trkpt>
      <trkpt lat="45.83956" lon="4.71812">
        <ele>345.46405</ele>
        <time>2023-04-11T13:06:45.000Z</time>
      </trkpt>
      <trkpt lat="45.83954" lon="4.71806">
        <ele>345.07941</ele>
        <time>2023-04-11T13:06:46.000Z</time>
      </trkpt>
      <trkpt lat="45.83952" lon="4.71798">
        <ele>344.55969</ele>
        <time>2023-04-11T13:06:47.000Z</time>
      </trkpt>
      <trkpt lat="45.83952" lon="4.71795">
        <ele>344.6084</ele>
        <time>2023-04-11T13:06:48.000Z</time>
      </trkpt>
      <trkpt lat="45.83951" lon="4.71787">
        <ele>344.68024</ele>
        <time>2023-04-11T13:06:49.000Z</time>
      </trkpt>
      <trkpt lat="45.83948" lon="4.71779">
        <ele>344.67834</ele>
        <time>2023-04-11T13:06:50.000Z</time>
      </trkpt>
      <trkpt lat="45.83945" lon="4.71772">
        <ele>344.59171</ele>
        <time>2023-04-11T13:06:51.000Z</time>
      </trkpt>
      <trkpt lat="45.83942" lon="4.71766">
        <ele>344.49896</ele>
        <time>2023-04-11T13:06:52.000Z</time>
      </trkpt>
      <trkpt lat="45.83938" lon="4.71761">
        <ele>344.42526</ele>
        <time>2023-04-11T13:06:53.000Z</time>
      </trkpt>
      <trkpt lat="45.83933" lon="4.71757">
        <ele>344.39807</ele>
        <time>2023-04-11T13:06:54.000Z</time>
      </trkpt>
      <trkpt lat="45.83929" lon="4.71755">
        <ele>344.50562</ele>
        <time>2023-04-11T13:06:55.000Z</time>
      </trkpt>
      <trkpt lat="45.83925" lon="4.71753">
        <ele>344.5289</ele>
        <time>2023-04-11T13:06:56.000Z</time>
      </trkpt>
      <trkpt lat="45.83921" lon="4.7175">
        <ele>344.5303</ele>
        <time>2023-04-11T13:06:57.000Z</time>
      </trkpt>
      <trkpt lat="45.83916" lon="4.71749">
        <ele>344.53842</ele>
        <time>2023-04-11T13:06:58.000Z</time>
      </trkpt>
      <trkpt lat="45.83912" lon="4.71747">
        <ele>344.49695</ele>
        <time>2023-04-11T13:06:59.000Z</time>
      </trkpt>
      <trkpt lat="45.83907" lon="4.71744">
        <ele>344.44449</ele>
        <time>2023-04-11T13:07:00.000Z</time>
      </trkpt>
      <trkpt lat="45.83903" lon="4.71741">
        <ele>344.39636</ele>
        <time>2023-04-11T13:07:01.000Z</time>
      </trkpt>
      <trkpt lat="45.83898" lon="4.71739">
        <ele>344.27972</ele>
        <time>2023-04-11T13:07:02.000Z</time>
      </trkpt>
      <trkpt lat="45.83893" lon="4.71737">
        <ele>343.95825</ele>
        <time>2023-04-11T13:07:03.000Z</time>
      </trkpt>
      <trkpt lat="45.83888" lon="4.71734">
        <ele>343.40771</ele>
        <time>2023-04-11T13:07:04.000Z</time>
      </trkpt>
      <trkpt lat="45.83883" lon="4.71733">
        <ele>342.82947</ele>
        <time>2023-04-11T13:07:05.000Z</time>
      </trkpt>
      <trkpt lat="45.83876" lon="4.71729">
        <ele>342.77905</ele>
        <time>2023-04-11T13:07:06.000Z</time>
      </trkpt>
      <trkpt lat="45.83869" lon="4.71727">
        <ele>342.65985</ele>
        <time>2023-04-11T13:07:07.000Z</time>
      </trkpt>
      <trkpt lat="45.83863" lon="4.71724">
        <ele>342.49844</ele>
        <time>2023-04-11T13:07:08.000Z</time>
      </trkpt>
      <trkpt lat="45.83858" lon="4.71722">
        <ele>342.6022</ele>
        <time>2023-04-11T13:07:09.000Z</time>
      </trkpt>
      <trkpt lat="45.83853" lon="4.71721">
        <ele>342.92795</ele>
        <time>2023-04-11T13:07:10.000Z</time>
      </trkpt>
      <trkpt lat="45.83849" lon="4.7172">
        <ele>342.65802</ele>
        <time>2023-04-11T13:07:11.000Z</time>
      </trkpt>
      <trkpt lat="45.83842" lon="4.71718">
        <ele>342.4751</ele>
        <time>2023-04-11T13:07:12.000Z</time>
      </trkpt>
      <trkpt lat="45.83837" lon="4.71718">
        <ele>342.32031</ele>
        <time>2023-04-11T13:07:13.000Z</time>
      </trkpt>
      <trkpt lat="45.83832" lon="4.71716">
        <ele>342.16986</ele>
        <time>2023-04-11T13:07:14.000Z</time>
      </trkpt>
      <trkpt lat="45.83828" lon="4.71715">
        <ele>341.63873</ele>
        <time>2023-04-11T13:07:15.000Z</time>
      </trkpt>
      <trkpt lat="45.83822" lon="4.71712">
        <ele>341.04675</ele>
        <time>2023-04-11T13:07:16.000Z</time>
      </trkpt>
      <trkpt lat="45.83819" lon="4.71709">
        <ele>340.3688</ele>
        <time>2023-04-11T13:07:17.000Z</time>
      </trkpt>
      <trkpt lat="45.83813" lon="4.71705">
        <ele>340.18915</ele>
        <time>2023-04-11T13:07:18.000Z</time>
      </trkpt>
      <trkpt lat="45.83808" lon="4.71703">
        <ele>339.99286</ele>
        <time>2023-04-11T13:07:19.000Z</time>
      </trkpt>
      <trkpt lat="45.83803" lon="4.71703">
        <ele>339.78827</ele>
        <time>2023-04-11T13:07:20.000Z</time>
      </trkpt>
      <trkpt lat="45.83799" lon="4.71701">
        <ele>339.54745</ele>
        <time>2023-04-11T13:07:21.000Z</time>
      </trkpt>
      <trkpt lat="45.83795" lon="4.717">
        <ele>339.38495</ele>
        <time>2023-04-11T13:07:22.000Z</time>
      </trkpt>
      <trkpt lat="45.8379" lon="4.71698">
        <ele>339.18903</ele>
        <time>2023-04-11T13:07:23.000Z</time>
      </trkpt>
      <trkpt lat="45.83785" lon="4.71696">
        <ele>339.1806</ele>
        <time>2023-04-11T13:07:24.000Z</time>
      </trkpt>
      <trkpt lat="45.83779" lon="4.71696">
        <ele>339.28229</ele>
        <time>2023-04-11T13:07:25.000Z</time>
      </trkpt>
      <trkpt lat="45.83775" lon="4.71694">
        <ele>339.32184</ele>
        <time>2023-04-11T13:07:26.000Z</time>
      </trkpt>
      <trkpt lat="45.83771" lon="4.71695">
        <ele>339.42676</ele>
        <time>2023-04-11T13:07:27.000Z</time>
      </trkpt>
      <trkpt lat="45.83766" lon="4.71694">
        <ele>339.41278</ele>
        <time>2023-04-11T13:07:28.000Z</time>
      </trkpt>
      <trkpt lat="45.83763" lon="4.71696">
        <ele>339.04431</ele>
        <time>2023-04-11T13:07:29.000Z</time>
      </trkpt>
      <trkpt lat="45.83759" lon="4.71695">
        <ele>338.41977</ele>
        <time>2023-04-11T13:07:30.000Z</time>
      </trkpt>
      <trkpt lat="45.83754" lon="4.71696">
        <ele>338.31857</ele>
        <time>2023-04-11T13:07:31.000Z</time>
      </trkpt>
      <trkpt lat="45.8375" lon="4.71698">
        <ele>338.048</ele>
        <time>2023-04-11T13:07:32.000Z</time>
      </trkpt>
      <trkpt lat="45.83746" lon="4.71697">
        <ele>337.72528</ele>
        <time>2023-04-11T13:07:33.000Z</time>
      </trkpt>
      <trkpt lat="45.83743" lon="4.71696">
        <ele>337.50159</ele>
        <time>2023-04-11T13:07:34.000Z</time>
      </trkpt>
      <trkpt lat="45.83739" lon="4.71696">
        <ele>337.77612</ele>
        <time>2023-04-11T13:07:35.000Z</time>
      </trkpt>
      <trkpt lat="45.83737" lon="4.71697">
        <ele>337.89313</ele>
        <time>2023-04-11T13:07:36.000Z</time>
      </trkpt>
      <trkpt lat="45.83734" lon="4.71697">
        <ele>338.09271</ele>
        <time>2023-04-11T13:07:37.000Z</time>
      </trkpt>
      <trkpt lat="45.83732" lon="4.71698">
        <ele>338.26501</ele>
        <time>2023-04-11T13:07:38.000Z</time>
      </trkpt>
      <trkpt lat="45.83729" lon="4.71699">
        <ele>338.34918</ele>
        <time>2023-04-11T13:07:39.000Z</time>
      </trkpt>
      <trkpt lat="45.83727" lon="4.71701">
        <ele>338.48242</ele>
        <time>2023-04-11T13:07:40.000Z</time>
      </trkpt>
      <trkpt lat="45.83724" lon="4.71703">
        <ele>338.6507</ele>
        <time>2023-04-11T13:07:41.000Z</time>
      </trkpt>
      <trkpt lat="45.83721" lon="4.71706">
        <ele>338.80203</ele>
        <time>2023-04-11T13:07:42.000Z</time>
      </trkpt>
      <trkpt lat="45.83718" lon="4.71709">
        <ele>338.914</ele>
        <time>2023-04-11T13:07:43.000Z</time>
      </trkpt>
      <trkpt lat="45.83716" lon="4.71712">
        <ele>338.85223</ele>
        <time>2023-04-11T13:07:44.000Z</time>
      </trkpt>
      <trkpt lat="45.83714" lon="4.71715">
        <ele>338.67459</ele>
        <time>2023-04-11T13:07:45.000Z</time>
      </trkpt>
      <trkpt lat="45.83712" lon="4.71718">
        <ele>338.53555</ele>
        <time>2023-04-11T13:07:46.000Z</time>
      </trkpt>
      <trkpt lat="45.8371" lon="4.7172">
        <ele>338.34665</ele>
        <time>2023-04-11T13:07:47.000Z</time>
      </trkpt>
      <trkpt lat="45.83708" lon="4.71722">
        <ele>338.34155</ele>
        <time>2023-04-11T13:07:48.000Z</time>
      </trkpt>
      <trkpt lat="45.83704" lon="4.71725">
        <ele>338.42694</ele>
        <time>2023-04-11T13:07:50.000Z</time>
      </trkpt>
      <trkpt lat="45.83701" lon="4.71727">
        <ele>338.59076</ele>
        <time>2023-04-11T13:07:51.000Z</time>
      </trkpt>
      <trkpt lat="45.83699" lon="4.71729">
        <ele>338.79584</ele>
        <time>2023-04-11T13:07:52.000Z</time>
      </trkpt>
      <trkpt lat="45.83697" lon="4.71731">
        <ele>339.06985</ele>
        <time>2023-04-11T13:07:53.000Z</time>
      </trkpt>
      <trkpt lat="45.83694" lon="4.71735">
        <ele>339.35712</ele>
        <time>2023-04-11T13:07:54.000Z</time>
      </trkpt>
      <trkpt lat="45.83693" lon="4.71737">
        <ele>339.55597</ele>
        <time>2023-04-11T13:07:55.000Z</time>
      </trkpt>
      <trkpt lat="45.83691" lon="4.7174">
        <ele>339.55682</ele>
        <time>2023-04-11T13:07:56.000Z</time>
      </trkpt>
      <trkpt lat="45.83689" lon="4.71742">
        <ele>339.79242</ele>
        <time>2023-04-11T13:07:57.000Z</time>
      </trkpt>
      <trkpt lat="45.83687" lon="4.71744">
        <ele>339.23969</ele>
        <time>2023-04-11T13:07:58.000Z</time>
      </trkpt>
      <trkpt lat="45.83685" lon="4.71746">
        <ele>338.94238</ele>
        <time>2023-04-11T13:07:59.000Z</time>
      </trkpt>
      <trkpt lat="45.83683" lon="4.71748">
        <ele>338.67926</ele>
        <time>2023-04-11T13:08:00.000Z</time>
      </trkpt>
      <trkpt lat="45.83681" lon="4.71749">
        <ele>338.37097</ele>
        <time>2023-04-11T13:08:01.000Z</time>
      </trkpt>
      <trkpt lat="45.83679" lon="4.71751">
        <ele>338.0629</ele>
        <time>2023-04-11T13:08:02.000Z</time>
      </trkpt>
      <trkpt lat="45.83677" lon="4.71753">
        <ele>337.75766</ele>
        <time>2023-04-11T13:08:03.000Z</time>
      </trkpt>
      <trkpt lat="45.83675" lon="4.71756">
        <ele>337.46368</ele>
        <time>2023-04-11T13:08:04.000Z</time>
      </trkpt>
      <trkpt lat="45.83672" lon="4.7176">
        <ele>337.18652</ele>
        <time>2023-04-11T13:08:05.000Z</time>
      </trkpt>
      <trkpt lat="45.83669" lon="4.71764">
        <ele>337.08237</ele>
        <time>2023-04-11T13:08:06.000Z</time>
      </trkpt>
      <trkpt lat="45.83666" lon="4.71768">
        <ele>336.96011</ele>
        <time>2023-04-11T13:08:07.000Z</time>
      </trkpt>
      <trkpt lat="45.83664" lon="4.71772">
        <ele>336.82431</ele>
        <time>2023-04-11T13:08:08.000Z</time>
      </trkpt>
      <trkpt lat="45.83661" lon="4.71775">
        <ele>336.70633</ele>
        <time>2023-04-11T13:08:09.000Z</time>
      </trkpt>
      <trkpt lat="45.83659" lon="4.71778">
        <ele>336.70175</ele>
        <time>2023-04-11T13:08:10.000Z</time>
      </trkpt>
      <trkpt lat="45.83657" lon="4.71782">
        <ele>336.73895</ele>
        <time>2023-04-11T13:08:11.000Z</time>
      </trkpt>
      <trkpt lat="45.83655" lon="4.71785">
        <ele>336.84332</ele>
        <time>2023-04-11T13:08:12.000Z</time>
      </trkpt>
      <trkpt lat="45.83652" lon="4.71787">
        <ele>337.0929</ele>
        <time>2023-04-11T13:08:13.000Z</time>
      </trkpt>
      <trkpt lat="45.8365" lon="4.71789">
        <ele>337.35263</ele>
        <time>2023-04-11T13:08:14.000Z</time>
      </trkpt>
      <trkpt lat="45.83648" lon="4.71789">
        <ele>337.57935</ele>
        <time>2023-04-11T13:08:15.000Z</time>
      </trkpt>
      <trkpt lat="45.83645" lon="4.7179">
        <ele>337.41498</ele>
        <time>2023-04-11T13:08:16.000Z</time>
      </trkpt>
      <trkpt lat="45.83643" lon="4.71791">
        <ele>337.39581</ele>
        <time>2023-04-11T13:08:17.000Z</time>
      </trkpt>
      <trkpt lat="45.83641" lon="4.71791">
        <ele>338.07706</ele>
        <time>2023-04-11T13:08:18.000Z</time>
      </trkpt>
      <trkpt lat="45.83639" lon="4.7179">
        <ele>338.62567</ele>
        <time>2023-04-11T13:08:19.000Z</time>
      </trkpt>
      <trkpt lat="45.83638" lon="4.7179">
        <ele>339.38232</ele>
        <time>2023-04-11T13:08:20.000Z</time>
      </trkpt>
      <trkpt lat="45.83635" lon="4.7179">
        <ele>339.69171</ele>
        <time>2023-04-11T13:08:21.000Z</time>
      </trkpt>
      <trkpt lat="45.83634" lon="4.71791">
        <ele>340.11011</ele>
        <time>2023-04-11T13:08:22.000Z</time>
      </trkpt>
      <trkpt lat="45.83631" lon="4.71792">
        <ele>340.50372</ele>
        <time>2023-04-11T13:08:23.000Z</time>
      </trkpt>
      <trkpt lat="45.83629" lon="4.71792">
        <ele>340.92352</ele>
        <time>2023-04-11T13:08:24.000Z</time>
      </trkpt>
      <trkpt lat="45.83626" lon="4.71792">
        <ele>341.61328</ele>
        <time>2023-04-11T13:08:25.000Z</time>
      </trkpt>
      <trkpt lat="45.83624" lon="4.71791">
        <ele>342.31659</ele>
        <time>2023-04-11T13:08:26.000Z</time>
      </trkpt>
      <trkpt lat="45.83622" lon="4.71791">
        <ele>343.25369</ele>
        <time>2023-04-11T13:08:27.000Z</time>
      </trkpt>
      <trkpt lat="45.83619" lon="4.7179">
        <ele>344.2916</ele>
        <time>2023-04-11T13:08:28.000Z</time>
      </trkpt>
      <trkpt lat="45.83616" lon="4.7179">
        <ele>344.55969</ele>
        <time>2023-04-11T13:08:29.000Z</time>
      </trkpt>
      <trkpt lat="45.83614" lon="4.7179">
        <ele>344.78168</ele>
        <time>2023-04-11T13:08:30.000Z</time>
      </trkpt>
      <trkpt lat="45.83612" lon="4.71792">
        <ele>345.00177</ele>
        <time>2023-04-11T13:08:31.000Z</time>
      </trkpt>
      <trkpt lat="45.8361" lon="4.71794">
        <ele>345.19891</ele>
        <time>2023-04-11T13:08:32.000Z</time>
      </trkpt>
      <trkpt lat="45.83611" lon="4.71797">
        <ele>345.55005</ele>
        <time>2023-04-11T13:08:33.000Z</time>
      </trkpt>
      <trkpt lat="45.83611" lon="4.718">
        <ele>346.0524</ele>
        <time>2023-04-11T13:08:34.000Z</time>
      </trkpt>
      <trkpt lat="45.83613" lon="4.71804">
        <ele>346.55215</ele>
        <time>2023-04-11T13:08:36.000Z</time>
      </trkpt>
      <trkpt lat="45.83615" lon="4.71806">
        <ele>347.15131</ele>
        <time>2023-04-11T13:08:37.000Z</time>
      </trkpt>
      <trkpt lat="45.83616" lon="4.71809">
        <ele>346.96811</ele>
        <time>2023-04-11T13:08:38.000Z</time>
      </trkpt>
      <trkpt lat="45.83618" lon="4.71812">
        <ele>346.9454</ele>
        <time>2023-04-11T13:08:39.000Z</time>
      </trkpt>
      <trkpt lat="45.83619" lon="4.71814">
        <ele>346.90427</ele>
        <time>2023-04-11T13:08:40.000Z</time>
      </trkpt>
      <trkpt lat="45.8362" lon="4.71817">
        <ele>346.66818</ele>
        <time>2023-04-11T13:08:41.000Z</time>
      </trkpt>
      <trkpt lat="45.83622" lon="4.71821">
        <ele>346.91809</ele>
        <time>2023-04-11T13:08:42.000Z</time>
      </trkpt>
      <trkpt lat="45.83624" lon="4.71826">
        <ele>347.0585</ele>
        <time>2023-04-11T13:08:43.000Z</time>
      </trkpt>
      <trkpt lat="45.83625" lon="4.7183">
        <ele>347.19244</ele>
        <time>2023-04-11T13:08:44.000Z</time>
      </trkpt>
      <trkpt lat="45.83627" lon="4.71835">
        <ele>347.29803</ele>
        <time>2023-04-11T13:08:45.000Z</time>
      </trkpt>
      <trkpt lat="45.83629" lon="4.71839">
        <ele>347.14264</ele>
        <time>2023-04-11T13:08:46.000Z</time>
      </trkpt>
      <trkpt lat="45.83631" lon="4.71843">
        <ele>346.85016</ele>
        <time>2023-04-11T13:08:47.000Z</time>
      </trkpt>
      <trkpt lat="45.83633" lon="4.71846">
        <ele>346.31177</ele>
        <time>2023-04-11T13:08:48.000Z</time>
      </trkpt>
      <trkpt lat="45.83636" lon="4.71849">
        <ele>345.72928</ele>
        <time>2023-04-11T13:08:49.000Z</time>
      </trkpt>
      <trkpt lat="45.8364" lon="4.71852">
        <ele>345.87567</ele>
        <time>2023-04-11T13:08:50.000Z</time>
      </trkpt>
      <trkpt lat="45.83643" lon="4.71856">
        <ele>345.92279</ele>
        <time>2023-04-11T13:08:51.000Z</time>
      </trkpt>
      <trkpt lat="45.83646" lon="4.71859">
        <ele>345.95264</ele>
        <time>2023-04-11T13:08:52.000Z</time>
      </trkpt>
      <trkpt lat="45.83649" lon="4.71863">
        <ele>346.2244</ele>
        <time>2023-04-11T13:08:53.000Z</time>
      </trkpt>
      <trkpt lat="45.83653" lon="4.71867">
        <ele>346.24023</ele>
        <time>2023-04-11T13:08:54.000Z</time>
      </trkpt>
      <trkpt lat="45.83655" lon="4.71871">
        <ele>346.08734</ele>
        <time>2023-04-11T13:08:55.000Z</time>
      </trkpt>
      <trkpt lat="45.83656" lon="4.71876">
        <ele>345.4249</ele>
        <time>2023-04-11T13:08:56.000Z</time>
      </trkpt>
      <trkpt lat="45.83656" lon="4.71879">
        <ele>344.85294</ele>
        <time>2023-04-11T13:08:57.000Z</time>
      </trkpt>
      <trkpt lat="45.83656" lon="4.71883">
        <ele>344.59409</ele>
        <time>2023-04-11T13:08:58.000Z</time>
      </trkpt>
      <trkpt lat="45.83655" lon="4.71888">
        <ele>344.26334</ele>
        <time>2023-04-11T13:08:59.000Z</time>
      </trkpt>
      <trkpt lat="45.83654" lon="4.71891">
        <ele>344.12872</ele>
        <time>2023-04-11T13:09:00.000Z</time>
      </trkpt>
      <trkpt lat="45.83654" lon="4.71895">
        <ele>344.20401</ele>
        <time>2023-04-11T13:09:01.000Z</time>
      </trkpt>
      <trkpt lat="45.83654" lon="4.71899">
        <ele>344.25513</ele>
        <time>2023-04-11T13:09:02.000Z</time>
      </trkpt>
      <trkpt lat="45.83654" lon="4.71902">
        <ele>344.32874</ele>
        <time>2023-04-11T13:09:03.000Z</time>
      </trkpt>
      <trkpt lat="45.83654" lon="4.71906">
        <ele>344.44464</ele>
        <time>2023-04-11T13:09:04.000Z</time>
      </trkpt>
      <trkpt lat="45.83654" lon="4.71909">
        <ele>344.78433</ele>
        <time>2023-04-11T13:09:05.000Z</time>
      </trkpt>
      <trkpt lat="45.83653" lon="4.71913">
        <ele>345.11652</ele>
        <time>2023-04-11T13:09:06.000Z</time>
      </trkpt>
      <trkpt lat="45.83654" lon="4.71917">
        <ele>345.42163</ele>
        <time>2023-04-11T13:09:07.000Z</time>
      </trkpt>
      <trkpt lat="45.83654" lon="4.7192">
        <ele>345.96298</ele>
        <time>2023-04-11T13:09:08.000Z</time>
      </trkpt>
      <trkpt lat="45.83653" lon="4.71923">
        <ele>345.94067</ele>
        <time>2023-04-11T13:09:09.000Z</time>
      </trkpt>
      <trkpt lat="45.83653" lon="4.71926">
        <ele>346.00778</ele>
        <time>2023-04-11T13:09:10.000Z</time>
      </trkpt>
      <trkpt lat="45.83653" lon="4.7193">
        <ele>346.07623</ele>
        <time>2023-04-11T13:09:11.000Z</time>
      </trkpt>
      <trkpt lat="45.83652" lon="4.71933">
        <ele>346.11447</ele>
        <time>2023-04-11T13:09:12.000Z</time>
      </trkpt>
      <trkpt lat="45.83652" lon="4.71937">
        <ele>345.94254</ele>
        <time>2023-04-11T13:09:13.000Z</time>
      </trkpt>
      <trkpt lat="45.83652" lon="4.71941">
        <ele>345.73618</ele>
        <time>2023-04-11T13:09:14.000Z</time>
      </trkpt>
      <trkpt lat="45.83652" lon="4.71945">
        <ele>345.50323</ele>
        <time>2023-04-11T13:09:15.000Z</time>
      </trkpt>
      <trkpt lat="45.83653" lon="4.71948">
        <ele>345.98862</ele>
        <time>2023-04-11T13:09:16.000Z</time>
      </trkpt>
      <trkpt lat="45.83653" lon="4.71952">
        <ele>346.48764</ele>
        <time>2023-04-11T13:09:17.000Z</time>
      </trkpt>
      <trkpt lat="45.83653" lon="4.71956">
        <ele>347.24365</ele>
        <time>2023-04-11T13:09:18.000Z</time>
      </trkpt>
      <trkpt lat="45.83653" lon="4.7196">
        <ele>347.97064</ele>
        <time>2023-04-11T13:09:19.000Z</time>
      </trkpt>
      <trkpt lat="45.83654" lon="4.71965">
        <ele>348.56622</ele>
        <time>2023-04-11T13:09:20.000Z</time>
      </trkpt>
      <trkpt lat="45.83654" lon="4.7197">
        <ele>349.00885</ele>
        <time>2023-04-11T13:09:21.000Z</time>
      </trkpt>
      <trkpt lat="45.83654" lon="4.71974">
        <ele>348.90573</ele>
        <time>2023-04-11T13:09:22.000Z</time>
      </trkpt>
      <trkpt lat="45.83654" lon="4.71978">
        <ele>348.85803</ele>
        <time>2023-04-11T13:09:23.000Z</time>
      </trkpt>
      <trkpt lat="45.83654" lon="4.71982">
        <ele>348.36957</ele>
        <time>2023-04-11T13:09:24.000Z</time>
      </trkpt>
      <trkpt lat="45.83654" lon="4.71986">
        <ele>347.68011</ele>
        <time>2023-04-11T13:09:25.000Z</time>
      </trkpt>
      <trkpt lat="45.83655" lon="4.7199">
        <ele>346.96173</ele>
        <time>2023-04-11T13:09:26.000Z</time>
      </trkpt>
      <trkpt lat="45.83655" lon="4.71995">
        <ele>346.21402</ele>
        <time>2023-04-11T13:09:27.000Z</time>
      </trkpt>
      <trkpt lat="45.83655" lon="4.71999">
        <ele>345.29794</ele>
        <time>2023-04-11T13:09:28.000Z</time>
      </trkpt>
      <trkpt lat="45.83655" lon="4.72003">
        <ele>344.88736</ele>
        <time>2023-04-11T13:09:29.000Z</time>
      </trkpt>
      <trkpt lat="45.83655" lon="4.72007">
        <ele>344.57748</ele>
        <time>2023-04-11T13:09:30.000Z</time>
      </trkpt>
      <trkpt lat="45.83655" lon="4.72011">
        <ele>344.28497</ele>
        <time>2023-04-11T13:09:31.000Z</time>
      </trkpt>
      <trkpt lat="45.83655" lon="4.72015">
        <ele>344.00275</ele>
        <time>2023-04-11T13:09:32.000Z</time>
      </trkpt>
      <trkpt lat="45.83655" lon="4.72019">
        <ele>343.3746</ele>
        <time>2023-04-11T13:09:33.000Z</time>
      </trkpt>
      <trkpt lat="45.83655" lon="4.72023">
        <ele>342.7998</ele>
        <time>2023-04-11T13:09:34.000Z</time>
      </trkpt>
      <trkpt lat="45.83655" lon="4.72026">
        <ele>342.466</ele>
        <time>2023-04-11T13:09:35.000Z</time>
      </trkpt>
      <trkpt lat="45.83655" lon="4.7203">
        <ele>342.14978</ele>
        <time>2023-04-11T13:09:36.000Z</time>
      </trkpt>
      <trkpt lat="45.83654" lon="4.72033">
        <ele>341.69586</ele>
        <time>2023-04-11T13:09:37.000Z</time>
      </trkpt>
      <trkpt lat="45.83653" lon="4.72036">
        <ele>341.23502</ele>
        <time>2023-04-11T13:09:38.000Z</time>
      </trkpt>
      <trkpt lat="45.8365" lon="4.72039">
        <ele>340.75861</ele>
        <time>2023-04-11T13:09:39.000Z</time>
      </trkpt>
      <trkpt lat="45.83647" lon="4.7204">
        <ele>340.24347</ele>
        <time>2023-04-11T13:09:40.000Z</time>
      </trkpt>
      <trkpt lat="45.83643" lon="4.7204">
        <ele>339.69708</ele>
        <time>2023-04-11T13:09:41.000Z</time>
      </trkpt>
      <trkpt lat="45.8364" lon="4.7204">
        <ele>339.72263</ele>
        <time>2023-04-11T13:09:42.000Z</time>
      </trkpt>
      <trkpt lat="45.83636" lon="4.72041">
        <ele>339.68027</ele>
        <time>2023-04-11T13:09:43.000Z</time>
      </trkpt>
      <trkpt lat="45.83633" lon="4.7204">
        <ele>340.02744</ele>
        <time>2023-04-11T13:09:44.000Z</time>
      </trkpt>
      <trkpt lat="45.83629" lon="4.7204">
        <ele>340.34476</ele>
        <time>2023-04-11T13:09:45.000Z</time>
      </trkpt>
      <trkpt lat="45.83625" lon="4.7204">
        <ele>340.69681</ele>
        <time>2023-04-11T13:09:46.000Z</time>
      </trkpt>
      <trkpt lat="45.83622" lon="4.7204">
        <ele>341.03574</ele>
        <time>2023-04-11T13:09:47.000Z</time>
      </trkpt>
      <trkpt lat="45.83618" lon="4.7204">
        <ele>340.95358</ele>
        <time>2023-04-11T13:09:48.000Z</time>
      </trkpt>
      <trkpt lat="45.83614" lon="4.72041">
        <ele>340.91388</ele>
        <time>2023-04-11T13:09:49.000Z</time>
      </trkpt>
      <trkpt lat="45.8361" lon="4.72041">
        <ele>340.6651</ele>
        <time>2023-04-11T13:09:50.000Z</time>
      </trkpt>
      <trkpt lat="45.83606" lon="4.72042">
        <ele>340.41776</ele>
        <time>2023-04-11T13:09:51.000Z</time>
      </trkpt>
      <trkpt lat="45.83602" lon="4.72042">
        <ele>340.13992</ele>
        <time>2023-04-11T13:09:52.000Z</time>
      </trkpt>
      <trkpt lat="45.83598" lon="4.72042">
        <ele>340.18692</ele>
        <time>2023-04-11T13:09:53.000Z</time>
      </trkpt>
      <trkpt lat="45.83594" lon="4.72043">
        <ele>340.20465</ele>
        <time>2023-04-11T13:09:54.000Z</time>
      </trkpt>
      <trkpt lat="45.8359" lon="4.72043">
        <ele>339.99622</ele>
        <time>2023-04-11T13:09:55.000Z</time>
      </trkpt>
      <trkpt lat="45.83586" lon="4.72043">
        <ele>339.59033</ele>
        <time>2023-04-11T13:09:56.000Z</time>
      </trkpt>
      <trkpt lat="45.83582" lon="4.72043">
        <ele>339.3974</ele>
        <time>2023-04-11T13:09:57.000Z</time>
      </trkpt>
      <trkpt lat="45.83578" lon="4.72044">
        <ele>339.21014</ele>
        <time>2023-04-11T13:09:58.000Z</time>
      </trkpt>
      <trkpt lat="45.83574" lon="4.72045">
        <ele>339.04471</ele>
        <time>2023-04-11T13:09:59.000Z</time>
      </trkpt>
      <trkpt lat="45.8357" lon="4.72045">
        <ele>338.87671</ele>
        <time>2023-04-11T13:10:00.000Z</time>
      </trkpt>
      <trkpt lat="45.83566" lon="4.72046">
        <ele>338.37219</ele>
        <time>2023-04-11T13:10:01.000Z</time>
      </trkpt>
      <trkpt lat="45.83562" lon="4.72047">
        <ele>337.95587</ele>
        <time>2023-04-11T13:10:02.000Z</time>
      </trkpt>
      <trkpt lat="45.83558" lon="4.72048">
        <ele>337.78412</ele>
        <time>2023-04-11T13:10:03.000Z</time>
      </trkpt>
      <trkpt lat="45.83554" lon="4.72048">
        <ele>337.77899</ele>
        <time>2023-04-11T13:10:04.000Z</time>
      </trkpt>
      <trkpt lat="45.8355" lon="4.72049">
        <ele>337.76147</ele>
        <time>2023-04-11T13:10:05.000Z</time>
      </trkpt>
      <trkpt lat="45.83545" lon="4.72049">
        <ele>337.74414</ele>
        <time>2023-04-11T13:10:06.000Z</time>
      </trkpt>
      <trkpt lat="45.83541" lon="4.72049">
        <ele>337.78629</ele>
        <time>2023-04-11T13:10:07.000Z</time>
      </trkpt>
      <trkpt lat="45.83537" lon="4.7205">
        <ele>338.59406</ele>
        <time>2023-04-11T13:10:08.000Z</time>
      </trkpt>
      <trkpt lat="45.83533" lon="4.72052">
        <ele>339.40668</ele>
        <time>2023-04-11T13:10:09.000Z</time>
      </trkpt>
      <trkpt lat="45.83529" lon="4.72053">
        <ele>340.24463</ele>
        <time>2023-04-11T13:10:10.000Z</time>
      </trkpt>
      <trkpt lat="45.83525" lon="4.72054">
        <ele>341.05612</ele>
        <time>2023-04-11T13:10:11.000Z</time>
      </trkpt>
      <trkpt lat="45.83521" lon="4.72055">
        <ele>341.96552</ele>
        <time>2023-04-11T13:10:12.000Z</time>
      </trkpt>
      <trkpt lat="45.83517" lon="4.72055">
        <ele>342.84647</ele>
        <time>2023-04-11T13:10:13.000Z</time>
      </trkpt>
      <trkpt lat="45.83513" lon="4.72056">
        <ele>343.74759</ele>
        <time>2023-04-11T13:10:14.000Z</time>
      </trkpt>
      <trkpt lat="45.83508" lon="4.72057">
        <ele>344.73825</ele>
        <time>2023-04-11T13:10:15.000Z</time>
      </trkpt>
      <trkpt lat="45.83503" lon="4.72057">
        <ele>345.75708</ele>
        <time>2023-04-11T13:10:16.000Z</time>
      </trkpt>
      <trkpt lat="45.83499" lon="4.72056">
        <ele>346.00018</ele>
        <time>2023-04-11T13:10:17.000Z</time>
      </trkpt>
      <trkpt lat="45.83494" lon="4.72057">
        <ele>346.30673</ele>
        <time>2023-04-11T13:10:18.000Z</time>
      </trkpt>
      <trkpt lat="45.83489" lon="4.72056">
        <ele>346.6171</ele>
        <time>2023-04-11T13:10:19.000Z</time>
      </trkpt>
      <trkpt lat="45.83486" lon="4.72055">
        <ele>346.86258</ele>
        <time>2023-04-11T13:10:20.000Z</time>
      </trkpt>
      <trkpt lat="45.83482" lon="4.72055">
        <ele>347.4426</ele>
        <time>2023-04-11T13:10:21.000Z</time>
      </trkpt>
      <trkpt lat="45.83478" lon="4.72055">
        <ele>347.95728</ele>
        <time>2023-04-11T13:10:22.000Z</time>
      </trkpt>
      <trkpt lat="45.83474" lon="4.72055">
        <ele>348.21698</ele>
        <time>2023-04-11T13:10:23.000Z</time>
      </trkpt>
      <trkpt lat="45.8347" lon="4.72054">
        <ele>348.30185</ele>
        <time>2023-04-11T13:10:24.000Z</time>
      </trkpt>
      <trkpt lat="45.83466" lon="4.72054">
        <ele>348.39261</ele>
        <time>2023-04-11T13:10:25.000Z</time>
      </trkpt>
      <trkpt lat="45.83462" lon="4.72053">
        <ele>348.46179</ele>
        <time>2023-04-11T13:10:26.000Z</time>
      </trkpt>
      <trkpt lat="45.83458" lon="4.72052">
        <ele>348.5361</ele>
        <time>2023-04-11T13:10:27.000Z</time>
      </trkpt>
      <trkpt lat="45.83455" lon="4.72049">
        <ele>348.23148</ele>
        <time>2023-04-11T13:10:28.000Z</time>
      </trkpt>
      <trkpt lat="45.83452" lon="4.72045">
        <ele>347.91238</ele>
        <time>2023-04-11T13:10:29.000Z</time>
      </trkpt>
      <trkpt lat="45.8345" lon="4.7204">
        <ele>347.94934</ele>
        <time>2023-04-11T13:10:30.000Z</time>
      </trkpt>
      <trkpt lat="45.83448" lon="4.72035">
        <ele>347.99683</ele>
        <time>2023-04-11T13:10:31.000Z</time>
      </trkpt>
      <trkpt lat="45.83447" lon="4.72029">
        <ele>347.93604</ele>
        <time>2023-04-11T13:10:32.000Z</time>
      </trkpt>
      <trkpt lat="45.83447" lon="4.72022">
        <ele>347.90918</ele>
        <time>2023-04-11T13:10:33.000Z</time>
      </trkpt>
      <trkpt lat="45.83449" lon="4.72015">
        <ele>347.819</ele>
        <time>2023-04-11T13:10:34.000Z</time>
      </trkpt>
      <trkpt lat="45.83451" lon="4.72009">
        <ele>347.64502</ele>
        <time>2023-04-11T13:10:35.000Z</time>
      </trkpt>
      <trkpt lat="45.83452" lon="4.72003">
        <ele>347.45453</ele>
        <time>2023-04-11T13:10:36.000Z</time>
      </trkpt>
      <trkpt lat="45.83453" lon="4.71996">
        <ele>347.84753</ele>
        <time>2023-04-11T13:10:37.000Z</time>
      </trkpt>
      <trkpt lat="45.83455" lon="4.71989">
        <ele>348.24423</ele>
        <time>2023-04-11T13:10:38.000Z</time>
      </trkpt>
      <trkpt lat="45.83457" lon="4.71982">
        <ele>348.07776</ele>
        <time>2023-04-11T13:10:39.000Z</time>
      </trkpt>
      <trkpt lat="45.83459" lon="4.71974">
        <ele>348.0524</ele>
        <time>2023-04-11T13:10:40.000Z</time>
      </trkpt>
      <trkpt lat="45.8346" lon="4.71966">
        <ele>348.0257</ele>
        <time>2023-04-11T13:10:41.000Z</time>
      </trkpt>
      <trkpt lat="45.83462" lon="4.71959">
        <ele>347.96448</ele>
        <time>2023-04-11T13:10:42.000Z</time>
      </trkpt>
      <trkpt lat="45.83464" lon="4.71951">
        <ele>347.9017</ele>
        <time>2023-04-11T13:10:43.000Z</time>
      </trkpt>
      <trkpt lat="45.83466" lon="4.71943">
        <ele>347.86676</ele>
        <time>2023-04-11T13:10:44.000Z</time>
      </trkpt>
      <trkpt lat="45.83467" lon="4.71936">
        <ele>347.86316</ele>
        <time>2023-04-11T13:10:45.000Z</time>
      </trkpt>
      <trkpt lat="45.83469" lon="4.71928">
        <ele>347.86551</ele>
        <time>2023-04-11T13:10:46.000Z</time>
      </trkpt>
      <trkpt lat="45.83472" lon="4.71921">
        <ele>347.82968</ele>
        <time>2023-04-11T13:10:47.000Z</time>
      </trkpt>
      <trkpt lat="45.83473" lon="4.71912">
        <ele>347.8201</ele>
        <time>2023-04-11T13:10:48.000Z</time>
      </trkpt>
      <trkpt lat="45.83476" lon="4.71903">
        <ele>347.72607</ele>
        <time>2023-04-11T13:10:49.000Z</time>
      </trkpt>
      <trkpt lat="45.83478" lon="4.71894">
        <ele>347.24933</ele>
        <time>2023-04-11T13:10:50.000Z</time>
      </trkpt>
      <trkpt lat="45.83478" lon="4.71885">
        <ele>346.75854</ele>
        <time>2023-04-11T13:10:51.000Z</time>
      </trkpt>
      <trkpt lat="45.83479" lon="4.71877">
        <ele>346.27499</ele>
        <time>2023-04-11T13:10:52.000Z</time>
      </trkpt>
      <trkpt lat="45.83476" lon="4.71867">
        <ele>345.69141</ele>
        <time>2023-04-11T13:10:53.000Z</time>
      </trkpt>
      <trkpt lat="45.83472" lon="4.71859">
        <ele>345.16812</ele>
        <time>2023-04-11T13:10:54.000Z</time>
      </trkpt>
      <trkpt lat="45.83468" lon="4.71851">
        <ele>344.64795</ele>
        <time>2023-04-11T13:10:55.000Z</time>
      </trkpt>
      <trkpt lat="45.83465" lon="4.71842">
        <ele>344.05875</ele>
        <time>2023-04-11T13:10:56.000Z</time>
      </trkpt>
      <trkpt lat="45.83461" lon="4.71832">
        <ele>343.40741</ele>
        <time>2023-04-11T13:10:57.000Z</time>
      </trkpt>
      <trkpt lat="45.83457" lon="4.71821">
        <ele>342.65033</ele>
        <time>2023-04-11T13:10:58.000Z</time>
      </trkpt>
      <trkpt lat="45.83453" lon="4.71811">
        <ele>342.42896</ele>
        <time>2023-04-11T13:10:59.000Z</time>
      </trkpt>
      <trkpt lat="45.83449" lon="4.71799">
        <ele>342.04376</ele>
        <time>2023-04-11T13:11:00.000Z</time>
      </trkpt>
      <trkpt lat="45.83445" lon="4.71787">
        <ele>341.44287</ele>
        <time>2023-04-11T13:11:01.000Z</time>
      </trkpt>
      <trkpt lat="45.83441" lon="4.71775">
        <ele>340.84601</ele>
        <time>2023-04-11T13:11:02.000Z</time>
      </trkpt>
      <trkpt lat="45.83437" lon="4.71763">
        <ele>340.25739</ele>
        <time>2023-04-11T13:11:03.000Z</time>
      </trkpt>
      <trkpt lat="45.83434" lon="4.71751">
        <ele>339.67227</ele>
        <time>2023-04-11T13:11:04.000Z</time>
      </trkpt>
      <trkpt lat="45.83432" lon="4.71739">
        <ele>339.06976</ele>
        <time>2023-04-11T13:11:05.000Z</time>
      </trkpt>
      <trkpt lat="45.83429" lon="4.71728">
        <ele>338.47198</ele>
        <time>2023-04-11T13:11:06.000Z</time>
      </trkpt>
      <trkpt lat="45.83427" lon="4.71717">
        <ele>337.88309</ele>
        <time>2023-04-11T13:11:07.000Z</time>
      </trkpt>
      <trkpt lat="45.83425" lon="4.71707">
        <ele>337.30646</ele>
        <time>2023-04-11T13:11:08.000Z</time>
      </trkpt>
      <trkpt lat="45.83423" lon="4.71699">
        <ele>336.81024</ele>
        <time>2023-04-11T13:11:09.000Z</time>
      </trkpt>
      <trkpt lat="45.83422" lon="4.71691">
        <ele>336.34634</ele>
        <time>2023-04-11T13:11:10.000Z</time>
      </trkpt>
      <trkpt lat="45.8342" lon="4.71684">
        <ele>335.91742</ele>
        <time>2023-04-11T13:11:11.000Z</time>
      </trkpt>
      <trkpt lat="45.83419" lon="4.71676">
        <ele>335.56531</ele>
        <time>2023-04-11T13:11:12.000Z</time>
      </trkpt>
      <trkpt lat="45.83417" lon="4.7167">
        <ele>335.31558</ele>
        <time>2023-04-11T13:11:13.000Z</time>
      </trkpt>
      <trkpt lat="45.83416" lon="4.71663">
        <ele>335.05035</ele>
        <time>2023-04-11T13:11:14.000Z</time>
      </trkpt>
      <trkpt lat="45.83414" lon="4.71655">
        <ele>334.82581</ele>
        <time>2023-04-11T13:11:15.000Z</time>
      </trkpt>
      <trkpt lat="45.83413" lon="4.71648">
        <ele>334.66739</ele>
        <time>2023-04-11T13:11:16.000Z</time>
      </trkpt>
      <trkpt lat="45.83412" lon="4.71642">
        <ele>334.58078</ele>
        <time>2023-04-11T13:11:17.000Z</time>
      </trkpt>
      <trkpt lat="45.8341" lon="4.71635">
        <ele>334.55817</ele>
        <time>2023-04-11T13:11:18.000Z</time>
      </trkpt>
      <trkpt lat="45.83409" lon="4.71629">
        <ele>334.57544</ele>
        <time>2023-04-11T13:11:19.000Z</time>
      </trkpt>
      <trkpt lat="45.83408" lon="4.71623">
        <ele>334.64578</ele>
        <time>2023-04-11T13:11:20.000Z</time>
      </trkpt>
      <trkpt lat="45.83406" lon="4.71617">
        <ele>334.94305</ele>
        <time>2023-04-11T13:11:21.000Z</time>
      </trkpt>
      <trkpt lat="45.83405" lon="4.7161">
        <ele>335.42227</ele>
        <time>2023-04-11T13:11:22.000Z</time>
      </trkpt>
      <trkpt lat="45.83404" lon="4.71604">
        <ele>335.90604</ele>
        <time>2023-04-11T13:11:23.000Z</time>
      </trkpt>
      <trkpt lat="45.83403" lon="4.71598">
        <ele>336.41049</ele>
        <time>2023-04-11T13:11:24.000Z</time>
      </trkpt>
      <trkpt lat="45.83401" lon="4.71592">
        <ele>336.93335</ele>
        <time>2023-04-11T13:11:25.000Z</time>
      </trkpt>
      <trkpt lat="45.83399" lon="4.71586">
        <ele>337.46027</ele>
        <time>2023-04-11T13:11:26.000Z</time>
      </trkpt>
      <trkpt lat="45.83396" lon="4.71582">
        <ele>338.37775</ele>
        <time>2023-04-11T13:11:27.000Z</time>
      </trkpt>
      <trkpt lat="45.83393" lon="4.71578">
        <ele>338.47394</ele>
        <time>2023-04-11T13:11:28.000Z</time>
      </trkpt>
      <trkpt lat="45.83389" lon="4.71577">
        <ele>338.5441</ele>
        <time>2023-04-11T13:11:29.000Z</time>
      </trkpt>
      <trkpt lat="45.83385" lon="4.71578">
        <ele>338.60803</ele>
        <time>2023-04-11T13:11:30.000Z</time>
      </trkpt>
      <trkpt lat="45.83382" lon="4.71581">
        <ele>338.65411</ele>
        <time>2023-04-11T13:11:31.000Z</time>
      </trkpt>
      <trkpt lat="45.83379" lon="4.71585">
        <ele>338.65875</ele>
        <time>2023-04-11T13:11:32.000Z</time>
      </trkpt>
      <trkpt lat="45.83377" lon="4.7159">
        <ele>338.66122</ele>
        <time>2023-04-11T13:11:33.000Z</time>
      </trkpt>
      <trkpt lat="45.83375" lon="4.71596">
        <ele>338.79303</ele>
        <time>2023-04-11T13:11:34.000Z</time>
      </trkpt>
      <trkpt lat="45.83373" lon="4.71602">
        <ele>339.43683</ele>
        <time>2023-04-11T13:11:35.000Z</time>
      </trkpt>
      <trkpt lat="45.83371" lon="4.71606">
        <ele>340.20053</ele>
        <time>2023-04-11T13:11:36.000Z</time>
      </trkpt>
      <trkpt lat="45.83369" lon="4.71611">
        <ele>340.97977</ele>
        <time>2023-04-11T13:11:37.000Z</time>
      </trkpt>
      <trkpt lat="45.83368" lon="4.71614">
        <ele>341.79071</ele>
        <time>2023-04-11T13:11:38.000Z</time>
      </trkpt>
      <trkpt lat="45.83366" lon="4.71618">
        <ele>342.69128</ele>
        <time>2023-04-11T13:11:39.000Z</time>
      </trkpt>
      <trkpt lat="45.83363" lon="4.71618">
        <ele>343.61111</ele>
        <time>2023-04-11T13:11:40.000Z</time>
      </trkpt>
      <trkpt lat="45.83361" lon="4.71617">
        <ele>344.02347</ele>
        <time>2023-04-11T13:11:41.000Z</time>
      </trkpt>
      <trkpt lat="45.8336" lon="4.71613">
        <ele>344.34717</ele>
        <time>2023-04-11T13:11:42.000Z</time>
      </trkpt>
      <trkpt lat="45.83361" lon="4.71608">
        <ele>344.68359</ele>
        <time>2023-04-11T13:11:43.000Z</time>
      </trkpt>
      <trkpt lat="45.83363" lon="4.71603">
        <ele>345.02252</ele>
        <time>2023-04-11T13:11:44.000Z</time>
      </trkpt>
      <trkpt lat="45.83365" lon="4.71598">
        <ele>345.33783</ele>
        <time>2023-04-11T13:11:45.000Z</time>
      </trkpt>
      <trkpt lat="45.83367" lon="4.71592">
        <ele>345.60547</ele>
        <time>2023-04-11T13:11:46.000Z</time>
      </trkpt>
      <trkpt lat="45.83368" lon="4.71587">
        <ele>345.48135</ele>
        <time>2023-04-11T13:11:47.000Z</time>
      </trkpt>
      <trkpt lat="45.8337" lon="4.71582">
        <ele>345.86557</ele>
        <time>2023-04-11T13:11:48.000Z</time>
      </trkpt>
      <trkpt lat="45.83371" lon="4.71576">
        <ele>346.24847</ele>
        <time>2023-04-11T13:11:49.000Z</time>
      </trkpt>
      <trkpt lat="45.83373" lon="4.71571">
        <ele>346.62265</ele>
        <time>2023-04-11T13:11:50.000Z</time>
      </trkpt>
      <trkpt lat="45.83376" lon="4.71565">
        <ele>347.07672</ele>
        <time>2023-04-11T13:11:51.000Z</time>
      </trkpt>
      <trkpt lat="45.83379" lon="4.71561">
        <ele>347.55084</ele>
        <time>2023-04-11T13:11:52.000Z</time>
      </trkpt>
      <trkpt lat="45.83384" lon="4.71557">
        <ele>347.77954</ele>
        <time>2023-04-11T13:11:53.000Z</time>
      </trkpt>
      <trkpt lat="45.83388" lon="4.71554">
        <ele>347.91489</ele>
        <time>2023-04-11T13:11:54.000Z</time>
      </trkpt>
      <trkpt lat="45.83392" lon="4.71554">
        <ele>347.50189</ele>
        <time>2023-04-11T13:11:55.000Z</time>
      </trkpt>
      <trkpt lat="45.83397" lon="4.71554">
        <ele>346.98007</ele>
        <time>2023-04-11T13:11:56.000Z</time>
      </trkpt>
      <trkpt lat="45.83401" lon="4.71556">
        <ele>346.42834</ele>
        <time>2023-04-11T13:11:57.000Z</time>
      </trkpt>
      <trkpt lat="45.83405" lon="4.71558">
        <ele>345.811</ele>
        <time>2023-04-11T13:11:58.000Z</time>
      </trkpt>
      <trkpt lat="45.8341" lon="4.71561">
        <ele>345.09036</ele>
        <time>2023-04-11T13:11:59.000Z</time>
      </trkpt>
      <trkpt lat="45.83413" lon="4.71566">
        <ele>344.3266</ele>
        <time>2023-04-11T13:12:00.000Z</time>
      </trkpt>
      <trkpt lat="45.83417" lon="4.7157">
        <ele>344.8118</ele>
        <time>2023-04-11T13:12:01.000Z</time>
      </trkpt>
      <trkpt lat="45.8342" lon="4.71573">
        <ele>345.23013</ele>
        <time>2023-04-11T13:12:02.000Z</time>
      </trkpt>
      <trkpt lat="45.83425" lon="4.71577">
        <ele>345.70114</ele>
        <time>2023-04-11T13:12:03.000Z</time>
      </trkpt>
      <trkpt lat="45.83428" lon="4.71581">
        <ele>346.20633</ele>
        <time>2023-04-11T13:12:04.000Z</time>
      </trkpt>
      <trkpt lat="45.83432" lon="4.71585">
        <ele>346.22119</ele>
        <time>2023-04-11T13:12:05.000Z</time>
      </trkpt>
      <trkpt lat="45.83435" lon="4.71588">
        <ele>346.36447</ele>
        <time>2023-04-11T13:12:06.000Z</time>
      </trkpt>
      <trkpt lat="45.83438" lon="4.7159">
        <ele>346.52496</ele>
        <time>2023-04-11T13:12:07.000Z</time>
      </trkpt>
      <trkpt lat="45.83443" lon="4.71588">
        <ele>346.95508</ele>
        <time>2023-04-11T13:12:08.000Z</time>
      </trkpt>
      <trkpt lat="45.83446" lon="4.71585">
        <ele>347.41357</ele>
        <time>2023-04-11T13:12:09.000Z</time>
      </trkpt>
      <trkpt lat="45.83447" lon="4.71578">
        <ele>347.86859</ele>
        <time>2023-04-11T13:12:10.000Z</time>
      </trkpt>
      <trkpt lat="45.83449" lon="4.71573">
        <ele>348.2099</ele>
        <time>2023-04-11T13:12:11.000Z</time>
      </trkpt>
      <trkpt lat="45.83449" lon="4.71567">
        <ele>348.55237</ele>
        <time>2023-04-11T13:12:12.000Z</time>
      </trkpt>
      <trkpt lat="45.83449" lon="4.71561">
        <ele>349.35544</ele>
        <time>2023-04-11T13:12:13.000Z</time>
      </trkpt>
      <trkpt lat="45.83449" lon="4.71555">
        <ele>350.26141</ele>
        <time>2023-04-11T13:12:14.000Z</time>
      </trkpt>
      <trkpt lat="45.8345" lon="4.7155">
        <ele>351.19153</ele>
        <time>2023-04-11T13:12:15.000Z</time>
      </trkpt>
      <trkpt lat="45.8345" lon="4.71545">
        <ele>351.65045</ele>
        <time>2023-04-11T13:12:16.000Z</time>
      </trkpt>
      <trkpt lat="45.8345" lon="4.7154">
        <ele>352.19345</ele>
        <time>2023-04-11T13:12:17.000Z</time>
      </trkpt>
      <trkpt lat="45.8345" lon="4.71535">
        <ele>352.74222</ele>
        <time>2023-04-11T13:12:18.000Z</time>
      </trkpt>
      <trkpt lat="45.8345" lon="4.7153">
        <ele>353.29959</ele>
        <time>2023-04-11T13:12:19.000Z</time>
      </trkpt>
      <trkpt lat="45.8345" lon="4.71525">
        <ele>353.86057</ele>
        <time>2023-04-11T13:12:20.000Z</time>
      </trkpt>
      <trkpt lat="45.8345" lon="4.71522">
        <ele>353.23956</ele>
        <time>2023-04-11T13:12:21.000Z</time>
      </trkpt>
      <trkpt lat="45.83452" lon="4.71518">
        <ele>352.63763</ele>
        <time>2023-04-11T13:12:23.000Z</time>
      </trkpt>
      <trkpt lat="45.83453" lon="4.71516">
        <ele>352.38751</ele>
        <time>2023-04-11T13:12:24.000Z</time>
      </trkpt>
      <trkpt lat="45.83453" lon="4.71513">
        <ele>352.07782</ele>
        <time>2023-04-11T13:12:25.000Z</time>
      </trkpt>
      <trkpt lat="45.83454" lon="4.7151">
        <ele>352.28821</ele>
        <time>2023-04-11T13:12:26.000Z</time>
      </trkpt>
      <trkpt lat="45.83454" lon="4.71508">
        <ele>352.40436</ele>
        <time>2023-04-11T13:12:27.000Z</time>
      </trkpt>
      <trkpt lat="45.83454" lon="4.71505">
        <ele>352.53137</ele>
        <time>2023-04-11T13:12:28.000Z</time>
      </trkpt>
      <trkpt lat="45.83454" lon="4.71502">
        <ele>352.89923</ele>
        <time>2023-04-11T13:12:29.000Z</time>
      </trkpt>
      <trkpt lat="45.83454" lon="4.71498">
        <ele>353.28223</ele>
        <time>2023-04-11T13:12:31.000Z</time>
      </trkpt>
      <trkpt lat="45.83454" lon="4.71495">
        <ele>353.68011</ele>
        <time>2023-04-11T13:12:32.000Z</time>
      </trkpt>
      <trkpt lat="45.83455" lon="4.71492">
        <ele>354.24396</ele>
        <time>2023-04-11T13:12:33.000Z</time>
      </trkpt>
      <trkpt lat="45.83457" lon="4.71491">
        <ele>354.38022</ele>
        <time>2023-04-11T13:12:34.000Z</time>
      </trkpt>
      <trkpt lat="45.8346" lon="4.71491">
        <ele>354.39951</ele>
        <time>2023-04-11T13:12:35.000Z</time>
      </trkpt>
      <trkpt lat="45.83462" lon="4.71493">
        <ele>354.26273</ele>
        <time>2023-04-11T13:12:36.000Z</time>
      </trkpt>
      <trkpt lat="45.83465" lon="4.71494">
        <ele>354.11987</ele>
        <time>2023-04-11T13:12:37.000Z</time>
      </trkpt>
      <trkpt lat="45.83468" lon="4.71495">
        <ele>354.44196</ele>
        <time>2023-04-11T13:12:38.000Z</time>
      </trkpt>
      <trkpt lat="45.83471" lon="4.71496">
        <ele>354.67236</ele>
        <time>2023-04-11T13:12:39.000Z</time>
      </trkpt>
      <trkpt lat="45.83473" lon="4.71496">
        <ele>355.17523</ele>
        <time>2023-04-11T13:12:40.000Z</time>
      </trkpt>
      <trkpt lat="45.83475" lon="4.71497">
        <ele>355.72931</ele>
        <time>2023-04-11T13:12:41.000Z</time>
      </trkpt>
      <trkpt lat="45.83477" lon="4.71497">
        <ele>356.3042</ele>
        <time>2023-04-11T13:12:42.000Z</time>
      </trkpt>
      <trkpt lat="45.83478" lon="4.71499">
        <ele>356.90363</ele>
        <time>2023-04-11T13:12:43.000Z</time>
      </trkpt>
      <trkpt lat="45.83479" lon="4.71501">
        <ele>357.52914</ele>
        <time>2023-04-11T13:12:45.000Z</time>
      </trkpt>
      <trkpt lat="45.83477" lon="4.71502">
        <ele>357.80899</ele>
        <time>2023-04-11T13:12:47.000Z</time>
      </trkpt>
      <trkpt lat="45.83475" lon="4.71502">
        <ele>358.11847</ele>
        <time>2023-04-11T13:12:48.000Z</time>
      </trkpt>
      <trkpt lat="45.83472" lon="4.71502">
        <ele>358.37506</ele>
        <time>2023-04-11T13:12:49.000Z</time>
      </trkpt>
      <trkpt lat="45.8347" lon="4.71502">
        <ele>358.64676</ele>
        <time>2023-04-11T13:12:50.000Z</time>
      </trkpt>
      <trkpt lat="45.83468" lon="4.71503">
        <ele>358.85004</ele>
        <time>2023-04-11T13:12:51.000Z</time>
      </trkpt>
      <trkpt lat="45.83466" lon="4.71507">
        <ele>359.10504</ele>
        <time>2023-04-11T13:12:53.000Z</time>
      </trkpt>
      <trkpt lat="45.83466" lon="4.7151">
        <ele>359.42239</ele>
        <time>2023-04-11T13:12:54.000Z</time>
      </trkpt>
      <trkpt lat="45.83467" lon="4.71512">
        <ele>359.30255</ele>
        <time>2023-04-11T13:12:55.000Z</time>
      </trkpt>
      <trkpt lat="45.83469" lon="4.71514">
        <ele>359.10358</ele>
        <time>2023-04-11T13:12:57.000Z</time>
      </trkpt>
      <trkpt lat="45.83472" lon="4.71513">
        <ele>359.27655</ele>
        <time>2023-04-11T13:13:00.000Z</time>
      </trkpt>
      <trkpt lat="45.83472" lon="4.71513">
        <ele>359.27655</ele>
        <time>2023-04-11T13:13:00.000Z</time>
      </trkpt>
      <trkpt lat="45.83471" lon="4.7151">
        <ele>359.64166</ele>
        <time>2023-04-11T13:35:58.000Z</time>
      </trkpt>
      <trkpt lat="45.83471" lon="4.7151">
        <ele>359.64166</ele>
        <time>2023-04-11T13:35:58.000Z</time>
      </trkpt>
      <trkpt lat="45.83472" lon="4.71512">
        <ele>359.61884</ele>
        <time>2023-04-11T13:36:09.000Z</time>
      </trkpt>
      <trkpt lat="45.83472" lon="4.71515">
        <ele>359.60977</ele>
        <time>2023-04-11T13:36:11.000Z</time>
      </trkpt>
      <trkpt lat="45.8347" lon="4.71516">
        <ele>359.59766</ele>
        <time>2023-04-11T13:36:13.000Z</time>
      </trkpt>
      <trkpt lat="45.83467" lon="4.71516">
        <ele>359.60355</ele>
        <time>2023-04-11T13:36:15.000Z</time>
      </trkpt>
      <trkpt lat="45.83465" lon="4.71517">
        <ele>359.34848</ele>
        <time>2023-04-11T13:36:16.000Z</time>
      </trkpt>
      <trkpt lat="45.83463" lon="4.71518">
        <ele>359.03613</ele>
        <time>2023-04-11T13:36:17.000Z</time>
      </trkpt>
      <trkpt lat="45.83461" lon="4.71518">
        <ele>358.7077</ele>
        <time>2023-04-11T13:36:18.000Z</time>
      </trkpt>
      <trkpt lat="45.83458" lon="4.71518">
        <ele>358.74817</ele>
        <time>2023-04-11T13:36:19.000Z</time>
      </trkpt>
      <trkpt lat="45.83456" lon="4.71516">
        <ele>358.75204</ele>
        <time>2023-04-11T13:36:20.000Z</time>
      </trkpt>
      <trkpt lat="45.83455" lon="4.71513">
        <ele>358.69592</ele>
        <time>2023-04-11T13:36:21.000Z</time>
      </trkpt>
      <trkpt lat="45.83455" lon="4.71509">
        <ele>358.74405</ele>
        <time>2023-04-11T13:36:22.000Z</time>
      </trkpt>
      <trkpt lat="45.83456" lon="4.71506">
        <ele>358.81528</ele>
        <time>2023-04-11T13:36:23.000Z</time>
      </trkpt>
      <trkpt lat="45.83457" lon="4.71503">
        <ele>358.89542</ele>
        <time>2023-04-11T13:36:24.000Z</time>
      </trkpt>
      <trkpt lat="45.83458" lon="4.71499">
        <ele>358.99756</ele>
        <time>2023-04-11T13:36:25.000Z</time>
      </trkpt>
      <trkpt lat="45.83459" lon="4.71495">
        <ele>358.84003</ele>
        <time>2023-04-11T13:36:26.000Z</time>
      </trkpt>
      <trkpt lat="45.83459" lon="4.71492">
        <ele>358.56702</ele>
        <time>2023-04-11T13:36:27.000Z</time>
      </trkpt>
      <trkpt lat="45.83459" lon="4.71488">
        <ele>358.73026</ele>
        <time>2023-04-11T13:36:28.000Z</time>
      </trkpt>
      <trkpt lat="45.83458" lon="4.71485">
        <ele>358.82675</ele>
        <time>2023-04-11T13:36:29.000Z</time>
      </trkpt>
      <trkpt lat="45.83456" lon="4.71482">
        <ele>358.97919</ele>
        <time>2023-04-11T13:36:30.000Z</time>
      </trkpt>
      <trkpt lat="45.83453" lon="4.71479">
        <ele>358.83511</ele>
        <time>2023-04-11T13:36:31.000Z</time>
      </trkpt>
      <trkpt lat="45.83451" lon="4.71478">
        <ele>359.24036</ele>
        <time>2023-04-11T13:36:32.000Z</time>
      </trkpt>
      <trkpt lat="45.83448" lon="4.71476">
        <ele>359.61591</ele>
        <time>2023-04-11T13:36:33.000Z</time>
      </trkpt>
      <trkpt lat="45.83444" lon="4.71475">
        <ele>359.97589</ele>
        <time>2023-04-11T13:36:34.000Z</time>
      </trkpt>
      <trkpt lat="45.83441" lon="4.71473">
        <ele>360.3367</ele>
        <time>2023-04-11T13:36:35.000Z</time>
      </trkpt>
      <trkpt lat="45.83437" lon="4.71471">
        <ele>360.76407</ele>
        <time>2023-04-11T13:36:36.000Z</time>
      </trkpt>
      <trkpt lat="45.83434" lon="4.71468">
        <ele>361.28079</ele>
        <time>2023-04-11T13:36:37.000Z</time>
      </trkpt>
      <trkpt lat="45.8343" lon="4.71466">
        <ele>361.39777</ele>
        <time>2023-04-11T13:36:38.000Z</time>
      </trkpt>
      <trkpt lat="45.83426" lon="4.71463">
        <ele>361.56311</ele>
        <time>2023-04-11T13:36:39.000Z</time>
      </trkpt>
      <trkpt lat="45.83423" lon="4.71461">
        <ele>361.70364</ele>
        <time>2023-04-11T13:36:40.000Z</time>
      </trkpt>
      <trkpt lat="45.83419" lon="4.71459">
        <ele>361.82135</ele>
        <time>2023-04-11T13:36:41.000Z</time>
      </trkpt>
      <trkpt lat="45.83415" lon="4.71457">
        <ele>361.82849</ele>
        <time>2023-04-11T13:36:42.000Z</time>
      </trkpt>
      <trkpt lat="45.83411" lon="4.71454">
        <ele>361.82025</ele>
        <time>2023-04-11T13:36:43.000Z</time>
      </trkpt>
      <trkpt lat="45.83408" lon="4.7145">
        <ele>361.77402</ele>
        <time>2023-04-11T13:36:44.000Z</time>
      </trkpt>
      <trkpt lat="45.83405" lon="4.71447">
        <ele>361.75381</ele>
        <time>2023-04-11T13:36:45.000Z</time>
      </trkpt>
      <trkpt lat="45.83403" lon="4.71442">
        <ele>361.70767</ele>
        <time>2023-04-11T13:36:46.000Z</time>
      </trkpt>
      <trkpt lat="45.83401" lon="4.71438">
        <ele>361.6507</ele>
        <time>2023-04-11T13:36:47.000Z</time>
      </trkpt>
      <trkpt lat="45.83399" lon="4.71433">
        <ele>361.56213</ele>
        <time>2023-04-11T13:36:48.000Z</time>
      </trkpt>
      <trkpt lat="45.83396" lon="4.71428">
        <ele>361.49811</ele>
        <time>2023-04-11T13:36:49.000Z</time>
      </trkpt>
      <trkpt lat="45.83394" lon="4.71423">
        <ele>361.39493</ele>
        <time>2023-04-11T13:36:50.000Z</time>
      </trkpt>
      <trkpt lat="45.83392" lon="4.71418">
        <ele>361.27335</ele>
        <time>2023-04-11T13:36:51.000Z</time>
      </trkpt>
      <trkpt lat="45.8339" lon="4.71414">
        <ele>361.00293</ele>
        <time>2023-04-11T13:36:52.000Z</time>
      </trkpt>
      <trkpt lat="45.83388" lon="4.7141">
        <ele>360.89532</ele>
        <time>2023-04-11T13:36:53.000Z</time>
      </trkpt>
      <trkpt lat="45.83385" lon="4.71405">
        <ele>360.79419</ele>
        <time>2023-04-11T13:36:54.000Z</time>
      </trkpt>
      <trkpt lat="45.83383" lon="4.71401">
        <ele>360.70676</ele>
        <time>2023-04-11T13:36:55.000Z</time>
      </trkpt>
      <trkpt lat="45.8338" lon="4.71398">
        <ele>360.64886</ele>
        <time>2023-04-11T13:36:56.000Z</time>
      </trkpt>
      <trkpt lat="45.83378" lon="4.71394">
        <ele>360.5094</ele>
        <time>2023-04-11T13:36:57.000Z</time>
      </trkpt>
      <trkpt lat="45.83376" lon="4.71389">
        <ele>360.86719</ele>
        <time>2023-04-11T13:36:58.000Z</time>
      </trkpt>
      <trkpt lat="45.83373" lon="4.71385">
        <ele>360.79529</ele>
        <time>2023-04-11T13:36:59.000Z</time>
      </trkpt>
      <trkpt lat="45.83371" lon="4.71381">
        <ele>360.75455</ele>
        <time>2023-04-11T13:37:00.000Z</time>
      </trkpt>
      <trkpt lat="45.83368" lon="4.71377">
        <ele>360.72977</ele>
        <time>2023-04-11T13:37:01.000Z</time>
      </trkpt>
      <trkpt lat="45.83366" lon="4.71373">
        <ele>360.70926</ele>
        <time>2023-04-11T13:37:02.000Z</time>
      </trkpt>
      <trkpt lat="45.83363" lon="4.71369">
        <ele>360.69009</ele>
        <time>2023-04-11T13:37:03.000Z</time>
      </trkpt>
      <trkpt lat="45.8336" lon="4.71364">
        <ele>360.69717</ele>
        <time>2023-04-11T13:37:04.000Z</time>
      </trkpt>
      <trkpt lat="45.83357" lon="4.7136">
        <ele>360.69235</ele>
        <time>2023-04-11T13:37:05.000Z</time>
      </trkpt>
      <trkpt lat="45.83354" lon="4.71356">
        <ele>360.72549</ele>
        <time>2023-04-11T13:37:06.000Z</time>
      </trkpt>
      <trkpt lat="45.83352" lon="4.71351">
        <ele>360.77191</ele>
        <time>2023-04-11T13:37:07.000Z</time>
      </trkpt>
      <trkpt lat="45.83349" lon="4.71347">
        <ele>360.85364</ele>
        <time>2023-04-11T13:37:08.000Z</time>
      </trkpt>
      <trkpt lat="45.83346" lon="4.71342">
        <ele>361.07339</ele>
        <time>2023-04-11T13:37:09.000Z</time>
      </trkpt>
      <trkpt lat="45.83344" lon="4.71338">
        <ele>361.41437</ele>
        <time>2023-04-11T13:37:10.000Z</time>
      </trkpt>
      <trkpt lat="45.83341" lon="4.71333">
        <ele>361.39401</ele>
        <time>2023-04-11T13:37:11.000Z</time>
      </trkpt>
      <trkpt lat="45.83338" lon="4.71329">
        <ele>361.44705</ele>
        <time>2023-04-11T13:37:12.000Z</time>
      </trkpt>
      <trkpt lat="45.83335" lon="4.71324">
        <ele>361.3262</ele>
        <time>2023-04-11T13:37:13.000Z</time>
      </trkpt>
      <trkpt lat="45.83331" lon="4.7132">
        <ele>361.20392</ele>
        <time>2023-04-11T13:37:14.000Z</time>
      </trkpt>
      <trkpt lat="45.83328" lon="4.71315">
        <ele>361.05411</ele>
        <time>2023-04-11T13:37:15.000Z</time>
      </trkpt>
      <trkpt lat="45.83325" lon="4.7131">
        <ele>360.80524</ele>
        <time>2023-04-11T13:37:16.000Z</time>
      </trkpt>
      <trkpt lat="45.83321" lon="4.71306">
        <ele>360.54694</ele>
        <time>2023-04-11T13:37:17.000Z</time>
      </trkpt>
      <trkpt lat="45.83318" lon="4.713">
        <ele>360.20609</ele>
        <time>2023-04-11T13:37:18.000Z</time>
      </trkpt>
      <trkpt lat="45.83315" lon="4.71295">
        <ele>360.26996</ele>
        <time>2023-04-11T13:37:19.000Z</time>
      </trkpt>
      <trkpt lat="45.83311" lon="4.7129">
        <ele>360.30789</ele>
        <time>2023-04-11T13:37:20.000Z</time>
      </trkpt>
      <trkpt lat="45.83309" lon="4.71285">
        <ele>360.35175</ele>
        <time>2023-04-11T13:37:21.000Z</time>
      </trkpt>
      <trkpt lat="45.83306" lon="4.71279">
        <ele>360.37704</ele>
        <time>2023-04-11T13:37:22.000Z</time>
      </trkpt>
      <trkpt lat="45.83304" lon="4.71273">
        <ele>360.4375</ele>
        <time>2023-04-11T13:37:23.000Z</time>
      </trkpt>
      <trkpt lat="45.83302" lon="4.71267">
        <ele>360.51343</ele>
        <time>2023-04-11T13:37:24.000Z</time>
      </trkpt>
      <trkpt lat="45.833" lon="4.71261">
        <ele>360.56354</ele>
        <time>2023-04-11T13:37:25.000Z</time>
      </trkpt>
      <trkpt lat="45.83299" lon="4.71255">
        <ele>360.60297</ele>
        <time>2023-04-11T13:37:26.000Z</time>
      </trkpt>
      <trkpt lat="45.83297" lon="4.71249">
        <ele>360.85556</ele>
        <time>2023-04-11T13:37:27.000Z</time>
      </trkpt>
      <trkpt lat="45.83296" lon="4.71243">
        <ele>361.21674</ele>
        <time>2023-04-11T13:37:28.000Z</time>
      </trkpt>
      <trkpt lat="45.83294" lon="4.71237">
        <ele>361.06891</ele>
        <time>2023-04-11T13:37:29.000Z</time>
      </trkpt>
      <trkpt lat="45.83293" lon="4.71231">
        <ele>360.88348</ele>
        <time>2023-04-11T13:37:30.000Z</time>
      </trkpt>
      <trkpt lat="45.83292" lon="4.71225">
        <ele>361.07074</ele>
        <time>2023-04-11T13:37:31.000Z</time>
      </trkpt>
      <trkpt lat="45.83292" lon="4.71218">
        <ele>361.17868</ele>
        <time>2023-04-11T13:37:32.000Z</time>
      </trkpt>
      <trkpt lat="45.83291" lon="4.71212">
        <ele>361.29739</ele>
        <time>2023-04-11T13:37:33.000Z</time>
      </trkpt>
      <trkpt lat="45.8329" lon="4.71206">
        <ele>360.9942</ele>
        <time>2023-04-11T13:37:34.000Z</time>
      </trkpt>
      <trkpt lat="45.83289" lon="4.712">
        <ele>360.69556</ele>
        <time>2023-04-11T13:37:35.000Z</time>
      </trkpt>
      <trkpt lat="45.83287" lon="4.71193">
        <ele>360.40021</ele>
        <time>2023-04-11T13:37:36.000Z</time>
      </trkpt>
      <trkpt lat="45.83287" lon="4.71187">
        <ele>360.08325</ele>
        <time>2023-04-11T13:37:37.000Z</time>
      </trkpt>
      <trkpt lat="45.83286" lon="4.7118">
        <ele>359.76495</ele>
        <time>2023-04-11T13:37:38.000Z</time>
      </trkpt>
      <trkpt lat="45.83287" lon="4.71175">
        <ele>359.44391</ele>
        <time>2023-04-11T13:37:39.000Z</time>
      </trkpt>
      <trkpt lat="45.83286" lon="4.71169">
        <ele>359.18658</ele>
        <time>2023-04-11T13:37:40.000Z</time>
      </trkpt>
      <trkpt lat="45.83286" lon="4.71163">
        <ele>358.91901</ele>
        <time>2023-04-11T13:37:41.000Z</time>
      </trkpt>
      <trkpt lat="45.83285" lon="4.71157">
        <ele>358.64825</ele>
        <time>2023-04-11T13:37:42.000Z</time>
      </trkpt>
      <trkpt lat="45.83284" lon="4.71151">
        <ele>358.30646</ele>
        <time>2023-04-11T13:37:43.000Z</time>
      </trkpt>
      <trkpt lat="45.83284" lon="4.71145">
        <ele>357.96793</ele>
        <time>2023-04-11T13:37:44.000Z</time>
      </trkpt>
      <trkpt lat="45.83283" lon="4.71139">
        <ele>357.66214</ele>
        <time>2023-04-11T13:37:45.000Z</time>
      </trkpt>
      <trkpt lat="45.83283" lon="4.71133">
        <ele>357.36121</ele>
        <time>2023-04-11T13:37:46.000Z</time>
      </trkpt>
      <trkpt lat="45.83282" lon="4.71128">
        <ele>356.88416</ele>
        <time>2023-04-11T13:37:47.000Z</time>
      </trkpt>
      <trkpt lat="45.83282" lon="4.71122">
        <ele>356.28876</ele>
        <time>2023-04-11T13:37:48.000Z</time>
      </trkpt>
      <trkpt lat="45.83281" lon="4.71116">
        <ele>356.0632</ele>
        <time>2023-04-11T13:37:49.000Z</time>
      </trkpt>
      <trkpt lat="45.83281" lon="4.7111">
        <ele>355.80524</ele>
        <time>2023-04-11T13:37:50.000Z</time>
      </trkpt>
      <trkpt lat="45.83281" lon="4.71103">
        <ele>355.57639</ele>
        <time>2023-04-11T13:37:51.000Z</time>
      </trkpt>
      <trkpt lat="45.83282" lon="4.71096">
        <ele>355.3725</ele>
        <time>2023-04-11T13:37:52.000Z</time>
      </trkpt>
      <trkpt lat="45.83282" lon="4.71091">
        <ele>355.18555</ele>
        <time>2023-04-11T13:37:53.000Z</time>
      </trkpt>
      <trkpt lat="45.83283" lon="4.71084">
        <ele>355.4046</ele>
        <time>2023-04-11T13:37:54.000Z</time>
      </trkpt>
      <trkpt lat="45.83285" lon="4.71078">
        <ele>355.61929</ele>
        <time>2023-04-11T13:37:55.000Z</time>
      </trkpt>
      <trkpt lat="45.83286" lon="4.71073">
        <ele>355.83307</ele>
        <time>2023-04-11T13:37:56.000Z</time>
      </trkpt>
      <trkpt lat="45.83288" lon="4.71067">
        <ele>356.05817</ele>
        <time>2023-04-11T13:37:57.000Z</time>
      </trkpt>
      <trkpt lat="45.8329" lon="4.71062">
        <ele>356.93082</ele>
        <time>2023-04-11T13:37:58.000Z</time>
      </trkpt>
      <trkpt lat="45.83292" lon="4.71056">
        <ele>357.56396</ele>
        <time>2023-04-11T13:37:59.000Z</time>
      </trkpt>
      <trkpt lat="45.83294" lon="4.7105">
        <ele>358.12424</ele>
        <time>2023-04-11T13:38:00.000Z</time>
      </trkpt>
      <trkpt lat="45.83295" lon="4.71045">
        <ele>358.68475</ele>
        <time>2023-04-11T13:38:01.000Z</time>
      </trkpt>
      <trkpt lat="45.83297" lon="4.7104">
        <ele>359.24152</ele>
        <time>2023-04-11T13:38:02.000Z</time>
      </trkpt>
      <trkpt lat="45.83299" lon="4.71034">
        <ele>359.85104</ele>
        <time>2023-04-11T13:38:03.000Z</time>
      </trkpt>
      <trkpt lat="45.83301" lon="4.71029">
        <ele>360.43823</ele>
        <time>2023-04-11T13:38:04.000Z</time>
      </trkpt>
      <trkpt lat="45.83303" lon="4.71023">
        <ele>361.01721</ele>
        <time>2023-04-11T13:38:05.000Z</time>
      </trkpt>
      <trkpt lat="45.83305" lon="4.71018">
        <ele>361.57373</ele>
        <time>2023-04-11T13:38:06.000Z</time>
      </trkpt>
      <trkpt lat="45.83306" lon="4.71012">
        <ele>362.12949</ele>
        <time>2023-04-11T13:38:07.000Z</time>
      </trkpt>
      <trkpt lat="45.83308" lon="4.71006">
        <ele>362.67831</ele>
        <time>2023-04-11T13:38:08.000Z</time>
      </trkpt>
      <trkpt lat="45.83309" lon="4.71">
        <ele>363.2204</ele>
        <time>2023-04-11T13:38:09.000Z</time>
      </trkpt>
      <trkpt lat="45.83311" lon="4.70995">
        <ele>363.7269</ele>
        <time>2023-04-11T13:38:10.000Z</time>
      </trkpt>
      <trkpt lat="45.83312" lon="4.7099">
        <ele>364.2193</ele>
        <time>2023-04-11T13:38:11.000Z</time>
      </trkpt>
      <trkpt lat="45.83313" lon="4.70984">
        <ele>364.69366</ele>
        <time>2023-04-11T13:38:12.000Z</time>
      </trkpt>
      <trkpt lat="45.83315" lon="4.70979">
        <ele>365.14899</ele>
        <time>2023-04-11T13:38:13.000Z</time>
      </trkpt>
      <trkpt lat="45.83316" lon="4.70974">
        <ele>365.60913</ele>
        <time>2023-04-11T13:38:14.000Z</time>
      </trkpt>
      <trkpt lat="45.83317" lon="4.70969">
        <ele>366.20938</ele>
        <time>2023-04-11T13:38:15.000Z</time>
      </trkpt>
      <trkpt lat="45.83319" lon="4.70964">
        <ele>366.85742</ele>
        <time>2023-04-11T13:38:16.000Z</time>
      </trkpt>
      <trkpt lat="45.8332" lon="4.70958">
        <ele>367.53995</ele>
        <time>2023-04-11T13:38:17.000Z</time>
      </trkpt>
      <trkpt lat="45.83321" lon="4.70953">
        <ele>367.59479</ele>
        <time>2023-04-11T13:38:18.000Z</time>
      </trkpt>
      <trkpt lat="45.83322" lon="4.70947">
        <ele>367.62625</ele>
        <time>2023-04-11T13:38:19.000Z</time>
      </trkpt>
    </trkseg>
  </trk>
</gpx>